<?xml version="1.0" encoding="UTF-8" standalone="no" ?>
<gpx xmlns="http://www.topografix.com/GPX/1/1" xmlns:xsi="http://www.w3.org/2001/XMLSchema-instance" xsi:schemaLocation="http://www.topografix.com/GPX/1/1 http://www.topografix.com/GPX/1/1/gpx.xsd" version="1.1" creator="VisuGPX - https://www.visugpx.com">
  <metadata>
    <name>raid vtt ardeche 2013</name>
    <desc><![CDATA[trace du jour 4]]></desc>
  </metadata>
  <trk>
    <name><![CDATA[J4 trace ardeche]]></name>
    <trkseg>
      <trkpt lat="44.63803" lon="4.05053">
        <ele>1227.26</ele>
        <time>2013-08-27T07:29:01Z</time>
      </trkpt>
      <trkpt lat="44.63803" lon="4.05053">
        <ele>1226.78</ele>
        <time>2013-08-27T07:29:31Z</time>
      </trkpt>
      <trkpt lat="44.63803" lon="4.05053">
        <ele>1228.22</ele>
        <time>2013-08-27T07:29:45Z</time>
      </trkpt>
      <trkpt lat="44.63803" lon="4.05053">
        <ele>1227.74</ele>
        <time>2013-08-27T07:29:54Z</time>
      </trkpt>
      <trkpt lat="44.63803" lon="4.05052">
        <ele>1226.3</ele>
        <time>2013-08-27T07:30:28Z</time>
      </trkpt>
      <trkpt lat="44.63803" lon="4.05052">
        <ele>1226.78</ele>
        <time>2013-08-27T07:30:58Z</time>
      </trkpt>
      <trkpt lat="44.63803" lon="4.05052">
        <ele>1227.26</ele>
        <time>2013-08-27T07:31:29Z</time>
      </trkpt>
      <trkpt lat="44.63803" lon="4.05052">
        <ele>1227.74</ele>
        <time>2013-08-27T07:31:58Z</time>
      </trkpt>
      <trkpt lat="44.63803" lon="4.05052">
        <ele>1227.26</ele>
        <time>2013-08-27T07:32:24Z</time>
      </trkpt>
      <trkpt lat="44.63803" lon="4.05052">
        <ele>1226.78</ele>
        <time>2013-08-27T07:32:53Z</time>
      </trkpt>
      <trkpt lat="44.63803" lon="4.05052">
        <ele>1227.26</ele>
        <time>2013-08-27T07:33:21Z</time>
      </trkpt>
      <trkpt lat="44.63803" lon="4.05051">
        <ele>1226.78</ele>
        <time>2013-08-27T07:33:51Z</time>
      </trkpt>
      <trkpt lat="44.63803" lon="4.05051">
        <ele>1226.78</ele>
        <time>2013-08-27T07:34:23Z</time>
      </trkpt>
      <trkpt lat="44.63803" lon="4.05051">
        <ele>1227.26</ele>
        <time>2013-08-27T07:34:49Z</time>
      </trkpt>
      <trkpt lat="44.63803" lon="4.05051">
        <ele>1226.78</ele>
        <time>2013-08-27T07:35:19Z</time>
      </trkpt>
      <trkpt lat="44.63803" lon="4.05051">
        <ele>1227.74</ele>
        <time>2013-08-27T07:35:51Z</time>
      </trkpt>
      <trkpt lat="44.63803" lon="4.05051">
        <ele>1227.74</ele>
        <time>2013-08-27T07:36:21Z</time>
      </trkpt>
      <trkpt lat="44.63803" lon="4.05051">
        <ele>1226.78</ele>
        <time>2013-08-27T07:36:55Z</time>
      </trkpt>
      <trkpt lat="44.63803" lon="4.0505">
        <ele>1227.26</ele>
        <time>2013-08-27T07:37:28Z</time>
      </trkpt>
      <trkpt lat="44.63803" lon="4.0505">
        <ele>1227.26</ele>
        <time>2013-08-27T07:38:01Z</time>
      </trkpt>
      <trkpt lat="44.63803" lon="4.0505">
        <ele>1227.26</ele>
        <time>2013-08-27T07:38:38Z</time>
      </trkpt>
      <trkpt lat="44.63803" lon="4.0505">
        <ele>1227.74</ele>
        <time>2013-08-27T07:39:10Z</time>
      </trkpt>
      <trkpt lat="44.63804" lon="4.0505">
        <ele>1227.26</ele>
        <time>2013-08-27T07:39:16Z</time>
      </trkpt>
      <trkpt lat="44.63813" lon="4.05057">
        <ele>1226.3</ele>
        <time>2013-08-27T07:39:22Z</time>
      </trkpt>
      <trkpt lat="44.63826" lon="4.05056">
        <ele>1225.34</ele>
        <time>2013-08-27T07:39:26Z</time>
      </trkpt>
      <trkpt lat="44.63847" lon="4.05071">
        <ele>1226.3</ele>
        <time>2013-08-27T07:39:34Z</time>
      </trkpt>
      <trkpt lat="44.63868" lon="4.05075">
        <ele>1227.26</ele>
        <time>2013-08-27T07:39:49Z</time>
      </trkpt>
      <trkpt lat="44.63874" lon="4.05072">
        <ele>1228.22</ele>
        <time>2013-08-27T07:39:54Z</time>
      </trkpt>
      <trkpt lat="44.63882" lon="4.05067">
        <ele>1230.14</ele>
        <time>2013-08-27T07:40:01Z</time>
      </trkpt>
      <trkpt lat="44.63885" lon="4.05067">
        <ele>1229.66</ele>
        <time>2013-08-27T07:40:03Z</time>
      </trkpt>
      <trkpt lat="44.6389" lon="4.05068">
        <ele>1231.11</ele>
        <time>2013-08-27T07:40:13Z</time>
      </trkpt>
      <trkpt lat="44.63896" lon="4.05075">
        <ele>1232.55</ele>
        <time>2013-08-27T07:40:23Z</time>
      </trkpt>
      <trkpt lat="44.6391" lon="4.05085">
        <ele>1234.47</ele>
        <time>2013-08-27T07:40:40Z</time>
      </trkpt>
      <trkpt lat="44.63921" lon="4.05088">
        <ele>1236.87</ele>
        <time>2013-08-27T07:40:56Z</time>
      </trkpt>
      <trkpt lat="44.63932" lon="4.05089">
        <ele>1239.28</ele>
        <time>2013-08-27T07:41:12Z</time>
      </trkpt>
      <trkpt lat="44.63945" lon="4.05091">
        <ele>1242.16</ele>
        <time>2013-08-27T07:41:31Z</time>
      </trkpt>
      <trkpt lat="44.63953" lon="4.05095">
        <ele>1244.08</ele>
        <time>2013-08-27T07:41:46Z</time>
      </trkpt>
      <trkpt lat="44.6396" lon="4.051">
        <ele>1246.01</ele>
        <time>2013-08-27T07:41:59Z</time>
      </trkpt>
      <trkpt lat="44.63968" lon="4.05102">
        <ele>1248.41</ele>
        <time>2013-08-27T07:42:13Z</time>
      </trkpt>
      <trkpt lat="44.63973" lon="4.05095">
        <ele>1248.41</ele>
        <time>2013-08-27T07:42:25Z</time>
      </trkpt>
      <trkpt lat="44.63976" lon="4.05092">
        <ele>1247.93</ele>
        <time>2013-08-27T07:42:35Z</time>
      </trkpt>
      <trkpt lat="44.63984" lon="4.05081">
        <ele>1250.33</ele>
        <time>2013-08-27T07:42:49Z</time>
      </trkpt>
      <trkpt lat="44.6399" lon="4.05078">
        <ele>1250.81</ele>
        <time>2013-08-27T07:43:01Z</time>
      </trkpt>
      <trkpt lat="44.64" lon="4.05072">
        <ele>1251.77</ele>
        <time>2013-08-27T07:43:09Z</time>
      </trkpt>
      <trkpt lat="44.64006" lon="4.0507">
        <ele>1253.22</ele>
        <time>2013-08-27T07:43:14Z</time>
      </trkpt>
      <trkpt lat="44.64017" lon="4.05066">
        <ele>1254.66</ele>
        <time>2013-08-27T07:43:24Z</time>
      </trkpt>
      <trkpt lat="44.64022" lon="4.05063">
        <ele>1256.1</ele>
        <time>2013-08-27T07:43:28Z</time>
      </trkpt>
      <trkpt lat="44.64026" lon="4.05061">
        <ele>1256.1</ele>
        <time>2013-08-27T07:43:31Z</time>
      </trkpt>
      <trkpt lat="44.64038" lon="4.05043">
        <ele>1258.02</ele>
        <time>2013-08-27T07:43:44Z</time>
      </trkpt>
      <trkpt lat="44.64047" lon="4.05032">
        <ele>1259.46</ele>
        <time>2013-08-27T07:43:53Z</time>
      </trkpt>
      <trkpt lat="44.64067" lon="4.05015">
        <ele>1260.91</ele>
        <time>2013-08-27T07:44:10Z</time>
      </trkpt>
      <trkpt lat="44.64075" lon="4.04994">
        <ele>1261.87</ele>
        <time>2013-08-27T07:44:22Z</time>
      </trkpt>
      <trkpt lat="44.64077" lon="4.04986">
        <ele>1261.87</ele>
        <time>2013-08-27T07:44:26Z</time>
      </trkpt>
      <trkpt lat="44.64082" lon="4.04972">
        <ele>1262.83</ele>
        <time>2013-08-27T07:44:34Z</time>
      </trkpt>
      <trkpt lat="44.64086" lon="4.04959">
        <ele>1263.31</ele>
        <time>2013-08-27T07:44:41Z</time>
      </trkpt>
      <trkpt lat="44.64091" lon="4.04947">
        <ele>1264.27</ele>
        <time>2013-08-27T07:44:48Z</time>
      </trkpt>
      <trkpt lat="44.64095" lon="4.0494">
        <ele>1264.75</ele>
        <time>2013-08-27T07:44:53Z</time>
      </trkpt>
      <trkpt lat="44.64108" lon="4.04915">
        <ele>1266.19</ele>
        <time>2013-08-27T07:45:10Z</time>
      </trkpt>
      <trkpt lat="44.64116" lon="4.04885">
        <ele>1266.67</ele>
        <time>2013-08-27T07:45:25Z</time>
      </trkpt>
      <trkpt lat="44.64123" lon="4.04867">
        <ele>1266.67</ele>
        <time>2013-08-27T07:45:36Z</time>
      </trkpt>
      <trkpt lat="44.64131" lon="4.04856">
        <ele>1264.75</ele>
        <time>2013-08-27T07:45:41Z</time>
      </trkpt>
      <trkpt lat="44.64133" lon="4.04851">
        <ele>1266.19</ele>
        <time>2013-08-27T07:45:43Z</time>
      </trkpt>
      <trkpt lat="44.64138" lon="4.04832">
        <ele>1266.67</ele>
        <time>2013-08-27T07:45:53Z</time>
      </trkpt>
      <trkpt lat="44.64141" lon="4.04823">
        <ele>1267.16</ele>
        <time>2013-08-27T07:45:58Z</time>
      </trkpt>
      <trkpt lat="44.64145" lon="4.04816">
        <ele>1268.6</ele>
        <time>2013-08-27T07:46:03Z</time>
      </trkpt>
      <trkpt lat="44.64156" lon="4.04802">
        <ele>1270.04</ele>
        <time>2013-08-27T07:46:13Z</time>
      </trkpt>
      <trkpt lat="44.64175" lon="4.04784">
        <ele>1273.88</ele>
        <time>2013-08-27T07:46:30Z</time>
      </trkpt>
      <trkpt lat="44.64183" lon="4.04771">
        <ele>1276.29</ele>
        <time>2013-08-27T07:46:40Z</time>
      </trkpt>
      <trkpt lat="44.64189" lon="4.04761">
        <ele>1276.77</ele>
        <time>2013-08-27T07:46:47Z</time>
      </trkpt>
      <trkpt lat="44.64199" lon="4.04745">
        <ele>1278.69</ele>
        <time>2013-08-27T07:46:59Z</time>
      </trkpt>
      <trkpt lat="44.64204" lon="4.0474">
        <ele>1279.17</ele>
        <time>2013-08-27T07:47:04Z</time>
      </trkpt>
      <trkpt lat="44.64211" lon="4.04723">
        <ele>1279.65</ele>
        <time>2013-08-27T07:47:14Z</time>
      </trkpt>
      <trkpt lat="44.64222" lon="4.04694">
        <ele>1279.65</ele>
        <time>2013-08-27T07:47:28Z</time>
      </trkpt>
      <trkpt lat="44.64224" lon="4.04689">
        <ele>1279.17</ele>
        <time>2013-08-27T07:47:31Z</time>
      </trkpt>
      <trkpt lat="44.64233" lon="4.04674">
        <ele>1279.65</ele>
        <time>2013-08-27T07:47:41Z</time>
      </trkpt>
      <trkpt lat="44.64238" lon="4.04669">
        <ele>1279.65</ele>
        <time>2013-08-27T07:47:45Z</time>
      </trkpt>
      <trkpt lat="44.64243" lon="4.04664">
        <ele>1279.65</ele>
        <time>2013-08-27T07:47:49Z</time>
      </trkpt>
      <trkpt lat="44.64248" lon="4.04661">
        <ele>1280.13</ele>
        <time>2013-08-27T07:47:53Z</time>
      </trkpt>
      <trkpt lat="44.64267" lon="4.04648">
        <ele>1279.65</ele>
        <time>2013-08-27T07:48:08Z</time>
      </trkpt>
      <trkpt lat="44.64272" lon="4.04646">
        <ele>1280.13</ele>
        <time>2013-08-27T07:48:12Z</time>
      </trkpt>
      <trkpt lat="44.64296" lon="4.04631">
        <ele>1280.13</ele>
        <time>2013-08-27T07:48:29Z</time>
      </trkpt>
      <trkpt lat="44.64305" lon="4.04626">
        <ele>1280.61</ele>
        <time>2013-08-27T07:48:36Z</time>
      </trkpt>
      <trkpt lat="44.64317" lon="4.0462">
        <ele>1281.57</ele>
        <time>2013-08-27T07:48:45Z</time>
      </trkpt>
      <trkpt lat="44.64319" lon="4.04621">
        <ele>1281.57</ele>
        <time>2013-08-27T07:48:47Z</time>
      </trkpt>
      <trkpt lat="44.64333" lon="4.04617">
        <ele>1281.57</ele>
        <time>2013-08-27T07:48:57Z</time>
      </trkpt>
      <trkpt lat="44.64338" lon="4.04611">
        <ele>1282.06</ele>
        <time>2013-08-27T07:49:02Z</time>
      </trkpt>
      <trkpt lat="44.64344" lon="4.04603">
        <ele>1283.02</ele>
        <time>2013-08-27T07:49:08Z</time>
      </trkpt>
      <trkpt lat="44.64355" lon="4.04589">
        <ele>1282.54</ele>
        <time>2013-08-27T07:49:17Z</time>
      </trkpt>
      <trkpt lat="44.64358" lon="4.04582">
        <ele>1283.02</ele>
        <time>2013-08-27T07:49:21Z</time>
      </trkpt>
      <trkpt lat="44.64372" lon="4.04568">
        <ele>1282.06</ele>
        <time>2013-08-27T07:49:29Z</time>
      </trkpt>
      <trkpt lat="44.64378" lon="4.04546">
        <ele>1282.54</ele>
        <time>2013-08-27T07:49:39Z</time>
      </trkpt>
      <trkpt lat="44.6438" lon="4.04534">
        <ele>1283.5</ele>
        <time>2013-08-27T07:49:45Z</time>
      </trkpt>
      <trkpt lat="44.64381" lon="4.04525">
        <ele>1283.5</ele>
        <time>2013-08-27T07:49:50Z</time>
      </trkpt>
      <trkpt lat="44.64381" lon="4.04512">
        <ele>1284.46</ele>
        <time>2013-08-27T07:50:04Z</time>
      </trkpt>
      <trkpt lat="44.64382" lon="4.04512">
        <ele>1283.98</ele>
        <time>2013-08-27T07:50:35Z</time>
      </trkpt>
      <trkpt lat="44.64384" lon="4.04503">
        <ele>1284.94</ele>
        <time>2013-08-27T07:50:48Z</time>
      </trkpt>
      <trkpt lat="44.64381" lon="4.04502">
        <ele>1284.94</ele>
        <time>2013-08-27T07:51:06Z</time>
      </trkpt>
      <trkpt lat="44.64381" lon="4.04502">
        <ele>1284.94</ele>
        <time>2013-08-27T07:51:07Z</time>
      </trkpt>
      <trkpt lat="44.64375" lon="4.04496">
        <ele>1283.02</ele>
        <time>2013-08-27T07:51:16Z</time>
      </trkpt>
      <trkpt lat="44.64372" lon="4.04486">
        <ele>1282.54</ele>
        <time>2013-08-27T07:51:26Z</time>
      </trkpt>
      <trkpt lat="44.64372" lon="4.04483">
        <ele>1283.5</ele>
        <time>2013-08-27T07:51:36Z</time>
      </trkpt>
      <trkpt lat="44.64381" lon="4.04488">
        <ele>1284.94</ele>
        <time>2013-08-27T07:51:50Z</time>
      </trkpt>
      <trkpt lat="44.64385" lon="4.04489">
        <ele>1286.86</ele>
        <time>2013-08-27T07:52:06Z</time>
      </trkpt>
      <trkpt lat="44.64389" lon="4.04482">
        <ele>1288.3</ele>
        <time>2013-08-27T07:52:19Z</time>
      </trkpt>
      <trkpt lat="44.64393" lon="4.04476">
        <ele>1288.78</ele>
        <time>2013-08-27T07:52:26Z</time>
      </trkpt>
      <trkpt lat="44.64398" lon="4.04458">
        <ele>1289.27</ele>
        <time>2013-08-27T07:52:42Z</time>
      </trkpt>
      <trkpt lat="44.64399" lon="4.04449">
        <ele>1288.78</ele>
        <time>2013-08-27T07:52:52Z</time>
      </trkpt>
      <trkpt lat="44.644" lon="4.0444">
        <ele>1289.27</ele>
        <time>2013-08-27T07:53:00Z</time>
      </trkpt>
      <trkpt lat="44.64402" lon="4.04434">
        <ele>1288.78</ele>
        <time>2013-08-27T07:53:04Z</time>
      </trkpt>
      <trkpt lat="44.64406" lon="4.0442">
        <ele>1289.75</ele>
        <time>2013-08-27T07:53:11Z</time>
      </trkpt>
      <trkpt lat="44.64412" lon="4.04383">
        <ele>1289.27</ele>
        <time>2013-08-27T07:53:24Z</time>
      </trkpt>
      <trkpt lat="44.64424" lon="4.04347">
        <ele>1290.23</ele>
        <time>2013-08-27T07:53:38Z</time>
      </trkpt>
      <trkpt lat="44.64433" lon="4.04316">
        <ele>1291.67</ele>
        <time>2013-08-27T07:53:52Z</time>
      </trkpt>
      <trkpt lat="44.64443" lon="4.04285">
        <ele>1293.11</ele>
        <time>2013-08-27T07:54:07Z</time>
      </trkpt>
      <trkpt lat="44.64444" lon="4.04283">
        <ele>1293.59</ele>
        <time>2013-08-27T07:54:08Z</time>
      </trkpt>
      <trkpt lat="44.64452" lon="4.04264">
        <ele>1295.03</ele>
        <time>2013-08-27T07:54:18Z</time>
      </trkpt>
      <trkpt lat="44.64455" lon="4.04256">
        <ele>1295.51</ele>
        <time>2013-08-27T07:54:22Z</time>
      </trkpt>
      <trkpt lat="44.64462" lon="4.04239">
        <ele>1297.44</ele>
        <time>2013-08-27T07:54:31Z</time>
      </trkpt>
      <trkpt lat="44.64475" lon="4.04204">
        <ele>1299.36</ele>
        <time>2013-08-27T07:54:49Z</time>
      </trkpt>
      <trkpt lat="44.64485" lon="4.04175">
        <ele>1301.28</ele>
        <time>2013-08-27T07:55:04Z</time>
      </trkpt>
      <trkpt lat="44.64498" lon="4.04153">
        <ele>1303.2</ele>
        <time>2013-08-27T07:55:18Z</time>
      </trkpt>
      <trkpt lat="44.64504" lon="4.04144">
        <ele>1304.17</ele>
        <time>2013-08-27T07:55:24Z</time>
      </trkpt>
      <trkpt lat="44.64508" lon="4.04136">
        <ele>1304.65</ele>
        <time>2013-08-27T07:55:34Z</time>
      </trkpt>
      <trkpt lat="44.64519" lon="4.04132">
        <ele>1305.61</ele>
        <time>2013-08-27T07:55:45Z</time>
      </trkpt>
      <trkpt lat="44.64522" lon="4.04132">
        <ele>1304.17</ele>
        <time>2013-08-27T07:55:59Z</time>
      </trkpt>
      <trkpt lat="44.64522" lon="4.04132">
        <ele>1305.61</ele>
        <time>2013-08-27T07:56:02Z</time>
      </trkpt>
      <trkpt lat="44.64525" lon="4.04134">
        <ele>1306.09</ele>
        <time>2013-08-27T07:56:16Z</time>
      </trkpt>
      <trkpt lat="44.64532" lon="4.04141">
        <ele>1306.57</ele>
        <time>2013-08-27T07:56:21Z</time>
      </trkpt>
      <trkpt lat="44.64544" lon="4.04163">
        <ele>1308.97</ele>
        <time>2013-08-27T07:56:34Z</time>
      </trkpt>
      <trkpt lat="44.64545" lon="4.04165">
        <ele>1309.45</ele>
        <time>2013-08-27T07:56:35Z</time>
      </trkpt>
      <trkpt lat="44.64553" lon="4.04196">
        <ele>1312.82</ele>
        <time>2013-08-27T07:56:51Z</time>
      </trkpt>
      <trkpt lat="44.64561" lon="4.04213">
        <ele>1315.7</ele>
        <time>2013-08-27T07:57:02Z</time>
      </trkpt>
      <trkpt lat="44.64571" lon="4.04236">
        <ele>1319.07</ele>
        <time>2013-08-27T07:57:16Z</time>
      </trkpt>
      <trkpt lat="44.64575" lon="4.0425">
        <ele>1320.99</ele>
        <time>2013-08-27T07:57:24Z</time>
      </trkpt>
      <trkpt lat="44.64579" lon="4.04282">
        <ele>1323.87</ele>
        <time>2013-08-27T07:57:40Z</time>
      </trkpt>
      <trkpt lat="44.64581" lon="4.04303">
        <ele>1325.8</ele>
        <time>2013-08-27T07:57:51Z</time>
      </trkpt>
      <trkpt lat="44.64585" lon="4.04314">
        <ele>1328.68</ele>
        <time>2013-08-27T07:58:05Z</time>
      </trkpt>
      <trkpt lat="44.64585" lon="4.04316">
        <ele>1329.16</ele>
        <time>2013-08-27T07:58:19Z</time>
      </trkpt>
      <trkpt lat="44.64589" lon="4.04327">
        <ele>1331.08</ele>
        <time>2013-08-27T07:58:31Z</time>
      </trkpt>
      <trkpt lat="44.64589" lon="4.04329">
        <ele>1331.08</ele>
        <time>2013-08-27T07:58:34Z</time>
      </trkpt>
      <trkpt lat="44.64591" lon="4.04333">
        <ele>1330.6</ele>
        <time>2013-08-27T07:58:54Z</time>
      </trkpt>
      <trkpt lat="44.64592" lon="4.04334">
        <ele>1330.6</ele>
        <time>2013-08-27T07:59:27Z</time>
      </trkpt>
      <trkpt lat="44.64592" lon="4.04334">
        <ele>1330.6</ele>
        <time>2013-08-27T07:59:52Z</time>
      </trkpt>
      <trkpt lat="44.64592" lon="4.04334">
        <ele>1331.08</ele>
        <time>2013-08-27T08:00:25Z</time>
      </trkpt>
      <trkpt lat="44.64593" lon="4.04335">
        <ele>1331.56</ele>
        <time>2013-08-27T08:00:44Z</time>
      </trkpt>
      <trkpt lat="44.6458" lon="4.04355">
        <ele>1331.56</ele>
        <time>2013-08-27T08:00:56Z</time>
      </trkpt>
      <trkpt lat="44.64576" lon="4.04365">
        <ele>1331.56</ele>
        <time>2013-08-27T08:00:59Z</time>
      </trkpt>
      <trkpt lat="44.6457" lon="4.04381">
        <ele>1332.52</ele>
        <time>2013-08-27T08:01:06Z</time>
      </trkpt>
      <trkpt lat="44.64566" lon="4.0439">
        <ele>1333.01</ele>
        <time>2013-08-27T08:01:11Z</time>
      </trkpt>
      <trkpt lat="44.64558" lon="4.04416">
        <ele>1333.97</ele>
        <time>2013-08-27T08:01:25Z</time>
      </trkpt>
      <trkpt lat="44.64554" lon="4.04431">
        <ele>1334.93</ele>
        <time>2013-08-27T08:01:33Z</time>
      </trkpt>
      <trkpt lat="44.6455" lon="4.04453">
        <ele>1336.37</ele>
        <time>2013-08-27T08:01:45Z</time>
      </trkpt>
      <trkpt lat="44.6455" lon="4.04466">
        <ele>1337.81</ele>
        <time>2013-08-27T08:01:52Z</time>
      </trkpt>
      <trkpt lat="44.64548" lon="4.04491">
        <ele>1338.77</ele>
        <time>2013-08-27T08:02:04Z</time>
      </trkpt>
      <trkpt lat="44.64548" lon="4.04498">
        <ele>1339.73</ele>
        <time>2013-08-27T08:02:08Z</time>
      </trkpt>
      <trkpt lat="44.64547" lon="4.04507">
        <ele>1340.22</ele>
        <time>2013-08-27T08:02:12Z</time>
      </trkpt>
      <trkpt lat="44.64545" lon="4.04534">
        <ele>1341.66</ele>
        <time>2013-08-27T08:02:24Z</time>
      </trkpt>
      <trkpt lat="44.64544" lon="4.04536">
        <ele>1341.66</ele>
        <time>2013-08-27T08:02:25Z</time>
      </trkpt>
      <trkpt lat="44.64539" lon="4.04578">
        <ele>1344.06</ele>
        <time>2013-08-27T08:02:40Z</time>
      </trkpt>
      <trkpt lat="44.6453" lon="4.04623">
        <ele>1346.46</ele>
        <time>2013-08-27T08:02:56Z</time>
      </trkpt>
      <trkpt lat="44.64523" lon="4.04661">
        <ele>1347.43</ele>
        <time>2013-08-27T08:03:10Z</time>
      </trkpt>
      <trkpt lat="44.64515" lon="4.04699">
        <ele>1348.87</ele>
        <time>2013-08-27T08:03:23Z</time>
      </trkpt>
      <trkpt lat="44.64505" lon="4.0474">
        <ele>1349.83</ele>
        <time>2013-08-27T08:03:38Z</time>
      </trkpt>
      <trkpt lat="44.64496" lon="4.0477">
        <ele>1351.75</ele>
        <time>2013-08-27T08:03:51Z</time>
      </trkpt>
      <trkpt lat="44.64487" lon="4.04793">
        <ele>1353.19</ele>
        <time>2013-08-27T08:04:03Z</time>
      </trkpt>
      <trkpt lat="44.64472" lon="4.04825">
        <ele>1354.63</ele>
        <time>2013-08-27T08:04:19Z</time>
      </trkpt>
      <trkpt lat="44.64455" lon="4.04852">
        <ele>1356.08</ele>
        <time>2013-08-27T08:04:35Z</time>
      </trkpt>
      <trkpt lat="44.64436" lon="4.04879">
        <ele>1358.48</ele>
        <time>2013-08-27T08:04:52Z</time>
      </trkpt>
      <trkpt lat="44.64417" lon="4.04901">
        <ele>1360.4</ele>
        <time>2013-08-27T08:05:06Z</time>
      </trkpt>
      <trkpt lat="44.64416" lon="4.04902">
        <ele>1359.92</ele>
        <time>2013-08-27T08:05:07Z</time>
      </trkpt>
      <trkpt lat="44.64408" lon="4.04912">
        <ele>1360.88</ele>
        <time>2013-08-27T08:05:13Z</time>
      </trkpt>
      <trkpt lat="44.64405" lon="4.04942">
        <ele>1362.81</ele>
        <time>2013-08-27T08:05:27Z</time>
      </trkpt>
      <trkpt lat="44.64426" lon="4.04942">
        <ele>1363.77</ele>
        <time>2013-08-27T08:05:39Z</time>
      </trkpt>
      <trkpt lat="44.64446" lon="4.0491">
        <ele>1364.25</ele>
        <time>2013-08-27T08:05:55Z</time>
      </trkpt>
      <trkpt lat="44.64471" lon="4.04884">
        <ele>1366.65</ele>
        <time>2013-08-27T08:06:12Z</time>
      </trkpt>
      <trkpt lat="44.64494" lon="4.04865">
        <ele>1368.57</ele>
        <time>2013-08-27T08:06:28Z</time>
      </trkpt>
      <trkpt lat="44.64517" lon="4.04843">
        <ele>1370.5</ele>
        <time>2013-08-27T08:06:44Z</time>
      </trkpt>
      <trkpt lat="44.64536" lon="4.04822">
        <ele>1372.42</ele>
        <time>2013-08-27T08:06:58Z</time>
      </trkpt>
      <trkpt lat="44.6455" lon="4.04803">
        <ele>1374.82</ele>
        <time>2013-08-27T08:07:10Z</time>
      </trkpt>
      <trkpt lat="44.64567" lon="4.04778">
        <ele>1376.26</ele>
        <time>2013-08-27T08:07:25Z</time>
      </trkpt>
      <trkpt lat="44.6458" lon="4.04757">
        <ele>1377.71</ele>
        <time>2013-08-27T08:07:37Z</time>
      </trkpt>
      <trkpt lat="44.646" lon="4.04724">
        <ele>1380.59</ele>
        <time>2013-08-27T08:07:56Z</time>
      </trkpt>
      <trkpt lat="44.64619" lon="4.04696">
        <ele>1382.51</ele>
        <time>2013-08-27T08:08:12Z</time>
      </trkpt>
      <trkpt lat="44.64642" lon="4.04669">
        <ele>1383.96</ele>
        <time>2013-08-27T08:08:30Z</time>
      </trkpt>
      <trkpt lat="44.64647" lon="4.04663">
        <ele>1384.92</ele>
        <time>2013-08-27T08:08:34Z</time>
      </trkpt>
      <trkpt lat="44.64655" lon="4.04656">
        <ele>1385.88</ele>
        <time>2013-08-27T08:08:39Z</time>
      </trkpt>
      <trkpt lat="44.64679" lon="4.04635">
        <ele>1387.32</ele>
        <time>2013-08-27T08:08:56Z</time>
      </trkpt>
      <trkpt lat="44.64682" lon="4.04632">
        <ele>1387.8</ele>
        <time>2013-08-27T08:08:58Z</time>
      </trkpt>
      <trkpt lat="44.64689" lon="4.04626">
        <ele>1388.76</ele>
        <time>2013-08-27T08:09:03Z</time>
      </trkpt>
      <trkpt lat="44.647" lon="4.04617">
        <ele>1389.24</ele>
        <time>2013-08-27T08:09:10Z</time>
      </trkpt>
      <trkpt lat="44.64725" lon="4.04596">
        <ele>1391.65</ele>
        <time>2013-08-27T08:09:28Z</time>
      </trkpt>
      <trkpt lat="44.64747" lon="4.04577">
        <ele>1393.57</ele>
        <time>2013-08-27T08:09:44Z</time>
      </trkpt>
      <trkpt lat="44.64768" lon="4.04558">
        <ele>1395.49</ele>
        <time>2013-08-27T08:09:59Z</time>
      </trkpt>
      <trkpt lat="44.6479" lon="4.04539">
        <ele>1397.41</ele>
        <time>2013-08-27T08:10:15Z</time>
      </trkpt>
      <trkpt lat="44.64809" lon="4.04521">
        <ele>1399.82</ele>
        <time>2013-08-27T08:10:30Z</time>
      </trkpt>
      <trkpt lat="44.6482" lon="4.04511">
        <ele>1400.78</ele>
        <time>2013-08-27T08:10:39Z</time>
      </trkpt>
      <trkpt lat="44.64837" lon="4.04496">
        <ele>1402.22</ele>
        <time>2013-08-27T08:10:53Z</time>
      </trkpt>
      <trkpt lat="44.64852" lon="4.04482">
        <ele>1404.62</ele>
        <time>2013-08-27T08:11:04Z</time>
      </trkpt>
      <trkpt lat="44.64866" lon="4.04469">
        <ele>1405.58</ele>
        <time>2013-08-27T08:11:16Z</time>
      </trkpt>
      <trkpt lat="44.64869" lon="4.04467">
        <ele>1406.07</ele>
        <time>2013-08-27T08:11:19Z</time>
      </trkpt>
      <trkpt lat="44.6488" lon="4.04459">
        <ele>1407.99</ele>
        <time>2013-08-27T08:11:28Z</time>
      </trkpt>
      <trkpt lat="44.64888" lon="4.04455">
        <ele>1407.99</ele>
        <time>2013-08-27T08:11:33Z</time>
      </trkpt>
      <trkpt lat="44.64911" lon="4.04437">
        <ele>1410.39</ele>
        <time>2013-08-27T08:11:50Z</time>
      </trkpt>
      <trkpt lat="44.64919" lon="4.04431">
        <ele>1411.83</ele>
        <time>2013-08-27T08:11:57Z</time>
      </trkpt>
      <trkpt lat="44.64927" lon="4.04427">
        <ele>1412.79</ele>
        <time>2013-08-27T08:12:03Z</time>
      </trkpt>
      <trkpt lat="44.64949" lon="4.04412">
        <ele>1415.68</ele>
        <time>2013-08-27T08:12:18Z</time>
      </trkpt>
      <trkpt lat="44.64968" lon="4.04392">
        <ele>1416.64</ele>
        <time>2013-08-27T08:12:32Z</time>
      </trkpt>
      <trkpt lat="44.64978" lon="4.0437">
        <ele>1418.56</ele>
        <time>2013-08-27T08:12:43Z</time>
      </trkpt>
      <trkpt lat="44.64991" lon="4.04335">
        <ele>1420.97</ele>
        <time>2013-08-27T08:12:59Z</time>
      </trkpt>
      <trkpt lat="44.65007" lon="4.04295">
        <ele>1422.41</ele>
        <time>2013-08-27T08:13:18Z</time>
      </trkpt>
      <trkpt lat="44.65019" lon="4.04266">
        <ele>1422.41</ele>
        <time>2013-08-27T08:13:31Z</time>
      </trkpt>
      <trkpt lat="44.65033" lon="4.04232">
        <ele>1423.85</ele>
        <time>2013-08-27T08:13:45Z</time>
      </trkpt>
      <trkpt lat="44.65043" lon="4.04211">
        <ele>1423.37</ele>
        <time>2013-08-27T08:13:55Z</time>
      </trkpt>
      <trkpt lat="44.65046" lon="4.04209">
        <ele>1423.37</ele>
        <time>2013-08-27T08:13:57Z</time>
      </trkpt>
      <trkpt lat="44.65064" lon="4.04207">
        <ele>1424.33</ele>
        <time>2013-08-27T08:14:07Z</time>
      </trkpt>
      <trkpt lat="44.65083" lon="4.04216">
        <ele>1424.81</ele>
        <time>2013-08-27T08:14:20Z</time>
      </trkpt>
      <trkpt lat="44.65077" lon="4.04235">
        <ele>1425.77</ele>
        <time>2013-08-27T08:14:31Z</time>
      </trkpt>
      <trkpt lat="44.65075" lon="4.04239">
        <ele>1426.25</ele>
        <time>2013-08-27T08:14:33Z</time>
      </trkpt>
      <trkpt lat="44.65063" lon="4.04266">
        <ele>1427.21</ele>
        <time>2013-08-27T08:14:47Z</time>
      </trkpt>
      <trkpt lat="44.65056" lon="4.04282">
        <ele>1427.21</ele>
        <time>2013-08-27T08:14:59Z</time>
      </trkpt>
      <trkpt lat="44.65056" lon="4.04282">
        <ele>1426.73</ele>
        <time>2013-08-27T08:15:32Z</time>
      </trkpt>
      <trkpt lat="44.65056" lon="4.04282">
        <ele>1426.73</ele>
        <time>2013-08-27T08:16:06Z</time>
      </trkpt>
      <trkpt lat="44.65056" lon="4.04282">
        <ele>1427.7</ele>
        <time>2013-08-27T08:16:43Z</time>
      </trkpt>
      <trkpt lat="44.65056" lon="4.04277">
        <ele>1428.18</ele>
        <time>2013-08-27T08:17:10Z</time>
      </trkpt>
      <trkpt lat="44.65056" lon="4.04277">
        <ele>1428.18</ele>
        <time>2013-08-27T08:17:25Z</time>
      </trkpt>
      <trkpt lat="44.65066" lon="4.04276">
        <ele>1429.14</ele>
        <time>2013-08-27T08:17:37Z</time>
      </trkpt>
      <trkpt lat="44.65066" lon="4.04278">
        <ele>1429.14</ele>
        <time>2013-08-27T08:17:38Z</time>
      </trkpt>
      <trkpt lat="44.65064" lon="4.04289">
        <ele>1429.62</ele>
        <time>2013-08-27T08:17:44Z</time>
      </trkpt>
      <trkpt lat="44.65064" lon="4.04296">
        <ele>1429.62</ele>
        <time>2013-08-27T08:17:48Z</time>
      </trkpt>
      <trkpt lat="44.65065" lon="4.04321">
        <ele>1431.54</ele>
        <time>2013-08-27T08:18:01Z</time>
      </trkpt>
      <trkpt lat="44.65065" lon="4.04336">
        <ele>1432.02</ele>
        <time>2013-08-27T08:18:09Z</time>
      </trkpt>
      <trkpt lat="44.65067" lon="4.04362">
        <ele>1433.46</ele>
        <time>2013-08-27T08:18:23Z</time>
      </trkpt>
      <trkpt lat="44.65072" lon="4.04389">
        <ele>1435.39</ele>
        <time>2013-08-27T08:18:37Z</time>
      </trkpt>
      <trkpt lat="44.65074" lon="4.04403">
        <ele>1436.83</ele>
        <time>2013-08-27T08:18:45Z</time>
      </trkpt>
      <trkpt lat="44.65076" lon="4.04417">
        <ele>1438.27</ele>
        <time>2013-08-27T08:18:53Z</time>
      </trkpt>
      <trkpt lat="44.6508" lon="4.04431">
        <ele>1439.71</ele>
        <time>2013-08-27T08:19:01Z</time>
      </trkpt>
      <trkpt lat="44.65088" lon="4.04442">
        <ele>1441.15</ele>
        <time>2013-08-27T08:19:09Z</time>
      </trkpt>
      <trkpt lat="44.65091" lon="4.04448">
        <ele>1442.11</ele>
        <time>2013-08-27T08:19:13Z</time>
      </trkpt>
      <trkpt lat="44.65092" lon="4.04451">
        <ele>1442.6</ele>
        <time>2013-08-27T08:19:15Z</time>
      </trkpt>
      <trkpt lat="44.6511" lon="4.04459">
        <ele>1444.52</ele>
        <time>2013-08-27T08:19:28Z</time>
      </trkpt>
      <trkpt lat="44.65123" lon="4.04472">
        <ele>1447.88</ele>
        <time>2013-08-27T08:19:41Z</time>
      </trkpt>
      <trkpt lat="44.65134" lon="4.0449">
        <ele>1449.81</ele>
        <time>2013-08-27T08:19:54Z</time>
      </trkpt>
      <trkpt lat="44.65133" lon="4.04497">
        <ele>1449.81</ele>
        <time>2013-08-27T08:19:58Z</time>
      </trkpt>
      <trkpt lat="44.6513" lon="4.045">
        <ele>1450.77</ele>
        <time>2013-08-27T08:20:01Z</time>
      </trkpt>
      <trkpt lat="44.65125" lon="4.04501">
        <ele>1450.77</ele>
        <time>2013-08-27T08:20:04Z</time>
      </trkpt>
      <trkpt lat="44.6512" lon="4.04515">
        <ele>1452.69</ele>
        <time>2013-08-27T08:20:14Z</time>
      </trkpt>
      <trkpt lat="44.65122" lon="4.0452">
        <ele>1453.65</ele>
        <time>2013-08-27T08:20:17Z</time>
      </trkpt>
      <trkpt lat="44.65126" lon="4.04535">
        <ele>1456.05</ele>
        <time>2013-08-27T08:20:26Z</time>
      </trkpt>
      <trkpt lat="44.65135" lon="4.04561">
        <ele>1458.46</ele>
        <time>2013-08-27T08:20:41Z</time>
      </trkpt>
      <trkpt lat="44.65136" lon="4.04562">
        <ele>1457.98</ele>
        <time>2013-08-27T08:20:42Z</time>
      </trkpt>
      <trkpt lat="44.65141" lon="4.04572">
        <ele>1460.38</ele>
        <time>2013-08-27T08:20:48Z</time>
      </trkpt>
      <trkpt lat="44.65143" lon="4.04579">
        <ele>1460.86</ele>
        <time>2013-08-27T08:20:52Z</time>
      </trkpt>
      <trkpt lat="44.65146" lon="4.04585">
        <ele>1461.34</ele>
        <time>2013-08-27T08:20:56Z</time>
      </trkpt>
      <trkpt lat="44.65152" lon="4.04604">
        <ele>1464.23</ele>
        <time>2013-08-27T08:21:07Z</time>
      </trkpt>
      <trkpt lat="44.65158" lon="4.04627">
        <ele>1467.11</ele>
        <time>2013-08-27T08:21:21Z</time>
      </trkpt>
      <trkpt lat="44.65162" lon="4.04641">
        <ele>1469.03</ele>
        <time>2013-08-27T08:21:29Z</time>
      </trkpt>
      <trkpt lat="44.6516" lon="4.04647">
        <ele>1469.51</ele>
        <time>2013-08-27T08:21:34Z</time>
      </trkpt>
      <trkpt lat="44.65153" lon="4.0466">
        <ele>1471.44</ele>
        <time>2013-08-27T08:21:46Z</time>
      </trkpt>
      <trkpt lat="44.65153" lon="4.0466">
        <ele>1471.92</ele>
        <time>2013-08-27T08:22:07Z</time>
      </trkpt>
      <trkpt lat="44.65153" lon="4.0466">
        <ele>1471.92</ele>
        <time>2013-08-27T08:22:36Z</time>
      </trkpt>
      <trkpt lat="44.65153" lon="4.0466">
        <ele>1472.4</ele>
        <time>2013-08-27T08:23:04Z</time>
      </trkpt>
      <trkpt lat="44.65153" lon="4.0466">
        <ele>1472.4</ele>
        <time>2013-08-27T08:23:25Z</time>
      </trkpt>
      <trkpt lat="44.65153" lon="4.0466">
        <ele>1471.92</ele>
        <time>2013-08-27T08:23:38Z</time>
      </trkpt>
      <trkpt lat="44.65154" lon="4.04664">
        <ele>1472.4</ele>
        <time>2013-08-27T08:23:42Z</time>
      </trkpt>
      <trkpt lat="44.65165" lon="4.04677">
        <ele>1473.84</ele>
        <time>2013-08-27T08:23:53Z</time>
      </trkpt>
      <trkpt lat="44.65171" lon="4.04702">
        <ele>1475.28</ele>
        <time>2013-08-27T08:24:06Z</time>
      </trkpt>
      <trkpt lat="44.65171" lon="4.04706">
        <ele>1476.24</ele>
        <time>2013-08-27T08:24:08Z</time>
      </trkpt>
      <trkpt lat="44.65174" lon="4.04719">
        <ele>1477.2</ele>
        <time>2013-08-27T08:24:15Z</time>
      </trkpt>
      <trkpt lat="44.65178" lon="4.04752">
        <ele>1479.61</ele>
        <time>2013-08-27T08:24:31Z</time>
      </trkpt>
      <trkpt lat="44.65181" lon="4.04782">
        <ele>1481.05</ele>
        <time>2013-08-27T08:24:46Z</time>
      </trkpt>
      <trkpt lat="44.65185" lon="4.04815">
        <ele>1482.01</ele>
        <time>2013-08-27T08:25:02Z</time>
      </trkpt>
      <trkpt lat="44.65188" lon="4.04846">
        <ele>1482.49</ele>
        <time>2013-08-27T08:25:16Z</time>
      </trkpt>
      <trkpt lat="44.6519" lon="4.04883">
        <ele>1482.97</ele>
        <time>2013-08-27T08:25:33Z</time>
      </trkpt>
      <trkpt lat="44.6519" lon="4.04918">
        <ele>1481.53</ele>
        <time>2013-08-27T08:25:47Z</time>
      </trkpt>
      <trkpt lat="44.6519" lon="4.04953">
        <ele>1481.53</ele>
        <time>2013-08-27T08:26:00Z</time>
      </trkpt>
      <trkpt lat="44.65194" lon="4.04991">
        <ele>1481.53</ele>
        <time>2013-08-27T08:26:14Z</time>
      </trkpt>
      <trkpt lat="44.65201" lon="4.05024">
        <ele>1481.05</ele>
        <time>2013-08-27T08:26:28Z</time>
      </trkpt>
      <trkpt lat="44.65212" lon="4.05064">
        <ele>1482.01</ele>
        <time>2013-08-27T08:26:45Z</time>
      </trkpt>
      <trkpt lat="44.65224" lon="4.05101">
        <ele>1483.93</ele>
        <time>2013-08-27T08:27:01Z</time>
      </trkpt>
      <trkpt lat="44.65236" lon="4.05137">
        <ele>1485.37</ele>
        <time>2013-08-27T08:27:17Z</time>
      </trkpt>
      <trkpt lat="44.65242" lon="4.05166">
        <ele>1486.34</ele>
        <time>2013-08-27T08:27:31Z</time>
      </trkpt>
      <trkpt lat="44.6525" lon="4.052">
        <ele>1486.82</ele>
        <time>2013-08-27T08:27:48Z</time>
      </trkpt>
      <trkpt lat="44.65256" lon="4.0523">
        <ele>1487.3</ele>
        <time>2013-08-27T08:28:02Z</time>
      </trkpt>
      <trkpt lat="44.65265" lon="4.05262">
        <ele>1488.26</ele>
        <time>2013-08-27T08:28:18Z</time>
      </trkpt>
      <trkpt lat="44.65267" lon="4.05274">
        <ele>1488.26</ele>
        <time>2013-08-27T08:28:24Z</time>
      </trkpt>
      <trkpt lat="44.65274" lon="4.05307">
        <ele>1489.22</ele>
        <time>2013-08-27T08:28:40Z</time>
      </trkpt>
      <trkpt lat="44.65274" lon="4.05341">
        <ele>1489.7</ele>
        <time>2013-08-27T08:28:57Z</time>
      </trkpt>
      <trkpt lat="44.65273" lon="4.05353">
        <ele>1490.66</ele>
        <time>2013-08-27T08:29:03Z</time>
      </trkpt>
      <trkpt lat="44.65271" lon="4.0536">
        <ele>1490.66</ele>
        <time>2013-08-27T08:29:07Z</time>
      </trkpt>
      <trkpt lat="44.65269" lon="4.05371">
        <ele>1490.18</ele>
        <time>2013-08-27T08:29:12Z</time>
      </trkpt>
      <trkpt lat="44.65265" lon="4.05379">
        <ele>1490.66</ele>
        <time>2013-08-27T08:29:16Z</time>
      </trkpt>
      <trkpt lat="44.65257" lon="4.05423">
        <ele>1490.66</ele>
        <time>2013-08-27T08:29:33Z</time>
      </trkpt>
      <trkpt lat="44.65253" lon="4.05464">
        <ele>1490.66</ele>
        <time>2013-08-27T08:29:48Z</time>
      </trkpt>
      <trkpt lat="44.65247" lon="4.05499">
        <ele>1491.14</ele>
        <time>2013-08-27T08:30:01Z</time>
      </trkpt>
      <trkpt lat="44.65244" lon="4.05543">
        <ele>1491.14</ele>
        <time>2013-08-27T08:30:17Z</time>
      </trkpt>
      <trkpt lat="44.65245" lon="4.05587">
        <ele>1492.1</ele>
        <time>2013-08-27T08:30:33Z</time>
      </trkpt>
      <trkpt lat="44.65246" lon="4.05628">
        <ele>1491.62</ele>
        <time>2013-08-27T08:30:46Z</time>
      </trkpt>
      <trkpt lat="44.65246" lon="4.05635">
        <ele>1491.62</ele>
        <time>2013-08-27T08:30:48Z</time>
      </trkpt>
      <trkpt lat="44.65247" lon="4.05642">
        <ele>1492.1</ele>
        <time>2013-08-27T08:30:58Z</time>
      </trkpt>
      <trkpt lat="44.65247" lon="4.05642">
        <ele>1493.06</ele>
        <time>2013-08-27T08:31:20Z</time>
      </trkpt>
      <trkpt lat="44.65247" lon="4.05642">
        <ele>1490.18</ele>
        <time>2013-08-27T08:31:21Z</time>
      </trkpt>
      <trkpt lat="44.65247" lon="4.05642">
        <ele>1493.55</ele>
        <time>2013-08-27T08:31:22Z</time>
      </trkpt>
      <trkpt lat="44.65247" lon="4.05642">
        <ele>1492.1</ele>
        <time>2013-08-27T08:31:55Z</time>
      </trkpt>
      <trkpt lat="44.65247" lon="4.05642">
        <ele>1492.58</ele>
        <time>2013-08-27T08:32:17Z</time>
      </trkpt>
      <trkpt lat="44.65247" lon="4.05641">
        <ele>1492.1</ele>
        <time>2013-08-27T08:32:36Z</time>
      </trkpt>
      <trkpt lat="44.65247" lon="4.05641">
        <ele>1492.1</ele>
        <time>2013-08-27T08:33:02Z</time>
      </trkpt>
      <trkpt lat="44.65245" lon="4.05668">
        <ele>1489.7</ele>
        <time>2013-08-27T08:33:09Z</time>
      </trkpt>
      <trkpt lat="44.65244" lon="4.05674">
        <ele>1489.22</ele>
        <time>2013-08-27T08:33:10Z</time>
      </trkpt>
      <trkpt lat="44.65244" lon="4.05679">
        <ele>1487.78</ele>
        <time>2013-08-27T08:33:11Z</time>
      </trkpt>
      <trkpt lat="44.65245" lon="4.05685">
        <ele>1487.3</ele>
        <time>2013-08-27T08:33:12Z</time>
      </trkpt>
      <trkpt lat="44.65244" lon="4.05715">
        <ele>1483.93</ele>
        <time>2013-08-27T08:33:18Z</time>
      </trkpt>
      <trkpt lat="44.65242" lon="4.0572">
        <ele>1483.93</ele>
        <time>2013-08-27T08:33:19Z</time>
      </trkpt>
      <trkpt lat="44.65239" lon="4.05727">
        <ele>1481.05</ele>
        <time>2013-08-27T08:33:21Z</time>
      </trkpt>
      <trkpt lat="44.65239" lon="4.05731">
        <ele>1481.53</ele>
        <time>2013-08-27T08:33:22Z</time>
      </trkpt>
      <trkpt lat="44.65241" lon="4.05734">
        <ele>1481.05</ele>
        <time>2013-08-27T08:33:27Z</time>
      </trkpt>
      <trkpt lat="44.65258" lon="4.05763">
        <ele>1477.68</ele>
        <time>2013-08-27T08:33:33Z</time>
      </trkpt>
      <trkpt lat="44.65262" lon="4.05769">
        <ele>1477.2</ele>
        <time>2013-08-27T08:33:34Z</time>
      </trkpt>
      <trkpt lat="44.65278" lon="4.05784">
        <ele>1477.2</ele>
        <time>2013-08-27T08:33:38Z</time>
      </trkpt>
      <trkpt lat="44.65282" lon="4.05788">
        <ele>1475.76</ele>
        <time>2013-08-27T08:33:39Z</time>
      </trkpt>
      <trkpt lat="44.65286" lon="4.05793">
        <ele>1474.8</ele>
        <time>2013-08-27T08:33:40Z</time>
      </trkpt>
      <trkpt lat="44.6529" lon="4.05798">
        <ele>1474.8</ele>
        <time>2013-08-27T08:33:41Z</time>
      </trkpt>
      <trkpt lat="44.65294" lon="4.05801">
        <ele>1474.8</ele>
        <time>2013-08-27T08:33:42Z</time>
      </trkpt>
      <trkpt lat="44.65297" lon="4.05806">
        <ele>1474.8</ele>
        <time>2013-08-27T08:33:43Z</time>
      </trkpt>
      <trkpt lat="44.65299" lon="4.05811">
        <ele>1474.32</ele>
        <time>2013-08-27T08:33:44Z</time>
      </trkpt>
      <trkpt lat="44.65299" lon="4.05816">
        <ele>1474.32</ele>
        <time>2013-08-27T08:33:45Z</time>
      </trkpt>
      <trkpt lat="44.65298" lon="4.05821">
        <ele>1473.84</ele>
        <time>2013-08-27T08:33:46Z</time>
      </trkpt>
      <trkpt lat="44.65297" lon="4.05824">
        <ele>1473.84</ele>
        <time>2013-08-27T08:33:47Z</time>
      </trkpt>
      <trkpt lat="44.65296" lon="4.05828">
        <ele>1474.32</ele>
        <time>2013-08-27T08:33:48Z</time>
      </trkpt>
      <trkpt lat="44.65295" lon="4.0583">
        <ele>1474.32</ele>
        <time>2013-08-27T08:33:49Z</time>
      </trkpt>
      <trkpt lat="44.65295" lon="4.05833">
        <ele>1474.32</ele>
        <time>2013-08-27T08:33:50Z</time>
      </trkpt>
      <trkpt lat="44.65295" lon="4.05835">
        <ele>1474.8</ele>
        <time>2013-08-27T08:33:51Z</time>
      </trkpt>
      <trkpt lat="44.65294" lon="4.05843">
        <ele>1475.76</ele>
        <time>2013-08-27T08:33:56Z</time>
      </trkpt>
      <trkpt lat="44.65294" lon="4.05846">
        <ele>1476.24</ele>
        <time>2013-08-27T08:33:57Z</time>
      </trkpt>
      <trkpt lat="44.65294" lon="4.05848">
        <ele>1476.24</ele>
        <time>2013-08-27T08:33:58Z</time>
      </trkpt>
      <trkpt lat="44.65295" lon="4.0586">
        <ele>1476.24</ele>
        <time>2013-08-27T08:34:02Z</time>
      </trkpt>
      <trkpt lat="44.65293" lon="4.05899">
        <ele>1475.76</ele>
        <time>2013-08-27T08:34:11Z</time>
      </trkpt>
      <trkpt lat="44.65293" lon="4.05903">
        <ele>1475.76</ele>
        <time>2013-08-27T08:34:12Z</time>
      </trkpt>
      <trkpt lat="44.65294" lon="4.05906">
        <ele>1475.76</ele>
        <time>2013-08-27T08:34:13Z</time>
      </trkpt>
      <trkpt lat="44.65294" lon="4.05908">
        <ele>1476.24</ele>
        <time>2013-08-27T08:34:14Z</time>
      </trkpt>
      <trkpt lat="44.65294" lon="4.05912">
        <ele>1476.24</ele>
        <time>2013-08-27T08:34:15Z</time>
      </trkpt>
      <trkpt lat="44.65295" lon="4.05915">
        <ele>1476.24</ele>
        <time>2013-08-27T08:34:16Z</time>
      </trkpt>
      <trkpt lat="44.65296" lon="4.05918">
        <ele>1476.24</ele>
        <time>2013-08-27T08:34:17Z</time>
      </trkpt>
      <trkpt lat="44.65296" lon="4.05921">
        <ele>1475.76</ele>
        <time>2013-08-27T08:34:18Z</time>
      </trkpt>
      <trkpt lat="44.65296" lon="4.05923">
        <ele>1475.76</ele>
        <time>2013-08-27T08:34:19Z</time>
      </trkpt>
      <trkpt lat="44.65297" lon="4.05926">
        <ele>1475.76</ele>
        <time>2013-08-27T08:34:20Z</time>
      </trkpt>
      <trkpt lat="44.65297" lon="4.05929">
        <ele>1475.76</ele>
        <time>2013-08-27T08:34:21Z</time>
      </trkpt>
      <trkpt lat="44.65297" lon="4.05932">
        <ele>1474.8</ele>
        <time>2013-08-27T08:34:22Z</time>
      </trkpt>
      <trkpt lat="44.65297" lon="4.05935">
        <ele>1474.8</ele>
        <time>2013-08-27T08:34:23Z</time>
      </trkpt>
      <trkpt lat="44.65297" lon="4.05939">
        <ele>1474.32</ele>
        <time>2013-08-27T08:34:24Z</time>
      </trkpt>
      <trkpt lat="44.65297" lon="4.05943">
        <ele>1474.32</ele>
        <time>2013-08-27T08:34:25Z</time>
      </trkpt>
      <trkpt lat="44.65297" lon="4.05946">
        <ele>1473.36</ele>
        <time>2013-08-27T08:34:26Z</time>
      </trkpt>
      <trkpt lat="44.65298" lon="4.05949">
        <ele>1473.36</ele>
        <time>2013-08-27T08:34:27Z</time>
      </trkpt>
      <trkpt lat="44.65299" lon="4.05951">
        <ele>1473.36</ele>
        <time>2013-08-27T08:34:28Z</time>
      </trkpt>
      <trkpt lat="44.653" lon="4.05953">
        <ele>1472.88</ele>
        <time>2013-08-27T08:34:29Z</time>
      </trkpt>
      <trkpt lat="44.65301" lon="4.05955">
        <ele>1472.88</ele>
        <time>2013-08-27T08:34:30Z</time>
      </trkpt>
      <trkpt lat="44.65302" lon="4.05958">
        <ele>1472.4</ele>
        <time>2013-08-27T08:34:31Z</time>
      </trkpt>
      <trkpt lat="44.65302" lon="4.0596">
        <ele>1471.92</ele>
        <time>2013-08-27T08:34:32Z</time>
      </trkpt>
      <trkpt lat="44.65303" lon="4.05962">
        <ele>1470.95</ele>
        <time>2013-08-27T08:34:33Z</time>
      </trkpt>
      <trkpt lat="44.65303" lon="4.05965">
        <ele>1470.47</ele>
        <time>2013-08-27T08:34:34Z</time>
      </trkpt>
      <trkpt lat="44.65302" lon="4.05969">
        <ele>1469.51</ele>
        <time>2013-08-27T08:34:35Z</time>
      </trkpt>
      <trkpt lat="44.65302" lon="4.05976">
        <ele>1469.51</ele>
        <time>2013-08-27T08:34:36Z</time>
      </trkpt>
      <trkpt lat="44.65302" lon="4.05984">
        <ele>1468.55</ele>
        <time>2013-08-27T08:34:37Z</time>
      </trkpt>
      <trkpt lat="44.65301" lon="4.06023">
        <ele>1468.55</ele>
        <time>2013-08-27T08:34:45Z</time>
      </trkpt>
      <trkpt lat="44.653" lon="4.0603">
        <ele>1467.59</ele>
        <time>2013-08-27T08:34:46Z</time>
      </trkpt>
      <trkpt lat="44.653" lon="4.06037">
        <ele>1467.11</ele>
        <time>2013-08-27T08:34:47Z</time>
      </trkpt>
      <trkpt lat="44.65299" lon="4.06044">
        <ele>1467.59</ele>
        <time>2013-08-27T08:34:48Z</time>
      </trkpt>
      <trkpt lat="44.65299" lon="4.06049">
        <ele>1467.59</ele>
        <time>2013-08-27T08:34:49Z</time>
      </trkpt>
      <trkpt lat="44.65288" lon="4.06089">
        <ele>1465.67</ele>
        <time>2013-08-27T08:34:58Z</time>
      </trkpt>
      <trkpt lat="44.65284" lon="4.06108">
        <ele>1464.23</ele>
        <time>2013-08-27T08:35:04Z</time>
      </trkpt>
      <trkpt lat="44.65279" lon="4.06139">
        <ele>1461.34</ele>
        <time>2013-08-27T08:35:12Z</time>
      </trkpt>
      <trkpt lat="44.65269" lon="4.06165">
        <ele>1457.98</ele>
        <time>2013-08-27T08:35:20Z</time>
      </trkpt>
      <trkpt lat="44.65267" lon="4.06177">
        <ele>1457.02</ele>
        <time>2013-08-27T08:35:23Z</time>
      </trkpt>
      <trkpt lat="44.65267" lon="4.06186">
        <ele>1456.53</ele>
        <time>2013-08-27T08:35:26Z</time>
      </trkpt>
      <trkpt lat="44.65265" lon="4.0619">
        <ele>1456.05</ele>
        <time>2013-08-27T08:35:27Z</time>
      </trkpt>
      <trkpt lat="44.65263" lon="4.06194">
        <ele>1455.57</ele>
        <time>2013-08-27T08:35:28Z</time>
      </trkpt>
      <trkpt lat="44.65262" lon="4.06197">
        <ele>1455.09</ele>
        <time>2013-08-27T08:35:29Z</time>
      </trkpt>
      <trkpt lat="44.6526" lon="4.06201">
        <ele>1455.09</ele>
        <time>2013-08-27T08:35:30Z</time>
      </trkpt>
      <trkpt lat="44.65259" lon="4.06204">
        <ele>1454.61</ele>
        <time>2013-08-27T08:35:31Z</time>
      </trkpt>
      <trkpt lat="44.65259" lon="4.06206">
        <ele>1454.13</ele>
        <time>2013-08-27T08:35:32Z</time>
      </trkpt>
      <trkpt lat="44.65258" lon="4.06209">
        <ele>1454.61</ele>
        <time>2013-08-27T08:35:33Z</time>
      </trkpt>
      <trkpt lat="44.65257" lon="4.06212">
        <ele>1453.65</ele>
        <time>2013-08-27T08:35:34Z</time>
      </trkpt>
      <trkpt lat="44.65255" lon="4.06216">
        <ele>1453.65</ele>
        <time>2013-08-27T08:35:35Z</time>
      </trkpt>
      <trkpt lat="44.65253" lon="4.06219">
        <ele>1453.17</ele>
        <time>2013-08-27T08:35:36Z</time>
      </trkpt>
      <trkpt lat="44.65242" lon="4.06252">
        <ele>1450.29</ele>
        <time>2013-08-27T08:35:45Z</time>
      </trkpt>
      <trkpt lat="44.65241" lon="4.06258">
        <ele>1450.29</ele>
        <time>2013-08-27T08:35:54Z</time>
      </trkpt>
      <trkpt lat="44.65241" lon="4.06258">
        <ele>1450.29</ele>
        <time>2013-08-27T08:36:26Z</time>
      </trkpt>
      <trkpt lat="44.65241" lon="4.06258">
        <ele>1450.29</ele>
        <time>2013-08-27T08:37:00Z</time>
      </trkpt>
      <trkpt lat="44.65241" lon="4.06259">
        <ele>1450.29</ele>
        <time>2013-08-27T08:37:33Z</time>
      </trkpt>
      <trkpt lat="44.65241" lon="4.06263">
        <ele>1450.29</ele>
        <time>2013-08-27T08:37:37Z</time>
      </trkpt>
      <trkpt lat="44.6524" lon="4.06265">
        <ele>1449.81</ele>
        <time>2013-08-27T08:37:38Z</time>
      </trkpt>
      <trkpt lat="44.6524" lon="4.06268">
        <ele>1449.81</ele>
        <time>2013-08-27T08:37:39Z</time>
      </trkpt>
      <trkpt lat="44.6524" lon="4.0627">
        <ele>1449.32</ele>
        <time>2013-08-27T08:37:40Z</time>
      </trkpt>
      <trkpt lat="44.65239" lon="4.06273">
        <ele>1448.84</ele>
        <time>2013-08-27T08:37:41Z</time>
      </trkpt>
      <trkpt lat="44.65236" lon="4.06278">
        <ele>1447.88</ele>
        <time>2013-08-27T08:37:43Z</time>
      </trkpt>
      <trkpt lat="44.65226" lon="4.06294">
        <ele>1444.52</ele>
        <time>2013-08-27T08:37:49Z</time>
      </trkpt>
      <trkpt lat="44.65223" lon="4.06303">
        <ele>1443.56</ele>
        <time>2013-08-27T08:37:52Z</time>
      </trkpt>
      <trkpt lat="44.65222" lon="4.06307">
        <ele>1443.08</ele>
        <time>2013-08-27T08:37:53Z</time>
      </trkpt>
      <trkpt lat="44.65222" lon="4.06309">
        <ele>1442.6</ele>
        <time>2013-08-27T08:37:54Z</time>
      </trkpt>
      <trkpt lat="44.65221" lon="4.06311">
        <ele>1442.6</ele>
        <time>2013-08-27T08:37:55Z</time>
      </trkpt>
      <trkpt lat="44.65221" lon="4.06314">
        <ele>1442.11</ele>
        <time>2013-08-27T08:37:56Z</time>
      </trkpt>
      <trkpt lat="44.6522" lon="4.06317">
        <ele>1441.63</ele>
        <time>2013-08-27T08:37:57Z</time>
      </trkpt>
      <trkpt lat="44.65219" lon="4.06319">
        <ele>1441.15</ele>
        <time>2013-08-27T08:37:58Z</time>
      </trkpt>
      <trkpt lat="44.65216" lon="4.06328">
        <ele>1439.71</ele>
        <time>2013-08-27T08:38:01Z</time>
      </trkpt>
      <trkpt lat="44.65216" lon="4.06333">
        <ele>1439.23</ele>
        <time>2013-08-27T08:38:02Z</time>
      </trkpt>
      <trkpt lat="44.65215" lon="4.06345">
        <ele>1437.79</ele>
        <time>2013-08-27T08:38:05Z</time>
      </trkpt>
      <trkpt lat="44.65211" lon="4.06368">
        <ele>1434.91</ele>
        <time>2013-08-27T08:38:10Z</time>
      </trkpt>
      <trkpt lat="44.65207" lon="4.06385">
        <ele>1431.54</ele>
        <time>2013-08-27T08:38:15Z</time>
      </trkpt>
      <trkpt lat="44.65202" lon="4.06408">
        <ele>1428.18</ele>
        <time>2013-08-27T08:38:21Z</time>
      </trkpt>
      <trkpt lat="44.652" lon="4.0643">
        <ele>1425.77</ele>
        <time>2013-08-27T08:38:26Z</time>
      </trkpt>
      <trkpt lat="44.65202" lon="4.0645">
        <ele>1422.89</ele>
        <time>2013-08-27T08:38:31Z</time>
      </trkpt>
      <trkpt lat="44.65198" lon="4.06485">
        <ele>1420</ele>
        <time>2013-08-27T08:38:38Z</time>
      </trkpt>
      <trkpt lat="44.65197" lon="4.06498">
        <ele>1418.56</ele>
        <time>2013-08-27T08:38:40Z</time>
      </trkpt>
      <trkpt lat="44.65194" lon="4.06521">
        <ele>1417.12</ele>
        <time>2013-08-27T08:38:43Z</time>
      </trkpt>
      <trkpt lat="44.65193" lon="4.06528">
        <ele>1416.64</ele>
        <time>2013-08-27T08:38:44Z</time>
      </trkpt>
      <trkpt lat="44.65183" lon="4.06581">
        <ele>1414.72</ele>
        <time>2013-08-27T08:38:54Z</time>
      </trkpt>
      <trkpt lat="44.65182" lon="4.06583">
        <ele>1414.72</ele>
        <time>2013-08-27T08:38:55Z</time>
      </trkpt>
      <trkpt lat="44.6518" lon="4.06585">
        <ele>1414.72</ele>
        <time>2013-08-27T08:38:56Z</time>
      </trkpt>
      <trkpt lat="44.65178" lon="4.06587">
        <ele>1414.24</ele>
        <time>2013-08-27T08:38:57Z</time>
      </trkpt>
      <trkpt lat="44.65176" lon="4.06589">
        <ele>1414.24</ele>
        <time>2013-08-27T08:38:58Z</time>
      </trkpt>
      <trkpt lat="44.65175" lon="4.06589">
        <ele>1414.72</ele>
        <time>2013-08-27T08:39:10Z</time>
      </trkpt>
      <trkpt lat="44.65175" lon="4.06589">
        <ele>1414.24</ele>
        <time>2013-08-27T08:39:27Z</time>
      </trkpt>
      <trkpt lat="44.65175" lon="4.0659">
        <ele>1413.76</ele>
        <time>2013-08-27T08:39:50Z</time>
      </trkpt>
      <trkpt lat="44.65172" lon="4.06592">
        <ele>1413.28</ele>
        <time>2013-08-27T08:40:05Z</time>
      </trkpt>
      <trkpt lat="44.6517" lon="4.06594">
        <ele>1413.76</ele>
        <time>2013-08-27T08:40:06Z</time>
      </trkpt>
      <trkpt lat="44.65168" lon="4.06595">
        <ele>1413.76</ele>
        <time>2013-08-27T08:40:07Z</time>
      </trkpt>
      <trkpt lat="44.65166" lon="4.06597">
        <ele>1412.79</ele>
        <time>2013-08-27T08:40:08Z</time>
      </trkpt>
      <trkpt lat="44.65164" lon="4.06598">
        <ele>1412.79</ele>
        <time>2013-08-27T08:40:09Z</time>
      </trkpt>
      <trkpt lat="44.65162" lon="4.066">
        <ele>1413.28</ele>
        <time>2013-08-27T08:40:10Z</time>
      </trkpt>
      <trkpt lat="44.65159" lon="4.06602">
        <ele>1412.79</ele>
        <time>2013-08-27T08:40:11Z</time>
      </trkpt>
      <trkpt lat="44.65156" lon="4.06603">
        <ele>1412.79</ele>
        <time>2013-08-27T08:40:12Z</time>
      </trkpt>
      <trkpt lat="44.65126" lon="4.06607">
        <ele>1411.35</ele>
        <time>2013-08-27T08:40:21Z</time>
      </trkpt>
      <trkpt lat="44.65112" lon="4.06608">
        <ele>1409.91</ele>
        <time>2013-08-27T08:40:25Z</time>
      </trkpt>
      <trkpt lat="44.65107" lon="4.06609">
        <ele>1409.43</ele>
        <time>2013-08-27T08:40:26Z</time>
      </trkpt>
      <trkpt lat="44.65099" lon="4.0661">
        <ele>1408.95</ele>
        <time>2013-08-27T08:40:28Z</time>
      </trkpt>
      <trkpt lat="44.65095" lon="4.06611">
        <ele>1409.43</ele>
        <time>2013-08-27T08:40:29Z</time>
      </trkpt>
      <trkpt lat="44.65091" lon="4.06612">
        <ele>1409.91</ele>
        <time>2013-08-27T08:40:30Z</time>
      </trkpt>
      <trkpt lat="44.65088" lon="4.06613">
        <ele>1409.43</ele>
        <time>2013-08-27T08:40:31Z</time>
      </trkpt>
      <trkpt lat="44.65084" lon="4.06614">
        <ele>1409.91</ele>
        <time>2013-08-27T08:40:32Z</time>
      </trkpt>
      <trkpt lat="44.65081" lon="4.06616">
        <ele>1409.91</ele>
        <time>2013-08-27T08:40:33Z</time>
      </trkpt>
      <trkpt lat="44.65078" lon="4.06619">
        <ele>1409.91</ele>
        <time>2013-08-27T08:40:34Z</time>
      </trkpt>
      <trkpt lat="44.65075" lon="4.06622">
        <ele>1410.39</ele>
        <time>2013-08-27T08:40:35Z</time>
      </trkpt>
      <trkpt lat="44.65072" lon="4.06625">
        <ele>1410.39</ele>
        <time>2013-08-27T08:40:36Z</time>
      </trkpt>
      <trkpt lat="44.65068" lon="4.06628">
        <ele>1410.39</ele>
        <time>2013-08-27T08:40:37Z</time>
      </trkpt>
      <trkpt lat="44.65066" lon="4.06631">
        <ele>1410.39</ele>
        <time>2013-08-27T08:40:38Z</time>
      </trkpt>
      <trkpt lat="44.65063" lon="4.06633">
        <ele>1410.87</ele>
        <time>2013-08-27T08:40:39Z</time>
      </trkpt>
      <trkpt lat="44.65033" lon="4.06672">
        <ele>1411.83</ele>
        <time>2013-08-27T08:40:51Z</time>
      </trkpt>
      <trkpt lat="44.65009" lon="4.06711">
        <ele>1412.31</ele>
        <time>2013-08-27T08:41:03Z</time>
      </trkpt>
      <trkpt lat="44.64986" lon="4.06736">
        <ele>1412.79</ele>
        <time>2013-08-27T08:41:14Z</time>
      </trkpt>
      <trkpt lat="44.64956" lon="4.06772">
        <ele>1411.35</ele>
        <time>2013-08-27T08:41:24Z</time>
      </trkpt>
      <trkpt lat="44.64953" lon="4.06774">
        <ele>1411.35</ele>
        <time>2013-08-27T08:41:25Z</time>
      </trkpt>
      <trkpt lat="44.64929" lon="4.06796">
        <ele>1414.24</ele>
        <time>2013-08-27T08:41:37Z</time>
      </trkpt>
      <trkpt lat="44.64922" lon="4.06798">
        <ele>1414.72</ele>
        <time>2013-08-27T08:41:41Z</time>
      </trkpt>
      <trkpt lat="44.64921" lon="4.06799">
        <ele>1414.72</ele>
        <time>2013-08-27T08:41:42Z</time>
      </trkpt>
      <trkpt lat="44.64903" lon="4.06802">
        <ele>1417.6</ele>
        <time>2013-08-27T08:41:54Z</time>
      </trkpt>
      <trkpt lat="44.64894" lon="4.06802">
        <ele>1419.04</ele>
        <time>2013-08-27T08:42:00Z</time>
      </trkpt>
      <trkpt lat="44.64892" lon="4.06801">
        <ele>1418.56</ele>
        <time>2013-08-27T08:42:01Z</time>
      </trkpt>
      <trkpt lat="44.6489" lon="4.068">
        <ele>1419.04</ele>
        <time>2013-08-27T08:42:02Z</time>
      </trkpt>
      <trkpt lat="44.64889" lon="4.068">
        <ele>1419.04</ele>
        <time>2013-08-27T08:42:03Z</time>
      </trkpt>
      <trkpt lat="44.64887" lon="4.068">
        <ele>1419.04</ele>
        <time>2013-08-27T08:42:04Z</time>
      </trkpt>
      <trkpt lat="44.64885" lon="4.06799">
        <ele>1419.04</ele>
        <time>2013-08-27T08:42:05Z</time>
      </trkpt>
      <trkpt lat="44.64883" lon="4.06798">
        <ele>1419.04</ele>
        <time>2013-08-27T08:42:06Z</time>
      </trkpt>
      <trkpt lat="44.64881" lon="4.06798">
        <ele>1419.52</ele>
        <time>2013-08-27T08:42:07Z</time>
      </trkpt>
      <trkpt lat="44.64861" lon="4.06785">
        <ele>1420.49</ele>
        <time>2013-08-27T08:42:21Z</time>
      </trkpt>
      <trkpt lat="44.64835" lon="4.06779">
        <ele>1422.89</ele>
        <time>2013-08-27T08:42:36Z</time>
      </trkpt>
      <trkpt lat="44.64829" lon="4.0678">
        <ele>1423.37</ele>
        <time>2013-08-27T08:42:40Z</time>
      </trkpt>
      <trkpt lat="44.64827" lon="4.0678">
        <ele>1423.85</ele>
        <time>2013-08-27T08:42:41Z</time>
      </trkpt>
      <trkpt lat="44.64803" lon="4.06798">
        <ele>1424.81</ele>
        <time>2013-08-27T08:42:56Z</time>
      </trkpt>
      <trkpt lat="44.64785" lon="4.06826">
        <ele>1425.29</ele>
        <time>2013-08-27T08:43:11Z</time>
      </trkpt>
      <trkpt lat="44.64763" lon="4.06871">
        <ele>1423.85</ele>
        <time>2013-08-27T08:43:26Z</time>
      </trkpt>
      <trkpt lat="44.64755" lon="4.06889">
        <ele>1421.93</ele>
        <time>2013-08-27T08:43:30Z</time>
      </trkpt>
      <trkpt lat="44.64747" lon="4.06905">
        <ele>1421.45</ele>
        <time>2013-08-27T08:43:33Z</time>
      </trkpt>
      <trkpt lat="44.64744" lon="4.06911">
        <ele>1420.49</ele>
        <time>2013-08-27T08:43:34Z</time>
      </trkpt>
      <trkpt lat="44.64726" lon="4.06943">
        <ele>1417.12</ele>
        <time>2013-08-27T08:43:39Z</time>
      </trkpt>
      <trkpt lat="44.64706" lon="4.06972">
        <ele>1414.72</ele>
        <time>2013-08-27T08:43:45Z</time>
      </trkpt>
      <trkpt lat="44.64698" lon="4.06982">
        <ele>1413.76</ele>
        <time>2013-08-27T08:43:47Z</time>
      </trkpt>
      <trkpt lat="44.64694" lon="4.06988">
        <ele>1413.28</ele>
        <time>2013-08-27T08:43:48Z</time>
      </trkpt>
      <trkpt lat="44.64682" lon="4.07008">
        <ele>1412.31</ele>
        <time>2013-08-27T08:43:51Z</time>
      </trkpt>
      <trkpt lat="44.64674" lon="4.0702">
        <ele>1411.35</ele>
        <time>2013-08-27T08:43:53Z</time>
      </trkpt>
      <trkpt lat="44.64667" lon="4.07034">
        <ele>1410.39</ele>
        <time>2013-08-27T08:43:55Z</time>
      </trkpt>
      <trkpt lat="44.6464" lon="4.07081">
        <ele>1407.99</ele>
        <time>2013-08-27T08:44:02Z</time>
      </trkpt>
      <trkpt lat="44.64629" lon="4.07109">
        <ele>1406.07</ele>
        <time>2013-08-27T08:44:06Z</time>
      </trkpt>
      <trkpt lat="44.64624" lon="4.07125">
        <ele>1405.1</ele>
        <time>2013-08-27T08:44:08Z</time>
      </trkpt>
      <trkpt lat="44.64622" lon="4.07133">
        <ele>1404.62</ele>
        <time>2013-08-27T08:44:09Z</time>
      </trkpt>
      <trkpt lat="44.64621" lon="4.07142">
        <ele>1404.14</ele>
        <time>2013-08-27T08:44:10Z</time>
      </trkpt>
      <trkpt lat="44.6462" lon="4.07181">
        <ele>1401.74</ele>
        <time>2013-08-27T08:44:15Z</time>
      </trkpt>
      <trkpt lat="44.64621" lon="4.07196">
        <ele>1402.22</ele>
        <time>2013-08-27T08:44:17Z</time>
      </trkpt>
      <trkpt lat="44.64623" lon="4.07246">
        <ele>1400.78</ele>
        <time>2013-08-27T08:44:26Z</time>
      </trkpt>
      <trkpt lat="44.64621" lon="4.0725">
        <ele>1400.3</ele>
        <time>2013-08-27T08:44:27Z</time>
      </trkpt>
      <trkpt lat="44.64619" lon="4.07253">
        <ele>1400.3</ele>
        <time>2013-08-27T08:44:28Z</time>
      </trkpt>
      <trkpt lat="44.64619" lon="4.07256">
        <ele>1400.78</ele>
        <time>2013-08-27T08:44:37Z</time>
      </trkpt>
      <trkpt lat="44.64619" lon="4.07256">
        <ele>1400.78</ele>
        <time>2013-08-27T08:45:02Z</time>
      </trkpt>
      <trkpt lat="44.64619" lon="4.07255">
        <ele>1400.78</ele>
        <time>2013-08-27T08:45:28Z</time>
      </trkpt>
      <trkpt lat="44.64619" lon="4.07255">
        <ele>1401.26</ele>
        <time>2013-08-27T08:45:53Z</time>
      </trkpt>
      <trkpt lat="44.64619" lon="4.07255">
        <ele>1401.74</ele>
        <time>2013-08-27T08:46:18Z</time>
      </trkpt>
      <trkpt lat="44.64619" lon="4.07255">
        <ele>1401.26</ele>
        <time>2013-08-27T08:46:21Z</time>
      </trkpt>
      <trkpt lat="44.64619" lon="4.07259">
        <ele>1401.26</ele>
        <time>2013-08-27T08:46:22Z</time>
      </trkpt>
      <trkpt lat="44.6462" lon="4.07262">
        <ele>1400.78</ele>
        <time>2013-08-27T08:46:23Z</time>
      </trkpt>
      <trkpt lat="44.6462" lon="4.07265">
        <ele>1400.78</ele>
        <time>2013-08-27T08:46:24Z</time>
      </trkpt>
      <trkpt lat="44.64621" lon="4.07267">
        <ele>1400.78</ele>
        <time>2013-08-27T08:46:25Z</time>
      </trkpt>
      <trkpt lat="44.64621" lon="4.07269">
        <ele>1401.26</ele>
        <time>2013-08-27T08:46:26Z</time>
      </trkpt>
      <trkpt lat="44.64622" lon="4.07273">
        <ele>1400.78</ele>
        <time>2013-08-27T08:46:27Z</time>
      </trkpt>
      <trkpt lat="44.64627" lon="4.0732">
        <ele>1397.89</ele>
        <time>2013-08-27T08:46:38Z</time>
      </trkpt>
      <trkpt lat="44.64627" lon="4.07325">
        <ele>1397.89</ele>
        <time>2013-08-27T08:46:39Z</time>
      </trkpt>
      <trkpt lat="44.64629" lon="4.07373">
        <ele>1397.41</ele>
        <time>2013-08-27T08:46:49Z</time>
      </trkpt>
      <trkpt lat="44.64627" lon="4.0739">
        <ele>1397.41</ele>
        <time>2013-08-27T08:46:52Z</time>
      </trkpt>
      <trkpt lat="44.64626" lon="4.07396">
        <ele>1396.45</ele>
        <time>2013-08-27T08:46:53Z</time>
      </trkpt>
      <trkpt lat="44.64625" lon="4.07402">
        <ele>1396.93</ele>
        <time>2013-08-27T08:46:54Z</time>
      </trkpt>
      <trkpt lat="44.6462" lon="4.07428">
        <ele>1394.53</ele>
        <time>2013-08-27T08:46:58Z</time>
      </trkpt>
      <trkpt lat="44.64619" lon="4.07434">
        <ele>1394.05</ele>
        <time>2013-08-27T08:46:59Z</time>
      </trkpt>
      <trkpt lat="44.64618" lon="4.0744">
        <ele>1394.05</ele>
        <time>2013-08-27T08:47:00Z</time>
      </trkpt>
      <trkpt lat="44.64605" lon="4.07511">
        <ele>1391.65</ele>
        <time>2013-08-27T08:47:13Z</time>
      </trkpt>
      <trkpt lat="44.64603" lon="4.07517">
        <ele>1391.65</ele>
        <time>2013-08-27T08:47:14Z</time>
      </trkpt>
      <trkpt lat="44.646" lon="4.07529">
        <ele>1390.68</ele>
        <time>2013-08-27T08:47:16Z</time>
      </trkpt>
      <trkpt lat="44.64598" lon="4.07534">
        <ele>1390.2</ele>
        <time>2013-08-27T08:47:17Z</time>
      </trkpt>
      <trkpt lat="44.64587" lon="4.07557">
        <ele>1390.2</ele>
        <time>2013-08-27T08:47:23Z</time>
      </trkpt>
      <trkpt lat="44.64588" lon="4.0756">
        <ele>1390.2</ele>
        <time>2013-08-27T08:47:24Z</time>
      </trkpt>
      <trkpt lat="44.64588" lon="4.07561">
        <ele>1390.68</ele>
        <time>2013-08-27T08:47:31Z</time>
      </trkpt>
      <trkpt lat="44.64588" lon="4.07561">
        <ele>1390.2</ele>
        <time>2013-08-27T08:48:00Z</time>
      </trkpt>
      <trkpt lat="44.64588" lon="4.07561">
        <ele>1389.72</ele>
        <time>2013-08-27T08:48:27Z</time>
      </trkpt>
      <trkpt lat="44.64588" lon="4.07561">
        <ele>1388.76</ele>
        <time>2013-08-27T08:48:54Z</time>
      </trkpt>
      <trkpt lat="44.64588" lon="4.07561">
        <ele>1389.72</ele>
        <time>2013-08-27T08:49:19Z</time>
      </trkpt>
      <trkpt lat="44.64588" lon="4.07561">
        <ele>1389.24</ele>
        <time>2013-08-27T08:49:41Z</time>
      </trkpt>
      <trkpt lat="44.64589" lon="4.0756">
        <ele>1389.72</ele>
        <time>2013-08-27T08:50:18Z</time>
      </trkpt>
      <trkpt lat="44.64589" lon="4.0756">
        <ele>1389.24</ele>
        <time>2013-08-27T08:50:45Z</time>
      </trkpt>
      <trkpt lat="44.64588" lon="4.07561">
        <ele>1390.2</ele>
        <time>2013-08-27T08:51:01Z</time>
      </trkpt>
      <trkpt lat="44.64604" lon="4.07558">
        <ele>1389.24</ele>
        <time>2013-08-27T08:51:11Z</time>
      </trkpt>
      <trkpt lat="44.64613" lon="4.07556">
        <ele>1388.76</ele>
        <time>2013-08-27T08:51:16Z</time>
      </trkpt>
      <trkpt lat="44.64624" lon="4.07558">
        <ele>1388.28</ele>
        <time>2013-08-27T08:51:21Z</time>
      </trkpt>
      <trkpt lat="44.64634" lon="4.07562">
        <ele>1386.84</ele>
        <time>2013-08-27T08:51:25Z</time>
      </trkpt>
      <trkpt lat="44.64648" lon="4.07561">
        <ele>1384.44</ele>
        <time>2013-08-27T08:51:30Z</time>
      </trkpt>
      <trkpt lat="44.64649" lon="4.0756">
        <ele>1383.47</ele>
        <time>2013-08-27T08:51:31Z</time>
      </trkpt>
      <trkpt lat="44.64654" lon="4.07556">
        <ele>1383.96</ele>
        <time>2013-08-27T08:51:34Z</time>
      </trkpt>
      <trkpt lat="44.64657" lon="4.07548">
        <ele>1384.92</ele>
        <time>2013-08-27T08:51:39Z</time>
      </trkpt>
      <trkpt lat="44.64665" lon="4.07538">
        <ele>1385.88</ele>
        <time>2013-08-27T08:51:54Z</time>
      </trkpt>
      <trkpt lat="44.64665" lon="4.07535">
        <ele>1386.36</ele>
        <time>2013-08-27T08:52:08Z</time>
      </trkpt>
      <trkpt lat="44.64668" lon="4.0753">
        <ele>1384.44</ele>
        <time>2013-08-27T08:52:22Z</time>
      </trkpt>
      <trkpt lat="44.64668" lon="4.0753">
        <ele>1384.44</ele>
        <time>2013-08-27T08:52:23Z</time>
      </trkpt>
      <trkpt lat="44.64671" lon="4.07531">
        <ele>1381.07</ele>
        <time>2013-08-27T08:52:33Z</time>
      </trkpt>
      <trkpt lat="44.64672" lon="4.07531">
        <ele>1380.59</ele>
        <time>2013-08-27T08:52:50Z</time>
      </trkpt>
      <trkpt lat="44.64681" lon="4.07523">
        <ele>1376.75</ele>
        <time>2013-08-27T08:52:56Z</time>
      </trkpt>
      <trkpt lat="44.64682" lon="4.07521">
        <ele>1375.78</ele>
        <time>2013-08-27T08:52:58Z</time>
      </trkpt>
      <trkpt lat="44.64685" lon="4.07523">
        <ele>1372.42</ele>
        <time>2013-08-27T08:53:02Z</time>
      </trkpt>
      <trkpt lat="44.64685" lon="4.07523">
        <ele>1371.46</ele>
        <time>2013-08-27T08:53:04Z</time>
      </trkpt>
      <trkpt lat="44.64686" lon="4.07522">
        <ele>1368.57</ele>
        <time>2013-08-27T08:53:10Z</time>
      </trkpt>
      <trkpt lat="44.64691" lon="4.07524">
        <ele>1366.65</ele>
        <time>2013-08-27T08:53:13Z</time>
      </trkpt>
      <trkpt lat="44.64705" lon="4.07522">
        <ele>1363.77</ele>
        <time>2013-08-27T08:53:19Z</time>
      </trkpt>
      <trkpt lat="44.64705" lon="4.07532">
        <ele>1359.44</ele>
        <time>2013-08-27T08:53:26Z</time>
      </trkpt>
      <trkpt lat="44.64702" lon="4.07535">
        <ele>1358</ele>
        <time>2013-08-27T08:53:28Z</time>
      </trkpt>
      <trkpt lat="44.64703" lon="4.07543">
        <ele>1355.6</ele>
        <time>2013-08-27T08:53:35Z</time>
      </trkpt>
      <trkpt lat="44.64706" lon="4.07545">
        <ele>1354.63</ele>
        <time>2013-08-27T08:53:47Z</time>
      </trkpt>
      <trkpt lat="44.64706" lon="4.07545">
        <ele>1354.63</ele>
        <time>2013-08-27T08:54:17Z</time>
      </trkpt>
      <trkpt lat="44.6471" lon="4.0755">
        <ele>1353.19</ele>
        <time>2013-08-27T08:54:38Z</time>
      </trkpt>
      <trkpt lat="44.64724" lon="4.07549">
        <ele>1350.31</ele>
        <time>2013-08-27T08:54:43Z</time>
      </trkpt>
      <trkpt lat="44.64729" lon="4.07546">
        <ele>1347.91</ele>
        <time>2013-08-27T08:54:48Z</time>
      </trkpt>
      <trkpt lat="44.64735" lon="4.07548">
        <ele>1345.98</ele>
        <time>2013-08-27T08:54:50Z</time>
      </trkpt>
      <trkpt lat="44.64743" lon="4.07549">
        <ele>1344.06</ele>
        <time>2013-08-27T08:54:52Z</time>
      </trkpt>
      <trkpt lat="44.64752" lon="4.07549">
        <ele>1342.62</ele>
        <time>2013-08-27T08:54:54Z</time>
      </trkpt>
      <trkpt lat="44.64771" lon="4.07544">
        <ele>1340.7</ele>
        <time>2013-08-27T08:54:58Z</time>
      </trkpt>
      <trkpt lat="44.64777" lon="4.07545">
        <ele>1338.77</ele>
        <time>2013-08-27T08:55:01Z</time>
      </trkpt>
      <trkpt lat="44.64781" lon="4.07542">
        <ele>1337.81</ele>
        <time>2013-08-27T08:55:05Z</time>
      </trkpt>
      <trkpt lat="44.64787" lon="4.07546">
        <ele>1333.97</ele>
        <time>2013-08-27T08:55:11Z</time>
      </trkpt>
      <trkpt lat="44.64787" lon="4.07546">
        <ele>1333.97</ele>
        <time>2013-08-27T08:55:12Z</time>
      </trkpt>
      <trkpt lat="44.64787" lon="4.07546">
        <ele>1342.14</ele>
        <time>2013-08-27T08:55:14Z</time>
      </trkpt>
      <trkpt lat="44.64788" lon="4.07547">
        <ele>1334.93</ele>
        <time>2013-08-27T08:55:15Z</time>
      </trkpt>
      <trkpt lat="44.6479" lon="4.07542">
        <ele>1337.33</ele>
        <time>2013-08-27T08:55:26Z</time>
      </trkpt>
      <trkpt lat="44.6479" lon="4.07542">
        <ele>1338.29</ele>
        <time>2013-08-27T08:55:36Z</time>
      </trkpt>
      <trkpt lat="44.6479" lon="4.07543">
        <ele>1335.89</ele>
        <time>2013-08-27T08:55:53Z</time>
      </trkpt>
      <trkpt lat="44.64788" lon="4.07546">
        <ele>1332.52</ele>
        <time>2013-08-27T08:56:02Z</time>
      </trkpt>
      <trkpt lat="44.64789" lon="4.07553">
        <ele>1330.6</ele>
        <time>2013-08-27T08:56:05Z</time>
      </trkpt>
      <trkpt lat="44.64788" lon="4.07555">
        <ele>1330.6</ele>
        <time>2013-08-27T08:56:21Z</time>
      </trkpt>
      <trkpt lat="44.64786" lon="4.07565">
        <ele>1327.72</ele>
        <time>2013-08-27T08:56:30Z</time>
      </trkpt>
      <trkpt lat="44.64784" lon="4.07572">
        <ele>1324.35</ele>
        <time>2013-08-27T08:56:43Z</time>
      </trkpt>
      <trkpt lat="44.64784" lon="4.07577">
        <ele>1323.87</ele>
        <time>2013-08-27T08:56:56Z</time>
      </trkpt>
      <trkpt lat="44.6478" lon="4.07588">
        <ele>1321.47</ele>
        <time>2013-08-27T08:57:11Z</time>
      </trkpt>
      <trkpt lat="44.64781" lon="4.0759">
        <ele>1321.47</ele>
        <time>2013-08-27T08:57:12Z</time>
      </trkpt>
      <trkpt lat="44.64786" lon="4.07597">
        <ele>1318.1</ele>
        <time>2013-08-27T08:57:23Z</time>
      </trkpt>
      <trkpt lat="44.64787" lon="4.07598">
        <ele>1316.66</ele>
        <time>2013-08-27T08:57:36Z</time>
      </trkpt>
      <trkpt lat="44.64787" lon="4.07598">
        <ele>1316.18</ele>
        <time>2013-08-27T08:57:58Z</time>
      </trkpt>
      <trkpt lat="44.64787" lon="4.07598">
        <ele>1315.7</ele>
        <time>2013-08-27T08:58:27Z</time>
      </trkpt>
      <trkpt lat="44.64787" lon="4.07598">
        <ele>1316.18</ele>
        <time>2013-08-27T08:59:04Z</time>
      </trkpt>
      <trkpt lat="44.64787" lon="4.07598">
        <ele>1316.18</ele>
        <time>2013-08-27T08:59:38Z</time>
      </trkpt>
      <trkpt lat="44.6479" lon="4.07598">
        <ele>1314.26</ele>
        <time>2013-08-27T08:59:45Z</time>
      </trkpt>
      <trkpt lat="44.64801" lon="4.07604">
        <ele>1310.41</ele>
        <time>2013-08-27T08:59:56Z</time>
      </trkpt>
      <trkpt lat="44.648" lon="4.07605">
        <ele>1309.93</ele>
        <time>2013-08-27T09:00:08Z</time>
      </trkpt>
      <trkpt lat="44.648" lon="4.07605">
        <ele>1309.93</ele>
        <time>2013-08-27T09:00:40Z</time>
      </trkpt>
      <trkpt lat="44.648" lon="4.07604">
        <ele>1311.38</ele>
        <time>2013-08-27T09:01:11Z</time>
      </trkpt>
      <trkpt lat="44.648" lon="4.07608">
        <ele>1309.93</ele>
        <time>2013-08-27T09:01:18Z</time>
      </trkpt>
      <trkpt lat="44.64793" lon="4.07631">
        <ele>1305.61</ele>
        <time>2013-08-27T09:01:30Z</time>
      </trkpt>
      <trkpt lat="44.64793" lon="4.07632">
        <ele>1304.65</ele>
        <time>2013-08-27T09:01:32Z</time>
      </trkpt>
      <trkpt lat="44.64798" lon="4.07634">
        <ele>1301.28</ele>
        <time>2013-08-27T09:01:39Z</time>
      </trkpt>
      <trkpt lat="44.64808" lon="4.07631">
        <ele>1298.4</ele>
        <time>2013-08-27T09:01:48Z</time>
      </trkpt>
      <trkpt lat="44.64809" lon="4.07631">
        <ele>1295.99</ele>
        <time>2013-08-27T09:01:54Z</time>
      </trkpt>
      <trkpt lat="44.64821" lon="4.07628">
        <ele>1292.63</ele>
        <time>2013-08-27T09:01:59Z</time>
      </trkpt>
      <trkpt lat="44.64827" lon="4.07625">
        <ele>1289.27</ele>
        <time>2013-08-27T09:02:06Z</time>
      </trkpt>
      <trkpt lat="44.6483" lon="4.07625">
        <ele>1289.27</ele>
        <time>2013-08-27T09:02:07Z</time>
      </trkpt>
      <trkpt lat="44.64837" lon="4.07625">
        <ele>1287.82</ele>
        <time>2013-08-27T09:02:10Z</time>
      </trkpt>
      <trkpt lat="44.64839" lon="4.07622">
        <ele>1287.34</ele>
        <time>2013-08-27T09:02:25Z</time>
      </trkpt>
      <trkpt lat="44.64839" lon="4.07622">
        <ele>1286.86</ele>
        <time>2013-08-27T09:02:31Z</time>
      </trkpt>
      <trkpt lat="44.64843" lon="4.07622">
        <ele>1286.38</ele>
        <time>2013-08-27T09:02:33Z</time>
      </trkpt>
      <trkpt lat="44.6486" lon="4.07617">
        <ele>1282.54</ele>
        <time>2013-08-27T09:02:41Z</time>
      </trkpt>
      <trkpt lat="44.64867" lon="4.07614">
        <ele>1279.17</ele>
        <time>2013-08-27T09:02:48Z</time>
      </trkpt>
      <trkpt lat="44.64868" lon="4.07614">
        <ele>1278.69</ele>
        <time>2013-08-27T09:02:49Z</time>
      </trkpt>
      <trkpt lat="44.64874" lon="4.07613">
        <ele>1277.25</ele>
        <time>2013-08-27T09:02:51Z</time>
      </trkpt>
      <trkpt lat="44.64879" lon="4.07618">
        <ele>1275.81</ele>
        <time>2013-08-27T09:03:01Z</time>
      </trkpt>
      <trkpt lat="44.64879" lon="4.07618">
        <ele>1275.33</ele>
        <time>2013-08-27T09:03:30Z</time>
      </trkpt>
      <trkpt lat="44.64879" lon="4.07618">
        <ele>1275.81</ele>
        <time>2013-08-27T09:04:03Z</time>
      </trkpt>
      <trkpt lat="44.64879" lon="4.07619">
        <ele>1275.81</ele>
        <time>2013-08-27T09:04:10Z</time>
      </trkpt>
      <trkpt lat="44.64884" lon="4.07625">
        <ele>1272.44</ele>
        <time>2013-08-27T09:04:20Z</time>
      </trkpt>
      <trkpt lat="44.64885" lon="4.07631">
        <ele>1270.04</ele>
        <time>2013-08-27T09:04:33Z</time>
      </trkpt>
      <trkpt lat="44.64883" lon="4.07636">
        <ele>1268.12</ele>
        <time>2013-08-27T09:04:54Z</time>
      </trkpt>
      <trkpt lat="44.6488" lon="4.07642">
        <ele>1266.67</ele>
        <time>2013-08-27T09:04:58Z</time>
      </trkpt>
      <trkpt lat="44.64879" lon="4.07648">
        <ele>1265.23</ele>
        <time>2013-08-27T09:05:02Z</time>
      </trkpt>
      <trkpt lat="44.64882" lon="4.07651">
        <ele>1264.27</ele>
        <time>2013-08-27T09:05:04Z</time>
      </trkpt>
      <trkpt lat="44.64886" lon="4.07652">
        <ele>1262.83</ele>
        <time>2013-08-27T09:05:07Z</time>
      </trkpt>
      <trkpt lat="44.64891" lon="4.07652">
        <ele>1261.39</ele>
        <time>2013-08-27T09:05:10Z</time>
      </trkpt>
      <trkpt lat="44.64897" lon="4.07649">
        <ele>1257.54</ele>
        <time>2013-08-27T09:05:19Z</time>
      </trkpt>
      <trkpt lat="44.64901" lon="4.07647">
        <ele>1255.62</ele>
        <time>2013-08-27T09:05:23Z</time>
      </trkpt>
      <trkpt lat="44.64904" lon="4.07644">
        <ele>1254.66</ele>
        <time>2013-08-27T09:05:25Z</time>
      </trkpt>
      <trkpt lat="44.64909" lon="4.07643">
        <ele>1251.77</ele>
        <time>2013-08-27T09:05:29Z</time>
      </trkpt>
      <trkpt lat="44.64912" lon="4.07643">
        <ele>1251.77</ele>
        <time>2013-08-27T09:05:31Z</time>
      </trkpt>
      <trkpt lat="44.64925" lon="4.07646">
        <ele>1248.89</ele>
        <time>2013-08-27T09:05:40Z</time>
      </trkpt>
      <trkpt lat="44.64925" lon="4.07646">
        <ele>1249.37</ele>
        <time>2013-08-27T09:06:01Z</time>
      </trkpt>
      <trkpt lat="44.64925" lon="4.07646">
        <ele>1249.37</ele>
        <time>2013-08-27T09:06:27Z</time>
      </trkpt>
      <trkpt lat="44.64921" lon="4.07655">
        <ele>1246.49</ele>
        <time>2013-08-27T09:06:35Z</time>
      </trkpt>
      <trkpt lat="44.6492" lon="4.07669">
        <ele>1242.64</ele>
        <time>2013-08-27T09:06:44Z</time>
      </trkpt>
      <trkpt lat="44.6492" lon="4.07669">
        <ele>1242.16</ele>
        <time>2013-08-27T09:06:45Z</time>
      </trkpt>
      <trkpt lat="44.64928" lon="4.07659">
        <ele>1238.8</ele>
        <time>2013-08-27T09:06:55Z</time>
      </trkpt>
      <trkpt lat="44.64939" lon="4.07651">
        <ele>1235.91</ele>
        <time>2013-08-27T09:07:02Z</time>
      </trkpt>
      <trkpt lat="44.64951" lon="4.07661">
        <ele>1232.55</ele>
        <time>2013-08-27T09:07:11Z</time>
      </trkpt>
      <trkpt lat="44.64953" lon="4.07666">
        <ele>1232.07</ele>
        <time>2013-08-27T09:07:13Z</time>
      </trkpt>
      <trkpt lat="44.64953" lon="4.0767">
        <ele>1231.11</ele>
        <time>2013-08-27T09:07:15Z</time>
      </trkpt>
      <trkpt lat="44.64948" lon="4.07688">
        <ele>1228.7</ele>
        <time>2013-08-27T09:07:28Z</time>
      </trkpt>
      <trkpt lat="44.64948" lon="4.07688">
        <ele>1230.14</ele>
        <time>2013-08-27T09:07:51Z</time>
      </trkpt>
      <trkpt lat="44.64948" lon="4.07688">
        <ele>1225.82</ele>
        <time>2013-08-27T09:07:53Z</time>
      </trkpt>
      <trkpt lat="44.64948" lon="4.07688">
        <ele>1227.74</ele>
        <time>2013-08-27T09:07:54Z</time>
      </trkpt>
      <trkpt lat="44.64948" lon="4.07689">
        <ele>1228.7</ele>
        <time>2013-08-27T09:08:24Z</time>
      </trkpt>
      <trkpt lat="44.64948" lon="4.07689">
        <ele>1227.74</ele>
        <time>2013-08-27T09:08:51Z</time>
      </trkpt>
      <trkpt lat="44.64945" lon="4.07692">
        <ele>1227.26</ele>
        <time>2013-08-27T09:08:55Z</time>
      </trkpt>
      <trkpt lat="44.64945" lon="4.07698">
        <ele>1224.86</ele>
        <time>2013-08-27T09:09:04Z</time>
      </trkpt>
      <trkpt lat="44.64945" lon="4.07698">
        <ele>1223.9</ele>
        <time>2013-08-27T09:09:24Z</time>
      </trkpt>
      <trkpt lat="44.64948" lon="4.07699">
        <ele>1222.93</ele>
        <time>2013-08-27T09:09:26Z</time>
      </trkpt>
      <trkpt lat="44.6496" lon="4.07697">
        <ele>1221.01</ele>
        <time>2013-08-27T09:09:33Z</time>
      </trkpt>
      <trkpt lat="44.64964" lon="4.07695">
        <ele>1219.57</ele>
        <time>2013-08-27T09:09:36Z</time>
      </trkpt>
      <trkpt lat="44.64973" lon="4.07695">
        <ele>1216.69</ele>
        <time>2013-08-27T09:09:41Z</time>
      </trkpt>
      <trkpt lat="44.64984" lon="4.07686">
        <ele>1215.24</ele>
        <time>2013-08-27T09:09:46Z</time>
      </trkpt>
      <trkpt lat="44.64994" lon="4.07679">
        <ele>1212.84</ele>
        <time>2013-08-27T09:09:52Z</time>
      </trkpt>
      <trkpt lat="44.64999" lon="4.07681">
        <ele>1210.92</ele>
        <time>2013-08-27T09:09:56Z</time>
      </trkpt>
      <trkpt lat="44.65002" lon="4.07689">
        <ele>1209</ele>
        <time>2013-08-27T09:10:00Z</time>
      </trkpt>
      <trkpt lat="44.64992" lon="4.07719">
        <ele>1205.63</ele>
        <time>2013-08-27T09:10:13Z</time>
      </trkpt>
      <trkpt lat="44.64991" lon="4.07721">
        <ele>1205.15</ele>
        <time>2013-08-27T09:10:14Z</time>
      </trkpt>
      <trkpt lat="44.6499" lon="4.07725">
        <ele>1203.71</ele>
        <time>2013-08-27T09:10:16Z</time>
      </trkpt>
      <trkpt lat="44.6499" lon="4.07726">
        <ele>1203.71</ele>
        <time>2013-08-27T09:10:17Z</time>
      </trkpt>
      <trkpt lat="44.64977" lon="4.07737">
        <ele>1202.27</ele>
        <time>2013-08-27T09:10:24Z</time>
      </trkpt>
      <trkpt lat="44.6497" lon="4.07742">
        <ele>1200.82</ele>
        <time>2013-08-27T09:10:28Z</time>
      </trkpt>
      <trkpt lat="44.64964" lon="4.0775">
        <ele>1199.38</ele>
        <time>2013-08-27T09:10:32Z</time>
      </trkpt>
      <trkpt lat="44.64965" lon="4.07754">
        <ele>1196.98</ele>
        <time>2013-08-27T09:10:37Z</time>
      </trkpt>
      <trkpt lat="44.64965" lon="4.07755">
        <ele>1196.5</ele>
        <time>2013-08-27T09:10:38Z</time>
      </trkpt>
      <trkpt lat="44.64978" lon="4.07756">
        <ele>1192.17</ele>
        <time>2013-08-27T09:10:46Z</time>
      </trkpt>
      <trkpt lat="44.6498" lon="4.07757">
        <ele>1192.17</ele>
        <time>2013-08-27T09:10:47Z</time>
      </trkpt>
      <trkpt lat="44.64982" lon="4.07758">
        <ele>1191.21</ele>
        <time>2013-08-27T09:10:48Z</time>
      </trkpt>
      <trkpt lat="44.64994" lon="4.07761">
        <ele>1185.92</ele>
        <time>2013-08-27T09:10:54Z</time>
      </trkpt>
      <trkpt lat="44.64996" lon="4.07762">
        <ele>1185.92</ele>
        <time>2013-08-27T09:10:55Z</time>
      </trkpt>
      <trkpt lat="44.64998" lon="4.07762">
        <ele>1185.44</ele>
        <time>2013-08-27T09:10:56Z</time>
      </trkpt>
      <trkpt lat="44.65015" lon="4.07758">
        <ele>1182.08</ele>
        <time>2013-08-27T09:11:04Z</time>
      </trkpt>
      <trkpt lat="44.6503" lon="4.07753">
        <ele>1178.71</ele>
        <time>2013-08-27T09:11:12Z</time>
      </trkpt>
      <trkpt lat="44.65041" lon="4.07744">
        <ele>1176.79</ele>
        <time>2013-08-27T09:11:22Z</time>
      </trkpt>
      <trkpt lat="44.65041" lon="4.07744">
        <ele>1177.27</ele>
        <time>2013-08-27T09:11:29Z</time>
      </trkpt>
      <trkpt lat="44.65045" lon="4.07739">
        <ele>1175.83</ele>
        <time>2013-08-27T09:11:33Z</time>
      </trkpt>
      <trkpt lat="44.65047" lon="4.07738">
        <ele>1175.83</ele>
        <time>2013-08-27T09:11:36Z</time>
      </trkpt>
      <trkpt lat="44.65048" lon="4.07749">
        <ele>1172.95</ele>
        <time>2013-08-27T09:11:46Z</time>
      </trkpt>
      <trkpt lat="44.65047" lon="4.07751">
        <ele>1172.95</ele>
        <time>2013-08-27T09:11:47Z</time>
      </trkpt>
      <trkpt lat="44.65047" lon="4.07759">
        <ele>1171.02</ele>
        <time>2013-08-27T09:11:52Z</time>
      </trkpt>
      <trkpt lat="44.65045" lon="4.07771">
        <ele>1169.1</ele>
        <time>2013-08-27T09:11:57Z</time>
      </trkpt>
      <trkpt lat="44.65042" lon="4.0778">
        <ele>1167.18</ele>
        <time>2013-08-27T09:12:01Z</time>
      </trkpt>
      <trkpt lat="44.65034" lon="4.07794">
        <ele>1163.33</ele>
        <time>2013-08-27T09:12:11Z</time>
      </trkpt>
      <trkpt lat="44.65032" lon="4.07803">
        <ele>1160.45</ele>
        <time>2013-08-27T09:12:20Z</time>
      </trkpt>
      <trkpt lat="44.65033" lon="4.07804">
        <ele>1160.45</ele>
        <time>2013-08-27T09:12:22Z</time>
      </trkpt>
      <trkpt lat="44.65034" lon="4.07809">
        <ele>1158.53</ele>
        <time>2013-08-27T09:12:25Z</time>
      </trkpt>
      <trkpt lat="44.65028" lon="4.07816">
        <ele>1155.64</ele>
        <time>2013-08-27T09:12:30Z</time>
      </trkpt>
      <trkpt lat="44.65027" lon="4.07819">
        <ele>1155.16</ele>
        <time>2013-08-27T09:12:40Z</time>
      </trkpt>
      <trkpt lat="44.65027" lon="4.0782">
        <ele>1155.16</ele>
        <time>2013-08-27T09:12:59Z</time>
      </trkpt>
      <trkpt lat="44.65027" lon="4.0782">
        <ele>1155.16</ele>
        <time>2013-08-27T09:13:16Z</time>
      </trkpt>
      <trkpt lat="44.65024" lon="4.07827">
        <ele>1152.76</ele>
        <time>2013-08-27T09:13:22Z</time>
      </trkpt>
      <trkpt lat="44.65022" lon="4.07838">
        <ele>1147.95</ele>
        <time>2013-08-27T09:13:34Z</time>
      </trkpt>
      <trkpt lat="44.65023" lon="4.07838">
        <ele>1146.99</ele>
        <time>2013-08-27T09:13:36Z</time>
      </trkpt>
      <trkpt lat="44.65027" lon="4.07834">
        <ele>1144.59</ele>
        <time>2013-08-27T09:13:46Z</time>
      </trkpt>
      <trkpt lat="44.6503" lon="4.07835">
        <ele>1143.63</ele>
        <time>2013-08-27T09:13:48Z</time>
      </trkpt>
      <trkpt lat="44.65035" lon="4.07834">
        <ele>1142.66</ele>
        <time>2013-08-27T09:13:51Z</time>
      </trkpt>
      <trkpt lat="44.65041" lon="4.07835">
        <ele>1141.7</ele>
        <time>2013-08-27T09:13:54Z</time>
      </trkpt>
      <trkpt lat="44.65051" lon="4.07836">
        <ele>1139.3</ele>
        <time>2013-08-27T09:14:00Z</time>
      </trkpt>
      <trkpt lat="44.65055" lon="4.07836">
        <ele>1137.86</ele>
        <time>2013-08-27T09:14:03Z</time>
      </trkpt>
      <trkpt lat="44.6506" lon="4.07838">
        <ele>1136.42</ele>
        <time>2013-08-27T09:14:18Z</time>
      </trkpt>
      <trkpt lat="44.6506" lon="4.07837">
        <ele>1135.45</ele>
        <time>2013-08-27T09:14:38Z</time>
      </trkpt>
      <trkpt lat="44.65064" lon="4.07838">
        <ele>1134.49</ele>
        <time>2013-08-27T09:14:40Z</time>
      </trkpt>
      <trkpt lat="44.65067" lon="4.07838">
        <ele>1132.57</ele>
        <time>2013-08-27T09:14:44Z</time>
      </trkpt>
      <trkpt lat="44.65072" lon="4.07834">
        <ele>1131.13</ele>
        <time>2013-08-27T09:14:47Z</time>
      </trkpt>
      <trkpt lat="44.65076" lon="4.07832">
        <ele>1129.69</ele>
        <time>2013-08-27T09:14:50Z</time>
      </trkpt>
      <trkpt lat="44.6508" lon="4.07828">
        <ele>1126.32</ele>
        <time>2013-08-27T09:14:55Z</time>
      </trkpt>
      <trkpt lat="44.65084" lon="4.07825">
        <ele>1124.88</ele>
        <time>2013-08-27T09:14:58Z</time>
      </trkpt>
      <trkpt lat="44.65099" lon="4.07825">
        <ele>1122</ele>
        <time>2013-08-27T09:15:05Z</time>
      </trkpt>
      <trkpt lat="44.65105" lon="4.07836">
        <ele>1118.15</ele>
        <time>2013-08-27T09:15:14Z</time>
      </trkpt>
      <trkpt lat="44.65108" lon="4.07833">
        <ele>1115.75</ele>
        <time>2013-08-27T09:15:26Z</time>
      </trkpt>
      <trkpt lat="44.65108" lon="4.07833">
        <ele>1116.23</ele>
        <time>2013-08-27T09:15:53Z</time>
      </trkpt>
      <trkpt lat="44.65108" lon="4.07833">
        <ele>1116.23</ele>
        <time>2013-08-27T09:16:24Z</time>
      </trkpt>
      <trkpt lat="44.65108" lon="4.07833">
        <ele>1115.75</ele>
        <time>2013-08-27T09:16:30Z</time>
      </trkpt>
      <trkpt lat="44.65109" lon="4.07825">
        <ele>1114.31</ele>
        <time>2013-08-27T09:16:37Z</time>
      </trkpt>
      <trkpt lat="44.65122" lon="4.07807">
        <ele>1112.86</ele>
        <time>2013-08-27T09:16:47Z</time>
      </trkpt>
      <trkpt lat="44.65122" lon="4.07804">
        <ele>1111.42</ele>
        <time>2013-08-27T09:16:50Z</time>
      </trkpt>
      <trkpt lat="44.6513" lon="4.07813">
        <ele>1108.06</ele>
        <time>2013-08-27T09:16:57Z</time>
      </trkpt>
      <trkpt lat="44.6513" lon="4.07816">
        <ele>1107.58</ele>
        <time>2013-08-27T09:17:10Z</time>
      </trkpt>
      <trkpt lat="44.65129" lon="4.0782">
        <ele>1106.61</ele>
        <time>2013-08-27T09:17:19Z</time>
      </trkpt>
      <trkpt lat="44.65136" lon="4.07837">
        <ele>1102.77</ele>
        <time>2013-08-27T09:17:28Z</time>
      </trkpt>
      <trkpt lat="44.65136" lon="4.07841">
        <ele>1101.81</ele>
        <time>2013-08-27T09:17:33Z</time>
      </trkpt>
      <trkpt lat="44.65135" lon="4.07845">
        <ele>1100.85</ele>
        <time>2013-08-27T09:17:35Z</time>
      </trkpt>
      <trkpt lat="44.65133" lon="4.07858">
        <ele>1097.96</ele>
        <time>2013-08-27T09:17:42Z</time>
      </trkpt>
      <trkpt lat="44.65133" lon="4.07867">
        <ele>1096.04</ele>
        <time>2013-08-27T09:17:55Z</time>
      </trkpt>
      <trkpt lat="44.65133" lon="4.07878">
        <ele>1094.6</ele>
        <time>2013-08-27T09:18:06Z</time>
      </trkpt>
      <trkpt lat="44.65133" lon="4.07889">
        <ele>1090.75</ele>
        <time>2013-08-27T09:18:10Z</time>
      </trkpt>
      <trkpt lat="44.65133" lon="4.07892">
        <ele>1090.27</ele>
        <time>2013-08-27T09:18:11Z</time>
      </trkpt>
      <trkpt lat="44.65131" lon="4.07909">
        <ele>1087.39</ele>
        <time>2013-08-27T09:18:18Z</time>
      </trkpt>
      <trkpt lat="44.65128" lon="4.07915">
        <ele>1085.47</ele>
        <time>2013-08-27T09:18:21Z</time>
      </trkpt>
      <trkpt lat="44.65127" lon="4.07926">
        <ele>1082.58</ele>
        <time>2013-08-27T09:18:28Z</time>
      </trkpt>
      <trkpt lat="44.65128" lon="4.07931">
        <ele>1080.18</ele>
        <time>2013-08-27T09:18:32Z</time>
      </trkpt>
      <trkpt lat="44.65131" lon="4.07935">
        <ele>1078.74</ele>
        <time>2013-08-27T09:18:36Z</time>
      </trkpt>
      <trkpt lat="44.65135" lon="4.07935">
        <ele>1077.78</ele>
        <time>2013-08-27T09:18:51Z</time>
      </trkpt>
      <trkpt lat="44.65135" lon="4.07935">
        <ele>1077.78</ele>
        <time>2013-08-27T09:18:57Z</time>
      </trkpt>
      <trkpt lat="44.65137" lon="4.07933">
        <ele>1076.81</ele>
        <time>2013-08-27T09:19:09Z</time>
      </trkpt>
      <trkpt lat="44.65141" lon="4.07931">
        <ele>1076.81</ele>
        <time>2013-08-27T09:19:29Z</time>
      </trkpt>
      <trkpt lat="44.65146" lon="4.0793">
        <ele>1075.85</ele>
        <time>2013-08-27T09:19:35Z</time>
      </trkpt>
      <trkpt lat="44.65148" lon="4.07934">
        <ele>1073.45</ele>
        <time>2013-08-27T09:19:38Z</time>
      </trkpt>
      <trkpt lat="44.65148" lon="4.07935">
        <ele>1072.49</ele>
        <time>2013-08-27T09:19:40Z</time>
      </trkpt>
      <trkpt lat="44.65146" lon="4.07944">
        <ele>1070.08</ele>
        <time>2013-08-27T09:19:46Z</time>
      </trkpt>
      <trkpt lat="44.65143" lon="4.07954">
        <ele>1068.16</ele>
        <time>2013-08-27T09:19:56Z</time>
      </trkpt>
      <trkpt lat="44.65142" lon="4.07956">
        <ele>1068.16</ele>
        <time>2013-08-27T09:20:14Z</time>
      </trkpt>
      <trkpt lat="44.65133" lon="4.07966">
        <ele>1067.68</ele>
        <time>2013-08-27T09:20:23Z</time>
      </trkpt>
      <trkpt lat="44.65122" lon="4.07984">
        <ele>1065.76</ele>
        <time>2013-08-27T09:20:35Z</time>
      </trkpt>
      <trkpt lat="44.65117" lon="4.07992">
        <ele>1062.87</ele>
        <time>2013-08-27T09:20:42Z</time>
      </trkpt>
      <trkpt lat="44.65121" lon="4.07999">
        <ele>1059.51</ele>
        <time>2013-08-27T09:20:49Z</time>
      </trkpt>
      <trkpt lat="44.65121" lon="4.08001">
        <ele>1058.55</ele>
        <time>2013-08-27T09:20:51Z</time>
      </trkpt>
      <trkpt lat="44.65122" lon="4.08003">
        <ele>1057.59</ele>
        <time>2013-08-27T09:20:53Z</time>
      </trkpt>
      <trkpt lat="44.65124" lon="4.08008">
        <ele>1055.67</ele>
        <time>2013-08-27T09:20:56Z</time>
      </trkpt>
      <trkpt lat="44.65132" lon="4.08016">
        <ele>1052.3</ele>
        <time>2013-08-27T09:21:04Z</time>
      </trkpt>
      <trkpt lat="44.65142" lon="4.08021">
        <ele>1049.42</ele>
        <time>2013-08-27T09:21:11Z</time>
      </trkpt>
      <trkpt lat="44.65142" lon="4.08022">
        <ele>1048.45</ele>
        <time>2013-08-27T09:21:12Z</time>
      </trkpt>
      <trkpt lat="44.65147" lon="4.08024">
        <ele>1046.05</ele>
        <time>2013-08-27T09:21:26Z</time>
      </trkpt>
      <trkpt lat="44.65147" lon="4.08024">
        <ele>1046.05</ele>
        <time>2013-08-27T09:21:55Z</time>
      </trkpt>
      <trkpt lat="44.65148" lon="4.08026">
        <ele>1045.09</ele>
        <time>2013-08-27T09:22:27Z</time>
      </trkpt>
      <trkpt lat="44.65156" lon="4.08031">
        <ele>1042.69</ele>
        <time>2013-08-27T09:22:33Z</time>
      </trkpt>
      <trkpt lat="44.65156" lon="4.08038">
        <ele>1040.76</ele>
        <time>2013-08-27T09:22:37Z</time>
      </trkpt>
      <trkpt lat="44.65158" lon="4.0805">
        <ele>1037.88</ele>
        <time>2013-08-27T09:22:43Z</time>
      </trkpt>
      <trkpt lat="44.65161" lon="4.08058">
        <ele>1035.96</ele>
        <time>2013-08-27T09:22:49Z</time>
      </trkpt>
      <trkpt lat="44.65164" lon="4.08059">
        <ele>1035.48</ele>
        <time>2013-08-27T09:22:54Z</time>
      </trkpt>
      <trkpt lat="44.6517" lon="4.08063">
        <ele>1032.59</ele>
        <time>2013-08-27T09:22:58Z</time>
      </trkpt>
      <trkpt lat="44.65171" lon="4.08066">
        <ele>1032.11</ele>
        <time>2013-08-27T09:22:59Z</time>
      </trkpt>
      <trkpt lat="44.65176" lon="4.08075">
        <ele>1029.71</ele>
        <time>2013-08-27T09:23:03Z</time>
      </trkpt>
      <trkpt lat="44.65172" lon="4.08087">
        <ele>1025.86</ele>
        <time>2013-08-27T09:23:11Z</time>
      </trkpt>
      <trkpt lat="44.65169" lon="4.0809">
        <ele>1024.42</ele>
        <time>2013-08-27T09:23:14Z</time>
      </trkpt>
      <trkpt lat="44.65167" lon="4.08094">
        <ele>1022.5</ele>
        <time>2013-08-27T09:23:18Z</time>
      </trkpt>
      <trkpt lat="44.65166" lon="4.08102">
        <ele>1022.02</ele>
        <time>2013-08-27T09:23:28Z</time>
      </trkpt>
      <trkpt lat="44.65162" lon="4.08113">
        <ele>1021.54</ele>
        <time>2013-08-27T09:23:40Z</time>
      </trkpt>
      <trkpt lat="44.65163" lon="4.08115">
        <ele>1021.54</ele>
        <time>2013-08-27T09:23:42Z</time>
      </trkpt>
      <trkpt lat="44.65169" lon="4.08123">
        <ele>1022.5</ele>
        <time>2013-08-27T09:23:53Z</time>
      </trkpt>
      <trkpt lat="44.65175" lon="4.08143">
        <ele>1020.58</ele>
        <time>2013-08-27T09:24:03Z</time>
      </trkpt>
      <trkpt lat="44.65179" lon="4.08154">
        <ele>1017.21</ele>
        <time>2013-08-27T09:24:08Z</time>
      </trkpt>
      <trkpt lat="44.65181" lon="4.08158">
        <ele>1016.25</ele>
        <time>2013-08-27T09:24:10Z</time>
      </trkpt>
      <trkpt lat="44.65183" lon="4.0816">
        <ele>1015.77</ele>
        <time>2013-08-27T09:24:11Z</time>
      </trkpt>
      <trkpt lat="44.65185" lon="4.08168">
        <ele>1014.33</ele>
        <time>2013-08-27T09:24:15Z</time>
      </trkpt>
      <trkpt lat="44.6519" lon="4.08179">
        <ele>1011.44</ele>
        <time>2013-08-27T09:24:22Z</time>
      </trkpt>
      <trkpt lat="44.65189" lon="4.08184">
        <ele>1010.48</ele>
        <time>2013-08-27T09:24:25Z</time>
      </trkpt>
      <trkpt lat="44.65185" lon="4.082">
        <ele>1008.08</ele>
        <time>2013-08-27T09:24:38Z</time>
      </trkpt>
      <trkpt lat="44.65188" lon="4.082">
        <ele>1007.6</ele>
        <time>2013-08-27T09:25:07Z</time>
      </trkpt>
      <trkpt lat="44.65188" lon="4.08201">
        <ele>1007.12</ele>
        <time>2013-08-27T09:25:38Z</time>
      </trkpt>
      <trkpt lat="44.65187" lon="4.08203">
        <ele>1007.6</ele>
        <time>2013-08-27T09:26:04Z</time>
      </trkpt>
      <trkpt lat="44.65187" lon="4.08203">
        <ele>1007.6</ele>
        <time>2013-08-27T09:26:33Z</time>
      </trkpt>
      <trkpt lat="44.6519" lon="4.08211">
        <ele>1005.2</ele>
        <time>2013-08-27T09:26:40Z</time>
      </trkpt>
      <trkpt lat="44.65192" lon="4.08217">
        <ele>1003.75</ele>
        <time>2013-08-27T09:26:52Z</time>
      </trkpt>
      <trkpt lat="44.65192" lon="4.08225">
        <ele>1004.23</ele>
        <time>2013-08-27T09:27:04Z</time>
      </trkpt>
      <trkpt lat="44.65192" lon="4.08226">
        <ele>1004.23</ele>
        <time>2013-08-27T09:27:07Z</time>
      </trkpt>
      <trkpt lat="44.6521" lon="4.0823">
        <ele>1001.83</ele>
        <time>2013-08-27T09:27:18Z</time>
      </trkpt>
      <trkpt lat="44.65211" lon="4.08232">
        <ele>1001.35</ele>
        <time>2013-08-27T09:27:19Z</time>
      </trkpt>
      <trkpt lat="44.65218" lon="4.0824">
        <ele>998.95</ele>
        <time>2013-08-27T09:27:24Z</time>
      </trkpt>
      <trkpt lat="44.65223" lon="4.08248">
        <ele>996.54</ele>
        <time>2013-08-27T09:27:32Z</time>
      </trkpt>
      <trkpt lat="44.65224" lon="4.0826">
        <ele>995.1</ele>
        <time>2013-08-27T09:27:43Z</time>
      </trkpt>
      <trkpt lat="44.65225" lon="4.08262">
        <ele>993.66</ele>
        <time>2013-08-27T09:28:07Z</time>
      </trkpt>
      <trkpt lat="44.65225" lon="4.08262">
        <ele>993.18</ele>
        <time>2013-08-27T09:28:42Z</time>
      </trkpt>
      <trkpt lat="44.65225" lon="4.08262">
        <ele>993.18</ele>
        <time>2013-08-27T09:29:17Z</time>
      </trkpt>
      <trkpt lat="44.65225" lon="4.08262">
        <ele>993.66</ele>
        <time>2013-08-27T09:29:21Z</time>
      </trkpt>
      <trkpt lat="44.65228" lon="4.08268">
        <ele>990.3</ele>
        <time>2013-08-27T09:29:27Z</time>
      </trkpt>
      <trkpt lat="44.65228" lon="4.08272">
        <ele>987.89</ele>
        <time>2013-08-27T09:29:30Z</time>
      </trkpt>
      <trkpt lat="44.65231" lon="4.08286">
        <ele>984.05</ele>
        <time>2013-08-27T09:29:36Z</time>
      </trkpt>
      <trkpt lat="44.65239" lon="4.083">
        <ele>980.68</ele>
        <time>2013-08-27T09:29:42Z</time>
      </trkpt>
      <trkpt lat="44.65245" lon="4.08303">
        <ele>979.24</ele>
        <time>2013-08-27T09:29:45Z</time>
      </trkpt>
      <trkpt lat="44.6527" lon="4.08329">
        <ele>975.88</ele>
        <time>2013-08-27T09:29:52Z</time>
      </trkpt>
      <trkpt lat="44.65271" lon="4.08331">
        <ele>974.91</ele>
        <time>2013-08-27T09:29:53Z</time>
      </trkpt>
      <trkpt lat="44.65279" lon="4.08347">
        <ele>973.47</ele>
        <time>2013-08-27T09:29:57Z</time>
      </trkpt>
      <trkpt lat="44.65291" lon="4.08368">
        <ele>969.15</ele>
        <time>2013-08-27T09:30:03Z</time>
      </trkpt>
      <trkpt lat="44.65294" lon="4.08379">
        <ele>966.74</ele>
        <time>2013-08-27T09:30:06Z</time>
      </trkpt>
      <trkpt lat="44.65297" lon="4.08385">
        <ele>965.3</ele>
        <time>2013-08-27T09:30:08Z</time>
      </trkpt>
      <trkpt lat="44.65304" lon="4.08397">
        <ele>964.34</ele>
        <time>2013-08-27T09:30:14Z</time>
      </trkpt>
      <trkpt lat="44.65309" lon="4.08405">
        <ele>962.9</ele>
        <time>2013-08-27T09:30:19Z</time>
      </trkpt>
      <trkpt lat="44.6531" lon="4.08409">
        <ele>961.46</ele>
        <time>2013-08-27T09:30:21Z</time>
      </trkpt>
      <trkpt lat="44.6531" lon="4.08416">
        <ele>959.53</ele>
        <time>2013-08-27T09:30:24Z</time>
      </trkpt>
      <trkpt lat="44.65311" lon="4.08427">
        <ele>958.57</ele>
        <time>2013-08-27T09:30:34Z</time>
      </trkpt>
      <trkpt lat="44.65313" lon="4.08433">
        <ele>958.09</ele>
        <time>2013-08-27T09:30:46Z</time>
      </trkpt>
      <trkpt lat="44.65313" lon="4.08433">
        <ele>958.09</ele>
        <time>2013-08-27T09:31:08Z</time>
      </trkpt>
      <trkpt lat="44.65313" lon="4.08436">
        <ele>957.61</ele>
        <time>2013-08-27T09:31:23Z</time>
      </trkpt>
      <trkpt lat="44.65315" lon="4.08441">
        <ele>958.09</ele>
        <time>2013-08-27T09:31:26Z</time>
      </trkpt>
      <trkpt lat="44.65317" lon="4.08455">
        <ele>956.17</ele>
        <time>2013-08-27T09:31:30Z</time>
      </trkpt>
      <trkpt lat="44.65318" lon="4.08457">
        <ele>955.69</ele>
        <time>2013-08-27T09:31:31Z</time>
      </trkpt>
      <trkpt lat="44.65337" lon="4.08479">
        <ele>952.8</ele>
        <time>2013-08-27T09:31:38Z</time>
      </trkpt>
      <trkpt lat="44.65355" lon="4.08504">
        <ele>948.96</ele>
        <time>2013-08-27T09:31:45Z</time>
      </trkpt>
      <trkpt lat="44.65372" lon="4.08526">
        <ele>946.07</ele>
        <time>2013-08-27T09:31:51Z</time>
      </trkpt>
      <trkpt lat="44.65379" lon="4.08535">
        <ele>945.59</ele>
        <time>2013-08-27T09:31:53Z</time>
      </trkpt>
      <trkpt lat="44.65383" lon="4.08538">
        <ele>944.63</ele>
        <time>2013-08-27T09:31:54Z</time>
      </trkpt>
      <trkpt lat="44.65386" lon="4.08542">
        <ele>944.63</ele>
        <time>2013-08-27T09:31:55Z</time>
      </trkpt>
      <trkpt lat="44.6539" lon="4.08546">
        <ele>944.15</ele>
        <time>2013-08-27T09:31:56Z</time>
      </trkpt>
      <trkpt lat="44.65392" lon="4.08549">
        <ele>943.19</ele>
        <time>2013-08-27T09:31:57Z</time>
      </trkpt>
      <trkpt lat="44.65393" lon="4.08553">
        <ele>942.71</ele>
        <time>2013-08-27T09:31:58Z</time>
      </trkpt>
      <trkpt lat="44.65395" lon="4.08556">
        <ele>942.71</ele>
        <time>2013-08-27T09:31:59Z</time>
      </trkpt>
      <trkpt lat="44.65397" lon="4.08559">
        <ele>941.27</ele>
        <time>2013-08-27T09:32:00Z</time>
      </trkpt>
      <trkpt lat="44.65399" lon="4.08562">
        <ele>941.27</ele>
        <time>2013-08-27T09:32:01Z</time>
      </trkpt>
      <trkpt lat="44.654" lon="4.08565">
        <ele>941.75</ele>
        <time>2013-08-27T09:32:02Z</time>
      </trkpt>
      <trkpt lat="44.65405" lon="4.08575">
        <ele>939.35</ele>
        <time>2013-08-27T09:32:08Z</time>
      </trkpt>
      <trkpt lat="44.65411" lon="4.08578">
        <ele>937.42</ele>
        <time>2013-08-27T09:32:11Z</time>
      </trkpt>
      <trkpt lat="44.65408" lon="4.08579">
        <ele>936.94</ele>
        <time>2013-08-27T09:32:26Z</time>
      </trkpt>
      <trkpt lat="44.65408" lon="4.08579">
        <ele>936.46</ele>
        <time>2013-08-27T09:32:51Z</time>
      </trkpt>
      <trkpt lat="44.65408" lon="4.08579">
        <ele>936.46</ele>
        <time>2013-08-27T09:33:21Z</time>
      </trkpt>
      <trkpt lat="44.65409" lon="4.0858">
        <ele>935.98</ele>
        <time>2013-08-27T09:33:53Z</time>
      </trkpt>
      <trkpt lat="44.6541" lon="4.08579">
        <ele>935.98</ele>
        <time>2013-08-27T09:34:24Z</time>
      </trkpt>
      <trkpt lat="44.6541" lon="4.08579">
        <ele>935.5</ele>
        <time>2013-08-27T09:34:56Z</time>
      </trkpt>
      <trkpt lat="44.6541" lon="4.0858">
        <ele>935.5</ele>
        <time>2013-08-27T09:35:28Z</time>
      </trkpt>
      <trkpt lat="44.65409" lon="4.0858">
        <ele>935.98</ele>
        <time>2013-08-27T09:35:54Z</time>
      </trkpt>
      <trkpt lat="44.6541" lon="4.0858">
        <ele>935.98</ele>
        <time>2013-08-27T09:36:23Z</time>
      </trkpt>
      <trkpt lat="44.6541" lon="4.0858">
        <ele>935.98</ele>
        <time>2013-08-27T09:36:53Z</time>
      </trkpt>
      <trkpt lat="44.65411" lon="4.0858">
        <ele>935.98</ele>
        <time>2013-08-27T09:37:27Z</time>
      </trkpt>
      <trkpt lat="44.65411" lon="4.0858">
        <ele>935.98</ele>
        <time>2013-08-27T09:38:00Z</time>
      </trkpt>
      <trkpt lat="44.6541" lon="4.0858">
        <ele>935.98</ele>
        <time>2013-08-27T09:38:31Z</time>
      </trkpt>
      <trkpt lat="44.6541" lon="4.0858">
        <ele>936.46</ele>
        <time>2013-08-27T09:39:02Z</time>
      </trkpt>
      <trkpt lat="44.65408" lon="4.08581">
        <ele>936.94</ele>
        <time>2013-08-27T09:39:24Z</time>
      </trkpt>
      <trkpt lat="44.65413" lon="4.0859">
        <ele>935.5</ele>
        <time>2013-08-27T09:39:39Z</time>
      </trkpt>
      <trkpt lat="44.65413" lon="4.08593">
        <ele>934.54</ele>
        <time>2013-08-27T09:39:52Z</time>
      </trkpt>
      <trkpt lat="44.65412" lon="4.08595">
        <ele>933.58</ele>
        <time>2013-08-27T09:40:08Z</time>
      </trkpt>
      <trkpt lat="44.65417" lon="4.08597">
        <ele>932.62</ele>
        <time>2013-08-27T09:40:14Z</time>
      </trkpt>
      <trkpt lat="44.6542" lon="4.08596">
        <ele>931.65</ele>
        <time>2013-08-27T09:40:17Z</time>
      </trkpt>
      <trkpt lat="44.65421" lon="4.08595">
        <ele>931.65</ele>
        <time>2013-08-27T09:40:30Z</time>
      </trkpt>
      <trkpt lat="44.65426" lon="4.08596">
        <ele>930.21</ele>
        <time>2013-08-27T09:40:39Z</time>
      </trkpt>
      <trkpt lat="44.65431" lon="4.08591">
        <ele>928.29</ele>
        <time>2013-08-27T09:40:50Z</time>
      </trkpt>
      <trkpt lat="44.6543" lon="4.08584">
        <ele>927.81</ele>
        <time>2013-08-27T09:41:00Z</time>
      </trkpt>
      <trkpt lat="44.65432" lon="4.08579">
        <ele>926.85</ele>
        <time>2013-08-27T09:41:11Z</time>
      </trkpt>
      <trkpt lat="44.65431" lon="4.08574">
        <ele>925.89</ele>
        <time>2013-08-27T09:41:19Z</time>
      </trkpt>
      <trkpt lat="44.65431" lon="4.08571">
        <ele>925.41</ele>
        <time>2013-08-27T09:41:21Z</time>
      </trkpt>
      <trkpt lat="44.65431" lon="4.08566">
        <ele>924.45</ele>
        <time>2013-08-27T09:41:23Z</time>
      </trkpt>
      <trkpt lat="44.65439" lon="4.08563">
        <ele>923</ele>
        <time>2013-08-27T09:41:32Z</time>
      </trkpt>
      <trkpt lat="44.65443" lon="4.08566">
        <ele>921.08</ele>
        <time>2013-08-27T09:41:38Z</time>
      </trkpt>
      <trkpt lat="44.65444" lon="4.08568">
        <ele>920.12</ele>
        <time>2013-08-27T09:41:40Z</time>
      </trkpt>
      <trkpt lat="44.65448" lon="4.08567">
        <ele>918.2</ele>
        <time>2013-08-27T09:41:51Z</time>
      </trkpt>
      <trkpt lat="44.65451" lon="4.08566">
        <ele>917.72</ele>
        <time>2013-08-27T09:42:02Z</time>
      </trkpt>
      <trkpt lat="44.65452" lon="4.08557">
        <ele>916.27</ele>
        <time>2013-08-27T09:42:12Z</time>
      </trkpt>
      <trkpt lat="44.65452" lon="4.08556">
        <ele>915.79</ele>
        <time>2013-08-27T09:42:13Z</time>
      </trkpt>
      <trkpt lat="44.65455" lon="4.08546">
        <ele>914.35</ele>
        <time>2013-08-27T09:42:26Z</time>
      </trkpt>
      <trkpt lat="44.65457" lon="4.0855">
        <ele>911.95</ele>
        <time>2013-08-27T09:42:37Z</time>
      </trkpt>
      <trkpt lat="44.65459" lon="4.08552">
        <ele>912.43</ele>
        <time>2013-08-27T09:42:50Z</time>
      </trkpt>
      <trkpt lat="44.65459" lon="4.08552">
        <ele>910.51</ele>
        <time>2013-08-27T09:42:59Z</time>
      </trkpt>
      <trkpt lat="44.65459" lon="4.08552">
        <ele>912.43</ele>
        <time>2013-08-27T09:43:02Z</time>
      </trkpt>
      <trkpt lat="44.65459" lon="4.08552">
        <ele>910.99</ele>
        <time>2013-08-27T09:43:04Z</time>
      </trkpt>
      <trkpt lat="44.65459" lon="4.08552">
        <ele>912.43</ele>
        <time>2013-08-27T09:43:06Z</time>
      </trkpt>
      <trkpt lat="44.65459" lon="4.08552">
        <ele>910.03</ele>
        <time>2013-08-27T09:43:15Z</time>
      </trkpt>
      <trkpt lat="44.65459" lon="4.08552">
        <ele>913.87</ele>
        <time>2013-08-27T09:43:17Z</time>
      </trkpt>
      <trkpt lat="44.65459" lon="4.08552">
        <ele>911.95</ele>
        <time>2013-08-27T09:43:18Z</time>
      </trkpt>
      <trkpt lat="44.65459" lon="4.08552">
        <ele>911.47</ele>
        <time>2013-08-27T09:43:35Z</time>
      </trkpt>
      <trkpt lat="44.65459" lon="4.08552">
        <ele>912.43</ele>
        <time>2013-08-27T09:44:07Z</time>
      </trkpt>
      <trkpt lat="44.6546" lon="4.08552">
        <ele>912.43</ele>
        <time>2013-08-27T09:44:41Z</time>
      </trkpt>
      <trkpt lat="44.6546" lon="4.08552">
        <ele>913.87</ele>
        <time>2013-08-27T09:45:04Z</time>
      </trkpt>
      <trkpt lat="44.6546" lon="4.08552">
        <ele>911.95</ele>
        <time>2013-08-27T09:45:35Z</time>
      </trkpt>
      <trkpt lat="44.6546" lon="4.08552">
        <ele>911.95</ele>
        <time>2013-08-27T09:46:04Z</time>
      </trkpt>
      <trkpt lat="44.6546" lon="4.08552">
        <ele>912.43</ele>
        <time>2013-08-27T09:46:23Z</time>
      </trkpt>
      <trkpt lat="44.65469" lon="4.08544">
        <ele>911.95</ele>
        <time>2013-08-27T09:46:33Z</time>
      </trkpt>
      <trkpt lat="44.65469" lon="4.08544">
        <ele>912.43</ele>
        <time>2013-08-27T09:46:44Z</time>
      </trkpt>
      <trkpt lat="44.65481" lon="4.08536">
        <ele>912.91</ele>
        <time>2013-08-27T09:46:53Z</time>
      </trkpt>
      <trkpt lat="44.65492" lon="4.08528">
        <ele>913.87</ele>
        <time>2013-08-27T09:47:01Z</time>
      </trkpt>
      <trkpt lat="44.65508" lon="4.08526">
        <ele>916.27</ele>
        <time>2013-08-27T09:47:13Z</time>
      </trkpt>
      <trkpt lat="44.65519" lon="4.08525">
        <ele>916.75</ele>
        <time>2013-08-27T09:47:20Z</time>
      </trkpt>
      <trkpt lat="44.65524" lon="4.08525">
        <ele>916.75</ele>
        <time>2013-08-27T09:47:23Z</time>
      </trkpt>
      <trkpt lat="44.65527" lon="4.08524">
        <ele>916.75</ele>
        <time>2013-08-27T09:47:25Z</time>
      </trkpt>
      <trkpt lat="44.65542" lon="4.08518">
        <ele>918.2</ele>
        <time>2013-08-27T09:47:34Z</time>
      </trkpt>
      <trkpt lat="44.65547" lon="4.08514">
        <ele>918.68</ele>
        <time>2013-08-27T09:47:37Z</time>
      </trkpt>
      <trkpt lat="44.6555" lon="4.0851">
        <ele>919.16</ele>
        <time>2013-08-27T09:47:40Z</time>
      </trkpt>
      <trkpt lat="44.65551" lon="4.08506">
        <ele>919.16</ele>
        <time>2013-08-27T09:47:42Z</time>
      </trkpt>
      <trkpt lat="44.65561" lon="4.08489">
        <ele>921.56</ele>
        <time>2013-08-27T09:47:52Z</time>
      </trkpt>
      <trkpt lat="44.65584" lon="4.0847">
        <ele>923</ele>
        <time>2013-08-27T09:48:08Z</time>
      </trkpt>
      <trkpt lat="44.65604" lon="4.08469">
        <ele>923</ele>
        <time>2013-08-27T09:48:20Z</time>
      </trkpt>
      <trkpt lat="44.65609" lon="4.08457">
        <ele>923.48</ele>
        <time>2013-08-27T09:48:27Z</time>
      </trkpt>
      <trkpt lat="44.65596" lon="4.08456">
        <ele>925.41</ele>
        <time>2013-08-27T09:48:38Z</time>
      </trkpt>
      <trkpt lat="44.65591" lon="4.08459">
        <ele>924.93</ele>
        <time>2013-08-27T09:48:42Z</time>
      </trkpt>
      <trkpt lat="44.6557" lon="4.08465">
        <ele>925.41</ele>
        <time>2013-08-27T09:48:57Z</time>
      </trkpt>
      <trkpt lat="44.65551" lon="4.08479">
        <ele>926.37</ele>
        <time>2013-08-27T09:49:11Z</time>
      </trkpt>
      <trkpt lat="44.65543" lon="4.08485">
        <ele>926.37</ele>
        <time>2013-08-27T09:49:16Z</time>
      </trkpt>
      <trkpt lat="44.65536" lon="4.08489">
        <ele>926.37</ele>
        <time>2013-08-27T09:49:21Z</time>
      </trkpt>
      <trkpt lat="44.65515" lon="4.08496">
        <ele>926.85</ele>
        <time>2013-08-27T09:49:34Z</time>
      </trkpt>
      <trkpt lat="44.65512" lon="4.08496">
        <ele>926.85</ele>
        <time>2013-08-27T09:49:36Z</time>
      </trkpt>
      <trkpt lat="44.65505" lon="4.08496">
        <ele>926.85</ele>
        <time>2013-08-27T09:49:40Z</time>
      </trkpt>
      <trkpt lat="44.65479" lon="4.08482">
        <ele>927.81</ele>
        <time>2013-08-27T09:49:57Z</time>
      </trkpt>
      <trkpt lat="44.65464" lon="4.08471">
        <ele>928.77</ele>
        <time>2013-08-27T09:50:07Z</time>
      </trkpt>
      <trkpt lat="44.65458" lon="4.08468">
        <ele>928.77</ele>
        <time>2013-08-27T09:50:11Z</time>
      </trkpt>
      <trkpt lat="44.65441" lon="4.08456">
        <ele>929.73</ele>
        <time>2013-08-27T09:50:22Z</time>
      </trkpt>
      <trkpt lat="44.65419" lon="4.08449">
        <ele>928.29</ele>
        <time>2013-08-27T09:50:32Z</time>
      </trkpt>
      <trkpt lat="44.65408" lon="4.08465">
        <ele>929.73</ele>
        <time>2013-08-27T09:50:42Z</time>
      </trkpt>
      <trkpt lat="44.65405" lon="4.08484">
        <ele>931.17</ele>
        <time>2013-08-27T09:50:51Z</time>
      </trkpt>
      <trkpt lat="44.65404" lon="4.08488">
        <ele>931.65</ele>
        <time>2013-08-27T09:50:53Z</time>
      </trkpt>
      <trkpt lat="44.654" lon="4.08499">
        <ele>932.14</ele>
        <time>2013-08-27T09:50:59Z</time>
      </trkpt>
      <trkpt lat="44.65397" lon="4.0851">
        <ele>932.62</ele>
        <time>2013-08-27T09:51:05Z</time>
      </trkpt>
      <trkpt lat="44.65393" lon="4.08525">
        <ele>933.1</ele>
        <time>2013-08-27T09:51:13Z</time>
      </trkpt>
      <trkpt lat="44.65395" lon="4.08547">
        <ele>935.5</ele>
        <time>2013-08-27T09:51:26Z</time>
      </trkpt>
      <trkpt lat="44.65397" lon="4.08553">
        <ele>935.98</ele>
        <time>2013-08-27T09:51:30Z</time>
      </trkpt>
      <trkpt lat="44.65401" lon="4.08562">
        <ele>936.94</ele>
        <time>2013-08-27T09:51:35Z</time>
      </trkpt>
      <trkpt lat="44.65408" lon="4.08576">
        <ele>936.94</ele>
        <time>2013-08-27T09:51:44Z</time>
      </trkpt>
      <trkpt lat="44.65408" lon="4.08582">
        <ele>938.38</ele>
        <time>2013-08-27T09:51:50Z</time>
      </trkpt>
      <trkpt lat="44.65403" lon="4.08606">
        <ele>939.35</ele>
        <time>2013-08-27T09:52:01Z</time>
      </trkpt>
      <trkpt lat="44.65398" lon="4.0861">
        <ele>939.83</ele>
        <time>2013-08-27T09:52:05Z</time>
      </trkpt>
      <trkpt lat="44.65397" lon="4.08614">
        <ele>940.31</ele>
        <time>2013-08-27T09:52:08Z</time>
      </trkpt>
      <trkpt lat="44.65406" lon="4.08622">
        <ele>941.27</ele>
        <time>2013-08-27T09:52:12Z</time>
      </trkpt>
      <trkpt lat="44.65422" lon="4.0863">
        <ele>942.23</ele>
        <time>2013-08-27T09:52:21Z</time>
      </trkpt>
      <trkpt lat="44.65427" lon="4.08636">
        <ele>942.71</ele>
        <time>2013-08-27T09:52:25Z</time>
      </trkpt>
      <trkpt lat="44.6543" lon="4.0864">
        <ele>942.71</ele>
        <time>2013-08-27T09:52:27Z</time>
      </trkpt>
      <trkpt lat="44.65438" lon="4.08656">
        <ele>944.15</ele>
        <time>2013-08-27T09:52:36Z</time>
      </trkpt>
      <trkpt lat="44.65442" lon="4.08662">
        <ele>943.67</ele>
        <time>2013-08-27T09:52:40Z</time>
      </trkpt>
      <trkpt lat="44.65448" lon="4.08668">
        <ele>944.63</ele>
        <time>2013-08-27T09:52:45Z</time>
      </trkpt>
      <trkpt lat="44.65451" lon="4.08672">
        <ele>945.59</ele>
        <time>2013-08-27T09:52:48Z</time>
      </trkpt>
      <trkpt lat="44.65469" lon="4.08687">
        <ele>947.52</ele>
        <time>2013-08-27T09:53:02Z</time>
      </trkpt>
      <trkpt lat="44.65478" lon="4.08699">
        <ele>948.96</ele>
        <time>2013-08-27T09:53:11Z</time>
      </trkpt>
      <trkpt lat="44.65486" lon="4.0871">
        <ele>949.92</ele>
        <time>2013-08-27T09:53:20Z</time>
      </trkpt>
      <trkpt lat="44.65498" lon="4.08725">
        <ele>951.84</ele>
        <time>2013-08-27T09:53:31Z</time>
      </trkpt>
      <trkpt lat="44.65505" lon="4.0873">
        <ele>952.8</ele>
        <time>2013-08-27T09:53:37Z</time>
      </trkpt>
      <trkpt lat="44.65519" lon="4.08739">
        <ele>954.25</ele>
        <time>2013-08-27T09:53:48Z</time>
      </trkpt>
      <trkpt lat="44.65526" lon="4.08745">
        <ele>954.73</ele>
        <time>2013-08-27T09:53:53Z</time>
      </trkpt>
      <trkpt lat="44.65531" lon="4.08749">
        <ele>955.21</ele>
        <time>2013-08-27T09:53:56Z</time>
      </trkpt>
      <trkpt lat="44.65544" lon="4.08761">
        <ele>956.65</ele>
        <time>2013-08-27T09:54:07Z</time>
      </trkpt>
      <trkpt lat="44.65548" lon="4.08764">
        <ele>957.13</ele>
        <time>2013-08-27T09:54:10Z</time>
      </trkpt>
      <trkpt lat="44.65568" lon="4.08778">
        <ele>959.05</ele>
        <time>2013-08-27T09:54:25Z</time>
      </trkpt>
      <trkpt lat="44.65572" lon="4.08784">
        <ele>960.01</ele>
        <time>2013-08-27T09:54:29Z</time>
      </trkpt>
      <trkpt lat="44.65577" lon="4.08793">
        <ele>960.01</ele>
        <time>2013-08-27T09:54:38Z</time>
      </trkpt>
      <trkpt lat="44.6558" lon="4.08796">
        <ele>960.49</ele>
        <time>2013-08-27T09:54:42Z</time>
      </trkpt>
      <trkpt lat="44.65587" lon="4.08808">
        <ele>960.98</ele>
        <time>2013-08-27T09:54:54Z</time>
      </trkpt>
      <trkpt lat="44.65596" lon="4.0882">
        <ele>961.46</ele>
        <time>2013-08-27T09:55:08Z</time>
      </trkpt>
      <trkpt lat="44.65601" lon="4.08824">
        <ele>961.46</ele>
        <time>2013-08-27T09:55:13Z</time>
      </trkpt>
      <trkpt lat="44.65609" lon="4.08849">
        <ele>963.86</ele>
        <time>2013-08-27T09:55:29Z</time>
      </trkpt>
      <trkpt lat="44.65609" lon="4.08868">
        <ele>964.82</ele>
        <time>2013-08-27T09:55:41Z</time>
      </trkpt>
      <trkpt lat="44.65605" lon="4.08891">
        <ele>966.74</ele>
        <time>2013-08-27T09:55:55Z</time>
      </trkpt>
      <trkpt lat="44.65599" lon="4.08911">
        <ele>968.18</ele>
        <time>2013-08-27T09:56:08Z</time>
      </trkpt>
      <trkpt lat="44.65592" lon="4.08924">
        <ele>969.15</ele>
        <time>2013-08-27T09:56:17Z</time>
      </trkpt>
      <trkpt lat="44.65586" lon="4.08942">
        <ele>970.59</ele>
        <time>2013-08-27T09:56:29Z</time>
      </trkpt>
      <trkpt lat="44.65583" lon="4.08949">
        <ele>971.07</ele>
        <time>2013-08-27T09:56:34Z</time>
      </trkpt>
      <trkpt lat="44.6558" lon="4.08958">
        <ele>972.03</ele>
        <time>2013-08-27T09:56:41Z</time>
      </trkpt>
      <trkpt lat="44.65576" lon="4.08967">
        <ele>972.51</ele>
        <time>2013-08-27T09:56:46Z</time>
      </trkpt>
      <trkpt lat="44.65572" lon="4.08975">
        <ele>973.47</ele>
        <time>2013-08-27T09:56:52Z</time>
      </trkpt>
      <trkpt lat="44.6557" lon="4.08997">
        <ele>974.43</ele>
        <time>2013-08-27T09:57:04Z</time>
      </trkpt>
      <trkpt lat="44.65572" lon="4.09004">
        <ele>974.91</ele>
        <time>2013-08-27T09:57:08Z</time>
      </trkpt>
      <trkpt lat="44.65585" lon="4.09023">
        <ele>976.84</ele>
        <time>2013-08-27T09:57:21Z</time>
      </trkpt>
      <trkpt lat="44.65596" lon="4.0904">
        <ele>977.32</ele>
        <time>2013-08-27T09:57:32Z</time>
      </trkpt>
      <trkpt lat="44.65598" lon="4.09042">
        <ele>977.32</ele>
        <time>2013-08-27T09:57:33Z</time>
      </trkpt>
      <trkpt lat="44.65604" lon="4.09055">
        <ele>977.8</ele>
        <time>2013-08-27T09:57:41Z</time>
      </trkpt>
      <trkpt lat="44.65617" lon="4.09077">
        <ele>980.68</ele>
        <time>2013-08-27T09:57:55Z</time>
      </trkpt>
      <trkpt lat="44.65621" lon="4.09084">
        <ele>981.16</ele>
        <time>2013-08-27T09:58:00Z</time>
      </trkpt>
      <trkpt lat="44.65624" lon="4.09089">
        <ele>982.12</ele>
        <time>2013-08-27T09:58:04Z</time>
      </trkpt>
      <trkpt lat="44.6563" lon="4.09096">
        <ele>983.09</ele>
        <time>2013-08-27T09:58:10Z</time>
      </trkpt>
      <trkpt lat="44.65633" lon="4.09101">
        <ele>983.57</ele>
        <time>2013-08-27T09:58:13Z</time>
      </trkpt>
      <trkpt lat="44.6564" lon="4.09115">
        <ele>984.53</ele>
        <time>2013-08-27T09:58:22Z</time>
      </trkpt>
      <trkpt lat="44.65645" lon="4.09129">
        <ele>985.97</ele>
        <time>2013-08-27T09:58:30Z</time>
      </trkpt>
      <trkpt lat="44.65648" lon="4.09146">
        <ele>987.41</ele>
        <time>2013-08-27T09:58:39Z</time>
      </trkpt>
      <trkpt lat="44.65651" lon="4.09159">
        <ele>987.89</ele>
        <time>2013-08-27T09:58:46Z</time>
      </trkpt>
      <trkpt lat="44.65652" lon="4.0917">
        <ele>989.33</ele>
        <time>2013-08-27T09:58:52Z</time>
      </trkpt>
      <trkpt lat="44.65652" lon="4.09199">
        <ele>991.26</ele>
        <time>2013-08-27T09:59:06Z</time>
      </trkpt>
      <trkpt lat="44.65653" lon="4.09224">
        <ele>993.18</ele>
        <time>2013-08-27T09:59:19Z</time>
      </trkpt>
      <trkpt lat="44.65653" lon="4.09226">
        <ele>993.66</ele>
        <time>2013-08-27T09:59:20Z</time>
      </trkpt>
      <trkpt lat="44.65657" lon="4.09245">
        <ele>994.62</ele>
        <time>2013-08-27T09:59:30Z</time>
      </trkpt>
      <trkpt lat="44.65661" lon="4.09254">
        <ele>994.62</ele>
        <time>2013-08-27T09:59:36Z</time>
      </trkpt>
      <trkpt lat="44.65665" lon="4.0926">
        <ele>996.06</ele>
        <time>2013-08-27T09:59:40Z</time>
      </trkpt>
      <trkpt lat="44.65669" lon="4.09284">
        <ele>997.51</ele>
        <time>2013-08-27T09:59:52Z</time>
      </trkpt>
      <trkpt lat="44.65661" lon="4.09289">
        <ele>996.54</ele>
        <time>2013-08-27T09:59:58Z</time>
      </trkpt>
      <trkpt lat="44.65653" lon="4.09287">
        <ele>996.06</ele>
        <time>2013-08-27T10:00:03Z</time>
      </trkpt>
      <trkpt lat="44.65628" lon="4.0926">
        <ele>996.54</ele>
        <time>2013-08-27T10:00:16Z</time>
      </trkpt>
      <trkpt lat="44.65578" lon="4.09233">
        <ele>995.1</ele>
        <time>2013-08-27T10:00:32Z</time>
      </trkpt>
      <trkpt lat="44.65535" lon="4.09226">
        <ele>994.14</ele>
        <time>2013-08-27T10:00:43Z</time>
      </trkpt>
      <trkpt lat="44.65524" lon="4.09225">
        <ele>994.14</ele>
        <time>2013-08-27T10:00:46Z</time>
      </trkpt>
      <trkpt lat="44.6552" lon="4.09224">
        <ele>993.66</ele>
        <time>2013-08-27T10:00:47Z</time>
      </trkpt>
      <trkpt lat="44.65516" lon="4.09224">
        <ele>993.66</ele>
        <time>2013-08-27T10:00:48Z</time>
      </trkpt>
      <trkpt lat="44.65513" lon="4.09223">
        <ele>993.66</ele>
        <time>2013-08-27T10:00:49Z</time>
      </trkpt>
      <trkpt lat="44.65509" lon="4.09222">
        <ele>993.18</ele>
        <time>2013-08-27T10:00:50Z</time>
      </trkpt>
      <trkpt lat="44.65505" lon="4.09222">
        <ele>992.7</ele>
        <time>2013-08-27T10:00:51Z</time>
      </trkpt>
      <trkpt lat="44.65501" lon="4.09221">
        <ele>993.18</ele>
        <time>2013-08-27T10:00:52Z</time>
      </trkpt>
      <trkpt lat="44.65493" lon="4.09222">
        <ele>992.7</ele>
        <time>2013-08-27T10:00:54Z</time>
      </trkpt>
      <trkpt lat="44.65489" lon="4.09222">
        <ele>992.22</ele>
        <time>2013-08-27T10:00:55Z</time>
      </trkpt>
      <trkpt lat="44.6548" lon="4.09224">
        <ele>991.26</ele>
        <time>2013-08-27T10:00:57Z</time>
      </trkpt>
      <trkpt lat="44.65476" lon="4.09226">
        <ele>991.26</ele>
        <time>2013-08-27T10:00:58Z</time>
      </trkpt>
      <trkpt lat="44.65463" lon="4.0923">
        <ele>989.81</ele>
        <time>2013-08-27T10:01:01Z</time>
      </trkpt>
      <trkpt lat="44.65455" lon="4.09234">
        <ele>989.33</ele>
        <time>2013-08-27T10:01:03Z</time>
      </trkpt>
      <trkpt lat="44.65419" lon="4.09252">
        <ele>988.85</ele>
        <time>2013-08-27T10:01:12Z</time>
      </trkpt>
      <trkpt lat="44.65416" lon="4.09256">
        <ele>988.85</ele>
        <time>2013-08-27T10:01:13Z</time>
      </trkpt>
      <trkpt lat="44.65398" lon="4.09277">
        <ele>987.89</ele>
        <time>2013-08-27T10:01:19Z</time>
      </trkpt>
      <trkpt lat="44.65397" lon="4.09279">
        <ele>987.89</ele>
        <time>2013-08-27T10:01:20Z</time>
      </trkpt>
      <trkpt lat="44.65395" lon="4.0928">
        <ele>988.37</ele>
        <time>2013-08-27T10:01:32Z</time>
      </trkpt>
      <trkpt lat="44.6538" lon="4.09298">
        <ele>986.93</ele>
        <time>2013-08-27T10:01:41Z</time>
      </trkpt>
      <trkpt lat="44.65356" lon="4.09326">
        <ele>986.45</ele>
        <time>2013-08-27T10:01:51Z</time>
      </trkpt>
      <trkpt lat="44.65354" lon="4.0933">
        <ele>985.49</ele>
        <time>2013-08-27T10:01:52Z</time>
      </trkpt>
      <trkpt lat="44.65353" lon="4.09335">
        <ele>985.97</ele>
        <time>2013-08-27T10:01:53Z</time>
      </trkpt>
      <trkpt lat="44.65353" lon="4.0934">
        <ele>985.49</ele>
        <time>2013-08-27T10:01:54Z</time>
      </trkpt>
      <trkpt lat="44.65355" lon="4.09344">
        <ele>985.97</ele>
        <time>2013-08-27T10:01:55Z</time>
      </trkpt>
      <trkpt lat="44.65357" lon="4.09347">
        <ele>985.97</ele>
        <time>2013-08-27T10:01:56Z</time>
      </trkpt>
      <trkpt lat="44.65359" lon="4.0935">
        <ele>985.97</ele>
        <time>2013-08-27T10:01:57Z</time>
      </trkpt>
      <trkpt lat="44.6539" lon="4.09369">
        <ele>987.89</ele>
        <time>2013-08-27T10:02:09Z</time>
      </trkpt>
      <trkpt lat="44.65423" lon="4.09408">
        <ele>987.89</ele>
        <time>2013-08-27T10:02:23Z</time>
      </trkpt>
      <trkpt lat="44.65427" lon="4.09416">
        <ele>987.89</ele>
        <time>2013-08-27T10:02:26Z</time>
      </trkpt>
      <trkpt lat="44.65427" lon="4.09419">
        <ele>988.37</ele>
        <time>2013-08-27T10:02:27Z</time>
      </trkpt>
      <trkpt lat="44.65427" lon="4.09423">
        <ele>988.37</ele>
        <time>2013-08-27T10:02:28Z</time>
      </trkpt>
      <trkpt lat="44.65427" lon="4.09426">
        <ele>988.37</ele>
        <time>2013-08-27T10:02:29Z</time>
      </trkpt>
      <trkpt lat="44.65427" lon="4.09428">
        <ele>988.85</ele>
        <time>2013-08-27T10:02:30Z</time>
      </trkpt>
      <trkpt lat="44.65426" lon="4.0943">
        <ele>988.37</ele>
        <time>2013-08-27T10:02:31Z</time>
      </trkpt>
      <trkpt lat="44.65426" lon="4.09433">
        <ele>988.85</ele>
        <time>2013-08-27T10:02:32Z</time>
      </trkpt>
      <trkpt lat="44.65425" lon="4.09436">
        <ele>987.89</ele>
        <time>2013-08-27T10:02:33Z</time>
      </trkpt>
      <trkpt lat="44.65423" lon="4.09439">
        <ele>987.89</ele>
        <time>2013-08-27T10:02:34Z</time>
      </trkpt>
      <trkpt lat="44.65399" lon="4.09468">
        <ele>986.45</ele>
        <time>2013-08-27T10:02:45Z</time>
      </trkpt>
      <trkpt lat="44.65389" lon="4.09478">
        <ele>986.45</ele>
        <time>2013-08-27T10:02:50Z</time>
      </trkpt>
      <trkpt lat="44.65388" lon="4.09483">
        <ele>987.41</ele>
        <time>2013-08-27T10:02:58Z</time>
      </trkpt>
      <trkpt lat="44.65387" lon="4.09484">
        <ele>985.97</ele>
        <time>2013-08-27T10:03:19Z</time>
      </trkpt>
      <trkpt lat="44.65387" lon="4.09484">
        <ele>985.49</ele>
        <time>2013-08-27T10:03:46Z</time>
      </trkpt>
      <trkpt lat="44.65388" lon="4.09484">
        <ele>985.97</ele>
        <time>2013-08-27T10:03:56Z</time>
      </trkpt>
      <trkpt lat="44.6539" lon="4.09484">
        <ele>985.49</ele>
        <time>2013-08-27T10:03:57Z</time>
      </trkpt>
      <trkpt lat="44.65391" lon="4.09484">
        <ele>985.49</ele>
        <time>2013-08-27T10:03:58Z</time>
      </trkpt>
      <trkpt lat="44.65393" lon="4.09485">
        <ele>984.53</ele>
        <time>2013-08-27T10:03:59Z</time>
      </trkpt>
      <trkpt lat="44.65397" lon="4.09486">
        <ele>982.12</ele>
        <time>2013-08-27T10:04:00Z</time>
      </trkpt>
      <trkpt lat="44.654" lon="4.09487">
        <ele>981.64</ele>
        <time>2013-08-27T10:04:01Z</time>
      </trkpt>
      <trkpt lat="44.65402" lon="4.09487">
        <ele>981.16</ele>
        <time>2013-08-27T10:04:02Z</time>
      </trkpt>
      <trkpt lat="44.65417" lon="4.09479">
        <ele>978.28</ele>
        <time>2013-08-27T10:04:11Z</time>
      </trkpt>
      <trkpt lat="44.65418" lon="4.09478">
        <ele>978.28</ele>
        <time>2013-08-27T10:04:12Z</time>
      </trkpt>
      <trkpt lat="44.6542" lon="4.09477">
        <ele>978.28</ele>
        <time>2013-08-27T10:04:13Z</time>
      </trkpt>
      <trkpt lat="44.65421" lon="4.09475">
        <ele>977.32</ele>
        <time>2013-08-27T10:04:14Z</time>
      </trkpt>
      <trkpt lat="44.65426" lon="4.09471">
        <ele>975.88</ele>
        <time>2013-08-27T10:04:18Z</time>
      </trkpt>
      <trkpt lat="44.65429" lon="4.09469">
        <ele>975.39</ele>
        <time>2013-08-27T10:04:20Z</time>
      </trkpt>
      <trkpt lat="44.65431" lon="4.09466">
        <ele>974.43</ele>
        <time>2013-08-27T10:04:22Z</time>
      </trkpt>
      <trkpt lat="44.65434" lon="4.09462">
        <ele>973.47</ele>
        <time>2013-08-27T10:04:25Z</time>
      </trkpt>
      <trkpt lat="44.65437" lon="4.0946">
        <ele>972.51</ele>
        <time>2013-08-27T10:04:27Z</time>
      </trkpt>
      <trkpt lat="44.65438" lon="4.09459">
        <ele>972.03</ele>
        <time>2013-08-27T10:04:28Z</time>
      </trkpt>
      <trkpt lat="44.65442" lon="4.09455">
        <ele>971.07</ele>
        <time>2013-08-27T10:04:31Z</time>
      </trkpt>
      <trkpt lat="44.65449" lon="4.09448">
        <ele>969.63</ele>
        <time>2013-08-27T10:04:41Z</time>
      </trkpt>
      <trkpt lat="44.65452" lon="4.09446">
        <ele>969.63</ele>
        <time>2013-08-27T10:04:46Z</time>
      </trkpt>
      <trkpt lat="44.65453" lon="4.09444">
        <ele>969.15</ele>
        <time>2013-08-27T10:04:47Z</time>
      </trkpt>
      <trkpt lat="44.65464" lon="4.09428">
        <ele>967.22</ele>
        <time>2013-08-27T10:04:54Z</time>
      </trkpt>
      <trkpt lat="44.65468" lon="4.09422">
        <ele>966.26</ele>
        <time>2013-08-27T10:04:56Z</time>
      </trkpt>
      <trkpt lat="44.65469" lon="4.09419">
        <ele>966.74</ele>
        <time>2013-08-27T10:04:57Z</time>
      </trkpt>
      <trkpt lat="44.6547" lon="4.09417">
        <ele>966.26</ele>
        <time>2013-08-27T10:04:58Z</time>
      </trkpt>
      <trkpt lat="44.6547" lon="4.09411">
        <ele>964.82</ele>
        <time>2013-08-27T10:05:00Z</time>
      </trkpt>
      <trkpt lat="44.65471" lon="4.09408">
        <ele>964.34</ele>
        <time>2013-08-27T10:05:01Z</time>
      </trkpt>
      <trkpt lat="44.65474" lon="4.09406">
        <ele>963.38</ele>
        <time>2013-08-27T10:05:03Z</time>
      </trkpt>
      <trkpt lat="44.65475" lon="4.0941">
        <ele>961.94</ele>
        <time>2013-08-27T10:05:07Z</time>
      </trkpt>
      <trkpt lat="44.65476" lon="4.09416">
        <ele>960.98</ele>
        <time>2013-08-27T10:05:10Z</time>
      </trkpt>
      <trkpt lat="44.6548" lon="4.09419">
        <ele>958.57</ele>
        <time>2013-08-27T10:05:14Z</time>
      </trkpt>
      <trkpt lat="44.65482" lon="4.09422">
        <ele>957.61</ele>
        <time>2013-08-27T10:05:15Z</time>
      </trkpt>
      <trkpt lat="44.65488" lon="4.0943">
        <ele>954.73</ele>
        <time>2013-08-27T10:05:19Z</time>
      </trkpt>
      <trkpt lat="44.65498" lon="4.09435">
        <ele>949.92</ele>
        <time>2013-08-27T10:05:24Z</time>
      </trkpt>
      <trkpt lat="44.65504" lon="4.09439">
        <ele>947.04</ele>
        <time>2013-08-27T10:05:28Z</time>
      </trkpt>
      <trkpt lat="44.65507" lon="4.09438">
        <ele>944.63</ele>
        <time>2013-08-27T10:05:31Z</time>
      </trkpt>
      <trkpt lat="44.65517" lon="4.09436">
        <ele>941.27</ele>
        <time>2013-08-27T10:05:38Z</time>
      </trkpt>
      <trkpt lat="44.65517" lon="4.09436">
        <ele>940.79</ele>
        <time>2013-08-27T10:05:58Z</time>
      </trkpt>
      <trkpt lat="44.65517" lon="4.09436">
        <ele>940.79</ele>
        <time>2013-08-27T10:06:19Z</time>
      </trkpt>
      <trkpt lat="44.65518" lon="4.09436">
        <ele>940.79</ele>
        <time>2013-08-27T10:06:46Z</time>
      </trkpt>
      <trkpt lat="44.65522" lon="4.09436">
        <ele>938.38</ele>
        <time>2013-08-27T10:06:56Z</time>
      </trkpt>
      <trkpt lat="44.65527" lon="4.09444">
        <ele>935.02</ele>
        <time>2013-08-27T10:07:01Z</time>
      </trkpt>
      <trkpt lat="44.65528" lon="4.09452">
        <ele>931.65</ele>
        <time>2013-08-27T10:07:06Z</time>
      </trkpt>
      <trkpt lat="44.65528" lon="4.09454">
        <ele>930.69</ele>
        <time>2013-08-27T10:07:07Z</time>
      </trkpt>
      <trkpt lat="44.65532" lon="4.09466">
        <ele>926.37</ele>
        <time>2013-08-27T10:07:12Z</time>
      </trkpt>
      <trkpt lat="44.65538" lon="4.0948">
        <ele>922.52</ele>
        <time>2013-08-27T10:07:17Z</time>
      </trkpt>
      <trkpt lat="44.65539" lon="4.09485">
        <ele>921.56</ele>
        <time>2013-08-27T10:07:19Z</time>
      </trkpt>
      <trkpt lat="44.65538" lon="4.09487">
        <ele>921.08</ele>
        <time>2013-08-27T10:07:20Z</time>
      </trkpt>
      <trkpt lat="44.65539" lon="4.09494">
        <ele>918.68</ele>
        <time>2013-08-27T10:07:23Z</time>
      </trkpt>
      <trkpt lat="44.65541" lon="4.09498">
        <ele>918.68</ele>
        <time>2013-08-27T10:07:24Z</time>
      </trkpt>
      <trkpt lat="44.65546" lon="4.09506">
        <ele>916.27</ele>
        <time>2013-08-27T10:07:27Z</time>
      </trkpt>
      <trkpt lat="44.65556" lon="4.09516">
        <ele>911.95</ele>
        <time>2013-08-27T10:07:33Z</time>
      </trkpt>
      <trkpt lat="44.65556" lon="4.09523">
        <ele>910.51</ele>
        <time>2013-08-27T10:07:36Z</time>
      </trkpt>
      <trkpt lat="44.65556" lon="4.09528">
        <ele>909.54</ele>
        <time>2013-08-27T10:07:39Z</time>
      </trkpt>
      <trkpt lat="44.65554" lon="4.09531">
        <ele>908.58</ele>
        <time>2013-08-27T10:07:41Z</time>
      </trkpt>
      <trkpt lat="44.65556" lon="4.09538">
        <ele>907.14</ele>
        <time>2013-08-27T10:07:44Z</time>
      </trkpt>
      <trkpt lat="44.65555" lon="4.09543">
        <ele>906.18</ele>
        <time>2013-08-27T10:07:47Z</time>
      </trkpt>
      <trkpt lat="44.65555" lon="4.09548">
        <ele>905.7</ele>
        <time>2013-08-27T10:07:50Z</time>
      </trkpt>
      <trkpt lat="44.65557" lon="4.09559">
        <ele>906.18</ele>
        <time>2013-08-27T10:07:54Z</time>
      </trkpt>
      <trkpt lat="44.65559" lon="4.09571">
        <ele>904.74</ele>
        <time>2013-08-27T10:08:00Z</time>
      </trkpt>
      <trkpt lat="44.65566" lon="4.09578">
        <ele>904.74</ele>
        <time>2013-08-27T10:08:14Z</time>
      </trkpt>
      <trkpt lat="44.65576" lon="4.09594">
        <ele>901.37</ele>
        <time>2013-08-27T10:08:24Z</time>
      </trkpt>
      <trkpt lat="44.65581" lon="4.09605">
        <ele>899.93</ele>
        <time>2013-08-27T10:08:27Z</time>
      </trkpt>
      <trkpt lat="44.65582" lon="4.09609">
        <ele>899.45</ele>
        <time>2013-08-27T10:08:28Z</time>
      </trkpt>
      <trkpt lat="44.65583" lon="4.09623">
        <ele>898.97</ele>
        <time>2013-08-27T10:08:31Z</time>
      </trkpt>
      <trkpt lat="44.65587" lon="4.09634">
        <ele>897.53</ele>
        <time>2013-08-27T10:08:34Z</time>
      </trkpt>
      <trkpt lat="44.65587" lon="4.09637">
        <ele>897.05</ele>
        <time>2013-08-27T10:08:35Z</time>
      </trkpt>
      <trkpt lat="44.6559" lon="4.09646">
        <ele>896.57</ele>
        <time>2013-08-27T10:08:37Z</time>
      </trkpt>
      <trkpt lat="44.65587" lon="4.09662">
        <ele>894.16</ele>
        <time>2013-08-27T10:08:43Z</time>
      </trkpt>
      <trkpt lat="44.65598" lon="4.09677">
        <ele>892.72</ele>
        <time>2013-08-27T10:08:49Z</time>
      </trkpt>
      <trkpt lat="44.65603" lon="4.09685">
        <ele>891.28</ele>
        <time>2013-08-27T10:08:52Z</time>
      </trkpt>
      <trkpt lat="44.65598" lon="4.09704">
        <ele>887.43</ele>
        <time>2013-08-27T10:08:59Z</time>
      </trkpt>
      <trkpt lat="44.65597" lon="4.09714">
        <ele>887.43</ele>
        <time>2013-08-27T10:09:02Z</time>
      </trkpt>
      <trkpt lat="44.65598" lon="4.09737">
        <ele>884.07</ele>
        <time>2013-08-27T10:09:10Z</time>
      </trkpt>
      <trkpt lat="44.65606" lon="4.09749">
        <ele>883.59</ele>
        <time>2013-08-27T10:09:14Z</time>
      </trkpt>
      <trkpt lat="44.65609" lon="4.09752">
        <ele>883.11</ele>
        <time>2013-08-27T10:09:15Z</time>
      </trkpt>
      <trkpt lat="44.65624" lon="4.09765">
        <ele>881.67</ele>
        <time>2013-08-27T10:09:18Z</time>
      </trkpt>
      <trkpt lat="44.65627" lon="4.09769">
        <ele>881.19</ele>
        <time>2013-08-27T10:09:19Z</time>
      </trkpt>
      <trkpt lat="44.65635" lon="4.09798">
        <ele>878.3</ele>
        <time>2013-08-27T10:09:26Z</time>
      </trkpt>
      <trkpt lat="44.65635" lon="4.09799">
        <ele>877.34</ele>
        <time>2013-08-27T10:09:27Z</time>
      </trkpt>
      <trkpt lat="44.65633" lon="4.09805">
        <ele>876.38</ele>
        <time>2013-08-27T10:09:29Z</time>
      </trkpt>
      <trkpt lat="44.65641" lon="4.09823">
        <ele>875.9</ele>
        <time>2013-08-27T10:09:33Z</time>
      </trkpt>
      <trkpt lat="44.65648" lon="4.0983">
        <ele>874.94</ele>
        <time>2013-08-27T10:09:35Z</time>
      </trkpt>
      <trkpt lat="44.6566" lon="4.09838">
        <ele>873.98</ele>
        <time>2013-08-27T10:09:39Z</time>
      </trkpt>
      <trkpt lat="44.65664" lon="4.09841">
        <ele>873.5</ele>
        <time>2013-08-27T10:09:40Z</time>
      </trkpt>
      <trkpt lat="44.6567" lon="4.09853">
        <ele>872.05</ele>
        <time>2013-08-27T10:09:45Z</time>
      </trkpt>
      <trkpt lat="44.65672" lon="4.09862">
        <ele>871.57</ele>
        <time>2013-08-27T10:09:54Z</time>
      </trkpt>
      <trkpt lat="44.65672" lon="4.09864">
        <ele>871.57</ele>
        <time>2013-08-27T10:10:15Z</time>
      </trkpt>
      <trkpt lat="44.65675" lon="4.09871">
        <ele>870.61</ele>
        <time>2013-08-27T10:10:18Z</time>
      </trkpt>
      <trkpt lat="44.65678" lon="4.09874">
        <ele>870.61</ele>
        <time>2013-08-27T10:10:20Z</time>
      </trkpt>
      <trkpt lat="44.65684" lon="4.09888">
        <ele>868.21</ele>
        <time>2013-08-27T10:10:26Z</time>
      </trkpt>
      <trkpt lat="44.65695" lon="4.0992">
        <ele>864.36</ele>
        <time>2013-08-27T10:10:35Z</time>
      </trkpt>
      <trkpt lat="44.65702" lon="4.09935">
        <ele>862.44</ele>
        <time>2013-08-27T10:10:38Z</time>
      </trkpt>
      <trkpt lat="44.65713" lon="4.09952">
        <ele>859.56</ele>
        <time>2013-08-27T10:10:43Z</time>
      </trkpt>
      <trkpt lat="44.65731" lon="4.09981">
        <ele>857.15</ele>
        <time>2013-08-27T10:10:52Z</time>
      </trkpt>
      <trkpt lat="44.65732" lon="4.09982">
        <ele>856.19</ele>
        <time>2013-08-27T10:10:53Z</time>
      </trkpt>
      <trkpt lat="44.65739" lon="4.09988">
        <ele>853.79</ele>
        <time>2013-08-27T10:10:58Z</time>
      </trkpt>
      <trkpt lat="44.65746" lon="4.09989">
        <ele>849.94</ele>
        <time>2013-08-27T10:11:03Z</time>
      </trkpt>
      <trkpt lat="44.65747" lon="4.0999">
        <ele>849.94</ele>
        <time>2013-08-27T10:11:04Z</time>
      </trkpt>
      <trkpt lat="44.65749" lon="4.0999">
        <ele>848.98</ele>
        <time>2013-08-27T10:11:06Z</time>
      </trkpt>
      <trkpt lat="44.65754" lon="4.09988">
        <ele>847.06</ele>
        <time>2013-08-27T10:11:09Z</time>
      </trkpt>
      <trkpt lat="44.65758" lon="4.09985">
        <ele>845.14</ele>
        <time>2013-08-27T10:11:12Z</time>
      </trkpt>
      <trkpt lat="44.6576" lon="4.09984">
        <ele>843.21</ele>
        <time>2013-08-27T10:11:14Z</time>
      </trkpt>
      <trkpt lat="44.65762" lon="4.09982">
        <ele>841.29</ele>
        <time>2013-08-27T10:11:16Z</time>
      </trkpt>
      <trkpt lat="44.65767" lon="4.09978">
        <ele>839.37</ele>
        <time>2013-08-27T10:11:25Z</time>
      </trkpt>
      <trkpt lat="44.65767" lon="4.09978">
        <ele>839.37</ele>
        <time>2013-08-27T10:11:50Z</time>
      </trkpt>
      <trkpt lat="44.65767" lon="4.09978">
        <ele>838.89</ele>
        <time>2013-08-27T10:12:15Z</time>
      </trkpt>
      <trkpt lat="44.65775" lon="4.09977">
        <ele>835.52</ele>
        <time>2013-08-27T10:12:21Z</time>
      </trkpt>
      <trkpt lat="44.6578" lon="4.09979">
        <ele>834.08</ele>
        <time>2013-08-27T10:12:25Z</time>
      </trkpt>
      <trkpt lat="44.65791" lon="4.09977">
        <ele>831.2</ele>
        <time>2013-08-27T10:12:30Z</time>
      </trkpt>
      <trkpt lat="44.65806" lon="4.09972">
        <ele>828.31</ele>
        <time>2013-08-27T10:12:38Z</time>
      </trkpt>
      <trkpt lat="44.65811" lon="4.09969">
        <ele>826.39</ele>
        <time>2013-08-27T10:12:41Z</time>
      </trkpt>
      <trkpt lat="44.65817" lon="4.0997">
        <ele>825.91</ele>
        <time>2013-08-27T10:12:47Z</time>
      </trkpt>
      <trkpt lat="44.65823" lon="4.09961">
        <ele>823.51</ele>
        <time>2013-08-27T10:12:53Z</time>
      </trkpt>
      <trkpt lat="44.6583" lon="4.09952">
        <ele>821.1</ele>
        <time>2013-08-27T10:13:01Z</time>
      </trkpt>
      <trkpt lat="44.6583" lon="4.09952">
        <ele>820.62</ele>
        <time>2013-08-27T10:13:08Z</time>
      </trkpt>
      <trkpt lat="44.65837" lon="4.09944">
        <ele>820.14</ele>
        <time>2013-08-27T10:13:12Z</time>
      </trkpt>
      <trkpt lat="44.65849" lon="4.09934">
        <ele>816.78</ele>
        <time>2013-08-27T10:13:20Z</time>
      </trkpt>
      <trkpt lat="44.65859" lon="4.09915">
        <ele>813.41</ele>
        <time>2013-08-27T10:13:27Z</time>
      </trkpt>
      <trkpt lat="44.65862" lon="4.09911">
        <ele>812.45</ele>
        <time>2013-08-27T10:13:29Z</time>
      </trkpt>
      <trkpt lat="44.65869" lon="4.09903">
        <ele>810.05</ele>
        <time>2013-08-27T10:13:35Z</time>
      </trkpt>
      <trkpt lat="44.65871" lon="4.09898">
        <ele>808.61</ele>
        <time>2013-08-27T10:13:39Z</time>
      </trkpt>
      <trkpt lat="44.65877" lon="4.09894">
        <ele>805.24</ele>
        <time>2013-08-27T10:13:50Z</time>
      </trkpt>
      <trkpt lat="44.6588" lon="4.0989">
        <ele>804.28</ele>
        <time>2013-08-27T10:14:04Z</time>
      </trkpt>
      <trkpt lat="44.6588" lon="4.0989">
        <ele>803.8</ele>
        <time>2013-08-27T10:14:34Z</time>
      </trkpt>
      <trkpt lat="44.65881" lon="4.09889">
        <ele>803.8</ele>
        <time>2013-08-27T10:14:55Z</time>
      </trkpt>
      <trkpt lat="44.65887" lon="4.09903">
        <ele>799.95</ele>
        <time>2013-08-27T10:15:02Z</time>
      </trkpt>
      <trkpt lat="44.65893" lon="4.09916">
        <ele>796.11</ele>
        <time>2013-08-27T10:15:07Z</time>
      </trkpt>
      <trkpt lat="44.65895" lon="4.0992">
        <ele>794.19</ele>
        <time>2013-08-27T10:15:09Z</time>
      </trkpt>
      <trkpt lat="44.65899" lon="4.09935">
        <ele>790.82</ele>
        <time>2013-08-27T10:15:14Z</time>
      </trkpt>
      <trkpt lat="44.65899" lon="4.09944">
        <ele>789.38</ele>
        <time>2013-08-27T10:15:17Z</time>
      </trkpt>
      <trkpt lat="44.65899" lon="4.09946">
        <ele>787.94</ele>
        <time>2013-08-27T10:15:18Z</time>
      </trkpt>
      <trkpt lat="44.659" lon="4.09953">
        <ele>786.98</ele>
        <time>2013-08-27T10:15:19Z</time>
      </trkpt>
      <trkpt lat="44.65902" lon="4.09969">
        <ele>783.61</ele>
        <time>2013-08-27T10:15:23Z</time>
      </trkpt>
      <trkpt lat="44.65903" lon="4.09977">
        <ele>782.65</ele>
        <time>2013-08-27T10:15:25Z</time>
      </trkpt>
      <trkpt lat="44.65904" lon="4.09993">
        <ele>779.77</ele>
        <time>2013-08-27T10:15:29Z</time>
      </trkpt>
      <trkpt lat="44.65903" lon="4.09996">
        <ele>778.81</ele>
        <time>2013-08-27T10:15:30Z</time>
      </trkpt>
      <trkpt lat="44.65903" lon="4.10024">
        <ele>774.96</ele>
        <time>2013-08-27T10:15:35Z</time>
      </trkpt>
      <trkpt lat="44.65902" lon="4.10029">
        <ele>774.96</ele>
        <time>2013-08-27T10:15:36Z</time>
      </trkpt>
      <trkpt lat="44.65899" lon="4.1004">
        <ele>774</ele>
        <time>2013-08-27T10:15:39Z</time>
      </trkpt>
      <trkpt lat="44.65894" lon="4.1006">
        <ele>771.6</ele>
        <time>2013-08-27T10:15:45Z</time>
      </trkpt>
      <trkpt lat="44.65887" lon="4.1007">
        <ele>769.67</ele>
        <time>2013-08-27T10:15:49Z</time>
      </trkpt>
      <trkpt lat="44.65866" lon="4.10094">
        <ele>766.31</ele>
        <time>2013-08-27T10:15:58Z</time>
      </trkpt>
      <trkpt lat="44.65856" lon="4.10105">
        <ele>765.83</ele>
        <time>2013-08-27T10:16:07Z</time>
      </trkpt>
      <trkpt lat="44.65854" lon="4.10113">
        <ele>764.39</ele>
        <time>2013-08-27T10:16:18Z</time>
      </trkpt>
      <trkpt lat="44.65854" lon="4.10113">
        <ele>764.87</ele>
        <time>2013-08-27T10:16:21Z</time>
      </trkpt>
      <trkpt lat="44.65854" lon="4.10117">
        <ele>763.9</ele>
        <time>2013-08-27T10:16:24Z</time>
      </trkpt>
      <trkpt lat="44.65864" lon="4.10128">
        <ele>761.5</ele>
        <time>2013-08-27T10:16:32Z</time>
      </trkpt>
      <trkpt lat="44.65869" lon="4.10132">
        <ele>760.54</ele>
        <time>2013-08-27T10:16:35Z</time>
      </trkpt>
      <trkpt lat="44.65871" lon="4.10138">
        <ele>761.02</ele>
        <time>2013-08-27T10:16:45Z</time>
      </trkpt>
      <trkpt lat="44.65871" lon="4.10138">
        <ele>760.54</ele>
        <time>2013-08-27T10:17:10Z</time>
      </trkpt>
      <trkpt lat="44.65874" lon="4.10139">
        <ele>761.02</ele>
        <time>2013-08-27T10:17:33Z</time>
      </trkpt>
      <trkpt lat="44.65883" lon="4.10148">
        <ele>758.14</ele>
        <time>2013-08-27T10:17:38Z</time>
      </trkpt>
      <trkpt lat="44.65885" lon="4.10151">
        <ele>757.66</ele>
        <time>2013-08-27T10:17:40Z</time>
      </trkpt>
      <trkpt lat="44.65888" lon="4.10155">
        <ele>756.69</ele>
        <time>2013-08-27T10:17:42Z</time>
      </trkpt>
      <trkpt lat="44.65892" lon="4.10164">
        <ele>753.81</ele>
        <time>2013-08-27T10:17:47Z</time>
      </trkpt>
      <trkpt lat="44.65899" lon="4.10174">
        <ele>750.93</ele>
        <time>2013-08-27T10:17:56Z</time>
      </trkpt>
      <trkpt lat="44.65904" lon="4.10172">
        <ele>749</ele>
        <time>2013-08-27T10:18:04Z</time>
      </trkpt>
      <trkpt lat="44.65904" lon="4.10172">
        <ele>748.52</ele>
        <time>2013-08-27T10:18:26Z</time>
      </trkpt>
      <trkpt lat="44.65903" lon="4.10174">
        <ele>749.97</ele>
        <time>2013-08-27T10:18:36Z</time>
      </trkpt>
      <trkpt lat="44.65899" lon="4.1017">
        <ele>751.89</ele>
        <time>2013-08-27T10:18:48Z</time>
      </trkpt>
      <trkpt lat="44.65893" lon="4.10164">
        <ele>754.29</ele>
        <time>2013-08-27T10:18:59Z</time>
      </trkpt>
      <trkpt lat="44.65885" lon="4.10153">
        <ele>756.21</ele>
        <time>2013-08-27T10:19:12Z</time>
      </trkpt>
      <trkpt lat="44.6588" lon="4.10146">
        <ele>758.62</ele>
        <time>2013-08-27T10:19:23Z</time>
      </trkpt>
      <trkpt lat="44.65879" lon="4.10145">
        <ele>759.1</ele>
        <time>2013-08-27T10:19:25Z</time>
      </trkpt>
      <trkpt lat="44.65874" lon="4.10141">
        <ele>760.06</ele>
        <time>2013-08-27T10:19:36Z</time>
      </trkpt>
      <trkpt lat="44.65874" lon="4.10141">
        <ele>759.58</ele>
        <time>2013-08-27T10:19:58Z</time>
      </trkpt>
      <trkpt lat="44.65874" lon="4.10141">
        <ele>759.58</ele>
        <time>2013-08-27T10:20:18Z</time>
      </trkpt>
      <trkpt lat="44.65876" lon="4.10143">
        <ele>758.62</ele>
        <time>2013-08-27T10:20:20Z</time>
      </trkpt>
      <trkpt lat="44.65879" lon="4.10152">
        <ele>757.66</ele>
        <time>2013-08-27T10:20:26Z</time>
      </trkpt>
      <trkpt lat="44.65891" lon="4.10177">
        <ele>754.77</ele>
        <time>2013-08-27T10:20:36Z</time>
      </trkpt>
      <trkpt lat="44.65904" lon="4.10193">
        <ele>752.37</ele>
        <time>2013-08-27T10:20:43Z</time>
      </trkpt>
      <trkpt lat="44.65918" lon="4.1022">
        <ele>748.52</ele>
        <time>2013-08-27T10:20:51Z</time>
      </trkpt>
      <trkpt lat="44.65921" lon="4.10227">
        <ele>748.04</ele>
        <time>2013-08-27T10:20:53Z</time>
      </trkpt>
      <trkpt lat="44.65929" lon="4.1025">
        <ele>745.64</ele>
        <time>2013-08-27T10:21:00Z</time>
      </trkpt>
      <trkpt lat="44.65933" lon="4.10258">
        <ele>745.16</ele>
        <time>2013-08-27T10:21:04Z</time>
      </trkpt>
      <trkpt lat="44.65936" lon="4.10271">
        <ele>742.28</ele>
        <time>2013-08-27T10:21:09Z</time>
      </trkpt>
      <trkpt lat="44.65944" lon="4.10297">
        <ele>739.39</ele>
        <time>2013-08-27T10:21:21Z</time>
      </trkpt>
      <trkpt lat="44.65945" lon="4.10305">
        <ele>738.91</ele>
        <time>2013-08-27T10:21:24Z</time>
      </trkpt>
      <trkpt lat="44.65949" lon="4.10312">
        <ele>738.91</ele>
        <time>2013-08-27T10:21:28Z</time>
      </trkpt>
      <trkpt lat="44.65961" lon="4.10319">
        <ele>737.47</ele>
        <time>2013-08-27T10:21:35Z</time>
      </trkpt>
      <trkpt lat="44.65972" lon="4.10334">
        <ele>734.58</ele>
        <time>2013-08-27T10:21:45Z</time>
      </trkpt>
      <trkpt lat="44.65977" lon="4.10344">
        <ele>733.62</ele>
        <time>2013-08-27T10:21:49Z</time>
      </trkpt>
      <trkpt lat="44.65986" lon="4.10355">
        <ele>733.14</ele>
        <time>2013-08-27T10:21:54Z</time>
      </trkpt>
      <trkpt lat="44.6599" lon="4.10359">
        <ele>732.66</ele>
        <time>2013-08-27T10:21:56Z</time>
      </trkpt>
      <trkpt lat="44.65998" lon="4.10391">
        <ele>729.78</ele>
        <time>2013-08-27T10:22:07Z</time>
      </trkpt>
      <trkpt lat="44.66" lon="4.10399">
        <ele>729.3</ele>
        <time>2013-08-27T10:22:11Z</time>
      </trkpt>
      <trkpt lat="44.66008" lon="4.10404">
        <ele>728.34</ele>
        <time>2013-08-27T10:22:18Z</time>
      </trkpt>
      <trkpt lat="44.66013" lon="4.10404">
        <ele>727.37</ele>
        <time>2013-08-27T10:22:22Z</time>
      </trkpt>
      <trkpt lat="44.66027" lon="4.10404">
        <ele>725.45</ele>
        <time>2013-08-27T10:22:30Z</time>
      </trkpt>
      <trkpt lat="44.66048" lon="4.10411">
        <ele>723.05</ele>
        <time>2013-08-27T10:22:41Z</time>
      </trkpt>
      <trkpt lat="44.66055" lon="4.10414">
        <ele>721.61</ele>
        <time>2013-08-27T10:22:45Z</time>
      </trkpt>
      <trkpt lat="44.6606" lon="4.10417">
        <ele>720.65</ele>
        <time>2013-08-27T10:22:48Z</time>
      </trkpt>
      <trkpt lat="44.66074" lon="4.10421">
        <ele>719.68</ele>
        <time>2013-08-27T10:22:55Z</time>
      </trkpt>
      <trkpt lat="44.66092" lon="4.10424">
        <ele>717.28</ele>
        <time>2013-08-27T10:23:04Z</time>
      </trkpt>
      <trkpt lat="44.661" lon="4.10425">
        <ele>715.36</ele>
        <time>2013-08-27T10:23:08Z</time>
      </trkpt>
      <trkpt lat="44.66104" lon="4.10425">
        <ele>714.88</ele>
        <time>2013-08-27T10:23:10Z</time>
      </trkpt>
      <trkpt lat="44.6611" lon="4.1042">
        <ele>712.95</ele>
        <time>2013-08-27T10:23:14Z</time>
      </trkpt>
      <trkpt lat="44.6613" lon="4.10394">
        <ele>709.59</ele>
        <time>2013-08-27T10:23:24Z</time>
      </trkpt>
      <trkpt lat="44.66138" lon="4.1038">
        <ele>708.15</ele>
        <time>2013-08-27T10:23:29Z</time>
      </trkpt>
      <trkpt lat="44.66149" lon="4.10381">
        <ele>706.71</ele>
        <time>2013-08-27T10:23:36Z</time>
      </trkpt>
      <trkpt lat="44.66155" lon="4.10384">
        <ele>706.23</ele>
        <time>2013-08-27T10:23:46Z</time>
      </trkpt>
      <trkpt lat="44.66158" lon="4.10388">
        <ele>705.26</ele>
        <time>2013-08-27T10:23:49Z</time>
      </trkpt>
      <trkpt lat="44.66166" lon="4.10394">
        <ele>703.82</ele>
        <time>2013-08-27T10:23:53Z</time>
      </trkpt>
      <trkpt lat="44.66172" lon="4.10399">
        <ele>702.86</ele>
        <time>2013-08-27T10:23:56Z</time>
      </trkpt>
      <trkpt lat="44.66179" lon="4.10403">
        <ele>700.94</ele>
        <time>2013-08-27T10:23:59Z</time>
      </trkpt>
      <trkpt lat="44.66194" lon="4.10415">
        <ele>698.53</ele>
        <time>2013-08-27T10:24:07Z</time>
      </trkpt>
      <trkpt lat="44.662" lon="4.10417">
        <ele>696.61</ele>
        <time>2013-08-27T10:24:11Z</time>
      </trkpt>
      <trkpt lat="44.66211" lon="4.10421">
        <ele>694.21</ele>
        <time>2013-08-27T10:24:15Z</time>
      </trkpt>
      <trkpt lat="44.6622" lon="4.10423">
        <ele>693.25</ele>
        <time>2013-08-27T10:24:18Z</time>
      </trkpt>
      <trkpt lat="44.66247" lon="4.10437">
        <ele>689.4</ele>
        <time>2013-08-27T10:24:25Z</time>
      </trkpt>
      <trkpt lat="44.66258" lon="4.10445">
        <ele>688.92</ele>
        <time>2013-08-27T10:24:28Z</time>
      </trkpt>
      <trkpt lat="44.66266" lon="4.10456">
        <ele>687.48</ele>
        <time>2013-08-27T10:24:32Z</time>
      </trkpt>
      <trkpt lat="44.6627" lon="4.10479">
        <ele>684.6</ele>
        <time>2013-08-27T10:24:40Z</time>
      </trkpt>
      <trkpt lat="44.66273" lon="4.10485">
        <ele>684.12</ele>
        <time>2013-08-27T10:24:42Z</time>
      </trkpt>
      <trkpt lat="44.66279" lon="4.10495">
        <ele>681.71</ele>
        <time>2013-08-27T10:24:49Z</time>
      </trkpt>
      <trkpt lat="44.66296" lon="4.10532">
        <ele>679.31</ele>
        <time>2013-08-27T10:25:00Z</time>
      </trkpt>
      <trkpt lat="44.66304" lon="4.10558">
        <ele>675.94</ele>
        <time>2013-08-27T10:25:06Z</time>
      </trkpt>
      <trkpt lat="44.66305" lon="4.10562">
        <ele>674.98</ele>
        <time>2013-08-27T10:25:07Z</time>
      </trkpt>
      <trkpt lat="44.66312" lon="4.10583">
        <ele>673.54</ele>
        <time>2013-08-27T10:25:13Z</time>
      </trkpt>
      <trkpt lat="44.66333" lon="4.10598">
        <ele>670.18</ele>
        <time>2013-08-27T10:25:23Z</time>
      </trkpt>
      <trkpt lat="44.66335" lon="4.106">
        <ele>670.18</ele>
        <time>2013-08-27T10:25:24Z</time>
      </trkpt>
      <trkpt lat="44.66341" lon="4.10618">
        <ele>667.77</ele>
        <time>2013-08-27T10:25:31Z</time>
      </trkpt>
      <trkpt lat="44.66345" lon="4.10622">
        <ele>666.81</ele>
        <time>2013-08-27T10:25:34Z</time>
      </trkpt>
      <trkpt lat="44.66345" lon="4.10626">
        <ele>665.85</ele>
        <time>2013-08-27T10:25:36Z</time>
      </trkpt>
      <trkpt lat="44.66351" lon="4.10634">
        <ele>663.93</ele>
        <time>2013-08-27T10:25:40Z</time>
      </trkpt>
      <trkpt lat="44.66363" lon="4.10644">
        <ele>660.08</ele>
        <time>2013-08-27T10:25:45Z</time>
      </trkpt>
      <trkpt lat="44.66369" lon="4.10655">
        <ele>657.2</ele>
        <time>2013-08-27T10:25:48Z</time>
      </trkpt>
      <trkpt lat="44.66383" lon="4.10671">
        <ele>652.87</ele>
        <time>2013-08-27T10:25:54Z</time>
      </trkpt>
      <trkpt lat="44.66391" lon="4.1068">
        <ele>650.95</ele>
        <time>2013-08-27T10:25:58Z</time>
      </trkpt>
      <trkpt lat="44.66392" lon="4.10687">
        <ele>649.51</ele>
        <time>2013-08-27T10:26:01Z</time>
      </trkpt>
      <trkpt lat="44.66396" lon="4.10693">
        <ele>648.07</ele>
        <time>2013-08-27T10:26:04Z</time>
      </trkpt>
      <trkpt lat="44.66412" lon="4.10705">
        <ele>644.7</ele>
        <time>2013-08-27T10:26:12Z</time>
      </trkpt>
      <trkpt lat="44.66422" lon="4.10713">
        <ele>641.82</ele>
        <time>2013-08-27T10:26:17Z</time>
      </trkpt>
      <trkpt lat="44.66431" lon="4.1072">
        <ele>640.38</ele>
        <time>2013-08-27T10:26:22Z</time>
      </trkpt>
      <trkpt lat="44.66437" lon="4.10724">
        <ele>638.93</ele>
        <time>2013-08-27T10:26:26Z</time>
      </trkpt>
      <trkpt lat="44.66446" lon="4.10726">
        <ele>636.53</ele>
        <time>2013-08-27T10:26:31Z</time>
      </trkpt>
      <trkpt lat="44.66461" lon="4.10722">
        <ele>632.2</ele>
        <time>2013-08-27T10:26:39Z</time>
      </trkpt>
      <trkpt lat="44.66464" lon="4.10722">
        <ele>631.72</ele>
        <time>2013-08-27T10:26:40Z</time>
      </trkpt>
      <trkpt lat="44.66468" lon="4.10722">
        <ele>630.76</ele>
        <time>2013-08-27T10:26:50Z</time>
      </trkpt>
      <trkpt lat="44.6647" lon="4.10722">
        <ele>630.28</ele>
        <time>2013-08-27T10:27:00Z</time>
      </trkpt>
      <trkpt lat="44.66483" lon="4.10723">
        <ele>626.44</ele>
        <time>2013-08-27T10:27:06Z</time>
      </trkpt>
      <trkpt lat="44.66485" lon="4.10722">
        <ele>625.96</ele>
        <time>2013-08-27T10:27:07Z</time>
      </trkpt>
      <trkpt lat="44.66486" lon="4.10722">
        <ele>625.47</ele>
        <time>2013-08-27T10:27:08Z</time>
      </trkpt>
      <trkpt lat="44.66492" lon="4.1072">
        <ele>622.59</ele>
        <time>2013-08-27T10:27:12Z</time>
      </trkpt>
      <trkpt lat="44.66496" lon="4.10718">
        <ele>621.63</ele>
        <time>2013-08-27T10:27:25Z</time>
      </trkpt>
      <trkpt lat="44.66496" lon="4.10718">
        <ele>621.63</ele>
        <time>2013-08-27T10:27:51Z</time>
      </trkpt>
      <trkpt lat="44.66496" lon="4.10718">
        <ele>621.63</ele>
        <time>2013-08-27T10:28:13Z</time>
      </trkpt>
      <trkpt lat="44.665" lon="4.1072">
        <ele>621.15</ele>
        <time>2013-08-27T10:28:16Z</time>
      </trkpt>
      <trkpt lat="44.66512" lon="4.10738">
        <ele>618.75</ele>
        <time>2013-08-27T10:28:23Z</time>
      </trkpt>
      <trkpt lat="44.66515" lon="4.10748">
        <ele>617.78</ele>
        <time>2013-08-27T10:28:30Z</time>
      </trkpt>
      <trkpt lat="44.66529" lon="4.10777">
        <ele>616.34</ele>
        <time>2013-08-27T10:28:41Z</time>
      </trkpt>
      <trkpt lat="44.66535" lon="4.10795">
        <ele>614.9</ele>
        <time>2013-08-27T10:28:51Z</time>
      </trkpt>
      <trkpt lat="44.66536" lon="4.10799">
        <ele>614.42</ele>
        <time>2013-08-27T10:28:53Z</time>
      </trkpt>
      <trkpt lat="44.66547" lon="4.10797">
        <ele>611.06</ele>
        <time>2013-08-27T10:28:59Z</time>
      </trkpt>
      <trkpt lat="44.66547" lon="4.10796">
        <ele>610.57</ele>
        <time>2013-08-27T10:29:11Z</time>
      </trkpt>
      <trkpt lat="44.66547" lon="4.10796">
        <ele>610.57</ele>
        <time>2013-08-27T10:29:40Z</time>
      </trkpt>
      <trkpt lat="44.66549" lon="4.10796">
        <ele>610.09</ele>
        <time>2013-08-27T10:29:59Z</time>
      </trkpt>
      <trkpt lat="44.66552" lon="4.10793">
        <ele>609.61</ele>
        <time>2013-08-27T10:30:02Z</time>
      </trkpt>
      <trkpt lat="44.66559" lon="4.10788">
        <ele>605.77</ele>
        <time>2013-08-27T10:30:07Z</time>
      </trkpt>
      <trkpt lat="44.66565" lon="4.10789">
        <ele>602.4</ele>
        <time>2013-08-27T10:30:15Z</time>
      </trkpt>
      <trkpt lat="44.66576" lon="4.10796">
        <ele>598.08</ele>
        <time>2013-08-27T10:30:22Z</time>
      </trkpt>
      <trkpt lat="44.66578" lon="4.10796">
        <ele>598.08</ele>
        <time>2013-08-27T10:30:23Z</time>
      </trkpt>
      <trkpt lat="44.66579" lon="4.10796">
        <ele>596.64</ele>
        <time>2013-08-27T10:30:32Z</time>
      </trkpt>
      <trkpt lat="44.6658" lon="4.10796">
        <ele>596.64</ele>
        <time>2013-08-27T10:30:47Z</time>
      </trkpt>
      <trkpt lat="44.6658" lon="4.10796">
        <ele>596.64</ele>
        <time>2013-08-27T10:31:10Z</time>
      </trkpt>
      <trkpt lat="44.6658" lon="4.10796">
        <ele>596.15</ele>
        <time>2013-08-27T10:31:12Z</time>
      </trkpt>
      <trkpt lat="44.66579" lon="4.10796">
        <ele>596.64</ele>
        <time>2013-08-27T10:31:25Z</time>
      </trkpt>
      <trkpt lat="44.66579" lon="4.10797">
        <ele>596.15</ele>
        <time>2013-08-27T10:31:40Z</time>
      </trkpt>
      <trkpt lat="44.66581" lon="4.10795">
        <ele>595.67</ele>
        <time>2013-08-27T10:31:42Z</time>
      </trkpt>
      <trkpt lat="44.66587" lon="4.1078">
        <ele>594.23</ele>
        <time>2013-08-27T10:31:46Z</time>
      </trkpt>
      <trkpt lat="44.66587" lon="4.10742">
        <ele>594.71</ele>
        <time>2013-08-27T10:31:57Z</time>
      </trkpt>
      <trkpt lat="44.66587" lon="4.10741">
        <ele>594.71</ele>
        <time>2013-08-27T10:31:58Z</time>
      </trkpt>
      <trkpt lat="44.66589" lon="4.10734">
        <ele>596.15</ele>
        <time>2013-08-27T10:32:02Z</time>
      </trkpt>
      <trkpt lat="44.666" lon="4.10731">
        <ele>597.12</ele>
        <time>2013-08-27T10:32:14Z</time>
      </trkpt>
      <trkpt lat="44.666" lon="4.10731">
        <ele>597.12</ele>
        <time>2013-08-27T10:32:41Z</time>
      </trkpt>
      <trkpt lat="44.666" lon="4.10731">
        <ele>596.64</ele>
        <time>2013-08-27T10:33:08Z</time>
      </trkpt>
      <trkpt lat="44.66615" lon="4.10733">
        <ele>595.67</ele>
        <time>2013-08-27T10:33:16Z</time>
      </trkpt>
      <trkpt lat="44.66629" lon="4.10755">
        <ele>596.15</ele>
        <time>2013-08-27T10:33:26Z</time>
      </trkpt>
      <trkpt lat="44.66631" lon="4.10757">
        <ele>596.64</ele>
        <time>2013-08-27T10:33:28Z</time>
      </trkpt>
      <trkpt lat="44.66634" lon="4.10761">
        <ele>596.64</ele>
        <time>2013-08-27T10:33:31Z</time>
      </trkpt>
      <trkpt lat="44.66647" lon="4.10768">
        <ele>598.08</ele>
        <time>2013-08-27T10:33:39Z</time>
      </trkpt>
      <trkpt lat="44.66653" lon="4.10769">
        <ele>599.52</ele>
        <time>2013-08-27T10:33:43Z</time>
      </trkpt>
      <trkpt lat="44.66671" lon="4.10764">
        <ele>601.44</ele>
        <time>2013-08-27T10:33:56Z</time>
      </trkpt>
      <trkpt lat="44.66674" lon="4.10763">
        <ele>601.92</ele>
        <time>2013-08-27T10:33:59Z</time>
      </trkpt>
      <trkpt lat="44.66678" lon="4.10763">
        <ele>602.88</ele>
        <time>2013-08-27T10:34:03Z</time>
      </trkpt>
      <trkpt lat="44.66683" lon="4.10762">
        <ele>603.85</ele>
        <time>2013-08-27T10:34:07Z</time>
      </trkpt>
      <trkpt lat="44.66691" lon="4.1076">
        <ele>605.29</ele>
        <time>2013-08-27T10:34:14Z</time>
      </trkpt>
      <trkpt lat="44.66695" lon="4.10761">
        <ele>605.77</ele>
        <time>2013-08-27T10:34:17Z</time>
      </trkpt>
      <trkpt lat="44.66701" lon="4.10759">
        <ele>606.73</ele>
        <time>2013-08-27T10:34:21Z</time>
      </trkpt>
      <trkpt lat="44.66703" lon="4.10755">
        <ele>607.69</ele>
        <time>2013-08-27T10:34:24Z</time>
      </trkpt>
      <trkpt lat="44.66717" lon="4.10746">
        <ele>609.13</ele>
        <time>2013-08-27T10:34:40Z</time>
      </trkpt>
      <trkpt lat="44.6672" lon="4.10742">
        <ele>608.65</ele>
        <time>2013-08-27T10:34:53Z</time>
      </trkpt>
      <trkpt lat="44.6672" lon="4.10742">
        <ele>609.13</ele>
        <time>2013-08-27T10:35:13Z</time>
      </trkpt>
      <trkpt lat="44.6672" lon="4.10742">
        <ele>610.09</ele>
        <time>2013-08-27T10:35:20Z</time>
      </trkpt>
      <trkpt lat="44.6672" lon="4.10742">
        <ele>608.65</ele>
        <time>2013-08-27T10:35:22Z</time>
      </trkpt>
      <trkpt lat="44.66721" lon="4.1074">
        <ele>608.65</ele>
        <time>2013-08-27T10:35:31Z</time>
      </trkpt>
      <trkpt lat="44.66722" lon="4.10729">
        <ele>609.13</ele>
        <time>2013-08-27T10:35:36Z</time>
      </trkpt>
      <trkpt lat="44.66726" lon="4.1069">
        <ele>611.54</ele>
        <time>2013-08-27T10:35:51Z</time>
      </trkpt>
      <trkpt lat="44.66729" lon="4.10657">
        <ele>612.02</ele>
        <time>2013-08-27T10:36:03Z</time>
      </trkpt>
      <trkpt lat="44.66741" lon="4.10617">
        <ele>614.42</ele>
        <time>2013-08-27T10:36:19Z</time>
      </trkpt>
      <trkpt lat="44.66748" lon="4.10576">
        <ele>616.34</ele>
        <time>2013-08-27T10:36:34Z</time>
      </trkpt>
      <trkpt lat="44.66754" lon="4.10546">
        <ele>617.78</ele>
        <time>2013-08-27T10:36:46Z</time>
      </trkpt>
      <trkpt lat="44.66759" lon="4.10516">
        <ele>620.19</ele>
        <time>2013-08-27T10:36:57Z</time>
      </trkpt>
      <trkpt lat="44.66763" lon="4.10496">
        <ele>620.19</ele>
        <time>2013-08-27T10:37:04Z</time>
      </trkpt>
      <trkpt lat="44.66769" lon="4.10469">
        <ele>622.11</ele>
        <time>2013-08-27T10:37:17Z</time>
      </trkpt>
      <trkpt lat="44.66769" lon="4.10465">
        <ele>622.59</ele>
        <time>2013-08-27T10:37:27Z</time>
      </trkpt>
      <trkpt lat="44.66769" lon="4.10465">
        <ele>622.11</ele>
        <time>2013-08-27T10:37:44Z</time>
      </trkpt>
      <trkpt lat="44.66769" lon="4.10446">
        <ele>621.15</ele>
        <time>2013-08-27T10:37:58Z</time>
      </trkpt>
      <trkpt lat="44.66769" lon="4.10435">
        <ele>619.71</ele>
        <time>2013-08-27T10:38:00Z</time>
      </trkpt>
      <trkpt lat="44.66766" lon="4.10411">
        <ele>618.75</ele>
        <time>2013-08-27T10:38:03Z</time>
      </trkpt>
      <trkpt lat="44.66767" lon="4.10403">
        <ele>618.75</ele>
        <time>2013-08-27T10:38:04Z</time>
      </trkpt>
      <trkpt lat="44.66768" lon="4.10377">
        <ele>616.34</ele>
        <time>2013-08-27T10:38:07Z</time>
      </trkpt>
      <trkpt lat="44.66768" lon="4.10363">
        <ele>618.75</ele>
        <time>2013-08-27T10:38:09Z</time>
      </trkpt>
      <trkpt lat="44.66768" lon="4.10348">
        <ele>619.71</ele>
        <time>2013-08-27T10:38:12Z</time>
      </trkpt>
      <trkpt lat="44.66767" lon="4.10302">
        <ele>620.67</ele>
        <time>2013-08-27T10:38:24Z</time>
      </trkpt>
      <trkpt lat="44.66768" lon="4.1028">
        <ele>621.63</ele>
        <time>2013-08-27T10:38:32Z</time>
      </trkpt>
      <trkpt lat="44.66768" lon="4.10278">
        <ele>621.63</ele>
        <time>2013-08-27T10:38:33Z</time>
      </trkpt>
      <trkpt lat="44.66767" lon="4.10273">
        <ele>622.11</ele>
        <time>2013-08-27T10:38:36Z</time>
      </trkpt>
      <trkpt lat="44.66784" lon="4.1024">
        <ele>622.59</ele>
        <time>2013-08-27T10:38:48Z</time>
      </trkpt>
      <trkpt lat="44.66795" lon="4.10199">
        <ele>623.07</ele>
        <time>2013-08-27T10:39:00Z</time>
      </trkpt>
      <trkpt lat="44.66802" lon="4.10133">
        <ele>624.51</ele>
        <time>2013-08-27T10:39:16Z</time>
      </trkpt>
      <trkpt lat="44.66809" lon="4.10075">
        <ele>624.99</ele>
        <time>2013-08-27T10:39:31Z</time>
      </trkpt>
      <trkpt lat="44.66811" lon="4.10057">
        <ele>627.4</ele>
        <time>2013-08-27T10:39:38Z</time>
      </trkpt>
      <trkpt lat="44.66813" lon="4.10055">
        <ele>626.92</ele>
        <time>2013-08-27T10:39:39Z</time>
      </trkpt>
      <trkpt lat="44.66814" lon="4.10053">
        <ele>627.4</ele>
        <time>2013-08-27T10:39:40Z</time>
      </trkpt>
      <trkpt lat="44.66816" lon="4.10051">
        <ele>626.92</ele>
        <time>2013-08-27T10:39:41Z</time>
      </trkpt>
      <trkpt lat="44.66817" lon="4.10049">
        <ele>626.92</ele>
        <time>2013-08-27T10:39:42Z</time>
      </trkpt>
      <trkpt lat="44.66834" lon="4.10031">
        <ele>627.88</ele>
        <time>2013-08-27T10:39:52Z</time>
      </trkpt>
      <trkpt lat="44.66848" lon="4.10016">
        <ele>627.88</ele>
        <time>2013-08-27T10:40:02Z</time>
      </trkpt>
      <trkpt lat="44.66864" lon="4.09992">
        <ele>628.36</ele>
        <time>2013-08-27T10:40:13Z</time>
      </trkpt>
      <trkpt lat="44.66882" lon="4.09962">
        <ele>629.32</ele>
        <time>2013-08-27T10:40:26Z</time>
      </trkpt>
      <trkpt lat="44.66894" lon="4.09932">
        <ele>632.2</ele>
        <time>2013-08-27T10:40:38Z</time>
      </trkpt>
      <trkpt lat="44.66891" lon="4.09906">
        <ele>633.17</ele>
        <time>2013-08-27T10:40:49Z</time>
      </trkpt>
      <trkpt lat="44.6689" lon="4.09905">
        <ele>633.17</ele>
        <time>2013-08-27T10:40:50Z</time>
      </trkpt>
      <trkpt lat="44.66888" lon="4.09903">
        <ele>633.17</ele>
        <time>2013-08-27T10:40:51Z</time>
      </trkpt>
      <trkpt lat="44.66887" lon="4.09902">
        <ele>633.17</ele>
        <time>2013-08-27T10:40:52Z</time>
      </trkpt>
      <trkpt lat="44.66887" lon="4.099">
        <ele>634.13</ele>
        <time>2013-08-27T10:40:53Z</time>
      </trkpt>
      <trkpt lat="44.66887" lon="4.09898">
        <ele>634.13</ele>
        <time>2013-08-27T10:40:54Z</time>
      </trkpt>
      <trkpt lat="44.66887" lon="4.09895">
        <ele>634.61</ele>
        <time>2013-08-27T10:40:55Z</time>
      </trkpt>
      <trkpt lat="44.66887" lon="4.09893">
        <ele>634.61</ele>
        <time>2013-08-27T10:40:56Z</time>
      </trkpt>
      <trkpt lat="44.66887" lon="4.09891">
        <ele>635.09</ele>
        <time>2013-08-27T10:40:57Z</time>
      </trkpt>
      <trkpt lat="44.66887" lon="4.09888">
        <ele>636.05</ele>
        <time>2013-08-27T10:40:58Z</time>
      </trkpt>
      <trkpt lat="44.66887" lon="4.09886">
        <ele>635.57</ele>
        <time>2013-08-27T10:40:59Z</time>
      </trkpt>
      <trkpt lat="44.66887" lon="4.09883">
        <ele>636.05</ele>
        <time>2013-08-27T10:41:00Z</time>
      </trkpt>
      <trkpt lat="44.66887" lon="4.09881">
        <ele>636.53</ele>
        <time>2013-08-27T10:41:01Z</time>
      </trkpt>
      <trkpt lat="44.66892" lon="4.09849">
        <ele>636.05</ele>
        <time>2013-08-27T10:41:13Z</time>
      </trkpt>
      <trkpt lat="44.66894" lon="4.09836">
        <ele>636.05</ele>
        <time>2013-08-27T10:41:20Z</time>
      </trkpt>
      <trkpt lat="44.66895" lon="4.09832">
        <ele>636.53</ele>
        <time>2013-08-27T10:41:22Z</time>
      </trkpt>
      <trkpt lat="44.66896" lon="4.0983">
        <ele>636.53</ele>
        <time>2013-08-27T10:41:23Z</time>
      </trkpt>
      <trkpt lat="44.66897" lon="4.09829">
        <ele>636.05</ele>
        <time>2013-08-27T10:41:24Z</time>
      </trkpt>
      <trkpt lat="44.669" lon="4.09823">
        <ele>636.53</ele>
        <time>2013-08-27T10:41:28Z</time>
      </trkpt>
      <trkpt lat="44.66901" lon="4.09821">
        <ele>637.01</ele>
        <time>2013-08-27T10:41:29Z</time>
      </trkpt>
      <trkpt lat="44.66902" lon="4.09819">
        <ele>637.01</ele>
        <time>2013-08-27T10:41:30Z</time>
      </trkpt>
      <trkpt lat="44.66913" lon="4.09789">
        <ele>637.49</ele>
        <time>2013-08-27T10:41:44Z</time>
      </trkpt>
      <trkpt lat="44.66927" lon="4.09748">
        <ele>638.45</ele>
        <time>2013-08-27T10:41:58Z</time>
      </trkpt>
      <trkpt lat="44.66941" lon="4.097">
        <ele>638.45</ele>
        <time>2013-08-27T10:42:12Z</time>
      </trkpt>
      <trkpt lat="44.6696" lon="4.0966">
        <ele>637.97</ele>
        <time>2013-08-27T10:42:24Z</time>
      </trkpt>
      <trkpt lat="44.66986" lon="4.09623">
        <ele>638.45</ele>
        <time>2013-08-27T10:42:38Z</time>
      </trkpt>
      <trkpt lat="44.66987" lon="4.09621">
        <ele>638.45</ele>
        <time>2013-08-27T10:42:39Z</time>
      </trkpt>
      <trkpt lat="44.67007" lon="4.09565">
        <ele>640.86</ele>
        <time>2013-08-27T10:42:56Z</time>
      </trkpt>
      <trkpt lat="44.67022" lon="4.09515">
        <ele>641.82</ele>
        <time>2013-08-27T10:43:11Z</time>
      </trkpt>
      <trkpt lat="44.67044" lon="4.09488">
        <ele>641.82</ele>
        <time>2013-08-27T10:43:24Z</time>
      </trkpt>
      <trkpt lat="44.6706" lon="4.09463">
        <ele>642.3</ele>
        <time>2013-08-27T10:43:34Z</time>
      </trkpt>
      <trkpt lat="44.67062" lon="4.09444">
        <ele>642.78</ele>
        <time>2013-08-27T10:43:40Z</time>
      </trkpt>
      <trkpt lat="44.67062" lon="4.09441">
        <ele>642.78</ele>
        <time>2013-08-27T10:43:41Z</time>
      </trkpt>
      <trkpt lat="44.67061" lon="4.09438">
        <ele>642.78</ele>
        <time>2013-08-27T10:43:42Z</time>
      </trkpt>
      <trkpt lat="44.67057" lon="4.09426">
        <ele>643.26</ele>
        <time>2013-08-27T10:43:47Z</time>
      </trkpt>
      <trkpt lat="44.67056" lon="4.09421">
        <ele>643.74</ele>
        <time>2013-08-27T10:43:57Z</time>
      </trkpt>
      <trkpt lat="44.67054" lon="4.09416">
        <ele>644.7</ele>
        <time>2013-08-27T10:44:18Z</time>
      </trkpt>
      <trkpt lat="44.67055" lon="4.09414">
        <ele>644.7</ele>
        <time>2013-08-27T10:44:19Z</time>
      </trkpt>
      <trkpt lat="44.67055" lon="4.09412">
        <ele>644.7</ele>
        <time>2013-08-27T10:44:20Z</time>
      </trkpt>
      <trkpt lat="44.67056" lon="4.09409">
        <ele>644.7</ele>
        <time>2013-08-27T10:44:21Z</time>
      </trkpt>
      <trkpt lat="44.67059" lon="4.09401">
        <ele>645.18</ele>
        <time>2013-08-27T10:44:25Z</time>
      </trkpt>
      <trkpt lat="44.67061" lon="4.09399">
        <ele>645.18</ele>
        <time>2013-08-27T10:44:26Z</time>
      </trkpt>
      <trkpt lat="44.6707" lon="4.09372">
        <ele>647.1</ele>
        <time>2013-08-27T10:44:37Z</time>
      </trkpt>
      <trkpt lat="44.67071" lon="4.09369">
        <ele>646.62</ele>
        <time>2013-08-27T10:44:38Z</time>
      </trkpt>
      <trkpt lat="44.67072" lon="4.09367">
        <ele>646.62</ele>
        <time>2013-08-27T10:44:39Z</time>
      </trkpt>
      <trkpt lat="44.67084" lon="4.09347">
        <ele>648.55</ele>
        <time>2013-08-27T10:44:50Z</time>
      </trkpt>
      <trkpt lat="44.6709" lon="4.09334">
        <ele>649.03</ele>
        <time>2013-08-27T10:44:56Z</time>
      </trkpt>
      <trkpt lat="44.67103" lon="4.09314">
        <ele>650.47</ele>
        <time>2013-08-27T10:45:05Z</time>
      </trkpt>
      <trkpt lat="44.67119" lon="4.09281">
        <ele>652.39</ele>
        <time>2013-08-27T10:45:18Z</time>
      </trkpt>
      <trkpt lat="44.67122" lon="4.0927">
        <ele>652.87</ele>
        <time>2013-08-27T10:45:22Z</time>
      </trkpt>
      <trkpt lat="44.67123" lon="4.09268">
        <ele>652.87</ele>
        <time>2013-08-27T10:45:23Z</time>
      </trkpt>
      <trkpt lat="44.6713" lon="4.09228">
        <ele>655.76</ele>
        <time>2013-08-27T10:45:36Z</time>
      </trkpt>
      <trkpt lat="44.67129" lon="4.09183">
        <ele>658.16</ele>
        <time>2013-08-27T10:45:49Z</time>
      </trkpt>
      <trkpt lat="44.67128" lon="4.09129">
        <ele>660.56</ele>
        <time>2013-08-27T10:46:04Z</time>
      </trkpt>
      <trkpt lat="44.67125" lon="4.09102">
        <ele>661.52</ele>
        <time>2013-08-27T10:46:12Z</time>
      </trkpt>
      <trkpt lat="44.67125" lon="4.09099">
        <ele>661.52</ele>
        <time>2013-08-27T10:46:13Z</time>
      </trkpt>
      <trkpt lat="44.67123" lon="4.091">
        <ele>661.52</ele>
        <time>2013-08-27T10:46:16Z</time>
      </trkpt>
      <trkpt lat="44.67124" lon="4.09102">
        <ele>661.52</ele>
        <time>2013-08-27T10:46:17Z</time>
      </trkpt>
      <trkpt lat="44.67125" lon="4.09103">
        <ele>661.52</ele>
        <time>2013-08-27T10:46:18Z</time>
      </trkpt>
      <trkpt lat="44.67126" lon="4.09103">
        <ele>661.52</ele>
        <time>2013-08-27T10:46:19Z</time>
      </trkpt>
      <trkpt lat="44.67127" lon="4.09104">
        <ele>661.52</ele>
        <time>2013-08-27T10:46:20Z</time>
      </trkpt>
      <trkpt lat="44.67127" lon="4.09106">
        <ele>662.01</ele>
        <time>2013-08-27T10:46:21Z</time>
      </trkpt>
      <trkpt lat="44.67125" lon="4.09107">
        <ele>661.52</ele>
        <time>2013-08-27T10:46:22Z</time>
      </trkpt>
      <trkpt lat="44.67123" lon="4.09105">
        <ele>661.52</ele>
        <time>2013-08-27T10:46:23Z</time>
      </trkpt>
      <trkpt lat="44.67122" lon="4.09102">
        <ele>661.52</ele>
        <time>2013-08-27T10:46:24Z</time>
      </trkpt>
      <trkpt lat="44.67115" lon="4.09053">
        <ele>659.6</ele>
        <time>2013-08-27T10:46:35Z</time>
      </trkpt>
      <trkpt lat="44.6711" lon="4.09037">
        <ele>659.12</ele>
        <time>2013-08-27T10:46:38Z</time>
      </trkpt>
      <trkpt lat="44.67107" lon="4.09033">
        <ele>658.64</ele>
        <time>2013-08-27T10:46:39Z</time>
      </trkpt>
      <trkpt lat="44.67101" lon="4.09024">
        <ele>658.64</ele>
        <time>2013-08-27T10:46:41Z</time>
      </trkpt>
      <trkpt lat="44.67098" lon="4.09021">
        <ele>658.64</ele>
        <time>2013-08-27T10:46:42Z</time>
      </trkpt>
      <trkpt lat="44.67094" lon="4.09017">
        <ele>659.12</ele>
        <time>2013-08-27T10:46:43Z</time>
      </trkpt>
      <trkpt lat="44.67084" lon="4.09006">
        <ele>658.16</ele>
        <time>2013-08-27T10:46:46Z</time>
      </trkpt>
      <trkpt lat="44.67078" lon="4.08998">
        <ele>658.16</ele>
        <time>2013-08-27T10:46:48Z</time>
      </trkpt>
      <trkpt lat="44.67074" lon="4.08995">
        <ele>658.16</ele>
        <time>2013-08-27T10:46:49Z</time>
      </trkpt>
      <trkpt lat="44.67064" lon="4.08983">
        <ele>657.2</ele>
        <time>2013-08-27T10:46:52Z</time>
      </trkpt>
      <trkpt lat="44.67061" lon="4.08979">
        <ele>657.2</ele>
        <time>2013-08-27T10:46:53Z</time>
      </trkpt>
      <trkpt lat="44.67048" lon="4.08964">
        <ele>657.68</ele>
        <time>2013-08-27T10:46:57Z</time>
      </trkpt>
      <trkpt lat="44.67043" lon="4.08962">
        <ele>656.72</ele>
        <time>2013-08-27T10:46:58Z</time>
      </trkpt>
      <trkpt lat="44.6703" lon="4.08957">
        <ele>656.72</ele>
        <time>2013-08-27T10:47:01Z</time>
      </trkpt>
      <trkpt lat="44.67028" lon="4.08958">
        <ele>656.72</ele>
        <time>2013-08-27T10:47:02Z</time>
      </trkpt>
      <trkpt lat="44.67027" lon="4.08958">
        <ele>656.24</ele>
        <time>2013-08-27T10:47:03Z</time>
      </trkpt>
      <trkpt lat="44.67025" lon="4.08959">
        <ele>655.76</ele>
        <time>2013-08-27T10:47:04Z</time>
      </trkpt>
      <trkpt lat="44.67023" lon="4.08959">
        <ele>655.28</ele>
        <time>2013-08-27T10:47:05Z</time>
      </trkpt>
      <trkpt lat="44.67013" lon="4.08965">
        <ele>655.76</ele>
        <time>2013-08-27T10:47:11Z</time>
      </trkpt>
      <trkpt lat="44.67011" lon="4.08965">
        <ele>655.76</ele>
        <time>2013-08-27T10:47:12Z</time>
      </trkpt>
      <trkpt lat="44.67006" lon="4.08963">
        <ele>656.24</ele>
        <time>2013-08-27T10:47:22Z</time>
      </trkpt>
      <trkpt lat="44.67004" lon="4.08967">
        <ele>656.24</ele>
        <time>2013-08-27T10:47:36Z</time>
      </trkpt>
      <trkpt lat="44.67004" lon="4.08967">
        <ele>656.24</ele>
        <time>2013-08-27T10:47:55Z</time>
      </trkpt>
      <trkpt lat="44.67004" lon="4.08968">
        <ele>656.24</ele>
        <time>2013-08-27T10:48:10Z</time>
      </trkpt>
      <trkpt lat="44.67004" lon="4.08968">
        <ele>656.24</ele>
        <time>2013-08-27T10:48:30Z</time>
      </trkpt>
      <trkpt lat="44.67004" lon="4.08968">
        <ele>655.76</ele>
        <time>2013-08-27T10:48:47Z</time>
      </trkpt>
      <trkpt lat="44.67003" lon="4.08967">
        <ele>655.76</ele>
        <time>2013-08-27T10:48:52Z</time>
      </trkpt>
      <trkpt lat="44.67002" lon="4.08968">
        <ele>655.76</ele>
        <time>2013-08-27T10:48:53Z</time>
      </trkpt>
      <trkpt lat="44.67001" lon="4.08969">
        <ele>655.76</ele>
        <time>2013-08-27T10:48:56Z</time>
      </trkpt>
      <trkpt lat="44.67" lon="4.08969">
        <ele>655.76</ele>
        <time>2013-08-27T10:48:57Z</time>
      </trkpt>
      <trkpt lat="44.66991" lon="4.08973">
        <ele>655.28</ele>
        <time>2013-08-27T10:49:04Z</time>
      </trkpt>
      <trkpt lat="44.66987" lon="4.08969">
        <ele>655.28</ele>
        <time>2013-08-27T10:49:14Z</time>
      </trkpt>
      <trkpt lat="44.66988" lon="4.08969">
        <ele>655.28</ele>
        <time>2013-08-27T10:49:28Z</time>
      </trkpt>
      <trkpt lat="44.66999" lon="4.08966">
        <ele>655.76</ele>
        <time>2013-08-27T10:49:38Z</time>
      </trkpt>
      <trkpt lat="44.67002" lon="4.08965">
        <ele>655.76</ele>
        <time>2013-08-27T10:49:41Z</time>
      </trkpt>
      <trkpt lat="44.67027" lon="4.08957">
        <ele>656.24</ele>
        <time>2013-08-27T10:49:55Z</time>
      </trkpt>
      <trkpt lat="44.67052" lon="4.08975">
        <ele>658.16</ele>
        <time>2013-08-27T10:50:09Z</time>
      </trkpt>
      <trkpt lat="44.67073" lon="4.08998">
        <ele>658.64</ele>
        <time>2013-08-27T10:50:21Z</time>
      </trkpt>
      <trkpt lat="44.67098" lon="4.09025">
        <ele>659.12</ele>
        <time>2013-08-27T10:50:36Z</time>
      </trkpt>
      <trkpt lat="44.67111" lon="4.09047">
        <ele>659.6</ele>
        <time>2013-08-27T10:50:47Z</time>
      </trkpt>
      <trkpt lat="44.67115" lon="4.0908">
        <ele>660.56</ele>
        <time>2013-08-27T10:51:00Z</time>
      </trkpt>
      <trkpt lat="44.67119" lon="4.09102">
        <ele>661.04</ele>
        <time>2013-08-27T10:51:08Z</time>
      </trkpt>
      <trkpt lat="44.67129" lon="4.09085">
        <ele>662.97</ele>
        <time>2013-08-27T10:51:19Z</time>
      </trkpt>
      <trkpt lat="44.6713" lon="4.09083">
        <ele>662.97</ele>
        <time>2013-08-27T10:51:20Z</time>
      </trkpt>
      <trkpt lat="44.67134" lon="4.09036">
        <ele>665.85</ele>
        <time>2013-08-27T10:51:39Z</time>
      </trkpt>
      <trkpt lat="44.67138" lon="4.09015">
        <ele>666.81</ele>
        <time>2013-08-27T10:51:51Z</time>
      </trkpt>
      <trkpt lat="44.67139" lon="4.09005">
        <ele>666.33</ele>
        <time>2013-08-27T10:52:02Z</time>
      </trkpt>
      <trkpt lat="44.67149" lon="4.08971">
        <ele>666.81</ele>
        <time>2013-08-27T10:52:13Z</time>
      </trkpt>
      <trkpt lat="44.67152" lon="4.08928">
        <ele>667.29</ele>
        <time>2013-08-27T10:52:26Z</time>
      </trkpt>
      <trkpt lat="44.67143" lon="4.08893">
        <ele>669.22</ele>
        <time>2013-08-27T10:52:39Z</time>
      </trkpt>
      <trkpt lat="44.67143" lon="4.08865">
        <ele>671.62</ele>
        <time>2013-08-27T10:52:52Z</time>
      </trkpt>
      <trkpt lat="44.67147" lon="4.08859">
        <ele>672.58</ele>
        <time>2013-08-27T10:52:56Z</time>
      </trkpt>
      <trkpt lat="44.67151" lon="4.08852">
        <ele>673.06</ele>
        <time>2013-08-27T10:53:00Z</time>
      </trkpt>
      <trkpt lat="44.6715" lon="4.08831">
        <ele>674.98</ele>
        <time>2013-08-27T10:53:12Z</time>
      </trkpt>
      <trkpt lat="44.67149" lon="4.08828">
        <ele>675.46</ele>
        <time>2013-08-27T10:53:14Z</time>
      </trkpt>
      <trkpt lat="44.67147" lon="4.08824">
        <ele>675.94</ele>
        <time>2013-08-27T10:53:16Z</time>
      </trkpt>
      <trkpt lat="44.67149" lon="4.08803">
        <ele>677.87</ele>
        <time>2013-08-27T10:53:28Z</time>
      </trkpt>
      <trkpt lat="44.6715" lon="4.08801">
        <ele>678.35</ele>
        <time>2013-08-27T10:53:30Z</time>
      </trkpt>
      <trkpt lat="44.67156" lon="4.08799">
        <ele>679.79</ele>
        <time>2013-08-27T10:53:44Z</time>
      </trkpt>
      <trkpt lat="44.67154" lon="4.088">
        <ele>679.31</ele>
        <time>2013-08-27T10:53:56Z</time>
      </trkpt>
      <trkpt lat="44.67154" lon="4.088">
        <ele>679.31</ele>
        <time>2013-08-27T10:54:02Z</time>
      </trkpt>
      <trkpt lat="44.67147" lon="4.08802">
        <ele>677.87</ele>
        <time>2013-08-27T10:54:09Z</time>
      </trkpt>
      <trkpt lat="44.67149" lon="4.08818">
        <ele>675.46</ele>
        <time>2013-08-27T10:54:14Z</time>
      </trkpt>
      <trkpt lat="44.67149" lon="4.08825">
        <ele>674.98</ele>
        <time>2013-08-27T10:54:15Z</time>
      </trkpt>
      <trkpt lat="44.67148" lon="4.08855">
        <ele>671.62</ele>
        <time>2013-08-27T10:54:20Z</time>
      </trkpt>
      <trkpt lat="44.67146" lon="4.08864">
        <ele>670.66</ele>
        <time>2013-08-27T10:54:23Z</time>
      </trkpt>
      <trkpt lat="44.67145" lon="4.08866">
        <ele>670.18</ele>
        <time>2013-08-27T10:54:24Z</time>
      </trkpt>
      <trkpt lat="44.67143" lon="4.08867">
        <ele>669.7</ele>
        <time>2013-08-27T10:54:26Z</time>
      </trkpt>
      <trkpt lat="44.67129" lon="4.0885">
        <ele>669.7</ele>
        <time>2013-08-27T10:54:34Z</time>
      </trkpt>
      <trkpt lat="44.67118" lon="4.08822">
        <ele>669.7</ele>
        <time>2013-08-27T10:54:45Z</time>
      </trkpt>
      <trkpt lat="44.67117" lon="4.08819">
        <ele>670.18</ele>
        <time>2013-08-27T10:54:46Z</time>
      </trkpt>
      <trkpt lat="44.67109" lon="4.08803">
        <ele>670.18</ele>
        <time>2013-08-27T10:54:52Z</time>
      </trkpt>
      <trkpt lat="44.67109" lon="4.0877">
        <ele>672.1</ele>
        <time>2013-08-27T10:55:06Z</time>
      </trkpt>
      <trkpt lat="44.67106" lon="4.08742">
        <ele>674.02</ele>
        <time>2013-08-27T10:55:19Z</time>
      </trkpt>
      <trkpt lat="44.67106" lon="4.08738">
        <ele>673.54</ele>
        <time>2013-08-27T10:55:21Z</time>
      </trkpt>
      <trkpt lat="44.67114" lon="4.08711">
        <ele>675.94</ele>
        <time>2013-08-27T10:55:33Z</time>
      </trkpt>
      <trkpt lat="44.67123" lon="4.08682">
        <ele>678.35</ele>
        <time>2013-08-27T10:55:47Z</time>
      </trkpt>
      <trkpt lat="44.67123" lon="4.08681">
        <ele>678.35</ele>
        <time>2013-08-27T10:55:48Z</time>
      </trkpt>
      <trkpt lat="44.67127" lon="4.08673">
        <ele>678.83</ele>
        <time>2013-08-27T10:55:53Z</time>
      </trkpt>
      <trkpt lat="44.67147" lon="4.08671">
        <ele>680.75</ele>
        <time>2013-08-27T10:56:04Z</time>
      </trkpt>
      <trkpt lat="44.67161" lon="4.08674">
        <ele>681.23</ele>
        <time>2013-08-27T10:56:12Z</time>
      </trkpt>
      <trkpt lat="44.67165" lon="4.08674">
        <ele>681.23</ele>
        <time>2013-08-27T10:56:15Z</time>
      </trkpt>
      <trkpt lat="44.67187" lon="4.08658">
        <ele>680.75</ele>
        <time>2013-08-27T10:56:24Z</time>
      </trkpt>
      <trkpt lat="44.67189" lon="4.08657">
        <ele>681.71</ele>
        <time>2013-08-27T10:56:25Z</time>
      </trkpt>
      <trkpt lat="44.67189" lon="4.08653">
        <ele>681.23</ele>
        <time>2013-08-27T10:56:27Z</time>
      </trkpt>
      <trkpt lat="44.67188" lon="4.08629">
        <ele>682.19</ele>
        <time>2013-08-27T10:56:35Z</time>
      </trkpt>
      <trkpt lat="44.67189" lon="4.08628">
        <ele>682.67</ele>
        <time>2013-08-27T10:56:36Z</time>
      </trkpt>
      <trkpt lat="44.67201" lon="4.08607">
        <ele>681.23</ele>
        <time>2013-08-27T10:56:47Z</time>
      </trkpt>
      <trkpt lat="44.67202" lon="4.08605">
        <ele>681.23</ele>
        <time>2013-08-27T10:56:48Z</time>
      </trkpt>
      <trkpt lat="44.67226" lon="4.0856">
        <ele>682.19</ele>
        <time>2013-08-27T10:57:03Z</time>
      </trkpt>
      <trkpt lat="44.67237" lon="4.0853">
        <ele>682.19</ele>
        <time>2013-08-27T10:57:11Z</time>
      </trkpt>
      <trkpt lat="44.67254" lon="4.08491">
        <ele>683.15</ele>
        <time>2013-08-27T10:57:24Z</time>
      </trkpt>
      <trkpt lat="44.6726" lon="4.08476">
        <ele>683.15</ele>
        <time>2013-08-27T10:57:32Z</time>
      </trkpt>
      <trkpt lat="44.67261" lon="4.08473">
        <ele>683.15</ele>
        <time>2013-08-27T10:57:33Z</time>
      </trkpt>
      <trkpt lat="44.67268" lon="4.08441">
        <ele>683.63</ele>
        <time>2013-08-27T10:57:42Z</time>
      </trkpt>
      <trkpt lat="44.67271" lon="4.08432">
        <ele>683.15</ele>
        <time>2013-08-27T10:57:46Z</time>
      </trkpt>
      <trkpt lat="44.6727" lon="4.0843">
        <ele>682.19</ele>
        <time>2013-08-27T10:57:49Z</time>
      </trkpt>
      <trkpt lat="44.67268" lon="4.08429">
        <ele>681.71</ele>
        <time>2013-08-27T10:57:50Z</time>
      </trkpt>
      <trkpt lat="44.67267" lon="4.08429">
        <ele>681.71</ele>
        <time>2013-08-27T10:57:51Z</time>
      </trkpt>
      <trkpt lat="44.67266" lon="4.08429">
        <ele>680.75</ele>
        <time>2013-08-27T10:57:52Z</time>
      </trkpt>
      <trkpt lat="44.67265" lon="4.08429">
        <ele>680.27</ele>
        <time>2013-08-27T10:57:53Z</time>
      </trkpt>
      <trkpt lat="44.67262" lon="4.08428">
        <ele>678.83</ele>
        <time>2013-08-27T10:57:55Z</time>
      </trkpt>
      <trkpt lat="44.6726" lon="4.08427">
        <ele>677.87</ele>
        <time>2013-08-27T10:57:56Z</time>
      </trkpt>
      <trkpt lat="44.67257" lon="4.08425">
        <ele>677.87</ele>
        <time>2013-08-27T10:57:57Z</time>
      </trkpt>
      <trkpt lat="44.67254" lon="4.08425">
        <ele>676.91</ele>
        <time>2013-08-27T10:57:58Z</time>
      </trkpt>
      <trkpt lat="44.67246" lon="4.08422">
        <ele>674.98</ele>
        <time>2013-08-27T10:58:02Z</time>
      </trkpt>
      <trkpt lat="44.67241" lon="4.08411">
        <ele>671.62</ele>
        <time>2013-08-27T10:58:12Z</time>
      </trkpt>
      <trkpt lat="44.67244" lon="4.0841">
        <ele>671.14</ele>
        <time>2013-08-27T10:58:22Z</time>
      </trkpt>
      <trkpt lat="44.67247" lon="4.08412">
        <ele>670.66</ele>
        <time>2013-08-27T10:58:24Z</time>
      </trkpt>
      <trkpt lat="44.67239" lon="4.08413">
        <ele>671.14</ele>
        <time>2013-08-27T10:58:37Z</time>
      </trkpt>
      <trkpt lat="44.67239" lon="4.08413">
        <ele>671.14</ele>
        <time>2013-08-27T10:59:07Z</time>
      </trkpt>
      <trkpt lat="44.67238" lon="4.08413">
        <ele>671.14</ele>
        <time>2013-08-27T10:59:31Z</time>
      </trkpt>
      <trkpt lat="44.67239" lon="4.08414">
        <ele>671.14</ele>
        <time>2013-08-27T10:59:52Z</time>
      </trkpt>
      <trkpt lat="44.67241" lon="4.08413">
        <ele>670.66</ele>
        <time>2013-08-27T11:00:17Z</time>
      </trkpt>
      <trkpt lat="44.67241" lon="4.08413">
        <ele>670.18</ele>
        <time>2013-08-27T11:00:46Z</time>
      </trkpt>
      <trkpt lat="44.67242" lon="4.08413">
        <ele>669.7</ele>
        <time>2013-08-27T11:01:08Z</time>
      </trkpt>
      <trkpt lat="44.67242" lon="4.08413">
        <ele>670.18</ele>
        <time>2013-08-27T11:01:33Z</time>
      </trkpt>
      <trkpt lat="44.67242" lon="4.08413">
        <ele>670.66</ele>
        <time>2013-08-27T11:02:02Z</time>
      </trkpt>
      <trkpt lat="44.67243" lon="4.08414">
        <ele>671.62</ele>
        <time>2013-08-27T11:02:26Z</time>
      </trkpt>
      <trkpt lat="44.67243" lon="4.08414">
        <ele>671.62</ele>
        <time>2013-08-27T11:02:50Z</time>
      </trkpt>
      <trkpt lat="44.67242" lon="4.08414">
        <ele>670.66</ele>
        <time>2013-08-27T11:03:13Z</time>
      </trkpt>
      <trkpt lat="44.67242" lon="4.08414">
        <ele>670.66</ele>
        <time>2013-08-27T11:03:36Z</time>
      </trkpt>
      <trkpt lat="44.67242" lon="4.08414">
        <ele>670.18</ele>
        <time>2013-08-27T11:04:05Z</time>
      </trkpt>
      <trkpt lat="44.67244" lon="4.08415">
        <ele>670.18</ele>
        <time>2013-08-27T11:04:31Z</time>
      </trkpt>
      <trkpt lat="44.67244" lon="4.08415">
        <ele>670.18</ele>
        <time>2013-08-27T11:04:35Z</time>
      </trkpt>
      <trkpt lat="44.67233" lon="4.08415">
        <ele>671.62</ele>
        <time>2013-08-27T11:42:48Z</time>
      </trkpt>
      <trkpt lat="44.67238" lon="4.08414">
        <ele>672.1</ele>
        <time>2013-08-27T11:43:20Z</time>
      </trkpt>
      <trkpt lat="44.67233" lon="4.0841">
        <ele>672.1</ele>
        <time>2013-08-27T11:43:54Z</time>
      </trkpt>
      <trkpt lat="44.67233" lon="4.08414">
        <ele>672.58</ele>
        <time>2013-08-27T11:44:26Z</time>
      </trkpt>
      <trkpt lat="44.67232" lon="4.08414">
        <ele>673.06</ele>
        <time>2013-08-27T11:44:57Z</time>
      </trkpt>
      <trkpt lat="44.67233" lon="4.0841">
        <ele>673.54</ele>
        <time>2013-08-27T11:45:27Z</time>
      </trkpt>
      <trkpt lat="44.67236" lon="4.08408">
        <ele>675.94</ele>
        <time>2013-08-27T11:45:36Z</time>
      </trkpt>
      <trkpt lat="44.6724" lon="4.08406">
        <ele>676.42</ele>
        <time>2013-08-27T11:45:51Z</time>
      </trkpt>
      <trkpt lat="44.6724" lon="4.08406">
        <ele>676.42</ele>
        <time>2013-08-27T11:46:13Z</time>
      </trkpt>
      <trkpt lat="44.6724" lon="4.08406">
        <ele>676.42</ele>
        <time>2013-08-27T11:46:39Z</time>
      </trkpt>
      <trkpt lat="44.6724" lon="4.08406">
        <ele>676.42</ele>
        <time>2013-08-27T11:47:12Z</time>
      </trkpt>
      <trkpt lat="44.6724" lon="4.08407">
        <ele>676.91</ele>
        <time>2013-08-27T11:47:44Z</time>
      </trkpt>
      <trkpt lat="44.67239" lon="4.08405">
        <ele>676.42</ele>
        <time>2013-08-27T11:48:14Z</time>
      </trkpt>
      <trkpt lat="44.67245" lon="4.08407">
        <ele>677.87</ele>
        <time>2013-08-27T11:48:39Z</time>
      </trkpt>
      <trkpt lat="44.67252" lon="4.08416">
        <ele>679.79</ele>
        <time>2013-08-27T11:48:54Z</time>
      </trkpt>
      <trkpt lat="44.67256" lon="4.08422">
        <ele>681.23</ele>
        <time>2013-08-27T11:49:08Z</time>
      </trkpt>
      <trkpt lat="44.67257" lon="4.0842">
        <ele>682.19</ele>
        <time>2013-08-27T11:49:13Z</time>
      </trkpt>
      <trkpt lat="44.67264" lon="4.08427">
        <ele>683.63</ele>
        <time>2013-08-27T11:49:27Z</time>
      </trkpt>
      <trkpt lat="44.67271" lon="4.0843">
        <ele>685.56</ele>
        <time>2013-08-27T11:49:41Z</time>
      </trkpt>
      <trkpt lat="44.67275" lon="4.08423">
        <ele>686.52</ele>
        <time>2013-08-27T11:49:57Z</time>
      </trkpt>
      <trkpt lat="44.67275" lon="4.08423">
        <ele>686.04</ele>
        <time>2013-08-27T11:50:12Z</time>
      </trkpt>
      <trkpt lat="44.67275" lon="4.08423">
        <ele>686.04</ele>
        <time>2013-08-27T11:50:37Z</time>
      </trkpt>
      <trkpt lat="44.67276" lon="4.08422">
        <ele>686.04</ele>
        <time>2013-08-27T11:51:07Z</time>
      </trkpt>
      <trkpt lat="44.67279" lon="4.0841">
        <ele>686.52</ele>
        <time>2013-08-27T11:51:13Z</time>
      </trkpt>
      <trkpt lat="44.67286" lon="4.08379">
        <ele>687</ele>
        <time>2013-08-27T11:51:26Z</time>
      </trkpt>
      <trkpt lat="44.67291" lon="4.08348">
        <ele>687</ele>
        <time>2013-08-27T11:51:40Z</time>
      </trkpt>
      <trkpt lat="44.67301" lon="4.08317">
        <ele>687.96</ele>
        <time>2013-08-27T11:51:52Z</time>
      </trkpt>
      <trkpt lat="44.67308" lon="4.08285">
        <ele>687.96</ele>
        <time>2013-08-27T11:52:04Z</time>
      </trkpt>
      <trkpt lat="44.67306" lon="4.08248">
        <ele>687.96</ele>
        <time>2013-08-27T11:52:17Z</time>
      </trkpt>
      <trkpt lat="44.67305" lon="4.08217">
        <ele>689.4</ele>
        <time>2013-08-27T11:52:29Z</time>
      </trkpt>
      <trkpt lat="44.67309" lon="4.08196">
        <ele>690.84</ele>
        <time>2013-08-27T11:52:37Z</time>
      </trkpt>
      <trkpt lat="44.6731" lon="4.08184">
        <ele>690.84</ele>
        <time>2013-08-27T11:52:42Z</time>
      </trkpt>
      <trkpt lat="44.67314" lon="4.08147">
        <ele>691.81</ele>
        <time>2013-08-27T11:52:56Z</time>
      </trkpt>
      <trkpt lat="44.67316" lon="4.0812">
        <ele>693.25</ele>
        <time>2013-08-27T11:53:07Z</time>
      </trkpt>
      <trkpt lat="44.6732" lon="4.08086">
        <ele>695.17</ele>
        <time>2013-08-27T11:53:24Z</time>
      </trkpt>
      <trkpt lat="44.6732" lon="4.08085">
        <ele>695.65</ele>
        <time>2013-08-27T11:53:25Z</time>
      </trkpt>
      <trkpt lat="44.6732" lon="4.08075">
        <ele>696.13</ele>
        <time>2013-08-27T11:53:30Z</time>
      </trkpt>
      <trkpt lat="44.67326" lon="4.08049">
        <ele>697.09</ele>
        <time>2013-08-27T11:53:43Z</time>
      </trkpt>
      <trkpt lat="44.67334" lon="4.08026">
        <ele>699.02</ele>
        <time>2013-08-27T11:53:55Z</time>
      </trkpt>
      <trkpt lat="44.67337" lon="4.08016">
        <ele>699.98</ele>
        <time>2013-08-27T11:54:00Z</time>
      </trkpt>
      <trkpt lat="44.67341" lon="4.08003">
        <ele>700.46</ele>
        <time>2013-08-27T11:54:07Z</time>
      </trkpt>
      <trkpt lat="44.67341" lon="4.07994">
        <ele>700.46</ele>
        <time>2013-08-27T11:54:11Z</time>
      </trkpt>
      <trkpt lat="44.67342" lon="4.07976">
        <ele>701.42</ele>
        <time>2013-08-27T11:54:20Z</time>
      </trkpt>
      <trkpt lat="44.6734" lon="4.07962">
        <ele>701.9</ele>
        <time>2013-08-27T11:54:29Z</time>
      </trkpt>
      <trkpt lat="44.67342" lon="4.07941">
        <ele>703.82</ele>
        <time>2013-08-27T11:54:40Z</time>
      </trkpt>
      <trkpt lat="44.6735" lon="4.07916">
        <ele>705.26</ele>
        <time>2013-08-27T11:54:54Z</time>
      </trkpt>
      <trkpt lat="44.67358" lon="4.07902">
        <ele>706.23</ele>
        <time>2013-08-27T11:55:05Z</time>
      </trkpt>
      <trkpt lat="44.67374" lon="4.07892">
        <ele>707.67</ele>
        <time>2013-08-27T11:55:18Z</time>
      </trkpt>
      <trkpt lat="44.6739" lon="4.07884">
        <ele>708.15</ele>
        <time>2013-08-27T11:55:29Z</time>
      </trkpt>
      <trkpt lat="44.6741" lon="4.07873">
        <ele>710.07</ele>
        <time>2013-08-27T11:55:41Z</time>
      </trkpt>
      <trkpt lat="44.67426" lon="4.07865">
        <ele>711.03</ele>
        <time>2013-08-27T11:55:54Z</time>
      </trkpt>
      <trkpt lat="44.67439" lon="4.07859">
        <ele>711.99</ele>
        <time>2013-08-27T11:56:04Z</time>
      </trkpt>
      <trkpt lat="44.67454" lon="4.07852">
        <ele>712.95</ele>
        <time>2013-08-27T11:56:16Z</time>
      </trkpt>
      <trkpt lat="44.6747" lon="4.07841">
        <ele>713.92</ele>
        <time>2013-08-27T11:56:29Z</time>
      </trkpt>
      <trkpt lat="44.67487" lon="4.07828">
        <ele>714.4</ele>
        <time>2013-08-27T11:56:41Z</time>
      </trkpt>
      <trkpt lat="44.67496" lon="4.07818">
        <ele>715.36</ele>
        <time>2013-08-27T11:56:48Z</time>
      </trkpt>
      <trkpt lat="44.67507" lon="4.07787">
        <ele>716.32</ele>
        <time>2013-08-27T11:57:02Z</time>
      </trkpt>
      <trkpt lat="44.67513" lon="4.07772">
        <ele>717.28</ele>
        <time>2013-08-27T11:57:09Z</time>
      </trkpt>
      <trkpt lat="44.67523" lon="4.07739">
        <ele>718.72</ele>
        <time>2013-08-27T11:57:25Z</time>
      </trkpt>
      <trkpt lat="44.67532" lon="4.07707">
        <ele>719.68</ele>
        <time>2013-08-27T11:57:40Z</time>
      </trkpt>
      <trkpt lat="44.67536" lon="4.07679">
        <ele>721.61</ele>
        <time>2013-08-27T11:57:52Z</time>
      </trkpt>
      <trkpt lat="44.67537" lon="4.07663">
        <ele>723.05</ele>
        <time>2013-08-27T11:57:59Z</time>
      </trkpt>
      <trkpt lat="44.67534" lon="4.07643">
        <ele>723.53</ele>
        <time>2013-08-27T11:58:09Z</time>
      </trkpt>
      <trkpt lat="44.67534" lon="4.07639">
        <ele>723.53</ele>
        <time>2013-08-27T11:58:10Z</time>
      </trkpt>
      <trkpt lat="44.67532" lon="4.07614">
        <ele>725.45</ele>
        <time>2013-08-27T11:58:22Z</time>
      </trkpt>
      <trkpt lat="44.67531" lon="4.07605">
        <ele>726.41</ele>
        <time>2013-08-27T11:58:28Z</time>
      </trkpt>
      <trkpt lat="44.6753" lon="4.07604">
        <ele>725.93</ele>
        <time>2013-08-27T11:58:29Z</time>
      </trkpt>
      <trkpt lat="44.67529" lon="4.07597">
        <ele>726.41</ele>
        <time>2013-08-27T11:58:33Z</time>
      </trkpt>
      <trkpt lat="44.67533" lon="4.07576">
        <ele>728.34</ele>
        <time>2013-08-27T11:58:45Z</time>
      </trkpt>
      <trkpt lat="44.67535" lon="4.07564">
        <ele>729.3</ele>
        <time>2013-08-27T11:58:52Z</time>
      </trkpt>
      <trkpt lat="44.67536" lon="4.07547">
        <ele>730.26</ele>
        <time>2013-08-27T11:59:01Z</time>
      </trkpt>
      <trkpt lat="44.67539" lon="4.0752">
        <ele>731.22</ele>
        <time>2013-08-27T11:59:16Z</time>
      </trkpt>
      <trkpt lat="44.67542" lon="4.07494">
        <ele>732.66</ele>
        <time>2013-08-27T11:59:29Z</time>
      </trkpt>
      <trkpt lat="44.67546" lon="4.07469">
        <ele>733.62</ele>
        <time>2013-08-27T11:59:43Z</time>
      </trkpt>
      <trkpt lat="44.67552" lon="4.07457">
        <ele>734.1</ele>
        <time>2013-08-27T11:59:51Z</time>
      </trkpt>
      <trkpt lat="44.67557" lon="4.07448">
        <ele>734.1</ele>
        <time>2013-08-27T11:59:58Z</time>
      </trkpt>
      <trkpt lat="44.67571" lon="4.07415">
        <ele>735.55</ele>
        <time>2013-08-27T12:00:11Z</time>
      </trkpt>
      <trkpt lat="44.67576" lon="4.07399">
        <ele>736.99</ele>
        <time>2013-08-27T12:00:19Z</time>
      </trkpt>
      <trkpt lat="44.6758" lon="4.07363">
        <ele>738.91</ele>
        <time>2013-08-27T12:00:33Z</time>
      </trkpt>
      <trkpt lat="44.67584" lon="4.07344">
        <ele>739.39</ele>
        <time>2013-08-27T12:00:42Z</time>
      </trkpt>
      <trkpt lat="44.67586" lon="4.07343">
        <ele>739.87</ele>
        <time>2013-08-27T12:00:43Z</time>
      </trkpt>
      <trkpt lat="44.67586" lon="4.07329">
        <ele>740.35</ele>
        <time>2013-08-27T12:00:49Z</time>
      </trkpt>
      <trkpt lat="44.67586" lon="4.07324">
        <ele>740.35</ele>
        <time>2013-08-27T12:00:52Z</time>
      </trkpt>
      <trkpt lat="44.67585" lon="4.07322">
        <ele>740.35</ele>
        <time>2013-08-27T12:00:53Z</time>
      </trkpt>
      <trkpt lat="44.67585" lon="4.07315">
        <ele>740.35</ele>
        <time>2013-08-27T12:00:56Z</time>
      </trkpt>
      <trkpt lat="44.67585" lon="4.07314">
        <ele>739.87</ele>
        <time>2013-08-27T12:00:57Z</time>
      </trkpt>
      <trkpt lat="44.67585" lon="4.07308">
        <ele>740.35</ele>
        <time>2013-08-27T12:00:59Z</time>
      </trkpt>
      <trkpt lat="44.67581" lon="4.07303">
        <ele>739.87</ele>
        <time>2013-08-27T12:01:02Z</time>
      </trkpt>
      <trkpt lat="44.67578" lon="4.07292">
        <ele>739.87</ele>
        <time>2013-08-27T12:01:06Z</time>
      </trkpt>
      <trkpt lat="44.67577" lon="4.0729">
        <ele>740.35</ele>
        <time>2013-08-27T12:01:07Z</time>
      </trkpt>
      <trkpt lat="44.67575" lon="4.07245">
        <ele>741.31</ele>
        <time>2013-08-27T12:01:19Z</time>
      </trkpt>
      <trkpt lat="44.67574" lon="4.07217">
        <ele>741.31</ele>
        <time>2013-08-27T12:01:29Z</time>
      </trkpt>
      <trkpt lat="44.67581" lon="4.07185">
        <ele>742.76</ele>
        <time>2013-08-27T12:01:41Z</time>
      </trkpt>
      <trkpt lat="44.67588" lon="4.07158">
        <ele>743.72</ele>
        <time>2013-08-27T12:01:53Z</time>
      </trkpt>
      <trkpt lat="44.67605" lon="4.07125">
        <ele>743.72</ele>
        <time>2013-08-27T12:02:07Z</time>
      </trkpt>
      <trkpt lat="44.67628" lon="4.071">
        <ele>745.64</ele>
        <time>2013-08-27T12:02:21Z</time>
      </trkpt>
      <trkpt lat="44.67651" lon="4.07082">
        <ele>747.56</ele>
        <time>2013-08-27T12:02:35Z</time>
      </trkpt>
      <trkpt lat="44.67665" lon="4.07067">
        <ele>748.04</ele>
        <time>2013-08-27T12:02:45Z</time>
      </trkpt>
      <trkpt lat="44.67682" lon="4.07042">
        <ele>749.97</ele>
        <time>2013-08-27T12:03:00Z</time>
      </trkpt>
      <trkpt lat="44.67695" lon="4.07018">
        <ele>751.89</ele>
        <time>2013-08-27T12:03:12Z</time>
      </trkpt>
      <trkpt lat="44.67711" lon="4.06997">
        <ele>753.33</ele>
        <time>2013-08-27T12:03:25Z</time>
      </trkpt>
      <trkpt lat="44.67714" lon="4.06995">
        <ele>754.29</ele>
        <time>2013-08-27T12:03:27Z</time>
      </trkpt>
      <trkpt lat="44.67719" lon="4.06978">
        <ele>755.25</ele>
        <time>2013-08-27T12:03:35Z</time>
      </trkpt>
      <trkpt lat="44.67721" lon="4.0696">
        <ele>756.69</ele>
        <time>2013-08-27T12:03:44Z</time>
      </trkpt>
      <trkpt lat="44.67729" lon="4.06932">
        <ele>759.1</ele>
        <time>2013-08-27T12:03:57Z</time>
      </trkpt>
      <trkpt lat="44.6773" lon="4.06924">
        <ele>760.54</ele>
        <time>2013-08-27T12:04:02Z</time>
      </trkpt>
      <trkpt lat="44.6773" lon="4.06917">
        <ele>760.54</ele>
        <time>2013-08-27T12:04:06Z</time>
      </trkpt>
      <trkpt lat="44.67737" lon="4.06887">
        <ele>763.42</ele>
        <time>2013-08-27T12:04:21Z</time>
      </trkpt>
      <trkpt lat="44.67742" lon="4.06863">
        <ele>765.83</ele>
        <time>2013-08-27T12:04:32Z</time>
      </trkpt>
      <trkpt lat="44.67753" lon="4.06836">
        <ele>766.79</ele>
        <time>2013-08-27T12:04:48Z</time>
      </trkpt>
      <trkpt lat="44.67754" lon="4.06831">
        <ele>766.79</ele>
        <time>2013-08-27T12:04:51Z</time>
      </trkpt>
      <trkpt lat="44.67759" lon="4.06828">
        <ele>766.79</ele>
        <time>2013-08-27T12:04:55Z</time>
      </trkpt>
      <trkpt lat="44.67765" lon="4.06819">
        <ele>769.19</ele>
        <time>2013-08-27T12:05:02Z</time>
      </trkpt>
      <trkpt lat="44.6777" lon="4.06817">
        <ele>769.19</ele>
        <time>2013-08-27T12:05:06Z</time>
      </trkpt>
      <trkpt lat="44.67778" lon="4.06816">
        <ele>769.19</ele>
        <time>2013-08-27T12:05:12Z</time>
      </trkpt>
      <trkpt lat="44.67782" lon="4.06816">
        <ele>770.63</ele>
        <time>2013-08-27T12:05:15Z</time>
      </trkpt>
      <trkpt lat="44.67801" lon="4.06816">
        <ele>771.11</ele>
        <time>2013-08-27T12:05:30Z</time>
      </trkpt>
      <trkpt lat="44.67816" lon="4.06804">
        <ele>772.56</ele>
        <time>2013-08-27T12:05:44Z</time>
      </trkpt>
      <trkpt lat="44.67824" lon="4.06791">
        <ele>773.52</ele>
        <time>2013-08-27T12:05:56Z</time>
      </trkpt>
      <trkpt lat="44.6783" lon="4.06771">
        <ele>774</ele>
        <time>2013-08-27T12:06:08Z</time>
      </trkpt>
      <trkpt lat="44.67831" lon="4.06766">
        <ele>774.96</ele>
        <time>2013-08-27T12:06:11Z</time>
      </trkpt>
      <trkpt lat="44.67847" lon="4.06747">
        <ele>777.84</ele>
        <time>2013-08-27T12:06:26Z</time>
      </trkpt>
      <trkpt lat="44.67863" lon="4.06746">
        <ele>780.25</ele>
        <time>2013-08-27T12:06:41Z</time>
      </trkpt>
      <trkpt lat="44.67889" lon="4.06744">
        <ele>782.65</ele>
        <time>2013-08-27T12:06:59Z</time>
      </trkpt>
      <trkpt lat="44.67912" lon="4.06745">
        <ele>785.53</ele>
        <time>2013-08-27T12:07:15Z</time>
      </trkpt>
      <trkpt lat="44.67936" lon="4.06738">
        <ele>787.94</ele>
        <time>2013-08-27T12:07:32Z</time>
      </trkpt>
      <trkpt lat="44.67955" lon="4.06724">
        <ele>789.86</ele>
        <time>2013-08-27T12:07:47Z</time>
      </trkpt>
      <trkpt lat="44.67956" lon="4.06723">
        <ele>789.38</ele>
        <time>2013-08-27T12:07:48Z</time>
      </trkpt>
      <trkpt lat="44.67961" lon="4.0672">
        <ele>790.34</ele>
        <time>2013-08-27T12:07:52Z</time>
      </trkpt>
      <trkpt lat="44.67966" lon="4.06717">
        <ele>790.82</ele>
        <time>2013-08-27T12:07:56Z</time>
      </trkpt>
      <trkpt lat="44.67988" lon="4.06698">
        <ele>791.78</ele>
        <time>2013-08-27T12:08:13Z</time>
      </trkpt>
      <trkpt lat="44.68004" lon="4.06687">
        <ele>793.71</ele>
        <time>2013-08-27T12:08:26Z</time>
      </trkpt>
      <trkpt lat="44.68008" lon="4.06682">
        <ele>794.67</ele>
        <time>2013-08-27T12:08:30Z</time>
      </trkpt>
      <trkpt lat="44.68022" lon="4.06674">
        <ele>795.15</ele>
        <time>2013-08-27T12:08:40Z</time>
      </trkpt>
      <trkpt lat="44.68032" lon="4.06664">
        <ele>795.63</ele>
        <time>2013-08-27T12:08:49Z</time>
      </trkpt>
      <trkpt lat="44.68048" lon="4.06657">
        <ele>798.03</ele>
        <time>2013-08-27T12:09:02Z</time>
      </trkpt>
      <trkpt lat="44.68055" lon="4.06652">
        <ele>798.99</ele>
        <time>2013-08-27T12:09:09Z</time>
      </trkpt>
      <trkpt lat="44.68071" lon="4.06635">
        <ele>801.4</ele>
        <time>2013-08-27T12:09:24Z</time>
      </trkpt>
      <trkpt lat="44.68087" lon="4.06612">
        <ele>802.36</ele>
        <time>2013-08-27T12:09:41Z</time>
      </trkpt>
      <trkpt lat="44.68099" lon="4.06588">
        <ele>805.24</ele>
        <time>2013-08-27T12:09:56Z</time>
      </trkpt>
      <trkpt lat="44.68107" lon="4.06575">
        <ele>805.72</ele>
        <time>2013-08-27T12:10:05Z</time>
      </trkpt>
      <trkpt lat="44.68116" lon="4.06567">
        <ele>807.16</ele>
        <time>2013-08-27T12:10:12Z</time>
      </trkpt>
      <trkpt lat="44.68124" lon="4.06562">
        <ele>807.16</ele>
        <time>2013-08-27T12:10:17Z</time>
      </trkpt>
      <trkpt lat="44.68133" lon="4.06553">
        <ele>808.13</ele>
        <time>2013-08-27T12:10:26Z</time>
      </trkpt>
      <trkpt lat="44.68137" lon="4.06531">
        <ele>809.57</ele>
        <time>2013-08-27T12:10:34Z</time>
      </trkpt>
      <trkpt lat="44.68134" lon="4.06512">
        <ele>810.53</ele>
        <time>2013-08-27T12:10:42Z</time>
      </trkpt>
      <trkpt lat="44.68139" lon="4.06479">
        <ele>811.97</ele>
        <time>2013-08-27T12:10:56Z</time>
      </trkpt>
      <trkpt lat="44.68145" lon="4.06457">
        <ele>812.93</ele>
        <time>2013-08-27T12:11:05Z</time>
      </trkpt>
      <trkpt lat="44.68168" lon="4.06439">
        <ele>816.3</ele>
        <time>2013-08-27T12:11:21Z</time>
      </trkpt>
      <trkpt lat="44.6817" lon="4.06439">
        <ele>816.3</ele>
        <time>2013-08-27T12:11:22Z</time>
      </trkpt>
      <trkpt lat="44.68179" lon="4.06438">
        <ele>816.3</ele>
        <time>2013-08-27T12:11:28Z</time>
      </trkpt>
      <trkpt lat="44.68184" lon="4.06431">
        <ele>816.78</ele>
        <time>2013-08-27T12:11:32Z</time>
      </trkpt>
      <trkpt lat="44.68185" lon="4.06425">
        <ele>816.78</ele>
        <time>2013-08-27T12:11:34Z</time>
      </trkpt>
      <trkpt lat="44.68182" lon="4.0641">
        <ele>819.18</ele>
        <time>2013-08-27T12:11:41Z</time>
      </trkpt>
      <trkpt lat="44.68182" lon="4.06405">
        <ele>819.66</ele>
        <time>2013-08-27T12:11:43Z</time>
      </trkpt>
      <trkpt lat="44.68186" lon="4.06397">
        <ele>821.1</ele>
        <time>2013-08-27T12:11:48Z</time>
      </trkpt>
      <trkpt lat="44.68195" lon="4.0638">
        <ele>822.55</ele>
        <time>2013-08-27T12:12:00Z</time>
      </trkpt>
      <trkpt lat="44.682" lon="4.06373">
        <ele>823.51</ele>
        <time>2013-08-27T12:12:06Z</time>
      </trkpt>
      <trkpt lat="44.68205" lon="4.0636">
        <ele>823.99</ele>
        <time>2013-08-27T12:12:15Z</time>
      </trkpt>
      <trkpt lat="44.68208" lon="4.0635">
        <ele>824.95</ele>
        <time>2013-08-27T12:12:19Z</time>
      </trkpt>
      <trkpt lat="44.68214" lon="4.06327">
        <ele>827.35</ele>
        <time>2013-08-27T12:12:32Z</time>
      </trkpt>
      <trkpt lat="44.68218" lon="4.06307">
        <ele>828.31</ele>
        <time>2013-08-27T12:12:42Z</time>
      </trkpt>
      <trkpt lat="44.68219" lon="4.06304">
        <ele>828.79</ele>
        <time>2013-08-27T12:12:44Z</time>
      </trkpt>
      <trkpt lat="44.68222" lon="4.06294">
        <ele>828.79</ele>
        <time>2013-08-27T12:12:50Z</time>
      </trkpt>
      <trkpt lat="44.68222" lon="4.0629">
        <ele>830.24</ele>
        <time>2013-08-27T12:12:52Z</time>
      </trkpt>
      <trkpt lat="44.68227" lon="4.06271">
        <ele>831.2</ele>
        <time>2013-08-27T12:13:02Z</time>
      </trkpt>
      <trkpt lat="44.68228" lon="4.06265">
        <ele>831.2</ele>
        <time>2013-08-27T12:13:05Z</time>
      </trkpt>
      <trkpt lat="44.68228" lon="4.06259">
        <ele>831.68</ele>
        <time>2013-08-27T12:13:08Z</time>
      </trkpt>
      <trkpt lat="44.68231" lon="4.06247">
        <ele>833.12</ele>
        <time>2013-08-27T12:13:14Z</time>
      </trkpt>
      <trkpt lat="44.68228" lon="4.06229">
        <ele>833.6</ele>
        <time>2013-08-27T12:13:22Z</time>
      </trkpt>
      <trkpt lat="44.68228" lon="4.06213">
        <ele>834.56</ele>
        <time>2013-08-27T12:13:29Z</time>
      </trkpt>
      <trkpt lat="44.68234" lon="4.06186">
        <ele>836.48</ele>
        <time>2013-08-27T12:13:43Z</time>
      </trkpt>
      <trkpt lat="44.68244" lon="4.06169">
        <ele>838.89</ele>
        <time>2013-08-27T12:13:55Z</time>
      </trkpt>
      <trkpt lat="44.68253" lon="4.06162">
        <ele>840.81</ele>
        <time>2013-08-27T12:14:04Z</time>
      </trkpt>
      <trkpt lat="44.6826" lon="4.06157">
        <ele>840.81</ele>
        <time>2013-08-27T12:14:10Z</time>
      </trkpt>
      <trkpt lat="44.68271" lon="4.0615">
        <ele>842.73</ele>
        <time>2013-08-27T12:14:19Z</time>
      </trkpt>
      <trkpt lat="44.68293" lon="4.06141">
        <ele>844.18</ele>
        <time>2013-08-27T12:14:36Z</time>
      </trkpt>
      <trkpt lat="44.68295" lon="4.06137">
        <ele>844.66</ele>
        <time>2013-08-27T12:14:39Z</time>
      </trkpt>
      <trkpt lat="44.68303" lon="4.06129">
        <ele>845.62</ele>
        <time>2013-08-27T12:14:49Z</time>
      </trkpt>
      <trkpt lat="44.68323" lon="4.06126">
        <ele>847.54</ele>
        <time>2013-08-27T12:15:04Z</time>
      </trkpt>
      <trkpt lat="44.68324" lon="4.06126">
        <ele>848.02</ele>
        <time>2013-08-27T12:15:06Z</time>
      </trkpt>
      <trkpt lat="44.68336" lon="4.06132">
        <ele>848.98</ele>
        <time>2013-08-27T12:15:18Z</time>
      </trkpt>
      <trkpt lat="44.68347" lon="4.06139">
        <ele>849.94</ele>
        <time>2013-08-27T12:15:28Z</time>
      </trkpt>
      <trkpt lat="44.68351" lon="4.0614">
        <ele>849.94</ele>
        <time>2013-08-27T12:15:30Z</time>
      </trkpt>
      <trkpt lat="44.6836" lon="4.06144">
        <ele>850.9</ele>
        <time>2013-08-27T12:15:35Z</time>
      </trkpt>
      <trkpt lat="44.68377" lon="4.06144">
        <ele>852.83</ele>
        <time>2013-08-27T12:15:48Z</time>
      </trkpt>
      <trkpt lat="44.68377" lon="4.06143">
        <ele>852.83</ele>
        <time>2013-08-27T12:15:49Z</time>
      </trkpt>
      <trkpt lat="44.6838" lon="4.06139">
        <ele>853.79</ele>
        <time>2013-08-27T12:15:54Z</time>
      </trkpt>
      <trkpt lat="44.6839" lon="4.06132">
        <ele>855.23</ele>
        <time>2013-08-27T12:16:05Z</time>
      </trkpt>
      <trkpt lat="44.68394" lon="4.0613">
        <ele>856.19</ele>
        <time>2013-08-27T12:16:09Z</time>
      </trkpt>
      <trkpt lat="44.68399" lon="4.06127">
        <ele>856.67</ele>
        <time>2013-08-27T12:16:14Z</time>
      </trkpt>
      <trkpt lat="44.68403" lon="4.0612">
        <ele>857.15</ele>
        <time>2013-08-27T12:16:19Z</time>
      </trkpt>
      <trkpt lat="44.68404" lon="4.06118">
        <ele>857.63</ele>
        <time>2013-08-27T12:16:21Z</time>
      </trkpt>
      <trkpt lat="44.6842" lon="4.06103">
        <ele>857.63</ele>
        <time>2013-08-27T12:16:33Z</time>
      </trkpt>
      <trkpt lat="44.6842" lon="4.06101">
        <ele>857.63</ele>
        <time>2013-08-27T12:16:34Z</time>
      </trkpt>
      <trkpt lat="44.68418" lon="4.0608">
        <ele>859.08</ele>
        <time>2013-08-27T12:16:47Z</time>
      </trkpt>
      <trkpt lat="44.68414" lon="4.06076">
        <ele>859.56</ele>
        <time>2013-08-27T12:16:51Z</time>
      </trkpt>
      <trkpt lat="44.68398" lon="4.0606">
        <ele>860.52</ele>
        <time>2013-08-27T12:17:06Z</time>
      </trkpt>
      <trkpt lat="44.68401" lon="4.06044">
        <ele>861.48</ele>
        <time>2013-08-27T12:17:15Z</time>
      </trkpt>
      <trkpt lat="44.68401" lon="4.06041">
        <ele>860.52</ele>
        <time>2013-08-27T12:17:17Z</time>
      </trkpt>
      <trkpt lat="44.68403" lon="4.06023">
        <ele>862.44</ele>
        <time>2013-08-27T12:17:27Z</time>
      </trkpt>
      <trkpt lat="44.68405" lon="4.06018">
        <ele>862.92</ele>
        <time>2013-08-27T12:17:30Z</time>
      </trkpt>
      <trkpt lat="44.68411" lon="4.06017">
        <ele>863.4</ele>
        <time>2013-08-27T12:17:35Z</time>
      </trkpt>
      <trkpt lat="44.68424" lon="4.06027">
        <ele>866.29</ele>
        <time>2013-08-27T12:17:47Z</time>
      </trkpt>
      <trkpt lat="44.6843" lon="4.0604">
        <ele>868.69</ele>
        <time>2013-08-27T12:17:56Z</time>
      </trkpt>
      <trkpt lat="44.68434" lon="4.06049">
        <ele>869.65</ele>
        <time>2013-08-27T12:18:02Z</time>
      </trkpt>
      <trkpt lat="44.68438" lon="4.06052">
        <ele>870.13</ele>
        <time>2013-08-27T12:18:06Z</time>
      </trkpt>
      <trkpt lat="44.68445" lon="4.06059">
        <ele>871.09</ele>
        <time>2013-08-27T12:18:14Z</time>
      </trkpt>
      <trkpt lat="44.68458" lon="4.06076">
        <ele>874.46</ele>
        <time>2013-08-27T12:18:29Z</time>
      </trkpt>
      <trkpt lat="44.6846" lon="4.06077">
        <ele>874.94</ele>
        <time>2013-08-27T12:18:31Z</time>
      </trkpt>
      <trkpt lat="44.6848" lon="4.06077">
        <ele>878.78</ele>
        <time>2013-08-27T12:18:47Z</time>
      </trkpt>
      <trkpt lat="44.68499" lon="4.06076">
        <ele>881.67</ele>
        <time>2013-08-27T12:19:03Z</time>
      </trkpt>
      <trkpt lat="44.68505" lon="4.06075">
        <ele>883.59</ele>
        <time>2013-08-27T12:19:08Z</time>
      </trkpt>
      <trkpt lat="44.68515" lon="4.06057">
        <ele>885.51</ele>
        <time>2013-08-27T12:19:23Z</time>
      </trkpt>
      <trkpt lat="44.68515" lon="4.06055">
        <ele>885.03</ele>
        <time>2013-08-27T12:19:38Z</time>
      </trkpt>
      <trkpt lat="44.68515" lon="4.06055">
        <ele>884.55</ele>
        <time>2013-08-27T12:19:57Z</time>
      </trkpt>
      <trkpt lat="44.68511" lon="4.06055">
        <ele>882.15</ele>
        <time>2013-08-27T12:29:40Z</time>
      </trkpt>
      <trkpt lat="44.68514" lon="4.06052">
        <ele>881.67</ele>
        <time>2013-08-27T12:29:42Z</time>
      </trkpt>
      <trkpt lat="44.68518" lon="4.06046">
        <ele>884.55</ele>
        <time>2013-08-27T12:29:59Z</time>
      </trkpt>
      <trkpt lat="44.68519" lon="4.06031">
        <ele>886.95</ele>
        <time>2013-08-27T12:30:07Z</time>
      </trkpt>
      <trkpt lat="44.68518" lon="4.06026">
        <ele>887.91</ele>
        <time>2013-08-27T12:30:10Z</time>
      </trkpt>
      <trkpt lat="44.6852" lon="4.05995">
        <ele>889.84</ele>
        <time>2013-08-27T12:30:26Z</time>
      </trkpt>
      <trkpt lat="44.68524" lon="4.05973">
        <ele>889.84</ele>
        <time>2013-08-27T12:30:39Z</time>
      </trkpt>
      <trkpt lat="44.68523" lon="4.05965">
        <ele>890.8</ele>
        <time>2013-08-27T12:30:43Z</time>
      </trkpt>
      <trkpt lat="44.68515" lon="4.05937">
        <ele>890.8</ele>
        <time>2013-08-27T12:30:57Z</time>
      </trkpt>
      <trkpt lat="44.68515" lon="4.05904">
        <ele>892.24</ele>
        <time>2013-08-27T12:31:11Z</time>
      </trkpt>
      <trkpt lat="44.68517" lon="4.05877">
        <ele>894.16</ele>
        <time>2013-08-27T12:31:26Z</time>
      </trkpt>
      <trkpt lat="44.68514" lon="4.05855">
        <ele>896.57</ele>
        <time>2013-08-27T12:31:39Z</time>
      </trkpt>
      <trkpt lat="44.68511" lon="4.05847">
        <ele>896.57</ele>
        <time>2013-08-27T12:31:44Z</time>
      </trkpt>
      <trkpt lat="44.68506" lon="4.05833">
        <ele>897.53</ele>
        <time>2013-08-27T12:31:54Z</time>
      </trkpt>
      <trkpt lat="44.68504" lon="4.05824">
        <ele>898.49</ele>
        <time>2013-08-27T12:31:59Z</time>
      </trkpt>
      <trkpt lat="44.685" lon="4.05793">
        <ele>899.93</ele>
        <time>2013-08-27T12:32:16Z</time>
      </trkpt>
      <trkpt lat="44.68501" lon="4.05785">
        <ele>900.41</ele>
        <time>2013-08-27T12:32:21Z</time>
      </trkpt>
      <trkpt lat="44.68501" lon="4.05773">
        <ele>900.89</ele>
        <time>2013-08-27T12:32:29Z</time>
      </trkpt>
      <trkpt lat="44.68505" lon="4.05776">
        <ele>902.33</ele>
        <time>2013-08-27T12:32:34Z</time>
      </trkpt>
      <trkpt lat="44.68506" lon="4.0578">
        <ele>902.82</ele>
        <time>2013-08-27T12:32:37Z</time>
      </trkpt>
      <trkpt lat="44.6851" lon="4.05806">
        <ele>904.26</ele>
        <time>2013-08-27T12:32:51Z</time>
      </trkpt>
      <trkpt lat="44.68523" lon="4.05831">
        <ele>906.18</ele>
        <time>2013-08-27T12:33:07Z</time>
      </trkpt>
      <trkpt lat="44.68533" lon="4.05843">
        <ele>906.66</ele>
        <time>2013-08-27T12:33:16Z</time>
      </trkpt>
      <trkpt lat="44.68539" lon="4.05848">
        <ele>907.62</ele>
        <time>2013-08-27T12:33:21Z</time>
      </trkpt>
      <trkpt lat="44.68546" lon="4.05853">
        <ele>908.1</ele>
        <time>2013-08-27T12:33:26Z</time>
      </trkpt>
      <trkpt lat="44.68547" lon="4.05855">
        <ele>908.1</ele>
        <time>2013-08-27T12:33:28Z</time>
      </trkpt>
      <trkpt lat="44.68552" lon="4.05857">
        <ele>908.58</ele>
        <time>2013-08-27T12:33:32Z</time>
      </trkpt>
      <trkpt lat="44.68558" lon="4.05861">
        <ele>909.06</ele>
        <time>2013-08-27T12:33:37Z</time>
      </trkpt>
      <trkpt lat="44.68576" lon="4.05883">
        <ele>910.51</ele>
        <time>2013-08-27T12:33:54Z</time>
      </trkpt>
      <trkpt lat="44.68584" lon="4.05915">
        <ele>913.87</ele>
        <time>2013-08-27T12:34:11Z</time>
      </trkpt>
      <trkpt lat="44.68589" lon="4.05937">
        <ele>914.35</ele>
        <time>2013-08-27T12:34:22Z</time>
      </trkpt>
      <trkpt lat="44.68596" lon="4.05974">
        <ele>915.79</ele>
        <time>2013-08-27T12:34:40Z</time>
      </trkpt>
      <trkpt lat="44.686" lon="4.05993">
        <ele>917.24</ele>
        <time>2013-08-27T12:34:49Z</time>
      </trkpt>
      <trkpt lat="44.68605" lon="4.06025">
        <ele>918.68</ele>
        <time>2013-08-27T12:35:05Z</time>
      </trkpt>
      <trkpt lat="44.68602" lon="4.06056">
        <ele>921.08</ele>
        <time>2013-08-27T12:35:20Z</time>
      </trkpt>
      <trkpt lat="44.68602" lon="4.06084">
        <ele>923.48</ele>
        <time>2013-08-27T12:35:34Z</time>
      </trkpt>
      <trkpt lat="44.68607" lon="4.06114">
        <ele>925.41</ele>
        <time>2013-08-27T12:35:49Z</time>
      </trkpt>
      <trkpt lat="44.68617" lon="4.06152">
        <ele>927.81</ele>
        <time>2013-08-27T12:36:08Z</time>
      </trkpt>
      <trkpt lat="44.68627" lon="4.06184">
        <ele>930.69</ele>
        <time>2013-08-27T12:36:25Z</time>
      </trkpt>
      <trkpt lat="44.68635" lon="4.06206">
        <ele>931.65</ele>
        <time>2013-08-27T12:36:38Z</time>
      </trkpt>
      <trkpt lat="44.68643" lon="4.06225">
        <ele>933.58</ele>
        <time>2013-08-27T12:36:49Z</time>
      </trkpt>
      <trkpt lat="44.68649" lon="4.06245">
        <ele>934.06</ele>
        <time>2013-08-27T12:36:58Z</time>
      </trkpt>
      <trkpt lat="44.68654" lon="4.06267">
        <ele>935.98</ele>
        <time>2013-08-27T12:37:07Z</time>
      </trkpt>
      <trkpt lat="44.68657" lon="4.06288">
        <ele>936.46</ele>
        <time>2013-08-27T12:37:16Z</time>
      </trkpt>
      <trkpt lat="44.6866" lon="4.06306">
        <ele>937.9</ele>
        <time>2013-08-27T12:37:24Z</time>
      </trkpt>
      <trkpt lat="44.68659" lon="4.06317">
        <ele>937.42</ele>
        <time>2013-08-27T12:37:29Z</time>
      </trkpt>
      <trkpt lat="44.68656" lon="4.06329">
        <ele>937.42</ele>
        <time>2013-08-27T12:37:34Z</time>
      </trkpt>
      <trkpt lat="44.68635" lon="4.06344">
        <ele>935.02</ele>
        <time>2013-08-27T12:37:45Z</time>
      </trkpt>
      <trkpt lat="44.68628" lon="4.06339">
        <ele>936.46</ele>
        <time>2013-08-27T12:37:49Z</time>
      </trkpt>
      <trkpt lat="44.68613" lon="4.06331">
        <ele>934.54</ele>
        <time>2013-08-27T12:37:58Z</time>
      </trkpt>
      <trkpt lat="44.68596" lon="4.06321">
        <ele>936.94</ele>
        <time>2013-08-27T12:38:11Z</time>
      </trkpt>
      <trkpt lat="44.68574" lon="4.06311">
        <ele>940.31</ele>
        <time>2013-08-27T12:38:26Z</time>
      </trkpt>
      <trkpt lat="44.68548" lon="4.06309">
        <ele>942.23</ele>
        <time>2013-08-27T12:38:44Z</time>
      </trkpt>
      <trkpt lat="44.68539" lon="4.06308">
        <ele>943.19</ele>
        <time>2013-08-27T12:38:51Z</time>
      </trkpt>
      <trkpt lat="44.68533" lon="4.06307">
        <ele>944.15</ele>
        <time>2013-08-27T12:38:55Z</time>
      </trkpt>
      <trkpt lat="44.68512" lon="4.06309">
        <ele>947.04</ele>
        <time>2013-08-27T12:39:08Z</time>
      </trkpt>
      <trkpt lat="44.68498" lon="4.06329">
        <ele>948.48</ele>
        <time>2013-08-27T12:39:22Z</time>
      </trkpt>
      <trkpt lat="44.68496" lon="4.06332">
        <ele>948.96</ele>
        <time>2013-08-27T12:39:24Z</time>
      </trkpt>
      <trkpt lat="44.68491" lon="4.06336">
        <ele>949.92</ele>
        <time>2013-08-27T12:39:28Z</time>
      </trkpt>
      <trkpt lat="44.68472" lon="4.06339">
        <ele>952.8</ele>
        <time>2013-08-27T12:39:41Z</time>
      </trkpt>
      <trkpt lat="44.68468" lon="4.06339">
        <ele>953.28</ele>
        <time>2013-08-27T12:39:43Z</time>
      </trkpt>
      <trkpt lat="44.68445" lon="4.0634">
        <ele>955.21</ele>
        <time>2013-08-27T12:39:59Z</time>
      </trkpt>
      <trkpt lat="44.68432" lon="4.06348">
        <ele>957.13</ele>
        <time>2013-08-27T12:40:07Z</time>
      </trkpt>
      <trkpt lat="44.68427" lon="4.06379">
        <ele>958.57</ele>
        <time>2013-08-27T12:40:20Z</time>
      </trkpt>
      <trkpt lat="44.68431" lon="4.06392">
        <ele>959.05</ele>
        <time>2013-08-27T12:40:26Z</time>
      </trkpt>
      <trkpt lat="44.68443" lon="4.06424">
        <ele>960.49</ele>
        <time>2013-08-27T12:40:42Z</time>
      </trkpt>
      <trkpt lat="44.68448" lon="4.06437">
        <ele>960.98</ele>
        <time>2013-08-27T12:40:48Z</time>
      </trkpt>
      <trkpt lat="44.68461" lon="4.06464">
        <ele>964.34</ele>
        <time>2013-08-27T12:41:03Z</time>
      </trkpt>
      <trkpt lat="44.68465" lon="4.06476">
        <ele>960.98</ele>
        <time>2013-08-27T12:41:10Z</time>
      </trkpt>
      <trkpt lat="44.68466" lon="4.06478">
        <ele>963.38</ele>
        <time>2013-08-27T12:41:11Z</time>
      </trkpt>
      <trkpt lat="44.68471" lon="4.06492">
        <ele>965.78</ele>
        <time>2013-08-27T12:41:20Z</time>
      </trkpt>
      <trkpt lat="44.68471" lon="4.06494">
        <ele>963.38</ele>
        <time>2013-08-27T12:41:21Z</time>
      </trkpt>
      <trkpt lat="44.68473" lon="4.065">
        <ele>964.34</ele>
        <time>2013-08-27T12:41:24Z</time>
      </trkpt>
      <trkpt lat="44.68475" lon="4.06507">
        <ele>962.9</ele>
        <time>2013-08-27T12:41:27Z</time>
      </trkpt>
      <trkpt lat="44.68475" lon="4.06516">
        <ele>965.3</ele>
        <time>2013-08-27T12:41:31Z</time>
      </trkpt>
      <trkpt lat="44.68478" lon="4.06526">
        <ele>965.78</ele>
        <time>2013-08-27T12:41:36Z</time>
      </trkpt>
      <trkpt lat="44.68478" lon="4.06535">
        <ele>965.78</ele>
        <time>2013-08-27T12:41:40Z</time>
      </trkpt>
      <trkpt lat="44.68466" lon="4.0658">
        <ele>965.78</ele>
        <time>2013-08-27T12:41:54Z</time>
      </trkpt>
      <trkpt lat="44.6844" lon="4.06614">
        <ele>967.22</ele>
        <time>2013-08-27T12:42:10Z</time>
      </trkpt>
      <trkpt lat="44.68414" lon="4.06641">
        <ele>967.7</ele>
        <time>2013-08-27T12:42:25Z</time>
      </trkpt>
      <trkpt lat="44.68387" lon="4.06666">
        <ele>969.15</ele>
        <time>2013-08-27T12:42:39Z</time>
      </trkpt>
      <trkpt lat="44.68373" lon="4.06685">
        <ele>969.63</ele>
        <time>2013-08-27T12:42:47Z</time>
      </trkpt>
      <trkpt lat="44.68383" lon="4.06702">
        <ele>969.63</ele>
        <time>2013-08-27T12:42:57Z</time>
      </trkpt>
      <trkpt lat="44.68385" lon="4.067">
        <ele>970.11</ele>
        <time>2013-08-27T12:42:58Z</time>
      </trkpt>
      <trkpt lat="44.68415" lon="4.06667">
        <ele>971.55</ele>
        <time>2013-08-27T12:43:16Z</time>
      </trkpt>
      <trkpt lat="44.68432" lon="4.06655">
        <ele>973.95</ele>
        <time>2013-08-27T12:43:25Z</time>
      </trkpt>
      <trkpt lat="44.6845" lon="4.06641">
        <ele>975.88</ele>
        <time>2013-08-27T12:43:36Z</time>
      </trkpt>
      <trkpt lat="44.68473" lon="4.06622">
        <ele>978.76</ele>
        <time>2013-08-27T12:43:50Z</time>
      </trkpt>
      <trkpt lat="44.68489" lon="4.06598">
        <ele>980.2</ele>
        <time>2013-08-27T12:44:01Z</time>
      </trkpt>
      <trkpt lat="44.68499" lon="4.06567">
        <ele>982.6</ele>
        <time>2013-08-27T12:44:13Z</time>
      </trkpt>
      <trkpt lat="44.68504" lon="4.0654">
        <ele>983.09</ele>
        <time>2013-08-27T12:44:23Z</time>
      </trkpt>
      <trkpt lat="44.68504" lon="4.06495">
        <ele>985.01</ele>
        <time>2013-08-27T12:44:39Z</time>
      </trkpt>
      <trkpt lat="44.68506" lon="4.06446">
        <ele>986.93</ele>
        <time>2013-08-27T12:44:57Z</time>
      </trkpt>
      <trkpt lat="44.68526" lon="4.06423">
        <ele>989.33</ele>
        <time>2013-08-27T12:45:11Z</time>
      </trkpt>
      <trkpt lat="44.68555" lon="4.0642">
        <ele>991.74</ele>
        <time>2013-08-27T12:45:27Z</time>
      </trkpt>
      <trkpt lat="44.68576" lon="4.06433">
        <ele>993.66</ele>
        <time>2013-08-27T12:45:40Z</time>
      </trkpt>
      <trkpt lat="44.68599" lon="4.06454">
        <ele>996.54</ele>
        <time>2013-08-27T12:45:54Z</time>
      </trkpt>
      <trkpt lat="44.68613" lon="4.06475">
        <ele>997.99</ele>
        <time>2013-08-27T12:46:06Z</time>
      </trkpt>
      <trkpt lat="44.6863" lon="4.06494">
        <ele>999.43</ele>
        <time>2013-08-27T12:46:17Z</time>
      </trkpt>
      <trkpt lat="44.68654" lon="4.0651">
        <ele>1002.79</ele>
        <time>2013-08-27T12:46:32Z</time>
      </trkpt>
      <trkpt lat="44.68678" lon="4.06508">
        <ele>1003.75</ele>
        <time>2013-08-27T12:46:45Z</time>
      </trkpt>
      <trkpt lat="44.68703" lon="4.06506">
        <ele>1005.2</ele>
        <time>2013-08-27T12:47:00Z</time>
      </trkpt>
      <trkpt lat="44.68722" lon="4.06522">
        <ele>1007.12</ele>
        <time>2013-08-27T12:47:11Z</time>
      </trkpt>
      <trkpt lat="44.68731" lon="4.06541">
        <ele>1007.6</ele>
        <time>2013-08-27T12:47:18Z</time>
      </trkpt>
      <trkpt lat="44.68747" lon="4.06567">
        <ele>1010</ele>
        <time>2013-08-27T12:47:31Z</time>
      </trkpt>
      <trkpt lat="44.68749" lon="4.0657">
        <ele>1010</ele>
        <time>2013-08-27T12:47:33Z</time>
      </trkpt>
      <trkpt lat="44.68758" lon="4.06578">
        <ele>1010.96</ele>
        <time>2013-08-27T12:47:40Z</time>
      </trkpt>
      <trkpt lat="44.68774" lon="4.06578">
        <ele>1011.93</ele>
        <time>2013-08-27T12:47:47Z</time>
      </trkpt>
      <trkpt lat="44.68785" lon="4.0657">
        <ele>1013.85</ele>
        <time>2013-08-27T12:47:53Z</time>
      </trkpt>
      <trkpt lat="44.688" lon="4.0655">
        <ele>1013.85</ele>
        <time>2013-08-27T12:48:06Z</time>
      </trkpt>
      <trkpt lat="44.68807" lon="4.06533">
        <ele>1016.25</ele>
        <time>2013-08-27T12:48:15Z</time>
      </trkpt>
      <trkpt lat="44.68825" lon="4.06496">
        <ele>1019.13</ele>
        <time>2013-08-27T12:48:35Z</time>
      </trkpt>
      <trkpt lat="44.68851" lon="4.06482">
        <ele>1022.02</ele>
        <time>2013-08-27T12:48:52Z</time>
      </trkpt>
      <trkpt lat="44.68879" lon="4.06467">
        <ele>1024.9</ele>
        <time>2013-08-27T12:49:10Z</time>
      </trkpt>
      <trkpt lat="44.68903" lon="4.06452">
        <ele>1027.79</ele>
        <time>2013-08-27T12:49:25Z</time>
      </trkpt>
      <trkpt lat="44.68908" lon="4.06418">
        <ele>1028.75</ele>
        <time>2013-08-27T12:49:40Z</time>
      </trkpt>
      <trkpt lat="44.68904" lon="4.06379">
        <ele>1030.67</ele>
        <time>2013-08-27T12:49:55Z</time>
      </trkpt>
      <trkpt lat="44.68893" lon="4.06342">
        <ele>1032.11</ele>
        <time>2013-08-27T12:50:11Z</time>
      </trkpt>
      <trkpt lat="44.68878" lon="4.06306">
        <ele>1034.52</ele>
        <time>2013-08-27T12:50:29Z</time>
      </trkpt>
      <trkpt lat="44.68873" lon="4.0629">
        <ele>1035.96</ele>
        <time>2013-08-27T12:50:36Z</time>
      </trkpt>
      <trkpt lat="44.68858" lon="4.06255">
        <ele>1038.36</ele>
        <time>2013-08-27T12:50:53Z</time>
      </trkpt>
      <trkpt lat="44.68848" lon="4.06223">
        <ele>1039.8</ele>
        <time>2013-08-27T12:51:08Z</time>
      </trkpt>
      <trkpt lat="44.68839" lon="4.06192">
        <ele>1042.21</ele>
        <time>2013-08-27T12:51:22Z</time>
      </trkpt>
      <trkpt lat="44.68832" lon="4.06157">
        <ele>1043.17</ele>
        <time>2013-08-27T12:51:36Z</time>
      </trkpt>
      <trkpt lat="44.68832" lon="4.06122">
        <ele>1045.09</ele>
        <time>2013-08-27T12:51:51Z</time>
      </trkpt>
      <trkpt lat="44.6884" lon="4.06077">
        <ele>1047.97</ele>
        <time>2013-08-27T12:52:09Z</time>
      </trkpt>
      <trkpt lat="44.68846" lon="4.06037">
        <ele>1049.9</ele>
        <time>2013-08-27T12:52:25Z</time>
      </trkpt>
      <trkpt lat="44.68852" lon="4.06002">
        <ele>1051.34</ele>
        <time>2013-08-27T12:52:39Z</time>
      </trkpt>
      <trkpt lat="44.68859" lon="4.05971">
        <ele>1053.26</ele>
        <time>2013-08-27T12:52:51Z</time>
      </trkpt>
      <trkpt lat="44.68864" lon="4.05942">
        <ele>1055.18</ele>
        <time>2013-08-27T12:53:02Z</time>
      </trkpt>
      <trkpt lat="44.68871" lon="4.05909">
        <ele>1056.15</ele>
        <time>2013-08-27T12:53:15Z</time>
      </trkpt>
      <trkpt lat="44.68877" lon="4.05878">
        <ele>1058.07</ele>
        <time>2013-08-27T12:53:27Z</time>
      </trkpt>
      <trkpt lat="44.68883" lon="4.05852">
        <ele>1060.47</ele>
        <time>2013-08-27T12:53:37Z</time>
      </trkpt>
      <trkpt lat="44.68886" lon="4.05822">
        <ele>1060.95</ele>
        <time>2013-08-27T12:53:48Z</time>
      </trkpt>
      <trkpt lat="44.68885" lon="4.0579">
        <ele>1062.87</ele>
        <time>2013-08-27T12:54:00Z</time>
      </trkpt>
      <trkpt lat="44.68884" lon="4.0575">
        <ele>1064.8</ele>
        <time>2013-08-27T12:54:15Z</time>
      </trkpt>
      <trkpt lat="44.68905" lon="4.0573">
        <ele>1068.16</ele>
        <time>2013-08-27T12:54:30Z</time>
      </trkpt>
      <trkpt lat="44.68908" lon="4.05729">
        <ele>1071.53</ele>
        <time>2013-08-27T12:54:32Z</time>
      </trkpt>
      <trkpt lat="44.6891" lon="4.05729">
        <ele>1066.72</ele>
        <time>2013-08-27T12:54:33Z</time>
      </trkpt>
      <trkpt lat="44.6892" lon="4.05728">
        <ele>1069.6</ele>
        <time>2013-08-27T12:54:39Z</time>
      </trkpt>
      <trkpt lat="44.68922" lon="4.05728">
        <ele>1066.72</ele>
        <time>2013-08-27T12:54:40Z</time>
      </trkpt>
      <trkpt lat="44.6893" lon="4.05725">
        <ele>1070.57</ele>
        <time>2013-08-27T12:54:45Z</time>
      </trkpt>
      <trkpt lat="44.68964" lon="4.05718">
        <ele>1072.01</ele>
        <time>2013-08-27T12:55:03Z</time>
      </trkpt>
      <trkpt lat="44.68982" lon="4.05715">
        <ele>1072.97</ele>
        <time>2013-08-27T12:55:13Z</time>
      </trkpt>
      <trkpt lat="44.68985" lon="4.05718">
        <ele>1073.93</ele>
        <time>2013-08-27T12:55:16Z</time>
      </trkpt>
      <trkpt lat="44.68977" lon="4.05728">
        <ele>1075.37</ele>
        <time>2013-08-27T12:55:25Z</time>
      </trkpt>
      <trkpt lat="44.68975" lon="4.05727">
        <ele>1075.37</ele>
        <time>2013-08-27T12:55:41Z</time>
      </trkpt>
      <trkpt lat="44.68972" lon="4.05729">
        <ele>1075.37</ele>
        <time>2013-08-27T12:56:09Z</time>
      </trkpt>
      <trkpt lat="44.68968" lon="4.05729">
        <ele>1075.37</ele>
        <time>2013-08-27T12:56:13Z</time>
      </trkpt>
      <trkpt lat="44.68948" lon="4.05733">
        <ele>1076.81</ele>
        <time>2013-08-27T12:56:28Z</time>
      </trkpt>
      <trkpt lat="44.68936" lon="4.05743">
        <ele>1078.26</ele>
        <time>2013-08-27T12:56:39Z</time>
      </trkpt>
      <trkpt lat="44.68922" lon="4.05752">
        <ele>1080.18</ele>
        <time>2013-08-27T12:56:50Z</time>
      </trkpt>
      <trkpt lat="44.68912" lon="4.05768">
        <ele>1081.62</ele>
        <time>2013-08-27T12:57:01Z</time>
      </trkpt>
      <trkpt lat="44.68912" lon="4.05772">
        <ele>1082.1</ele>
        <time>2013-08-27T12:57:03Z</time>
      </trkpt>
      <trkpt lat="44.68916" lon="4.05797">
        <ele>1083.54</ele>
        <time>2013-08-27T12:57:17Z</time>
      </trkpt>
      <trkpt lat="44.68917" lon="4.05799">
        <ele>1084.02</ele>
        <time>2013-08-27T12:57:18Z</time>
      </trkpt>
      <trkpt lat="44.68919" lon="4.05818">
        <ele>1085.95</ele>
        <time>2013-08-27T12:57:29Z</time>
      </trkpt>
      <trkpt lat="44.6892" lon="4.05827">
        <ele>1087.39</ele>
        <time>2013-08-27T12:57:34Z</time>
      </trkpt>
      <trkpt lat="44.68919" lon="4.05858">
        <ele>1088.83</ele>
        <time>2013-08-27T12:57:51Z</time>
      </trkpt>
      <trkpt lat="44.68921" lon="4.05867">
        <ele>1089.31</ele>
        <time>2013-08-27T12:57:56Z</time>
      </trkpt>
      <trkpt lat="44.68922" lon="4.05879">
        <ele>1091.71</ele>
        <time>2013-08-27T12:58:03Z</time>
      </trkpt>
      <trkpt lat="44.68924" lon="4.05907">
        <ele>1093.64</ele>
        <time>2013-08-27T12:58:19Z</time>
      </trkpt>
      <trkpt lat="44.68923" lon="4.05932">
        <ele>1095.56</ele>
        <time>2013-08-27T12:58:34Z</time>
      </trkpt>
      <trkpt lat="44.68924" lon="4.05956">
        <ele>1097.96</ele>
        <time>2013-08-27T12:58:48Z</time>
      </trkpt>
      <trkpt lat="44.68926" lon="4.05984">
        <ele>1100.37</ele>
        <time>2013-08-27T12:59:05Z</time>
      </trkpt>
      <trkpt lat="44.68925" lon="4.05988">
        <ele>1100.85</ele>
        <time>2013-08-27T12:59:07Z</time>
      </trkpt>
      <trkpt lat="44.68925" lon="4.0601">
        <ele>1103.25</ele>
        <time>2013-08-27T12:59:20Z</time>
      </trkpt>
      <trkpt lat="44.68925" lon="4.06019">
        <ele>1104.21</ele>
        <time>2013-08-27T12:59:25Z</time>
      </trkpt>
      <trkpt lat="44.68926" lon="4.06052">
        <ele>1106.61</ele>
        <time>2013-08-27T12:59:42Z</time>
      </trkpt>
      <trkpt lat="44.68929" lon="4.06076">
        <ele>1108.54</ele>
        <time>2013-08-27T12:59:56Z</time>
      </trkpt>
      <trkpt lat="44.6893" lon="4.06079">
        <ele>1109.02</ele>
        <time>2013-08-27T12:59:58Z</time>
      </trkpt>
      <trkpt lat="44.68932" lon="4.06087">
        <ele>1109.5</ele>
        <time>2013-08-27T13:00:03Z</time>
      </trkpt>
      <trkpt lat="44.6894" lon="4.06112">
        <ele>1112.38</ele>
        <time>2013-08-27T13:00:19Z</time>
      </trkpt>
      <trkpt lat="44.68947" lon="4.06137">
        <ele>1114.79</ele>
        <time>2013-08-27T13:00:34Z</time>
      </trkpt>
      <trkpt lat="44.68954" lon="4.06159">
        <ele>1117.19</ele>
        <time>2013-08-27T13:00:47Z</time>
      </trkpt>
      <trkpt lat="44.68957" lon="4.0617">
        <ele>1117.67</ele>
        <time>2013-08-27T13:00:54Z</time>
      </trkpt>
      <trkpt lat="44.68971" lon="4.06191">
        <ele>1119.11</ele>
        <time>2013-08-27T13:01:10Z</time>
      </trkpt>
      <trkpt lat="44.68988" lon="4.06185">
        <ele>1122</ele>
        <time>2013-08-27T13:01:23Z</time>
      </trkpt>
      <trkpt lat="44.68996" lon="4.06183">
        <ele>1122.48</ele>
        <time>2013-08-27T13:01:30Z</time>
      </trkpt>
      <trkpt lat="44.69014" lon="4.06179">
        <ele>1123.92</ele>
        <time>2013-08-27T13:01:44Z</time>
      </trkpt>
      <trkpt lat="44.69027" lon="4.06177">
        <ele>1124.4</ele>
        <time>2013-08-27T13:01:52Z</time>
      </trkpt>
      <trkpt lat="44.69048" lon="4.06183">
        <ele>1126.32</ele>
        <time>2013-08-27T13:02:07Z</time>
      </trkpt>
      <trkpt lat="44.69063" lon="4.0621">
        <ele>1126.8</ele>
        <time>2013-08-27T13:02:21Z</time>
      </trkpt>
      <trkpt lat="44.6908" lon="4.06227">
        <ele>1127.76</ele>
        <time>2013-08-27T13:02:34Z</time>
      </trkpt>
      <trkpt lat="44.69103" lon="4.06238">
        <ele>1127.76</ele>
        <time>2013-08-27T13:02:47Z</time>
      </trkpt>
      <trkpt lat="44.6913" lon="4.06259">
        <ele>1127.76</ele>
        <time>2013-08-27T13:02:59Z</time>
      </trkpt>
      <trkpt lat="44.6913" lon="4.06263">
        <ele>1127.76</ele>
        <time>2013-08-27T13:03:00Z</time>
      </trkpt>
      <trkpt lat="44.69126" lon="4.06277">
        <ele>1126.8</ele>
        <time>2013-08-27T13:03:03Z</time>
      </trkpt>
      <trkpt lat="44.69123" lon="4.06282">
        <ele>1126.32</ele>
        <time>2013-08-27T13:03:04Z</time>
      </trkpt>
      <trkpt lat="44.69119" lon="4.06287">
        <ele>1125.84</ele>
        <time>2013-08-27T13:03:05Z</time>
      </trkpt>
      <trkpt lat="44.69115" lon="4.06292">
        <ele>1125.36</ele>
        <time>2013-08-27T13:03:06Z</time>
      </trkpt>
      <trkpt lat="44.69111" lon="4.06298">
        <ele>1124.4</ele>
        <time>2013-08-27T13:03:07Z</time>
      </trkpt>
      <trkpt lat="44.69108" lon="4.06305">
        <ele>1123.92</ele>
        <time>2013-08-27T13:03:08Z</time>
      </trkpt>
      <trkpt lat="44.69105" lon="4.06312">
        <ele>1123.44</ele>
        <time>2013-08-27T13:03:09Z</time>
      </trkpt>
      <trkpt lat="44.69103" lon="4.06319">
        <ele>1122.48</ele>
        <time>2013-08-27T13:03:10Z</time>
      </trkpt>
      <trkpt lat="44.69102" lon="4.06326">
        <ele>1122.48</ele>
        <time>2013-08-27T13:03:11Z</time>
      </trkpt>
      <trkpt lat="44.69104" lon="4.06334">
        <ele>1122.48</ele>
        <time>2013-08-27T13:03:12Z</time>
      </trkpt>
      <trkpt lat="44.69107" lon="4.0634">
        <ele>1122.96</ele>
        <time>2013-08-27T13:03:13Z</time>
      </trkpt>
      <trkpt lat="44.69111" lon="4.06345">
        <ele>1123.44</ele>
        <time>2013-08-27T13:03:14Z</time>
      </trkpt>
      <trkpt lat="44.69114" lon="4.0635">
        <ele>1122.96</ele>
        <time>2013-08-27T13:03:15Z</time>
      </trkpt>
      <trkpt lat="44.69116" lon="4.06355">
        <ele>1122.96</ele>
        <time>2013-08-27T13:03:16Z</time>
      </trkpt>
      <trkpt lat="44.69119" lon="4.06361">
        <ele>1122.96</ele>
        <time>2013-08-27T13:03:17Z</time>
      </trkpt>
      <trkpt lat="44.6912" lon="4.06368">
        <ele>1122.48</ele>
        <time>2013-08-27T13:03:18Z</time>
      </trkpt>
      <trkpt lat="44.6912" lon="4.06374">
        <ele>1121.52</ele>
        <time>2013-08-27T13:03:19Z</time>
      </trkpt>
      <trkpt lat="44.69119" lon="4.06378">
        <ele>1121.03</ele>
        <time>2013-08-27T13:03:20Z</time>
      </trkpt>
      <trkpt lat="44.69118" lon="4.06381">
        <ele>1122</ele>
        <time>2013-08-27T13:03:21Z</time>
      </trkpt>
      <trkpt lat="44.69116" lon="4.06384">
        <ele>1122.48</ele>
        <time>2013-08-27T13:03:22Z</time>
      </trkpt>
      <trkpt lat="44.69114" lon="4.06385">
        <ele>1122.96</ele>
        <time>2013-08-27T13:03:23Z</time>
      </trkpt>
      <trkpt lat="44.69112" lon="4.06386">
        <ele>1123.44</ele>
        <time>2013-08-27T13:03:24Z</time>
      </trkpt>
      <trkpt lat="44.6911" lon="4.06388">
        <ele>1123.92</ele>
        <time>2013-08-27T13:03:25Z</time>
      </trkpt>
      <trkpt lat="44.69098" lon="4.06399">
        <ele>1124.88</ele>
        <time>2013-08-27T13:03:33Z</time>
      </trkpt>
      <trkpt lat="44.69097" lon="4.06401">
        <ele>1124.88</ele>
        <time>2013-08-27T13:03:34Z</time>
      </trkpt>
      <trkpt lat="44.69075" lon="4.06433">
        <ele>1127.76</ele>
        <time>2013-08-27T13:03:51Z</time>
      </trkpt>
      <trkpt lat="44.69062" lon="4.06464">
        <ele>1128.73</ele>
        <time>2013-08-27T13:04:06Z</time>
      </trkpt>
      <trkpt lat="44.69051" lon="4.06489">
        <ele>1130.65</ele>
        <time>2013-08-27T13:04:20Z</time>
      </trkpt>
      <trkpt lat="44.69053" lon="4.06524">
        <ele>1132.57</ele>
        <time>2013-08-27T13:04:35Z</time>
      </trkpt>
      <trkpt lat="44.69055" lon="4.06553">
        <ele>1134.97</ele>
        <time>2013-08-27T13:04:49Z</time>
      </trkpt>
      <trkpt lat="44.6906" lon="4.06585">
        <ele>1136.9</ele>
        <time>2013-08-27T13:05:05Z</time>
      </trkpt>
      <trkpt lat="44.69058" lon="4.06621">
        <ele>1135.94</ele>
        <time>2013-08-27T13:05:18Z</time>
      </trkpt>
      <trkpt lat="44.69044" lon="4.0665">
        <ele>1137.38</ele>
        <time>2013-08-27T13:05:30Z</time>
      </trkpt>
      <trkpt lat="44.69032" lon="4.06667">
        <ele>1137.38</ele>
        <time>2013-08-27T13:05:38Z</time>
      </trkpt>
      <trkpt lat="44.69025" lon="4.06669">
        <ele>1138.82</ele>
        <time>2013-08-27T13:05:50Z</time>
      </trkpt>
      <trkpt lat="44.69022" lon="4.06669">
        <ele>1138.82</ele>
        <time>2013-08-27T13:05:53Z</time>
      </trkpt>
      <trkpt lat="44.69021" lon="4.06669">
        <ele>1139.3</ele>
        <time>2013-08-27T13:05:54Z</time>
      </trkpt>
      <trkpt lat="44.69006" lon="4.06674">
        <ele>1141.22</ele>
        <time>2013-08-27T13:06:10Z</time>
      </trkpt>
      <trkpt lat="44.69004" lon="4.06675">
        <ele>1141.22</ele>
        <time>2013-08-27T13:06:20Z</time>
      </trkpt>
      <trkpt lat="44.69004" lon="4.06675">
        <ele>1141.22</ele>
        <time>2013-08-27T13:06:25Z</time>
      </trkpt>
      <trkpt lat="44.69001" lon="4.06684">
        <ele>1141.7</ele>
        <time>2013-08-27T13:06:30Z</time>
      </trkpt>
      <trkpt lat="44.69001" lon="4.06686">
        <ele>1141.7</ele>
        <time>2013-08-27T13:06:31Z</time>
      </trkpt>
      <trkpt lat="44.69" lon="4.06688">
        <ele>1141.7</ele>
        <time>2013-08-27T13:06:32Z</time>
      </trkpt>
      <trkpt lat="44.69" lon="4.0669">
        <ele>1142.18</ele>
        <time>2013-08-27T13:06:33Z</time>
      </trkpt>
      <trkpt lat="44.69001" lon="4.06692">
        <ele>1142.18</ele>
        <time>2013-08-27T13:06:34Z</time>
      </trkpt>
      <trkpt lat="44.69001" lon="4.06694">
        <ele>1142.18</ele>
        <time>2013-08-27T13:06:35Z</time>
      </trkpt>
      <trkpt lat="44.69001" lon="4.06696">
        <ele>1142.18</ele>
        <time>2013-08-27T13:06:36Z</time>
      </trkpt>
      <trkpt lat="44.69001" lon="4.06698">
        <ele>1142.66</ele>
        <time>2013-08-27T13:06:37Z</time>
      </trkpt>
      <trkpt lat="44.69001" lon="4.06719">
        <ele>1144.11</ele>
        <time>2013-08-27T13:06:48Z</time>
      </trkpt>
      <trkpt lat="44.68999" lon="4.06746">
        <ele>1145.07</ele>
        <time>2013-08-27T13:07:01Z</time>
      </trkpt>
      <trkpt lat="44.68992" lon="4.06778">
        <ele>1146.51</ele>
        <time>2013-08-27T13:07:16Z</time>
      </trkpt>
      <trkpt lat="44.68987" lon="4.06794">
        <ele>1147.47</ele>
        <time>2013-08-27T13:07:24Z</time>
      </trkpt>
      <trkpt lat="44.68987" lon="4.06796">
        <ele>1146.99</ele>
        <time>2013-08-27T13:07:25Z</time>
      </trkpt>
      <trkpt lat="44.68986" lon="4.06799">
        <ele>1147.95</ele>
        <time>2013-08-27T13:07:26Z</time>
      </trkpt>
      <trkpt lat="44.68977" lon="4.0683">
        <ele>1148.43</ele>
        <time>2013-08-27T13:07:40Z</time>
      </trkpt>
      <trkpt lat="44.68974" lon="4.0686">
        <ele>1148.43</ele>
        <time>2013-08-27T13:07:52Z</time>
      </trkpt>
      <trkpt lat="44.68967" lon="4.06876">
        <ele>1148.91</ele>
        <time>2013-08-27T13:08:00Z</time>
      </trkpt>
      <trkpt lat="44.68966" lon="4.06878">
        <ele>1149.39</ele>
        <time>2013-08-27T13:08:01Z</time>
      </trkpt>
      <trkpt lat="44.68966" lon="4.0688">
        <ele>1148.91</ele>
        <time>2013-08-27T13:08:02Z</time>
      </trkpt>
      <trkpt lat="44.68964" lon="4.06882">
        <ele>1149.39</ele>
        <time>2013-08-27T13:08:03Z</time>
      </trkpt>
      <trkpt lat="44.68963" lon="4.06884">
        <ele>1149.39</ele>
        <time>2013-08-27T13:08:04Z</time>
      </trkpt>
      <trkpt lat="44.6895" lon="4.06911">
        <ele>1151.8</ele>
        <time>2013-08-27T13:08:18Z</time>
      </trkpt>
      <trkpt lat="44.68943" lon="4.06936">
        <ele>1153.24</ele>
        <time>2013-08-27T13:08:31Z</time>
      </trkpt>
      <trkpt lat="44.68943" lon="4.06938">
        <ele>1153.72</ele>
        <time>2013-08-27T13:08:32Z</time>
      </trkpt>
      <trkpt lat="44.68943" lon="4.0694">
        <ele>1154.2</ele>
        <time>2013-08-27T13:08:33Z</time>
      </trkpt>
      <trkpt lat="44.68942" lon="4.06942">
        <ele>1154.2</ele>
        <time>2013-08-27T13:08:34Z</time>
      </trkpt>
      <trkpt lat="44.68942" lon="4.06944">
        <ele>1154.68</ele>
        <time>2013-08-27T13:08:35Z</time>
      </trkpt>
      <trkpt lat="44.6894" lon="4.06947">
        <ele>1154.2</ele>
        <time>2013-08-27T13:08:36Z</time>
      </trkpt>
      <trkpt lat="44.6893" lon="4.06962">
        <ele>1156.12</ele>
        <time>2013-08-27T13:08:45Z</time>
      </trkpt>
      <trkpt lat="44.68928" lon="4.06963">
        <ele>1156.12</ele>
        <time>2013-08-27T13:08:46Z</time>
      </trkpt>
      <trkpt lat="44.68908" lon="4.06972">
        <ele>1158.53</ele>
        <time>2013-08-27T13:08:59Z</time>
      </trkpt>
      <trkpt lat="44.68893" lon="4.06997">
        <ele>1160.45</ele>
        <time>2013-08-27T13:09:13Z</time>
      </trkpt>
      <trkpt lat="44.68874" lon="4.07024">
        <ele>1161.41</ele>
        <time>2013-08-27T13:09:27Z</time>
      </trkpt>
      <trkpt lat="44.68867" lon="4.07033">
        <ele>1162.37</ele>
        <time>2013-08-27T13:09:32Z</time>
      </trkpt>
      <trkpt lat="44.68866" lon="4.07035">
        <ele>1162.37</ele>
        <time>2013-08-27T13:09:33Z</time>
      </trkpt>
      <trkpt lat="44.68865" lon="4.07037">
        <ele>1162.37</ele>
        <time>2013-08-27T13:09:34Z</time>
      </trkpt>
      <trkpt lat="44.68864" lon="4.07038">
        <ele>1162.85</ele>
        <time>2013-08-27T13:09:35Z</time>
      </trkpt>
      <trkpt lat="44.68863" lon="4.0704">
        <ele>1162.85</ele>
        <time>2013-08-27T13:09:36Z</time>
      </trkpt>
      <trkpt lat="44.68861" lon="4.07042">
        <ele>1162.85</ele>
        <time>2013-08-27T13:09:37Z</time>
      </trkpt>
      <trkpt lat="44.6886" lon="4.07044">
        <ele>1162.37</ele>
        <time>2013-08-27T13:09:38Z</time>
      </trkpt>
      <trkpt lat="44.68858" lon="4.07046">
        <ele>1162.85</ele>
        <time>2013-08-27T13:09:39Z</time>
      </trkpt>
      <trkpt lat="44.68857" lon="4.07048">
        <ele>1162.85</ele>
        <time>2013-08-27T13:09:40Z</time>
      </trkpt>
      <trkpt lat="44.68855" lon="4.0705">
        <ele>1162.85</ele>
        <time>2013-08-27T13:09:41Z</time>
      </trkpt>
      <trkpt lat="44.68855" lon="4.07053">
        <ele>1162.85</ele>
        <time>2013-08-27T13:09:42Z</time>
      </trkpt>
      <trkpt lat="44.68855" lon="4.07055">
        <ele>1163.33</ele>
        <time>2013-08-27T13:09:43Z</time>
      </trkpt>
      <trkpt lat="44.68854" lon="4.07057">
        <ele>1163.33</ele>
        <time>2013-08-27T13:09:44Z</time>
      </trkpt>
      <trkpt lat="44.68853" lon="4.0706">
        <ele>1163.33</ele>
        <time>2013-08-27T13:09:45Z</time>
      </trkpt>
      <trkpt lat="44.68853" lon="4.07063">
        <ele>1163.33</ele>
        <time>2013-08-27T13:09:46Z</time>
      </trkpt>
      <trkpt lat="44.68847" lon="4.07075">
        <ele>1163.33</ele>
        <time>2013-08-27T13:09:51Z</time>
      </trkpt>
      <trkpt lat="44.6883" lon="4.07098">
        <ele>1163.81</ele>
        <time>2013-08-27T13:10:02Z</time>
      </trkpt>
      <trkpt lat="44.68827" lon="4.07105">
        <ele>1163.33</ele>
        <time>2013-08-27T13:10:05Z</time>
      </trkpt>
      <trkpt lat="44.68826" lon="4.07108">
        <ele>1163.33</ele>
        <time>2013-08-27T13:10:06Z</time>
      </trkpt>
      <trkpt lat="44.68813" lon="4.07129">
        <ele>1161.41</ele>
        <time>2013-08-27T13:10:13Z</time>
      </trkpt>
      <trkpt lat="44.68808" lon="4.07131">
        <ele>1160.93</ele>
        <time>2013-08-27T13:10:14Z</time>
      </trkpt>
      <trkpt lat="44.68804" lon="4.07132">
        <ele>1160.45</ele>
        <time>2013-08-27T13:10:15Z</time>
      </trkpt>
      <trkpt lat="44.688" lon="4.0713">
        <ele>1159.49</ele>
        <time>2013-08-27T13:10:16Z</time>
      </trkpt>
      <trkpt lat="44.68796" lon="4.07127">
        <ele>1159.97</ele>
        <time>2013-08-27T13:10:17Z</time>
      </trkpt>
      <trkpt lat="44.68793" lon="4.07122">
        <ele>1160.45</ele>
        <time>2013-08-27T13:10:18Z</time>
      </trkpt>
      <trkpt lat="44.68791" lon="4.07117">
        <ele>1160.93</ele>
        <time>2013-08-27T13:10:19Z</time>
      </trkpt>
      <trkpt lat="44.6879" lon="4.07113">
        <ele>1161.41</ele>
        <time>2013-08-27T13:10:20Z</time>
      </trkpt>
      <trkpt lat="44.68789" lon="4.07109">
        <ele>1161.41</ele>
        <time>2013-08-27T13:10:21Z</time>
      </trkpt>
      <trkpt lat="44.68789" lon="4.07106">
        <ele>1161.41</ele>
        <time>2013-08-27T13:10:22Z</time>
      </trkpt>
      <trkpt lat="44.68788" lon="4.07102">
        <ele>1160.93</ele>
        <time>2013-08-27T13:10:23Z</time>
      </trkpt>
      <trkpt lat="44.68782" lon="4.07066">
        <ele>1163.33</ele>
        <time>2013-08-27T13:10:34Z</time>
      </trkpt>
      <trkpt lat="44.68771" lon="4.0704">
        <ele>1163.33</ele>
        <time>2013-08-27T13:10:44Z</time>
      </trkpt>
      <trkpt lat="44.68769" lon="4.07038">
        <ele>1162.85</ele>
        <time>2013-08-27T13:10:45Z</time>
      </trkpt>
      <trkpt lat="44.68768" lon="4.07035">
        <ele>1163.33</ele>
        <time>2013-08-27T13:10:46Z</time>
      </trkpt>
      <trkpt lat="44.68766" lon="4.07032">
        <ele>1163.33</ele>
        <time>2013-08-27T13:10:47Z</time>
      </trkpt>
      <trkpt lat="44.68765" lon="4.07029">
        <ele>1163.33</ele>
        <time>2013-08-27T13:10:48Z</time>
      </trkpt>
      <trkpt lat="44.68765" lon="4.07026">
        <ele>1163.33</ele>
        <time>2013-08-27T13:10:49Z</time>
      </trkpt>
      <trkpt lat="44.68751" lon="4.07">
        <ele>1163.33</ele>
        <time>2013-08-27T13:11:00Z</time>
      </trkpt>
      <trkpt lat="44.68725" lon="4.06974">
        <ele>1165.26</ele>
        <time>2013-08-27T13:11:12Z</time>
      </trkpt>
      <trkpt lat="44.68718" lon="4.06966">
        <ele>1165.74</ele>
        <time>2013-08-27T13:11:17Z</time>
      </trkpt>
      <trkpt lat="44.68717" lon="4.06964">
        <ele>1166.22</ele>
        <time>2013-08-27T13:11:18Z</time>
      </trkpt>
      <trkpt lat="44.68716" lon="4.06962">
        <ele>1166.22</ele>
        <time>2013-08-27T13:11:19Z</time>
      </trkpt>
      <trkpt lat="44.68714" lon="4.0696">
        <ele>1166.22</ele>
        <time>2013-08-27T13:11:20Z</time>
      </trkpt>
      <trkpt lat="44.68713" lon="4.06958">
        <ele>1166.22</ele>
        <time>2013-08-27T13:11:21Z</time>
      </trkpt>
      <trkpt lat="44.68712" lon="4.06956">
        <ele>1166.22</ele>
        <time>2013-08-27T13:11:22Z</time>
      </trkpt>
      <trkpt lat="44.68711" lon="4.06954">
        <ele>1165.74</ele>
        <time>2013-08-27T13:11:23Z</time>
      </trkpt>
      <trkpt lat="44.68694" lon="4.06935">
        <ele>1169.1</ele>
        <time>2013-08-27T13:11:35Z</time>
      </trkpt>
      <trkpt lat="44.68674" lon="4.06923">
        <ele>1170.54</ele>
        <time>2013-08-27T13:11:48Z</time>
      </trkpt>
      <trkpt lat="44.68653" lon="4.06921">
        <ele>1173.43</ele>
        <time>2013-08-27T13:12:01Z</time>
      </trkpt>
      <trkpt lat="44.68652" lon="4.06922">
        <ele>1173.91</ele>
        <time>2013-08-27T13:12:02Z</time>
      </trkpt>
      <trkpt lat="44.6865" lon="4.06924">
        <ele>1173.91</ele>
        <time>2013-08-27T13:12:03Z</time>
      </trkpt>
      <trkpt lat="44.68649" lon="4.06926">
        <ele>1174.39</ele>
        <time>2013-08-27T13:12:04Z</time>
      </trkpt>
      <trkpt lat="44.68648" lon="4.06927">
        <ele>1173.91</ele>
        <time>2013-08-27T13:12:05Z</time>
      </trkpt>
      <trkpt lat="44.68637" lon="4.06961">
        <ele>1176.31</ele>
        <time>2013-08-27T13:12:20Z</time>
      </trkpt>
      <trkpt lat="44.68639" lon="4.06976">
        <ele>1176.79</ele>
        <time>2013-08-27T13:12:27Z</time>
      </trkpt>
      <trkpt lat="44.68641" lon="4.06977">
        <ele>1176.79</ele>
        <time>2013-08-27T13:12:28Z</time>
      </trkpt>
      <trkpt lat="44.68645" lon="4.06984">
        <ele>1176.79</ele>
        <time>2013-08-27T13:12:40Z</time>
      </trkpt>
      <trkpt lat="44.68649" lon="4.06991">
        <ele>1177.75</ele>
        <time>2013-08-27T13:12:56Z</time>
      </trkpt>
      <trkpt lat="44.6865" lon="4.06992">
        <ele>1176.79</ele>
        <time>2013-08-27T13:12:57Z</time>
      </trkpt>
      <trkpt lat="44.68651" lon="4.06994">
        <ele>1177.27</ele>
        <time>2013-08-27T13:12:58Z</time>
      </trkpt>
      <trkpt lat="44.68656" lon="4.07007">
        <ele>1177.75</ele>
        <time>2013-08-27T13:13:03Z</time>
      </trkpt>
      <trkpt lat="44.68657" lon="4.07009">
        <ele>1177.27</ele>
        <time>2013-08-27T13:13:04Z</time>
      </trkpt>
      <trkpt lat="44.68657" lon="4.0701">
        <ele>1177.27</ele>
        <time>2013-08-27T13:13:05Z</time>
      </trkpt>
      <trkpt lat="44.68659" lon="4.07012">
        <ele>1177.75</ele>
        <time>2013-08-27T13:13:15Z</time>
      </trkpt>
      <trkpt lat="44.68658" lon="4.07012">
        <ele>1177.75</ele>
        <time>2013-08-27T13:13:29Z</time>
      </trkpt>
      <trkpt lat="44.68659" lon="4.07012">
        <ele>1177.75</ele>
        <time>2013-08-27T13:14:03Z</time>
      </trkpt>
      <trkpt lat="44.68659" lon="4.07011">
        <ele>1178.23</ele>
        <time>2013-08-27T13:14:18Z</time>
      </trkpt>
      <trkpt lat="44.6866" lon="4.07009">
        <ele>1178.23</ele>
        <time>2013-08-27T13:14:19Z</time>
      </trkpt>
      <trkpt lat="44.6866" lon="4.07008">
        <ele>1178.23</ele>
        <time>2013-08-27T13:14:20Z</time>
      </trkpt>
      <trkpt lat="44.68664" lon="4.06996">
        <ele>1179.67</ele>
        <time>2013-08-27T13:14:27Z</time>
      </trkpt>
      <trkpt lat="44.68665" lon="4.06995">
        <ele>1180.16</ele>
        <time>2013-08-27T13:14:28Z</time>
      </trkpt>
      <trkpt lat="44.68668" lon="4.06993">
        <ele>1180.64</ele>
        <time>2013-08-27T13:14:30Z</time>
      </trkpt>
      <trkpt lat="44.68681" lon="4.06989">
        <ele>1182.08</ele>
        <time>2013-08-27T13:14:42Z</time>
      </trkpt>
      <trkpt lat="44.68695" lon="4.06999">
        <ele>1181.6</ele>
        <time>2013-08-27T13:14:57Z</time>
      </trkpt>
      <trkpt lat="44.68697" lon="4.07001">
        <ele>1181.12</ele>
        <time>2013-08-27T13:14:58Z</time>
      </trkpt>
      <trkpt lat="44.68699" lon="4.07002">
        <ele>1181.12</ele>
        <time>2013-08-27T13:14:59Z</time>
      </trkpt>
      <trkpt lat="44.68706" lon="4.07011">
        <ele>1181.6</ele>
        <time>2013-08-27T13:15:06Z</time>
      </trkpt>
      <trkpt lat="44.68707" lon="4.07012">
        <ele>1181.12</ele>
        <time>2013-08-27T13:15:07Z</time>
      </trkpt>
      <trkpt lat="44.68708" lon="4.07014">
        <ele>1181.6</ele>
        <time>2013-08-27T13:15:08Z</time>
      </trkpt>
      <trkpt lat="44.68709" lon="4.07015">
        <ele>1182.08</ele>
        <time>2013-08-27T13:15:09Z</time>
      </trkpt>
      <trkpt lat="44.6871" lon="4.07017">
        <ele>1182.08</ele>
        <time>2013-08-27T13:15:10Z</time>
      </trkpt>
      <trkpt lat="44.68712" lon="4.07019">
        <ele>1182.08</ele>
        <time>2013-08-27T13:15:11Z</time>
      </trkpt>
      <trkpt lat="44.68713" lon="4.07021">
        <ele>1182.56</ele>
        <time>2013-08-27T13:15:12Z</time>
      </trkpt>
      <trkpt lat="44.68714" lon="4.07023">
        <ele>1182.56</ele>
        <time>2013-08-27T13:15:13Z</time>
      </trkpt>
      <trkpt lat="44.68715" lon="4.07025">
        <ele>1183.04</ele>
        <time>2013-08-27T13:15:14Z</time>
      </trkpt>
      <trkpt lat="44.68718" lon="4.07028">
        <ele>1184</ele>
        <time>2013-08-27T13:15:17Z</time>
      </trkpt>
      <trkpt lat="44.68719" lon="4.07032">
        <ele>1184.96</ele>
        <time>2013-08-27T13:15:20Z</time>
      </trkpt>
      <trkpt lat="44.68721" lon="4.07038">
        <ele>1185.44</ele>
        <time>2013-08-27T13:15:24Z</time>
      </trkpt>
      <trkpt lat="44.68722" lon="4.07039">
        <ele>1185.92</ele>
        <time>2013-08-27T13:15:25Z</time>
      </trkpt>
      <trkpt lat="44.68723" lon="4.07048">
        <ele>1187.37</ele>
        <time>2013-08-27T13:15:31Z</time>
      </trkpt>
      <trkpt lat="44.68723" lon="4.0705">
        <ele>1187.85</ele>
        <time>2013-08-27T13:15:32Z</time>
      </trkpt>
      <trkpt lat="44.68724" lon="4.07051">
        <ele>1187.37</ele>
        <time>2013-08-27T13:15:33Z</time>
      </trkpt>
      <trkpt lat="44.68724" lon="4.07053">
        <ele>1187.85</ele>
        <time>2013-08-27T13:15:34Z</time>
      </trkpt>
      <trkpt lat="44.68725" lon="4.07055">
        <ele>1188.33</ele>
        <time>2013-08-27T13:15:35Z</time>
      </trkpt>
      <trkpt lat="44.68729" lon="4.07071">
        <ele>1189.77</ele>
        <time>2013-08-27T13:15:45Z</time>
      </trkpt>
      <trkpt lat="44.6873" lon="4.07073">
        <ele>1190.25</ele>
        <time>2013-08-27T13:15:46Z</time>
      </trkpt>
      <trkpt lat="44.68732" lon="4.07084">
        <ele>1191.21</ele>
        <time>2013-08-27T13:15:53Z</time>
      </trkpt>
      <trkpt lat="44.68733" lon="4.07086">
        <ele>1191.21</ele>
        <time>2013-08-27T13:15:55Z</time>
      </trkpt>
      <trkpt lat="44.68732" lon="4.071">
        <ele>1192.65</ele>
        <time>2013-08-27T13:16:03Z</time>
      </trkpt>
      <trkpt lat="44.68732" lon="4.07103">
        <ele>1192.65</ele>
        <time>2013-08-27T13:16:04Z</time>
      </trkpt>
      <trkpt lat="44.68732" lon="4.07108">
        <ele>1193.13</ele>
        <time>2013-08-27T13:16:07Z</time>
      </trkpt>
      <trkpt lat="44.68733" lon="4.07119">
        <ele>1194.58</ele>
        <time>2013-08-27T13:16:13Z</time>
      </trkpt>
      <trkpt lat="44.68733" lon="4.07121">
        <ele>1194.58</ele>
        <time>2013-08-27T13:16:14Z</time>
      </trkpt>
      <trkpt lat="44.68731" lon="4.07124">
        <ele>1195.06</ele>
        <time>2013-08-27T13:16:16Z</time>
      </trkpt>
      <trkpt lat="44.68731" lon="4.07127">
        <ele>1195.06</ele>
        <time>2013-08-27T13:16:18Z</time>
      </trkpt>
      <trkpt lat="44.68731" lon="4.07147">
        <ele>1196.98</ele>
        <time>2013-08-27T13:16:29Z</time>
      </trkpt>
      <trkpt lat="44.68729" lon="4.07153">
        <ele>1197.46</ele>
        <time>2013-08-27T13:16:32Z</time>
      </trkpt>
      <trkpt lat="44.68728" lon="4.07155">
        <ele>1197.46</ele>
        <time>2013-08-27T13:16:33Z</time>
      </trkpt>
      <trkpt lat="44.68726" lon="4.0718">
        <ele>1198.9</ele>
        <time>2013-08-27T13:16:46Z</time>
      </trkpt>
      <trkpt lat="44.68726" lon="4.07192">
        <ele>1200.34</ele>
        <time>2013-08-27T13:16:52Z</time>
      </trkpt>
      <trkpt lat="44.68727" lon="4.07194">
        <ele>1200.34</ele>
        <time>2013-08-27T13:16:53Z</time>
      </trkpt>
      <trkpt lat="44.68726" lon="4.07196">
        <ele>1200.82</ele>
        <time>2013-08-27T13:16:54Z</time>
      </trkpt>
      <trkpt lat="44.68726" lon="4.07198">
        <ele>1201.3</ele>
        <time>2013-08-27T13:16:55Z</time>
      </trkpt>
      <trkpt lat="44.68725" lon="4.072">
        <ele>1201.3</ele>
        <time>2013-08-27T13:16:56Z</time>
      </trkpt>
      <trkpt lat="44.68724" lon="4.07201">
        <ele>1201.3</ele>
        <time>2013-08-27T13:16:57Z</time>
      </trkpt>
      <trkpt lat="44.68724" lon="4.07203">
        <ele>1201.3</ele>
        <time>2013-08-27T13:16:58Z</time>
      </trkpt>
      <trkpt lat="44.68723" lon="4.07204">
        <ele>1201.3</ele>
        <time>2013-08-27T13:16:59Z</time>
      </trkpt>
      <trkpt lat="44.6872" lon="4.07208">
        <ele>1202.75</ele>
        <time>2013-08-27T13:17:02Z</time>
      </trkpt>
      <trkpt lat="44.68716" lon="4.07216">
        <ele>1203.23</ele>
        <time>2013-08-27T13:17:08Z</time>
      </trkpt>
      <trkpt lat="44.68714" lon="4.07216">
        <ele>1204.19</ele>
        <time>2013-08-27T13:17:09Z</time>
      </trkpt>
      <trkpt lat="44.68713" lon="4.07217">
        <ele>1204.19</ele>
        <time>2013-08-27T13:17:10Z</time>
      </trkpt>
      <trkpt lat="44.68712" lon="4.07219">
        <ele>1204.19</ele>
        <time>2013-08-27T13:17:11Z</time>
      </trkpt>
      <trkpt lat="44.68711" lon="4.0722">
        <ele>1204.19</ele>
        <time>2013-08-27T13:17:12Z</time>
      </trkpt>
      <trkpt lat="44.6871" lon="4.07222">
        <ele>1204.67</ele>
        <time>2013-08-27T13:17:13Z</time>
      </trkpt>
      <trkpt lat="44.6871" lon="4.07223">
        <ele>1204.19</ele>
        <time>2013-08-27T13:17:14Z</time>
      </trkpt>
      <trkpt lat="44.68708" lon="4.07224">
        <ele>1204.67</ele>
        <time>2013-08-27T13:17:15Z</time>
      </trkpt>
      <trkpt lat="44.68708" lon="4.07225">
        <ele>1204.67</ele>
        <time>2013-08-27T13:17:16Z</time>
      </trkpt>
      <trkpt lat="44.68706" lon="4.07228">
        <ele>1205.15</ele>
        <time>2013-08-27T13:17:18Z</time>
      </trkpt>
      <trkpt lat="44.68705" lon="4.0723">
        <ele>1205.63</ele>
        <time>2013-08-27T13:17:19Z</time>
      </trkpt>
      <trkpt lat="44.68705" lon="4.07231">
        <ele>1205.63</ele>
        <time>2013-08-27T13:17:20Z</time>
      </trkpt>
      <trkpt lat="44.68704" lon="4.07233">
        <ele>1205.63</ele>
        <time>2013-08-27T13:17:21Z</time>
      </trkpt>
      <trkpt lat="44.68704" lon="4.07235">
        <ele>1205.63</ele>
        <time>2013-08-27T13:17:22Z</time>
      </trkpt>
      <trkpt lat="44.68703" lon="4.07237">
        <ele>1206.11</ele>
        <time>2013-08-27T13:17:23Z</time>
      </trkpt>
      <trkpt lat="44.68702" lon="4.0724">
        <ele>1206.59</ele>
        <time>2013-08-27T13:17:25Z</time>
      </trkpt>
      <trkpt lat="44.68697" lon="4.07253">
        <ele>1208.51</ele>
        <time>2013-08-27T13:17:33Z</time>
      </trkpt>
      <trkpt lat="44.68691" lon="4.07275">
        <ele>1211.88</ele>
        <time>2013-08-27T13:17:46Z</time>
      </trkpt>
      <trkpt lat="44.68687" lon="4.07292">
        <ele>1213.8</ele>
        <time>2013-08-27T13:17:56Z</time>
      </trkpt>
      <trkpt lat="44.68687" lon="4.07293">
        <ele>1213.8</ele>
        <time>2013-08-27T13:17:57Z</time>
      </trkpt>
      <trkpt lat="44.68686" lon="4.07295">
        <ele>1213.8</ele>
        <time>2013-08-27T13:17:58Z</time>
      </trkpt>
      <trkpt lat="44.68686" lon="4.07296">
        <ele>1214.28</ele>
        <time>2013-08-27T13:17:59Z</time>
      </trkpt>
      <trkpt lat="44.68686" lon="4.07298">
        <ele>1214.28</ele>
        <time>2013-08-27T13:18:00Z</time>
      </trkpt>
      <trkpt lat="44.68685" lon="4.07313">
        <ele>1215.72</ele>
        <time>2013-08-27T13:18:09Z</time>
      </trkpt>
      <trkpt lat="44.68686" lon="4.07314">
        <ele>1216.21</ele>
        <time>2013-08-27T13:18:10Z</time>
      </trkpt>
      <trkpt lat="44.68688" lon="4.07318">
        <ele>1216.69</ele>
        <time>2013-08-27T13:18:13Z</time>
      </trkpt>
      <trkpt lat="44.68688" lon="4.0732">
        <ele>1216.69</ele>
        <time>2013-08-27T13:18:14Z</time>
      </trkpt>
      <trkpt lat="44.68689" lon="4.07321">
        <ele>1216.69</ele>
        <time>2013-08-27T13:18:15Z</time>
      </trkpt>
      <trkpt lat="44.68698" lon="4.07347">
        <ele>1220.53</ele>
        <time>2013-08-27T13:18:32Z</time>
      </trkpt>
      <trkpt lat="44.68698" lon="4.07349">
        <ele>1220.05</ele>
        <time>2013-08-27T13:18:33Z</time>
      </trkpt>
      <trkpt lat="44.68699" lon="4.0735">
        <ele>1220.53</ele>
        <time>2013-08-27T13:18:34Z</time>
      </trkpt>
      <trkpt lat="44.68699" lon="4.07352">
        <ele>1220.53</ele>
        <time>2013-08-27T13:18:35Z</time>
      </trkpt>
      <trkpt lat="44.687" lon="4.07353">
        <ele>1221.01</ele>
        <time>2013-08-27T13:18:36Z</time>
      </trkpt>
      <trkpt lat="44.68701" lon="4.0736">
        <ele>1221.97</ele>
        <time>2013-08-27T13:18:40Z</time>
      </trkpt>
      <trkpt lat="44.68702" lon="4.07361">
        <ele>1221.97</ele>
        <time>2013-08-27T13:18:41Z</time>
      </trkpt>
      <trkpt lat="44.68702" lon="4.07387">
        <ele>1224.86</ele>
        <time>2013-08-27T13:18:55Z</time>
      </trkpt>
      <trkpt lat="44.68702" lon="4.07388">
        <ele>1224.86</ele>
        <time>2013-08-27T13:18:56Z</time>
      </trkpt>
      <trkpt lat="44.68702" lon="4.0739">
        <ele>1225.34</ele>
        <time>2013-08-27T13:18:57Z</time>
      </trkpt>
      <trkpt lat="44.68702" lon="4.07392">
        <ele>1225.34</ele>
        <time>2013-08-27T13:18:58Z</time>
      </trkpt>
      <trkpt lat="44.68702" lon="4.07394">
        <ele>1225.34</ele>
        <time>2013-08-27T13:18:59Z</time>
      </trkpt>
      <trkpt lat="44.687" lon="4.07417">
        <ele>1228.7</ele>
        <time>2013-08-27T13:19:14Z</time>
      </trkpt>
      <trkpt lat="44.68699" lon="4.07423">
        <ele>1229.18</ele>
        <time>2013-08-27T13:19:18Z</time>
      </trkpt>
      <trkpt lat="44.68699" lon="4.07424">
        <ele>1229.18</ele>
        <time>2013-08-27T13:19:19Z</time>
      </trkpt>
      <trkpt lat="44.68697" lon="4.07432">
        <ele>1230.62</ele>
        <time>2013-08-27T13:19:30Z</time>
      </trkpt>
      <trkpt lat="44.68695" lon="4.07452">
        <ele>1233.51</ele>
        <time>2013-08-27T13:19:45Z</time>
      </trkpt>
      <trkpt lat="44.68693" lon="4.07472">
        <ele>1235.91</ele>
        <time>2013-08-27T13:20:00Z</time>
      </trkpt>
      <trkpt lat="44.68691" lon="4.07491">
        <ele>1238.32</ele>
        <time>2013-08-27T13:20:15Z</time>
      </trkpt>
      <trkpt lat="44.6869" lon="4.07497">
        <ele>1238.8</ele>
        <time>2013-08-27T13:20:19Z</time>
      </trkpt>
      <trkpt lat="44.6869" lon="4.07504">
        <ele>1239.76</ele>
        <time>2013-08-27T13:20:24Z</time>
      </trkpt>
      <trkpt lat="44.6869" lon="4.07506">
        <ele>1239.76</ele>
        <time>2013-08-27T13:20:25Z</time>
      </trkpt>
      <trkpt lat="44.687" lon="4.07509">
        <ele>1241.2</ele>
        <time>2013-08-27T13:20:39Z</time>
      </trkpt>
      <trkpt lat="44.68701" lon="4.07507">
        <ele>1241.68</ele>
        <time>2013-08-27T13:20:51Z</time>
      </trkpt>
      <trkpt lat="44.68707" lon="4.07497">
        <ele>1242.16</ele>
        <time>2013-08-27T13:20:59Z</time>
      </trkpt>
      <trkpt lat="44.68707" lon="4.07495">
        <ele>1242.64</ele>
        <time>2013-08-27T13:21:00Z</time>
      </trkpt>
      <trkpt lat="44.6871" lon="4.0748">
        <ele>1244.08</ele>
        <time>2013-08-27T13:21:08Z</time>
      </trkpt>
      <trkpt lat="44.68712" lon="4.07479">
        <ele>1244.56</ele>
        <time>2013-08-27T13:21:09Z</time>
      </trkpt>
      <trkpt lat="44.68712" lon="4.07477">
        <ele>1244.08</ele>
        <time>2013-08-27T13:21:10Z</time>
      </trkpt>
      <trkpt lat="44.68713" lon="4.07476">
        <ele>1244.56</ele>
        <time>2013-08-27T13:21:11Z</time>
      </trkpt>
      <trkpt lat="44.68713" lon="4.07474">
        <ele>1245.04</ele>
        <time>2013-08-27T13:21:12Z</time>
      </trkpt>
      <trkpt lat="44.68713" lon="4.07473">
        <ele>1245.04</ele>
        <time>2013-08-27T13:21:13Z</time>
      </trkpt>
      <trkpt lat="44.68714" lon="4.07471">
        <ele>1245.53</ele>
        <time>2013-08-27T13:21:14Z</time>
      </trkpt>
      <trkpt lat="44.68715" lon="4.07469">
        <ele>1245.53</ele>
        <time>2013-08-27T13:21:15Z</time>
      </trkpt>
      <trkpt lat="44.68716" lon="4.07468">
        <ele>1245.04</ele>
        <time>2013-08-27T13:21:16Z</time>
      </trkpt>
      <trkpt lat="44.68724" lon="4.07456">
        <ele>1246.97</ele>
        <time>2013-08-27T13:21:25Z</time>
      </trkpt>
      <trkpt lat="44.68725" lon="4.07455">
        <ele>1247.45</ele>
        <time>2013-08-27T13:21:26Z</time>
      </trkpt>
      <trkpt lat="44.68726" lon="4.07454">
        <ele>1246.97</ele>
        <time>2013-08-27T13:21:27Z</time>
      </trkpt>
      <trkpt lat="44.68728" lon="4.07453">
        <ele>1246.97</ele>
        <time>2013-08-27T13:21:28Z</time>
      </trkpt>
      <trkpt lat="44.68729" lon="4.07452">
        <ele>1247.45</ele>
        <time>2013-08-27T13:21:29Z</time>
      </trkpt>
      <trkpt lat="44.6873" lon="4.07451">
        <ele>1247.45</ele>
        <time>2013-08-27T13:21:30Z</time>
      </trkpt>
      <trkpt lat="44.68734" lon="4.07449">
        <ele>1247.93</ele>
        <time>2013-08-27T13:21:33Z</time>
      </trkpt>
      <trkpt lat="44.68735" lon="4.07449">
        <ele>1248.41</ele>
        <time>2013-08-27T13:21:34Z</time>
      </trkpt>
      <trkpt lat="44.68736" lon="4.07449">
        <ele>1248.89</ele>
        <time>2013-08-27T13:21:35Z</time>
      </trkpt>
      <trkpt lat="44.68737" lon="4.07449">
        <ele>1248.89</ele>
        <time>2013-08-27T13:21:36Z</time>
      </trkpt>
      <trkpt lat="44.68739" lon="4.0745">
        <ele>1248.89</ele>
        <time>2013-08-27T13:21:37Z</time>
      </trkpt>
      <trkpt lat="44.6874" lon="4.0745">
        <ele>1249.37</ele>
        <time>2013-08-27T13:21:38Z</time>
      </trkpt>
      <trkpt lat="44.68741" lon="4.07451">
        <ele>1248.89</ele>
        <time>2013-08-27T13:21:39Z</time>
      </trkpt>
      <trkpt lat="44.68745" lon="4.07453">
        <ele>1249.85</ele>
        <time>2013-08-27T13:21:42Z</time>
      </trkpt>
      <trkpt lat="44.68746" lon="4.07455">
        <ele>1249.85</ele>
        <time>2013-08-27T13:21:43Z</time>
      </trkpt>
      <trkpt lat="44.68747" lon="4.07457">
        <ele>1249.85</ele>
        <time>2013-08-27T13:21:44Z</time>
      </trkpt>
      <trkpt lat="44.68747" lon="4.07459">
        <ele>1249.85</ele>
        <time>2013-08-27T13:21:45Z</time>
      </trkpt>
      <trkpt lat="44.68748" lon="4.0746">
        <ele>1250.33</ele>
        <time>2013-08-27T13:21:46Z</time>
      </trkpt>
      <trkpt lat="44.68747" lon="4.07462">
        <ele>1250.81</ele>
        <time>2013-08-27T13:21:47Z</time>
      </trkpt>
      <trkpt lat="44.68747" lon="4.07464">
        <ele>1250.81</ele>
        <time>2013-08-27T13:21:48Z</time>
      </trkpt>
      <trkpt lat="44.68733" lon="4.07475">
        <ele>1253.22</ele>
        <time>2013-08-27T13:22:03Z</time>
      </trkpt>
      <trkpt lat="44.68732" lon="4.07476">
        <ele>1253.7</ele>
        <time>2013-08-27T13:22:04Z</time>
      </trkpt>
      <trkpt lat="44.68729" lon="4.0748">
        <ele>1253.7</ele>
        <time>2013-08-27T13:22:07Z</time>
      </trkpt>
      <trkpt lat="44.68728" lon="4.07487">
        <ele>1254.66</ele>
        <time>2013-08-27T13:22:11Z</time>
      </trkpt>
      <trkpt lat="44.68728" lon="4.07489">
        <ele>1254.66</ele>
        <time>2013-08-27T13:22:12Z</time>
      </trkpt>
      <trkpt lat="44.68728" lon="4.07491">
        <ele>1254.66</ele>
        <time>2013-08-27T13:22:13Z</time>
      </trkpt>
      <trkpt lat="44.68727" lon="4.07518">
        <ele>1257.54</ele>
        <time>2013-08-27T13:22:28Z</time>
      </trkpt>
      <trkpt lat="44.68727" lon="4.07519">
        <ele>1257.54</ele>
        <time>2013-08-27T13:22:29Z</time>
      </trkpt>
      <trkpt lat="44.68727" lon="4.07521">
        <ele>1257.54</ele>
        <time>2013-08-27T13:22:30Z</time>
      </trkpt>
      <trkpt lat="44.68728" lon="4.07522">
        <ele>1257.54</ele>
        <time>2013-08-27T13:22:31Z</time>
      </trkpt>
      <trkpt lat="44.68728" lon="4.07524">
        <ele>1257.54</ele>
        <time>2013-08-27T13:22:32Z</time>
      </trkpt>
      <trkpt lat="44.68728" lon="4.07526">
        <ele>1258.02</ele>
        <time>2013-08-27T13:22:33Z</time>
      </trkpt>
      <trkpt lat="44.68727" lon="4.07538">
        <ele>1259.46</ele>
        <time>2013-08-27T13:22:40Z</time>
      </trkpt>
      <trkpt lat="44.68727" lon="4.0754">
        <ele>1259.46</ele>
        <time>2013-08-27T13:22:41Z</time>
      </trkpt>
      <trkpt lat="44.68728" lon="4.07543">
        <ele>1259.94</ele>
        <time>2013-08-27T13:22:43Z</time>
      </trkpt>
      <trkpt lat="44.68728" lon="4.07545">
        <ele>1259.46</ele>
        <time>2013-08-27T13:22:44Z</time>
      </trkpt>
      <trkpt lat="44.68728" lon="4.07547">
        <ele>1259.94</ele>
        <time>2013-08-27T13:22:45Z</time>
      </trkpt>
      <trkpt lat="44.68726" lon="4.07581">
        <ele>1262.83</ele>
        <time>2013-08-27T13:23:03Z</time>
      </trkpt>
      <trkpt lat="44.68725" lon="4.07595">
        <ele>1263.79</ele>
        <time>2013-08-27T13:23:10Z</time>
      </trkpt>
      <trkpt lat="44.68724" lon="4.07596">
        <ele>1263.79</ele>
        <time>2013-08-27T13:23:11Z</time>
      </trkpt>
      <trkpt lat="44.68722" lon="4.07606">
        <ele>1264.75</ele>
        <time>2013-08-27T13:23:17Z</time>
      </trkpt>
      <trkpt lat="44.68721" lon="4.07608">
        <ele>1265.23</ele>
        <time>2013-08-27T13:23:18Z</time>
      </trkpt>
      <trkpt lat="44.68721" lon="4.07609">
        <ele>1265.23</ele>
        <time>2013-08-27T13:23:19Z</time>
      </trkpt>
      <trkpt lat="44.68721" lon="4.07611">
        <ele>1264.75</ele>
        <time>2013-08-27T13:23:20Z</time>
      </trkpt>
      <trkpt lat="44.6872" lon="4.07613">
        <ele>1265.23</ele>
        <time>2013-08-27T13:23:21Z</time>
      </trkpt>
      <trkpt lat="44.68718" lon="4.07616">
        <ele>1265.71</ele>
        <time>2013-08-27T13:23:23Z</time>
      </trkpt>
      <trkpt lat="44.687" lon="4.07632">
        <ele>1268.6</ele>
        <time>2013-08-27T13:23:40Z</time>
      </trkpt>
      <trkpt lat="44.68689" lon="4.0764">
        <ele>1270.52</ele>
        <time>2013-08-27T13:23:50Z</time>
      </trkpt>
      <trkpt lat="44.68687" lon="4.0764">
        <ele>1270.52</ele>
        <time>2013-08-27T13:23:51Z</time>
      </trkpt>
      <trkpt lat="44.68675" lon="4.07655">
        <ele>1272.92</ele>
        <time>2013-08-27T13:24:04Z</time>
      </trkpt>
      <trkpt lat="44.68675" lon="4.07659">
        <ele>1273.4</ele>
        <time>2013-08-27T13:24:06Z</time>
      </trkpt>
      <trkpt lat="44.6869" lon="4.07669">
        <ele>1275.81</ele>
        <time>2013-08-27T13:24:21Z</time>
      </trkpt>
      <trkpt lat="44.68691" lon="4.07668">
        <ele>1275.33</ele>
        <time>2013-08-27T13:24:22Z</time>
      </trkpt>
      <trkpt lat="44.68692" lon="4.07667">
        <ele>1275.33</ele>
        <time>2013-08-27T13:24:23Z</time>
      </trkpt>
      <trkpt lat="44.68713" lon="4.07656">
        <ele>1276.77</ele>
        <time>2013-08-27T13:24:39Z</time>
      </trkpt>
      <trkpt lat="44.68735" lon="4.07649">
        <ele>1278.69</ele>
        <time>2013-08-27T13:24:55Z</time>
      </trkpt>
      <trkpt lat="44.68752" lon="4.07644">
        <ele>1280.13</ele>
        <time>2013-08-27T13:25:07Z</time>
      </trkpt>
      <trkpt lat="44.68753" lon="4.07644">
        <ele>1280.61</ele>
        <time>2013-08-27T13:25:08Z</time>
      </trkpt>
      <trkpt lat="44.68754" lon="4.07645">
        <ele>1280.61</ele>
        <time>2013-08-27T13:25:09Z</time>
      </trkpt>
      <trkpt lat="44.68755" lon="4.07646">
        <ele>1281.09</ele>
        <time>2013-08-27T13:25:10Z</time>
      </trkpt>
      <trkpt lat="44.68757" lon="4.07648">
        <ele>1280.61</ele>
        <time>2013-08-27T13:25:11Z</time>
      </trkpt>
      <trkpt lat="44.68757" lon="4.07649">
        <ele>1280.61</ele>
        <time>2013-08-27T13:25:12Z</time>
      </trkpt>
      <trkpt lat="44.68757" lon="4.07651">
        <ele>1281.09</ele>
        <time>2013-08-27T13:25:13Z</time>
      </trkpt>
      <trkpt lat="44.68757" lon="4.07653">
        <ele>1281.09</ele>
        <time>2013-08-27T13:25:14Z</time>
      </trkpt>
      <trkpt lat="44.68756" lon="4.07655">
        <ele>1281.09</ele>
        <time>2013-08-27T13:25:15Z</time>
      </trkpt>
      <trkpt lat="44.68755" lon="4.07656">
        <ele>1281.09</ele>
        <time>2013-08-27T13:25:16Z</time>
      </trkpt>
      <trkpt lat="44.68754" lon="4.07657">
        <ele>1281.57</ele>
        <time>2013-08-27T13:25:17Z</time>
      </trkpt>
      <trkpt lat="44.68753" lon="4.07658">
        <ele>1282.06</ele>
        <time>2013-08-27T13:25:18Z</time>
      </trkpt>
      <trkpt lat="44.68751" lon="4.07658">
        <ele>1281.57</ele>
        <time>2013-08-27T13:25:19Z</time>
      </trkpt>
      <trkpt lat="44.6875" lon="4.07658">
        <ele>1281.57</ele>
        <time>2013-08-27T13:25:20Z</time>
      </trkpt>
      <trkpt lat="44.68749" lon="4.07658">
        <ele>1282.06</ele>
        <time>2013-08-27T13:25:21Z</time>
      </trkpt>
      <trkpt lat="44.68747" lon="4.07659">
        <ele>1281.57</ele>
        <time>2013-08-27T13:25:22Z</time>
      </trkpt>
      <trkpt lat="44.68745" lon="4.07659">
        <ele>1282.54</ele>
        <time>2013-08-27T13:25:23Z</time>
      </trkpt>
      <trkpt lat="44.68728" lon="4.07673">
        <ele>1285.42</ele>
        <time>2013-08-27T13:25:38Z</time>
      </trkpt>
      <trkpt lat="44.68716" lon="4.07694">
        <ele>1287.82</ele>
        <time>2013-08-27T13:25:52Z</time>
      </trkpt>
      <trkpt lat="44.68712" lon="4.07718">
        <ele>1289.75</ele>
        <time>2013-08-27T13:26:05Z</time>
      </trkpt>
      <trkpt lat="44.68712" lon="4.0772">
        <ele>1289.75</ele>
        <time>2013-08-27T13:26:06Z</time>
      </trkpt>
      <trkpt lat="44.68713" lon="4.07727">
        <ele>1290.71</ele>
        <time>2013-08-27T13:26:10Z</time>
      </trkpt>
      <trkpt lat="44.68713" lon="4.07729">
        <ele>1290.23</ele>
        <time>2013-08-27T13:26:11Z</time>
      </trkpt>
      <trkpt lat="44.68713" lon="4.0773">
        <ele>1290.23</ele>
        <time>2013-08-27T13:26:25Z</time>
      </trkpt>
      <trkpt lat="44.68713" lon="4.07729">
        <ele>1290.23</ele>
        <time>2013-08-27T13:26:49Z</time>
      </trkpt>
      <trkpt lat="44.68713" lon="4.07731">
        <ele>1290.23</ele>
        <time>2013-08-27T13:27:01Z</time>
      </trkpt>
      <trkpt lat="44.68714" lon="4.07733">
        <ele>1290.71</ele>
        <time>2013-08-27T13:27:02Z</time>
      </trkpt>
      <trkpt lat="44.68718" lon="4.07743">
        <ele>1291.19</ele>
        <time>2013-08-27T13:27:09Z</time>
      </trkpt>
      <trkpt lat="44.68718" lon="4.07745">
        <ele>1291.67</ele>
        <time>2013-08-27T13:27:10Z</time>
      </trkpt>
      <trkpt lat="44.68718" lon="4.07747">
        <ele>1291.67</ele>
        <time>2013-08-27T13:27:11Z</time>
      </trkpt>
      <trkpt lat="44.68719" lon="4.07748">
        <ele>1291.67</ele>
        <time>2013-08-27T13:27:12Z</time>
      </trkpt>
      <trkpt lat="44.6872" lon="4.07749">
        <ele>1292.15</ele>
        <time>2013-08-27T13:27:13Z</time>
      </trkpt>
      <trkpt lat="44.68721" lon="4.07751">
        <ele>1293.11</ele>
        <time>2013-08-27T13:27:14Z</time>
      </trkpt>
      <trkpt lat="44.68721" lon="4.07753">
        <ele>1292.63</ele>
        <time>2013-08-27T13:27:15Z</time>
      </trkpt>
      <trkpt lat="44.68721" lon="4.07755">
        <ele>1293.11</ele>
        <time>2013-08-27T13:27:16Z</time>
      </trkpt>
      <trkpt lat="44.68723" lon="4.07762">
        <ele>1293.11</ele>
        <time>2013-08-27T13:27:20Z</time>
      </trkpt>
      <trkpt lat="44.68725" lon="4.07775">
        <ele>1294.55</ele>
        <time>2013-08-27T13:27:28Z</time>
      </trkpt>
      <trkpt lat="44.68725" lon="4.07777">
        <ele>1294.55</ele>
        <time>2013-08-27T13:27:29Z</time>
      </trkpt>
      <trkpt lat="44.68724" lon="4.07782">
        <ele>1295.51</ele>
        <time>2013-08-27T13:27:33Z</time>
      </trkpt>
      <trkpt lat="44.68725" lon="4.07789">
        <ele>1295.99</ele>
        <time>2013-08-27T13:27:37Z</time>
      </trkpt>
      <trkpt lat="44.68725" lon="4.07791">
        <ele>1295.99</ele>
        <time>2013-08-27T13:27:38Z</time>
      </trkpt>
      <trkpt lat="44.68725" lon="4.07793">
        <ele>1296.48</ele>
        <time>2013-08-27T13:27:39Z</time>
      </trkpt>
      <trkpt lat="44.68726" lon="4.07794">
        <ele>1296.48</ele>
        <time>2013-08-27T13:27:40Z</time>
      </trkpt>
      <trkpt lat="44.68726" lon="4.07796">
        <ele>1296.48</ele>
        <time>2013-08-27T13:27:41Z</time>
      </trkpt>
      <trkpt lat="44.68726" lon="4.07798">
        <ele>1296.96</ele>
        <time>2013-08-27T13:27:42Z</time>
      </trkpt>
      <trkpt lat="44.68726" lon="4.07799">
        <ele>1296.96</ele>
        <time>2013-08-27T13:27:43Z</time>
      </trkpt>
      <trkpt lat="44.68726" lon="4.07801">
        <ele>1296.96</ele>
        <time>2013-08-27T13:27:44Z</time>
      </trkpt>
      <trkpt lat="44.68727" lon="4.07806">
        <ele>1297.92</ele>
        <time>2013-08-27T13:27:47Z</time>
      </trkpt>
      <trkpt lat="44.68727" lon="4.07807">
        <ele>1297.92</ele>
        <time>2013-08-27T13:27:48Z</time>
      </trkpt>
      <trkpt lat="44.68727" lon="4.07809">
        <ele>1298.4</ele>
        <time>2013-08-27T13:27:49Z</time>
      </trkpt>
      <trkpt lat="44.68727" lon="4.07811">
        <ele>1298.4</ele>
        <time>2013-08-27T13:27:50Z</time>
      </trkpt>
      <trkpt lat="44.68727" lon="4.07813">
        <ele>1298.88</ele>
        <time>2013-08-27T13:27:51Z</time>
      </trkpt>
      <trkpt lat="44.68727" lon="4.07815">
        <ele>1298.88</ele>
        <time>2013-08-27T13:27:52Z</time>
      </trkpt>
      <trkpt lat="44.68727" lon="4.07816">
        <ele>1298.88</ele>
        <time>2013-08-27T13:27:53Z</time>
      </trkpt>
      <trkpt lat="44.68727" lon="4.07818">
        <ele>1299.36</ele>
        <time>2013-08-27T13:27:54Z</time>
      </trkpt>
      <trkpt lat="44.68727" lon="4.07819">
        <ele>1299.36</ele>
        <time>2013-08-27T13:27:55Z</time>
      </trkpt>
      <trkpt lat="44.68727" lon="4.0782">
        <ele>1299.36</ele>
        <time>2013-08-27T13:27:56Z</time>
      </trkpt>
      <trkpt lat="44.68727" lon="4.07822">
        <ele>1299.84</ele>
        <time>2013-08-27T13:27:57Z</time>
      </trkpt>
      <trkpt lat="44.68727" lon="4.07824">
        <ele>1299.36</ele>
        <time>2013-08-27T13:27:58Z</time>
      </trkpt>
      <trkpt lat="44.68726" lon="4.0783">
        <ele>1300.32</ele>
        <time>2013-08-27T13:28:02Z</time>
      </trkpt>
      <trkpt lat="44.68726" lon="4.07831">
        <ele>1301.28</ele>
        <time>2013-08-27T13:28:03Z</time>
      </trkpt>
      <trkpt lat="44.68724" lon="4.07847">
        <ele>1302.24</ele>
        <time>2013-08-27T13:28:12Z</time>
      </trkpt>
      <trkpt lat="44.68723" lon="4.07848">
        <ele>1302.24</ele>
        <time>2013-08-27T13:28:13Z</time>
      </trkpt>
      <trkpt lat="44.68723" lon="4.0785">
        <ele>1302.24</ele>
        <time>2013-08-27T13:28:14Z</time>
      </trkpt>
      <trkpt lat="44.68723" lon="4.07851">
        <ele>1302.72</ele>
        <time>2013-08-27T13:28:15Z</time>
      </trkpt>
      <trkpt lat="44.68723" lon="4.07853">
        <ele>1303.2</ele>
        <time>2013-08-27T13:28:16Z</time>
      </trkpt>
      <trkpt lat="44.68721" lon="4.0786">
        <ele>1303.69</ele>
        <time>2013-08-27T13:28:20Z</time>
      </trkpt>
      <trkpt lat="44.68721" lon="4.07862">
        <ele>1303.69</ele>
        <time>2013-08-27T13:28:21Z</time>
      </trkpt>
      <trkpt lat="44.68721" lon="4.07863">
        <ele>1303.69</ele>
        <time>2013-08-27T13:28:22Z</time>
      </trkpt>
      <trkpt lat="44.68721" lon="4.07865">
        <ele>1304.17</ele>
        <time>2013-08-27T13:28:23Z</time>
      </trkpt>
      <trkpt lat="44.68721" lon="4.07867">
        <ele>1304.17</ele>
        <time>2013-08-27T13:28:24Z</time>
      </trkpt>
      <trkpt lat="44.68721" lon="4.07869">
        <ele>1304.17</ele>
        <time>2013-08-27T13:28:25Z</time>
      </trkpt>
      <trkpt lat="44.6872" lon="4.0787">
        <ele>1304.17</ele>
        <time>2013-08-27T13:28:26Z</time>
      </trkpt>
      <trkpt lat="44.68718" lon="4.07894">
        <ele>1306.57</ele>
        <time>2013-08-27T13:28:40Z</time>
      </trkpt>
      <trkpt lat="44.68711" lon="4.07912">
        <ele>1309.45</ele>
        <time>2013-08-27T13:28:52Z</time>
      </trkpt>
      <trkpt lat="44.68703" lon="4.07925">
        <ele>1311.38</ele>
        <time>2013-08-27T13:29:02Z</time>
      </trkpt>
      <trkpt lat="44.68702" lon="4.07926">
        <ele>1311.38</ele>
        <time>2013-08-27T13:29:03Z</time>
      </trkpt>
      <trkpt lat="44.68694" lon="4.07942">
        <ele>1314.26</ele>
        <time>2013-08-27T13:29:16Z</time>
      </trkpt>
      <trkpt lat="44.68687" lon="4.07951">
        <ele>1315.7</ele>
        <time>2013-08-27T13:29:24Z</time>
      </trkpt>
      <trkpt lat="44.68686" lon="4.07952">
        <ele>1316.18</ele>
        <time>2013-08-27T13:29:25Z</time>
      </trkpt>
      <trkpt lat="44.68686" lon="4.07954">
        <ele>1316.18</ele>
        <time>2013-08-27T13:29:26Z</time>
      </trkpt>
      <trkpt lat="44.68678" lon="4.07958">
        <ele>1317.62</ele>
        <time>2013-08-27T13:29:31Z</time>
      </trkpt>
      <trkpt lat="44.68677" lon="4.07959">
        <ele>1318.1</ele>
        <time>2013-08-27T13:29:32Z</time>
      </trkpt>
      <trkpt lat="44.68676" lon="4.07961">
        <ele>1317.62</ele>
        <time>2013-08-27T13:29:33Z</time>
      </trkpt>
      <trkpt lat="44.68676" lon="4.07963">
        <ele>1317.62</ele>
        <time>2013-08-27T13:29:34Z</time>
      </trkpt>
      <trkpt lat="44.68675" lon="4.07964">
        <ele>1318.1</ele>
        <time>2013-08-27T13:29:35Z</time>
      </trkpt>
      <trkpt lat="44.68675" lon="4.07966">
        <ele>1318.1</ele>
        <time>2013-08-27T13:29:36Z</time>
      </trkpt>
      <trkpt lat="44.68675" lon="4.07968">
        <ele>1318.59</ele>
        <time>2013-08-27T13:29:37Z</time>
      </trkpt>
      <trkpt lat="44.68676" lon="4.07972">
        <ele>1318.59</ele>
        <time>2013-08-27T13:29:40Z</time>
      </trkpt>
      <trkpt lat="44.68676" lon="4.07973">
        <ele>1319.07</ele>
        <time>2013-08-27T13:29:41Z</time>
      </trkpt>
      <trkpt lat="44.68677" lon="4.07974">
        <ele>1319.07</ele>
        <time>2013-08-27T13:29:42Z</time>
      </trkpt>
      <trkpt lat="44.68678" lon="4.07973">
        <ele>1319.07</ele>
        <time>2013-08-27T13:29:43Z</time>
      </trkpt>
      <trkpt lat="44.68679" lon="4.07973">
        <ele>1319.55</ele>
        <time>2013-08-27T13:29:44Z</time>
      </trkpt>
      <trkpt lat="44.68681" lon="4.07972">
        <ele>1319.55</ele>
        <time>2013-08-27T13:29:45Z</time>
      </trkpt>
      <trkpt lat="44.68685" lon="4.07971">
        <ele>1320.03</ele>
        <time>2013-08-27T13:29:49Z</time>
      </trkpt>
      <trkpt lat="44.68686" lon="4.0797">
        <ele>1320.03</ele>
        <time>2013-08-27T13:29:50Z</time>
      </trkpt>
      <trkpt lat="44.68687" lon="4.0797">
        <ele>1320.51</ele>
        <time>2013-08-27T13:29:52Z</time>
      </trkpt>
      <trkpt lat="44.68688" lon="4.07969">
        <ele>1320.99</ele>
        <time>2013-08-27T13:29:53Z</time>
      </trkpt>
      <trkpt lat="44.68704" lon="4.07961">
        <ele>1321.47</ele>
        <time>2013-08-27T13:30:07Z</time>
      </trkpt>
      <trkpt lat="44.68718" lon="4.07954">
        <ele>1324.83</ele>
        <time>2013-08-27T13:30:20Z</time>
      </trkpt>
      <trkpt lat="44.68728" lon="4.07948">
        <ele>1325.8</ele>
        <time>2013-08-27T13:30:29Z</time>
      </trkpt>
      <trkpt lat="44.68729" lon="4.07947">
        <ele>1325.8</ele>
        <time>2013-08-27T13:30:30Z</time>
      </trkpt>
      <trkpt lat="44.6873" lon="4.07946">
        <ele>1325.8</ele>
        <time>2013-08-27T13:30:31Z</time>
      </trkpt>
      <trkpt lat="44.68731" lon="4.07945">
        <ele>1325.31</ele>
        <time>2013-08-27T13:30:32Z</time>
      </trkpt>
      <trkpt lat="44.68732" lon="4.07944">
        <ele>1326.28</ele>
        <time>2013-08-27T13:30:33Z</time>
      </trkpt>
      <trkpt lat="44.68733" lon="4.07943">
        <ele>1326.28</ele>
        <time>2013-08-27T13:30:34Z</time>
      </trkpt>
      <trkpt lat="44.68734" lon="4.07942">
        <ele>1325.8</ele>
        <time>2013-08-27T13:30:35Z</time>
      </trkpt>
      <trkpt lat="44.68735" lon="4.07941">
        <ele>1325.8</ele>
        <time>2013-08-27T13:30:36Z</time>
      </trkpt>
      <trkpt lat="44.68736" lon="4.0794">
        <ele>1325.8</ele>
        <time>2013-08-27T13:30:37Z</time>
      </trkpt>
      <trkpt lat="44.68742" lon="4.07936">
        <ele>1328.2</ele>
        <time>2013-08-27T13:30:42Z</time>
      </trkpt>
      <trkpt lat="44.68757" lon="4.07923">
        <ele>1330.6</ele>
        <time>2013-08-27T13:30:56Z</time>
      </trkpt>
      <trkpt lat="44.6876" lon="4.0792">
        <ele>1330.6</ele>
        <time>2013-08-27T13:30:59Z</time>
      </trkpt>
      <trkpt lat="44.68761" lon="4.07919">
        <ele>1330.6</ele>
        <time>2013-08-27T13:31:00Z</time>
      </trkpt>
      <trkpt lat="44.68763" lon="4.07918">
        <ele>1331.56</ele>
        <time>2013-08-27T13:31:01Z</time>
      </trkpt>
      <trkpt lat="44.68763" lon="4.07917">
        <ele>1332.04</ele>
        <time>2013-08-27T13:31:02Z</time>
      </trkpt>
      <trkpt lat="44.68765" lon="4.07916">
        <ele>1333.01</ele>
        <time>2013-08-27T13:31:03Z</time>
      </trkpt>
      <trkpt lat="44.68766" lon="4.07915">
        <ele>1333.01</ele>
        <time>2013-08-27T13:31:04Z</time>
      </trkpt>
      <trkpt lat="44.68767" lon="4.07914">
        <ele>1332.52</ele>
        <time>2013-08-27T13:31:05Z</time>
      </trkpt>
      <trkpt lat="44.68782" lon="4.07904">
        <ele>1333.01</ele>
        <time>2013-08-27T13:31:17Z</time>
      </trkpt>
      <trkpt lat="44.68783" lon="4.07904">
        <ele>1333.01</ele>
        <time>2013-08-27T13:31:18Z</time>
      </trkpt>
      <trkpt lat="44.68784" lon="4.07903">
        <ele>1333.01</ele>
        <time>2013-08-27T13:31:19Z</time>
      </trkpt>
      <trkpt lat="44.68786" lon="4.07903">
        <ele>1333.01</ele>
        <time>2013-08-27T13:31:20Z</time>
      </trkpt>
      <trkpt lat="44.68787" lon="4.07902">
        <ele>1333.01</ele>
        <time>2013-08-27T13:31:21Z</time>
      </trkpt>
      <trkpt lat="44.68788" lon="4.07902">
        <ele>1333.01</ele>
        <time>2013-08-27T13:31:22Z</time>
      </trkpt>
      <trkpt lat="44.68803" lon="4.07902">
        <ele>1334.45</ele>
        <time>2013-08-27T13:31:35Z</time>
      </trkpt>
      <trkpt lat="44.68807" lon="4.07906">
        <ele>1334.93</ele>
        <time>2013-08-27T13:31:41Z</time>
      </trkpt>
      <trkpt lat="44.68809" lon="4.07907">
        <ele>1334.93</ele>
        <time>2013-08-27T13:31:42Z</time>
      </trkpt>
      <trkpt lat="44.6881" lon="4.07909">
        <ele>1335.41</ele>
        <time>2013-08-27T13:31:43Z</time>
      </trkpt>
      <trkpt lat="44.68811" lon="4.0791">
        <ele>1334.93</ele>
        <time>2013-08-27T13:31:44Z</time>
      </trkpt>
      <trkpt lat="44.68812" lon="4.07911">
        <ele>1334.93</ele>
        <time>2013-08-27T13:31:45Z</time>
      </trkpt>
      <trkpt lat="44.68813" lon="4.07913">
        <ele>1335.41</ele>
        <time>2013-08-27T13:31:46Z</time>
      </trkpt>
      <trkpt lat="44.68813" lon="4.07914">
        <ele>1335.89</ele>
        <time>2013-08-27T13:31:47Z</time>
      </trkpt>
      <trkpt lat="44.68814" lon="4.07916">
        <ele>1335.89</ele>
        <time>2013-08-27T13:31:48Z</time>
      </trkpt>
      <trkpt lat="44.68815" lon="4.07918">
        <ele>1335.89</ele>
        <time>2013-08-27T13:31:49Z</time>
      </trkpt>
      <trkpt lat="44.68816" lon="4.0792">
        <ele>1335.89</ele>
        <time>2013-08-27T13:31:50Z</time>
      </trkpt>
      <trkpt lat="44.68818" lon="4.07926">
        <ele>1336.85</ele>
        <time>2013-08-27T13:31:54Z</time>
      </trkpt>
      <trkpt lat="44.68819" lon="4.07928">
        <ele>1336.85</ele>
        <time>2013-08-27T13:31:55Z</time>
      </trkpt>
      <trkpt lat="44.6882" lon="4.0793">
        <ele>1336.85</ele>
        <time>2013-08-27T13:31:56Z</time>
      </trkpt>
      <trkpt lat="44.68823" lon="4.07943">
        <ele>1338.29</ele>
        <time>2013-08-27T13:32:04Z</time>
      </trkpt>
      <trkpt lat="44.68823" lon="4.07949">
        <ele>1339.25</ele>
        <time>2013-08-27T13:32:08Z</time>
      </trkpt>
      <trkpt lat="44.68826" lon="4.07957">
        <ele>1338.77</ele>
        <time>2013-08-27T13:32:13Z</time>
      </trkpt>
      <trkpt lat="44.68827" lon="4.07959">
        <ele>1339.25</ele>
        <time>2013-08-27T13:32:14Z</time>
      </trkpt>
      <trkpt lat="44.68828" lon="4.07961">
        <ele>1339.73</ele>
        <time>2013-08-27T13:32:15Z</time>
      </trkpt>
      <trkpt lat="44.6883" lon="4.07963">
        <ele>1339.73</ele>
        <time>2013-08-27T13:32:16Z</time>
      </trkpt>
      <trkpt lat="44.68832" lon="4.07964">
        <ele>1339.73</ele>
        <time>2013-08-27T13:32:17Z</time>
      </trkpt>
      <trkpt lat="44.68834" lon="4.07965">
        <ele>1340.22</ele>
        <time>2013-08-27T13:32:18Z</time>
      </trkpt>
      <trkpt lat="44.68852" lon="4.07967">
        <ele>1340.7</ele>
        <time>2013-08-27T13:32:29Z</time>
      </trkpt>
      <trkpt lat="44.68869" lon="4.07956">
        <ele>1342.62</ele>
        <time>2013-08-27T13:32:40Z</time>
      </trkpt>
      <trkpt lat="44.6888" lon="4.07945">
        <ele>1343.1</ele>
        <time>2013-08-27T13:32:49Z</time>
      </trkpt>
      <trkpt lat="44.68881" lon="4.07945">
        <ele>1343.58</ele>
        <time>2013-08-27T13:32:50Z</time>
      </trkpt>
      <trkpt lat="44.68883" lon="4.07944">
        <ele>1343.1</ele>
        <time>2013-08-27T13:32:51Z</time>
      </trkpt>
      <trkpt lat="44.68884" lon="4.07943">
        <ele>1343.58</ele>
        <time>2013-08-27T13:32:52Z</time>
      </trkpt>
      <trkpt lat="44.68886" lon="4.07942">
        <ele>1344.06</ele>
        <time>2013-08-27T13:32:53Z</time>
      </trkpt>
      <trkpt lat="44.68887" lon="4.07942">
        <ele>1343.58</ele>
        <time>2013-08-27T13:32:54Z</time>
      </trkpt>
      <trkpt lat="44.68888" lon="4.07941">
        <ele>1344.06</ele>
        <time>2013-08-27T13:32:55Z</time>
      </trkpt>
      <trkpt lat="44.68889" lon="4.0794">
        <ele>1344.06</ele>
        <time>2013-08-27T13:32:56Z</time>
      </trkpt>
      <trkpt lat="44.68891" lon="4.07939">
        <ele>1344.06</ele>
        <time>2013-08-27T13:32:57Z</time>
      </trkpt>
      <trkpt lat="44.68901" lon="4.07932">
        <ele>1344.54</ele>
        <time>2013-08-27T13:33:04Z</time>
      </trkpt>
      <trkpt lat="44.68902" lon="4.07932">
        <ele>1344.54</ele>
        <time>2013-08-27T13:33:05Z</time>
      </trkpt>
      <trkpt lat="44.68904" lon="4.07932">
        <ele>1344.06</ele>
        <time>2013-08-27T13:33:06Z</time>
      </trkpt>
      <trkpt lat="44.68908" lon="4.0793">
        <ele>1344.06</ele>
        <time>2013-08-27T13:33:19Z</time>
      </trkpt>
      <trkpt lat="44.68908" lon="4.07931">
        <ele>1344.06</ele>
        <time>2013-08-27T13:33:54Z</time>
      </trkpt>
      <trkpt lat="44.68908" lon="4.07931">
        <ele>1343.58</ele>
        <time>2013-08-27T13:34:30Z</time>
      </trkpt>
      <trkpt lat="44.68907" lon="4.07931">
        <ele>1344.06</ele>
        <time>2013-08-27T13:35:06Z</time>
      </trkpt>
      <trkpt lat="44.68908" lon="4.07931">
        <ele>1344.06</ele>
        <time>2013-08-27T13:35:51Z</time>
      </trkpt>
      <trkpt lat="44.68908" lon="4.07931">
        <ele>1343.58</ele>
        <time>2013-08-27T13:36:28Z</time>
      </trkpt>
      <trkpt lat="44.68908" lon="4.07931">
        <ele>1344.06</ele>
        <time>2013-08-27T13:37:11Z</time>
      </trkpt>
      <trkpt lat="44.68908" lon="4.0793">
        <ele>1344.06</ele>
        <time>2013-08-27T13:37:45Z</time>
      </trkpt>
      <trkpt lat="44.68909" lon="4.07928">
        <ele>1343.58</ele>
        <time>2013-08-27T13:37:47Z</time>
      </trkpt>
      <trkpt lat="44.6891" lon="4.07927">
        <ele>1343.58</ele>
        <time>2013-08-27T13:37:48Z</time>
      </trkpt>
      <trkpt lat="44.68912" lon="4.07926">
        <ele>1344.06</ele>
        <time>2013-08-27T13:37:49Z</time>
      </trkpt>
      <trkpt lat="44.68913" lon="4.07925">
        <ele>1344.06</ele>
        <time>2013-08-27T13:37:50Z</time>
      </trkpt>
      <trkpt lat="44.68915" lon="4.07924">
        <ele>1344.06</ele>
        <time>2013-08-27T13:37:51Z</time>
      </trkpt>
      <trkpt lat="44.68933" lon="4.07913">
        <ele>1344.06</ele>
        <time>2013-08-27T13:38:03Z</time>
      </trkpt>
      <trkpt lat="44.68956" lon="4.07901">
        <ele>1344.54</ele>
        <time>2013-08-27T13:38:16Z</time>
      </trkpt>
      <trkpt lat="44.6898" lon="4.0789">
        <ele>1343.1</ele>
        <time>2013-08-27T13:38:28Z</time>
      </trkpt>
      <trkpt lat="44.6899" lon="4.07883">
        <ele>1343.1</ele>
        <time>2013-08-27T13:38:33Z</time>
      </trkpt>
      <trkpt lat="44.68992" lon="4.07879">
        <ele>1343.1</ele>
        <time>2013-08-27T13:38:42Z</time>
      </trkpt>
      <trkpt lat="44.68992" lon="4.07879">
        <ele>1343.1</ele>
        <time>2013-08-27T13:39:11Z</time>
      </trkpt>
      <trkpt lat="44.68995" lon="4.07876">
        <ele>1343.1</ele>
        <time>2013-08-27T13:39:22Z</time>
      </trkpt>
      <trkpt lat="44.69012" lon="4.07846">
        <ele>1340.22</ele>
        <time>2013-08-27T13:39:32Z</time>
      </trkpt>
      <trkpt lat="44.69013" lon="4.07841">
        <ele>1340.22</ele>
        <time>2013-08-27T13:39:33Z</time>
      </trkpt>
      <trkpt lat="44.69014" lon="4.07835">
        <ele>1339.73</ele>
        <time>2013-08-27T13:39:34Z</time>
      </trkpt>
      <trkpt lat="44.69016" lon="4.07823">
        <ele>1338.77</ele>
        <time>2013-08-27T13:39:36Z</time>
      </trkpt>
      <trkpt lat="44.6902" lon="4.07805">
        <ele>1338.77</ele>
        <time>2013-08-27T13:39:41Z</time>
      </trkpt>
      <trkpt lat="44.69019" lon="4.07803">
        <ele>1337.81</ele>
        <time>2013-08-27T13:39:42Z</time>
      </trkpt>
      <trkpt lat="44.6902" lon="4.07802">
        <ele>1338.29</ele>
        <time>2013-08-27T13:39:43Z</time>
      </trkpt>
      <trkpt lat="44.6902" lon="4.078">
        <ele>1338.29</ele>
        <time>2013-08-27T13:39:44Z</time>
      </trkpt>
      <trkpt lat="44.69021" lon="4.07798">
        <ele>1337.81</ele>
        <time>2013-08-27T13:39:45Z</time>
      </trkpt>
      <trkpt lat="44.69021" lon="4.07795">
        <ele>1337.81</ele>
        <time>2013-08-27T13:39:46Z</time>
      </trkpt>
      <trkpt lat="44.69022" lon="4.07793">
        <ele>1337.33</ele>
        <time>2013-08-27T13:39:47Z</time>
      </trkpt>
      <trkpt lat="44.69022" lon="4.0779">
        <ele>1336.85</ele>
        <time>2013-08-27T13:39:48Z</time>
      </trkpt>
      <trkpt lat="44.69023" lon="4.07786">
        <ele>1336.85</ele>
        <time>2013-08-27T13:39:49Z</time>
      </trkpt>
      <trkpt lat="44.69027" lon="4.07757">
        <ele>1333.49</ele>
        <time>2013-08-27T13:39:55Z</time>
      </trkpt>
      <trkpt lat="44.69029" lon="4.07752">
        <ele>1333.49</ele>
        <time>2013-08-27T13:39:56Z</time>
      </trkpt>
      <trkpt lat="44.69032" lon="4.07702">
        <ele>1330.6</ele>
        <time>2013-08-27T13:40:04Z</time>
      </trkpt>
      <trkpt lat="44.69033" lon="4.07683">
        <ele>1329.64</ele>
        <time>2013-08-27T13:40:07Z</time>
      </trkpt>
      <trkpt lat="44.69037" lon="4.0765">
        <ele>1328.2</ele>
        <time>2013-08-27T13:40:12Z</time>
      </trkpt>
      <trkpt lat="44.69038" lon="4.07644">
        <ele>1329.64</ele>
        <time>2013-08-27T13:40:13Z</time>
      </trkpt>
      <trkpt lat="44.69058" lon="4.07586">
        <ele>1328.2</ele>
        <time>2013-08-27T13:40:25Z</time>
      </trkpt>
      <trkpt lat="44.69083" lon="4.07547">
        <ele>1327.72</ele>
        <time>2013-08-27T13:40:35Z</time>
      </trkpt>
      <trkpt lat="44.69119" lon="4.07498">
        <ele>1326.28</ele>
        <time>2013-08-27T13:40:49Z</time>
      </trkpt>
      <trkpt lat="44.6915" lon="4.07453">
        <ele>1326.28</ele>
        <time>2013-08-27T13:41:04Z</time>
      </trkpt>
      <trkpt lat="44.6918" lon="4.07422">
        <ele>1325.8</ele>
        <time>2013-08-27T13:41:17Z</time>
      </trkpt>
      <trkpt lat="44.69209" lon="4.07397">
        <ele>1325.8</ele>
        <time>2013-08-27T13:41:28Z</time>
      </trkpt>
      <trkpt lat="44.69247" lon="4.07347">
        <ele>1323.87</ele>
        <time>2013-08-27T13:41:41Z</time>
      </trkpt>
      <trkpt lat="44.69275" lon="4.07312">
        <ele>1321.95</ele>
        <time>2013-08-27T13:41:50Z</time>
      </trkpt>
      <trkpt lat="44.69294" lon="4.07292">
        <ele>1320.03</ele>
        <time>2013-08-27T13:41:55Z</time>
      </trkpt>
      <trkpt lat="44.69297" lon="4.07289">
        <ele>1320.03</ele>
        <time>2013-08-27T13:41:56Z</time>
      </trkpt>
      <trkpt lat="44.69313" lon="4.07269">
        <ele>1319.55</ele>
        <time>2013-08-27T13:42:01Z</time>
      </trkpt>
      <trkpt lat="44.69316" lon="4.07265">
        <ele>1319.07</ele>
        <time>2013-08-27T13:42:02Z</time>
      </trkpt>
      <trkpt lat="44.69331" lon="4.07244">
        <ele>1319.07</ele>
        <time>2013-08-27T13:42:07Z</time>
      </trkpt>
      <trkpt lat="44.69334" lon="4.0724">
        <ele>1319.55</ele>
        <time>2013-08-27T13:42:08Z</time>
      </trkpt>
      <trkpt lat="44.69337" lon="4.07237">
        <ele>1319.55</ele>
        <time>2013-08-27T13:42:09Z</time>
      </trkpt>
      <trkpt lat="44.69339" lon="4.07233">
        <ele>1318.59</ele>
        <time>2013-08-27T13:42:10Z</time>
      </trkpt>
      <trkpt lat="44.69341" lon="4.0723">
        <ele>1318.59</ele>
        <time>2013-08-27T13:42:11Z</time>
      </trkpt>
      <trkpt lat="44.69344" lon="4.07227">
        <ele>1319.07</ele>
        <time>2013-08-27T13:42:12Z</time>
      </trkpt>
      <trkpt lat="44.69346" lon="4.07223">
        <ele>1319.07</ele>
        <time>2013-08-27T13:42:13Z</time>
      </trkpt>
      <trkpt lat="44.69371" lon="4.07188">
        <ele>1317.14</ele>
        <time>2013-08-27T13:42:23Z</time>
      </trkpt>
      <trkpt lat="44.69379" lon="4.07177">
        <ele>1315.7</ele>
        <time>2013-08-27T13:42:26Z</time>
      </trkpt>
      <trkpt lat="44.69417" lon="4.07128">
        <ele>1315.22</ele>
        <time>2013-08-27T13:42:39Z</time>
      </trkpt>
      <trkpt lat="44.69429" lon="4.0712">
        <ele>1315.22</ele>
        <time>2013-08-27T13:42:42Z</time>
      </trkpt>
      <trkpt lat="44.69433" lon="4.07117">
        <ele>1314.74</ele>
        <time>2013-08-27T13:42:43Z</time>
      </trkpt>
      <trkpt lat="44.69437" lon="4.07115">
        <ele>1314.74</ele>
        <time>2013-08-27T13:42:44Z</time>
      </trkpt>
      <trkpt lat="44.69451" lon="4.07107">
        <ele>1315.7</ele>
        <time>2013-08-27T13:42:54Z</time>
      </trkpt>
      <trkpt lat="44.69454" lon="4.07108">
        <ele>1314.74</ele>
        <time>2013-08-27T13:43:04Z</time>
      </trkpt>
      <trkpt lat="44.69458" lon="4.07105">
        <ele>1316.18</ele>
        <time>2013-08-27T13:43:10Z</time>
      </trkpt>
      <trkpt lat="44.69457" lon="4.07102">
        <ele>1315.22</ele>
        <time>2013-08-27T13:43:21Z</time>
      </trkpt>
      <trkpt lat="44.69461" lon="4.07098">
        <ele>1314.74</ele>
        <time>2013-08-27T13:43:32Z</time>
      </trkpt>
      <trkpt lat="44.69462" lon="4.07096">
        <ele>1314.74</ele>
        <time>2013-08-27T13:43:33Z</time>
      </trkpt>
      <trkpt lat="44.69467" lon="4.07088">
        <ele>1314.26</ele>
        <time>2013-08-27T13:43:38Z</time>
      </trkpt>
      <trkpt lat="44.69468" lon="4.07087">
        <ele>1314.26</ele>
        <time>2013-08-27T13:43:39Z</time>
      </trkpt>
      <trkpt lat="44.6947" lon="4.07084">
        <ele>1314.26</ele>
        <time>2013-08-27T13:43:40Z</time>
      </trkpt>
      <trkpt lat="44.69486" lon="4.07049">
        <ele>1316.66</ele>
        <time>2013-08-27T13:43:56Z</time>
      </trkpt>
      <trkpt lat="44.69492" lon="4.07013">
        <ele>1318.1</ele>
        <time>2013-08-27T13:44:11Z</time>
      </trkpt>
      <trkpt lat="44.69497" lon="4.06979">
        <ele>1320.51</ele>
        <time>2013-08-27T13:44:25Z</time>
      </trkpt>
      <trkpt lat="44.69499" lon="4.06946">
        <ele>1321.47</ele>
        <time>2013-08-27T13:44:39Z</time>
      </trkpt>
      <trkpt lat="44.69515" lon="4.06918">
        <ele>1322.91</ele>
        <time>2013-08-27T13:44:54Z</time>
      </trkpt>
      <trkpt lat="44.69529" lon="4.06898">
        <ele>1325.31</ele>
        <time>2013-08-27T13:45:08Z</time>
      </trkpt>
      <trkpt lat="44.69536" lon="4.06889">
        <ele>1326.28</ele>
        <time>2013-08-27T13:45:21Z</time>
      </trkpt>
      <trkpt lat="44.69536" lon="4.06889">
        <ele>1325.8</ele>
        <time>2013-08-27T13:45:26Z</time>
      </trkpt>
      <trkpt lat="44.69537" lon="4.06889">
        <ele>1326.76</ele>
        <time>2013-08-27T13:45:28Z</time>
      </trkpt>
      <trkpt lat="44.69537" lon="4.06889">
        <ele>1326.28</ele>
        <time>2013-08-27T13:45:39Z</time>
      </trkpt>
      <trkpt lat="44.69539" lon="4.06889">
        <ele>1325.31</ele>
        <time>2013-08-27T13:45:50Z</time>
      </trkpt>
      <trkpt lat="44.6954" lon="4.06886">
        <ele>1327.24</ele>
        <time>2013-08-27T13:46:15Z</time>
      </trkpt>
      <trkpt lat="44.69545" lon="4.0688">
        <ele>1326.76</ele>
        <time>2013-08-27T13:46:29Z</time>
      </trkpt>
      <trkpt lat="44.69548" lon="4.06878">
        <ele>1326.76</ele>
        <time>2013-08-27T13:46:32Z</time>
      </trkpt>
      <trkpt lat="44.69549" lon="4.06877">
        <ele>1326.76</ele>
        <time>2013-08-27T13:46:33Z</time>
      </trkpt>
      <trkpt lat="44.69566" lon="4.06858">
        <ele>1328.68</ele>
        <time>2013-08-27T13:46:46Z</time>
      </trkpt>
      <trkpt lat="44.69583" lon="4.06834">
        <ele>1330.12</ele>
        <time>2013-08-27T13:47:01Z</time>
      </trkpt>
      <trkpt lat="44.69584" lon="4.06832">
        <ele>1330.12</ele>
        <time>2013-08-27T13:47:02Z</time>
      </trkpt>
      <trkpt lat="44.69584" lon="4.0683">
        <ele>1330.6</ele>
        <time>2013-08-27T13:47:03Z</time>
      </trkpt>
      <trkpt lat="44.69592" lon="4.06804">
        <ele>1332.52</ele>
        <time>2013-08-27T13:47:15Z</time>
      </trkpt>
      <trkpt lat="44.696" lon="4.06777">
        <ele>1334.93</ele>
        <time>2013-08-27T13:47:28Z</time>
      </trkpt>
      <trkpt lat="44.69606" lon="4.06747">
        <ele>1336.37</ele>
        <time>2013-08-27T13:47:42Z</time>
      </trkpt>
      <trkpt lat="44.6961" lon="4.06726">
        <ele>1338.29</ele>
        <time>2013-08-27T13:47:52Z</time>
      </trkpt>
      <trkpt lat="44.69615" lon="4.06693">
        <ele>1340.22</ele>
        <time>2013-08-27T13:48:08Z</time>
      </trkpt>
      <trkpt lat="44.6962" lon="4.06659">
        <ele>1342.62</ele>
        <time>2013-08-27T13:48:24Z</time>
      </trkpt>
      <trkpt lat="44.69623" lon="4.06619">
        <ele>1343.58</ele>
        <time>2013-08-27T13:48:42Z</time>
      </trkpt>
      <trkpt lat="44.69633" lon="4.0659">
        <ele>1345.02</ele>
        <time>2013-08-27T13:48:56Z</time>
      </trkpt>
      <trkpt lat="44.6965" lon="4.06564">
        <ele>1346.46</ele>
        <time>2013-08-27T13:49:11Z</time>
      </trkpt>
      <trkpt lat="44.69672" lon="4.06536">
        <ele>1346.94</ele>
        <time>2013-08-27T13:49:24Z</time>
      </trkpt>
      <trkpt lat="44.6969" lon="4.06509">
        <ele>1345.98</ele>
        <time>2013-08-27T13:49:34Z</time>
      </trkpt>
      <trkpt lat="44.69702" lon="4.06489">
        <ele>1345.02</ele>
        <time>2013-08-27T13:49:39Z</time>
      </trkpt>
      <trkpt lat="44.69714" lon="4.06464">
        <ele>1344.54</ele>
        <time>2013-08-27T13:49:48Z</time>
      </trkpt>
      <trkpt lat="44.69716" lon="4.0646">
        <ele>1344.06</ele>
        <time>2013-08-27T13:49:50Z</time>
      </trkpt>
      <trkpt lat="44.69716" lon="4.06457">
        <ele>1344.06</ele>
        <time>2013-08-27T13:49:51Z</time>
      </trkpt>
      <trkpt lat="44.69716" lon="4.06454">
        <ele>1344.06</ele>
        <time>2013-08-27T13:49:52Z</time>
      </trkpt>
      <trkpt lat="44.69716" lon="4.06431">
        <ele>1343.1</ele>
        <time>2013-08-27T13:50:05Z</time>
      </trkpt>
      <trkpt lat="44.69716" lon="4.06429">
        <ele>1343.1</ele>
        <time>2013-08-27T13:50:06Z</time>
      </trkpt>
      <trkpt lat="44.69716" lon="4.06426">
        <ele>1343.58</ele>
        <time>2013-08-27T13:50:08Z</time>
      </trkpt>
      <trkpt lat="44.69716" lon="4.06422">
        <ele>1343.1</ele>
        <time>2013-08-27T13:50:18Z</time>
      </trkpt>
      <trkpt lat="44.69717" lon="4.06425">
        <ele>1343.1</ele>
        <time>2013-08-27T13:50:39Z</time>
      </trkpt>
      <trkpt lat="44.69717" lon="4.06431">
        <ele>1343.1</ele>
        <time>2013-08-27T13:50:50Z</time>
      </trkpt>
      <trkpt lat="44.6972" lon="4.06437">
        <ele>1342.62</ele>
        <time>2013-08-27T13:50:53Z</time>
      </trkpt>
      <trkpt lat="44.69721" lon="4.06438">
        <ele>1343.58</ele>
        <time>2013-08-27T13:50:54Z</time>
      </trkpt>
      <trkpt lat="44.69722" lon="4.0644">
        <ele>1343.58</ele>
        <time>2013-08-27T13:50:55Z</time>
      </trkpt>
      <trkpt lat="44.69722" lon="4.06443">
        <ele>1343.58</ele>
        <time>2013-08-27T13:50:56Z</time>
      </trkpt>
      <trkpt lat="44.69723" lon="4.06445">
        <ele>1343.58</ele>
        <time>2013-08-27T13:50:57Z</time>
      </trkpt>
      <trkpt lat="44.69724" lon="4.06447">
        <ele>1344.06</ele>
        <time>2013-08-27T13:50:58Z</time>
      </trkpt>
      <trkpt lat="44.69725" lon="4.0645">
        <ele>1343.58</ele>
        <time>2013-08-27T13:50:59Z</time>
      </trkpt>
      <trkpt lat="44.69728" lon="4.06458">
        <ele>1343.58</ele>
        <time>2013-08-27T13:51:03Z</time>
      </trkpt>
      <trkpt lat="44.69749" lon="4.06496">
        <ele>1343.58</ele>
        <time>2013-08-27T13:51:15Z</time>
      </trkpt>
      <trkpt lat="44.69772" lon="4.06542">
        <ele>1343.58</ele>
        <time>2013-08-27T13:51:28Z</time>
      </trkpt>
      <trkpt lat="44.69795" lon="4.06581">
        <ele>1343.1</ele>
        <time>2013-08-27T13:51:40Z</time>
      </trkpt>
      <trkpt lat="44.69814" lon="4.0661">
        <ele>1341.18</ele>
        <time>2013-08-27T13:51:50Z</time>
      </trkpt>
      <trkpt lat="44.69825" lon="4.06646">
        <ele>1338.77</ele>
        <time>2013-08-27T13:51:57Z</time>
      </trkpt>
      <trkpt lat="44.69835" lon="4.06681">
        <ele>1336.37</ele>
        <time>2013-08-27T13:52:03Z</time>
      </trkpt>
      <trkpt lat="44.69842" lon="4.06712">
        <ele>1333.01</ele>
        <time>2013-08-27T13:52:07Z</time>
      </trkpt>
      <trkpt lat="44.69854" lon="4.06761">
        <ele>1330.12</ele>
        <time>2013-08-27T13:52:12Z</time>
      </trkpt>
      <trkpt lat="44.69859" lon="4.0678">
        <ele>1329.16</ele>
        <time>2013-08-27T13:52:14Z</time>
      </trkpt>
      <trkpt lat="44.69862" lon="4.06789">
        <ele>1329.16</ele>
        <time>2013-08-27T13:52:15Z</time>
      </trkpt>
      <trkpt lat="44.6987" lon="4.06807">
        <ele>1329.16</ele>
        <time>2013-08-27T13:52:17Z</time>
      </trkpt>
      <trkpt lat="44.69895" lon="4.06851">
        <ele>1329.16</ele>
        <time>2013-08-27T13:52:25Z</time>
      </trkpt>
      <trkpt lat="44.69897" lon="4.06853">
        <ele>1329.64</ele>
        <time>2013-08-27T13:52:26Z</time>
      </trkpt>
      <trkpt lat="44.69899" lon="4.06856">
        <ele>1329.64</ele>
        <time>2013-08-27T13:52:27Z</time>
      </trkpt>
      <trkpt lat="44.69921" lon="4.06889">
        <ele>1330.6</ele>
        <time>2013-08-27T13:52:36Z</time>
      </trkpt>
      <trkpt lat="44.69923" lon="4.06893">
        <ele>1330.6</ele>
        <time>2013-08-27T13:52:37Z</time>
      </trkpt>
      <trkpt lat="44.69925" lon="4.06897">
        <ele>1331.08</ele>
        <time>2013-08-27T13:52:38Z</time>
      </trkpt>
      <trkpt lat="44.69928" lon="4.06901">
        <ele>1331.56</ele>
        <time>2013-08-27T13:52:39Z</time>
      </trkpt>
      <trkpt lat="44.69929" lon="4.06904">
        <ele>1332.04</ele>
        <time>2013-08-27T13:52:40Z</time>
      </trkpt>
      <trkpt lat="44.69943" lon="4.06927">
        <ele>1333.49</ele>
        <time>2013-08-27T13:52:50Z</time>
      </trkpt>
      <trkpt lat="44.69944" lon="4.0693">
        <ele>1333.97</ele>
        <time>2013-08-27T13:52:51Z</time>
      </trkpt>
      <trkpt lat="44.69945" lon="4.06932">
        <ele>1333.49</ele>
        <time>2013-08-27T13:52:52Z</time>
      </trkpt>
      <trkpt lat="44.69946" lon="4.06935">
        <ele>1333.97</ele>
        <time>2013-08-27T13:52:53Z</time>
      </trkpt>
      <trkpt lat="44.69947" lon="4.06938">
        <ele>1333.97</ele>
        <time>2013-08-27T13:52:54Z</time>
      </trkpt>
      <trkpt lat="44.69969" lon="4.06978">
        <ele>1333.97</ele>
        <time>2013-08-27T13:53:07Z</time>
      </trkpt>
      <trkpt lat="44.69993" lon="4.07018">
        <ele>1331.08</ele>
        <time>2013-08-27T13:53:18Z</time>
      </trkpt>
      <trkpt lat="44.69998" lon="4.0703">
        <ele>1330.6</ele>
        <time>2013-08-27T13:53:20Z</time>
      </trkpt>
      <trkpt lat="44.70015" lon="4.07057">
        <ele>1327.24</ele>
        <time>2013-08-27T13:53:24Z</time>
      </trkpt>
      <trkpt lat="44.70043" lon="4.07127">
        <ele>1325.31</ele>
        <time>2013-08-27T13:53:34Z</time>
      </trkpt>
      <trkpt lat="44.70046" lon="4.07134">
        <ele>1325.31</ele>
        <time>2013-08-27T13:53:35Z</time>
      </trkpt>
      <trkpt lat="44.70049" lon="4.0714">
        <ele>1324.83</ele>
        <time>2013-08-27T13:53:36Z</time>
      </trkpt>
      <trkpt lat="44.70052" lon="4.07147">
        <ele>1324.35</ele>
        <time>2013-08-27T13:53:37Z</time>
      </trkpt>
      <trkpt lat="44.70055" lon="4.07153">
        <ele>1323.87</ele>
        <time>2013-08-27T13:53:38Z</time>
      </trkpt>
      <trkpt lat="44.70089" lon="4.0723">
        <ele>1322.43</ele>
        <time>2013-08-27T13:53:52Z</time>
      </trkpt>
      <trkpt lat="44.7012" lon="4.07289">
        <ele>1321.95</ele>
        <time>2013-08-27T13:54:06Z</time>
      </trkpt>
      <trkpt lat="44.70146" lon="4.07339">
        <ele>1322.43</ele>
        <time>2013-08-27T13:54:19Z</time>
      </trkpt>
      <trkpt lat="44.70174" lon="4.07392">
        <ele>1322.91</ele>
        <time>2013-08-27T13:54:34Z</time>
      </trkpt>
      <trkpt lat="44.70193" lon="4.07428">
        <ele>1324.83</ele>
        <time>2013-08-27T13:54:47Z</time>
      </trkpt>
      <trkpt lat="44.70213" lon="4.0747">
        <ele>1325.8</ele>
        <time>2013-08-27T13:55:02Z</time>
      </trkpt>
      <trkpt lat="44.70232" lon="4.07508">
        <ele>1327.72</ele>
        <time>2013-08-27T13:55:16Z</time>
      </trkpt>
      <trkpt lat="44.7025" lon="4.07539">
        <ele>1328.2</ele>
        <time>2013-08-27T13:55:28Z</time>
      </trkpt>
      <trkpt lat="44.7027" lon="4.07584">
        <ele>1329.16</ele>
        <time>2013-08-27T13:55:42Z</time>
      </trkpt>
      <trkpt lat="44.70295" lon="4.07637">
        <ele>1330.6</ele>
        <time>2013-08-27T13:55:56Z</time>
      </trkpt>
      <trkpt lat="44.70313" lon="4.0768">
        <ele>1331.08</ele>
        <time>2013-08-27T13:56:08Z</time>
      </trkpt>
      <trkpt lat="44.70329" lon="4.07718">
        <ele>1332.52</ele>
        <time>2013-08-27T13:56:20Z</time>
      </trkpt>
      <trkpt lat="44.70344" lon="4.0776">
        <ele>1333.01</ele>
        <time>2013-08-27T13:56:34Z</time>
      </trkpt>
      <trkpt lat="44.70356" lon="4.0778">
        <ele>1331.56</ele>
        <time>2013-08-27T13:56:40Z</time>
      </trkpt>
      <trkpt lat="44.70358" lon="4.07786">
        <ele>1331.08</ele>
        <time>2013-08-27T13:56:41Z</time>
      </trkpt>
      <trkpt lat="44.7036" lon="4.07791">
        <ele>1330.6</ele>
        <time>2013-08-27T13:56:42Z</time>
      </trkpt>
      <trkpt lat="44.70363" lon="4.07795">
        <ele>1330.12</ele>
        <time>2013-08-27T13:56:43Z</time>
      </trkpt>
      <trkpt lat="44.70366" lon="4.078">
        <ele>1329.16</ele>
        <time>2013-08-27T13:56:44Z</time>
      </trkpt>
      <trkpt lat="44.70369" lon="4.07805">
        <ele>1328.2</ele>
        <time>2013-08-27T13:56:45Z</time>
      </trkpt>
      <trkpt lat="44.70372" lon="4.0781">
        <ele>1327.72</ele>
        <time>2013-08-27T13:56:46Z</time>
      </trkpt>
      <trkpt lat="44.70376" lon="4.07815">
        <ele>1327.24</ele>
        <time>2013-08-27T13:56:47Z</time>
      </trkpt>
      <trkpt lat="44.70379" lon="4.07819">
        <ele>1327.24</ele>
        <time>2013-08-27T13:56:48Z</time>
      </trkpt>
      <trkpt lat="44.70387" lon="4.07827">
        <ele>1326.28</ele>
        <time>2013-08-27T13:56:50Z</time>
      </trkpt>
      <trkpt lat="44.70398" lon="4.07841">
        <ele>1324.83</ele>
        <time>2013-08-27T13:56:53Z</time>
      </trkpt>
      <trkpt lat="44.70401" lon="4.07846">
        <ele>1324.35</ele>
        <time>2013-08-27T13:56:54Z</time>
      </trkpt>
      <trkpt lat="44.70408" lon="4.07857">
        <ele>1323.39</ele>
        <time>2013-08-27T13:56:56Z</time>
      </trkpt>
      <trkpt lat="44.70411" lon="4.07861">
        <ele>1323.39</ele>
        <time>2013-08-27T13:56:57Z</time>
      </trkpt>
      <trkpt lat="44.70417" lon="4.07869">
        <ele>1322.91</ele>
        <time>2013-08-27T13:56:59Z</time>
      </trkpt>
      <trkpt lat="44.70427" lon="4.07889">
        <ele>1319.55</ele>
        <time>2013-08-27T13:57:03Z</time>
      </trkpt>
      <trkpt lat="44.70435" lon="4.079">
        <ele>1318.1</ele>
        <time>2013-08-27T13:57:06Z</time>
      </trkpt>
      <trkpt lat="44.70445" lon="4.07914">
        <ele>1315.22</ele>
        <time>2013-08-27T13:57:10Z</time>
      </trkpt>
      <trkpt lat="44.70452" lon="4.07926">
        <ele>1313.78</ele>
        <time>2013-08-27T13:57:13Z</time>
      </trkpt>
      <trkpt lat="44.70466" lon="4.07939">
        <ele>1310.9</ele>
        <time>2013-08-27T13:57:19Z</time>
      </trkpt>
      <trkpt lat="44.70472" lon="4.07945">
        <ele>1309.45</ele>
        <time>2013-08-27T13:57:23Z</time>
      </trkpt>
      <trkpt lat="44.70474" lon="4.07947">
        <ele>1308.97</ele>
        <time>2013-08-27T13:57:24Z</time>
      </trkpt>
      <trkpt lat="44.70476" lon="4.07947">
        <ele>1308.49</ele>
        <time>2013-08-27T13:57:25Z</time>
      </trkpt>
      <trkpt lat="44.70478" lon="4.07948">
        <ele>1308.49</ele>
        <time>2013-08-27T13:57:26Z</time>
      </trkpt>
      <trkpt lat="44.70481" lon="4.07949">
        <ele>1308.49</ele>
        <time>2013-08-27T13:57:27Z</time>
      </trkpt>
      <trkpt lat="44.70482" lon="4.0795">
        <ele>1308.49</ele>
        <time>2013-08-27T13:57:28Z</time>
      </trkpt>
      <trkpt lat="44.70487" lon="4.07952">
        <ele>1308.01</ele>
        <time>2013-08-27T13:57:44Z</time>
      </trkpt>
      <trkpt lat="44.70487" lon="4.07952">
        <ele>1308.49</ele>
        <time>2013-08-27T13:58:07Z</time>
      </trkpt>
      <trkpt lat="44.70488" lon="4.07953">
        <ele>1308.01</ele>
        <time>2013-08-27T13:58:30Z</time>
      </trkpt>
      <trkpt lat="44.70488" lon="4.07953">
        <ele>1306.57</ele>
        <time>2013-08-27T13:58:56Z</time>
      </trkpt>
      <trkpt lat="44.70489" lon="4.07952">
        <ele>1308.49</ele>
        <time>2013-08-27T13:59:02Z</time>
      </trkpt>
      <trkpt lat="44.70489" lon="4.07952">
        <ele>1308.97</ele>
        <time>2013-08-27T13:59:17Z</time>
      </trkpt>
      <trkpt lat="44.70489" lon="4.07952">
        <ele>1308.97</ele>
        <time>2013-08-27T13:59:30Z</time>
      </trkpt>
      <trkpt lat="44.70488" lon="4.07953">
        <ele>1305.61</ele>
        <time>2013-08-27T13:59:55Z</time>
      </trkpt>
      <trkpt lat="44.70488" lon="4.07953">
        <ele>1308.01</ele>
        <time>2013-08-27T14:00:20Z</time>
      </trkpt>
      <trkpt lat="44.70488" lon="4.07953">
        <ele>1306.09</ele>
        <time>2013-08-27T14:00:46Z</time>
      </trkpt>
      <trkpt lat="44.70489" lon="4.07953">
        <ele>1309.45</ele>
        <time>2013-08-27T14:01:08Z</time>
      </trkpt>
      <trkpt lat="44.70489" lon="4.07953">
        <ele>1308.01</ele>
        <time>2013-08-27T14:01:33Z</time>
      </trkpt>
      <trkpt lat="44.7049" lon="4.07953">
        <ele>1308.01</ele>
        <time>2013-08-27T14:01:58Z</time>
      </trkpt>
      <trkpt lat="44.7049" lon="4.07953">
        <ele>1308.01</ele>
        <time>2013-08-27T14:02:29Z</time>
      </trkpt>
      <trkpt lat="44.7049" lon="4.07953">
        <ele>1308.01</ele>
        <time>2013-08-27T14:02:56Z</time>
      </trkpt>
      <trkpt lat="44.70489" lon="4.07953">
        <ele>1307.53</ele>
        <time>2013-08-27T14:03:22Z</time>
      </trkpt>
      <trkpt lat="44.70491" lon="4.07953">
        <ele>1307.53</ele>
        <time>2013-08-27T14:03:49Z</time>
      </trkpt>
      <trkpt lat="44.70502" lon="4.07961">
        <ele>1305.13</ele>
        <time>2013-08-27T14:03:54Z</time>
      </trkpt>
      <trkpt lat="44.70523" lon="4.07974">
        <ele>1303.2</ele>
        <time>2013-08-27T14:04:00Z</time>
      </trkpt>
      <trkpt lat="44.70527" lon="4.07975">
        <ele>1302.24</ele>
        <time>2013-08-27T14:04:01Z</time>
      </trkpt>
      <trkpt lat="44.70532" lon="4.07978">
        <ele>1301.28</ele>
        <time>2013-08-27T14:04:02Z</time>
      </trkpt>
      <trkpt lat="44.70549" lon="4.07991">
        <ele>1299.36</ele>
        <time>2013-08-27T14:04:06Z</time>
      </trkpt>
      <trkpt lat="44.70555" lon="4.07994">
        <ele>1298.88</ele>
        <time>2013-08-27T14:04:07Z</time>
      </trkpt>
      <trkpt lat="44.70561" lon="4.07999">
        <ele>1299.36</ele>
        <time>2013-08-27T14:04:08Z</time>
      </trkpt>
      <trkpt lat="44.70583" lon="4.08016">
        <ele>1298.4</ele>
        <time>2013-08-27T14:04:11Z</time>
      </trkpt>
      <trkpt lat="44.70603" lon="4.08029">
        <ele>1297.44</ele>
        <time>2013-08-27T14:04:15Z</time>
      </trkpt>
      <trkpt lat="44.70618" lon="4.08043">
        <ele>1297.44</ele>
        <time>2013-08-27T14:04:19Z</time>
      </trkpt>
      <trkpt lat="44.70628" lon="4.08047">
        <ele>1296.96</ele>
        <time>2013-08-27T14:04:23Z</time>
      </trkpt>
      <trkpt lat="44.70638" lon="4.08064">
        <ele>1295.99</ele>
        <time>2013-08-27T14:04:27Z</time>
      </trkpt>
      <trkpt lat="44.70641" lon="4.0807">
        <ele>1295.03</ele>
        <time>2013-08-27T14:04:28Z</time>
      </trkpt>
      <trkpt lat="44.70644" lon="4.08075">
        <ele>1294.55</ele>
        <time>2013-08-27T14:04:29Z</time>
      </trkpt>
      <trkpt lat="44.70646" lon="4.0808">
        <ele>1294.07</ele>
        <time>2013-08-27T14:04:30Z</time>
      </trkpt>
      <trkpt lat="44.70648" lon="4.08085">
        <ele>1293.11</ele>
        <time>2013-08-27T14:04:31Z</time>
      </trkpt>
      <trkpt lat="44.7065" lon="4.08089">
        <ele>1293.11</ele>
        <time>2013-08-27T14:04:32Z</time>
      </trkpt>
      <trkpt lat="44.70653" lon="4.08099">
        <ele>1291.67</ele>
        <time>2013-08-27T14:04:34Z</time>
      </trkpt>
      <trkpt lat="44.70657" lon="4.08113">
        <ele>1290.23</ele>
        <time>2013-08-27T14:04:37Z</time>
      </trkpt>
      <trkpt lat="44.70659" lon="4.08119">
        <ele>1290.23</ele>
        <time>2013-08-27T14:04:38Z</time>
      </trkpt>
      <trkpt lat="44.7066" lon="4.08126">
        <ele>1289.75</ele>
        <time>2013-08-27T14:04:39Z</time>
      </trkpt>
      <trkpt lat="44.70667" lon="4.08159">
        <ele>1287.82</ele>
        <time>2013-08-27T14:04:43Z</time>
      </trkpt>
      <trkpt lat="44.70669" lon="4.08177">
        <ele>1285.9</ele>
        <time>2013-08-27T14:04:45Z</time>
      </trkpt>
      <trkpt lat="44.70668" lon="4.08194">
        <ele>1284.94</ele>
        <time>2013-08-27T14:04:47Z</time>
      </trkpt>
      <trkpt lat="44.70668" lon="4.08201">
        <ele>1285.42</ele>
        <time>2013-08-27T14:04:48Z</time>
      </trkpt>
      <trkpt lat="44.70669" lon="4.08205">
        <ele>1286.38</ele>
        <time>2013-08-27T14:04:49Z</time>
      </trkpt>
      <trkpt lat="44.7067" lon="4.08208">
        <ele>1286.38</ele>
        <time>2013-08-27T14:04:50Z</time>
      </trkpt>
      <trkpt lat="44.7067" lon="4.0821">
        <ele>1286.38</ele>
        <time>2013-08-27T14:04:51Z</time>
      </trkpt>
      <trkpt lat="44.7067" lon="4.08214">
        <ele>1285.9</ele>
        <time>2013-08-27T14:04:52Z</time>
      </trkpt>
      <trkpt lat="44.7067" lon="4.08217">
        <ele>1285.9</ele>
        <time>2013-08-27T14:04:53Z</time>
      </trkpt>
      <trkpt lat="44.70671" lon="4.08221">
        <ele>1285.9</ele>
        <time>2013-08-27T14:04:54Z</time>
      </trkpt>
      <trkpt lat="44.70672" lon="4.08225">
        <ele>1286.38</ele>
        <time>2013-08-27T14:04:55Z</time>
      </trkpt>
      <trkpt lat="44.70673" lon="4.08229">
        <ele>1285.9</ele>
        <time>2013-08-27T14:04:56Z</time>
      </trkpt>
      <trkpt lat="44.70674" lon="4.08233">
        <ele>1285.9</ele>
        <time>2013-08-27T14:04:57Z</time>
      </trkpt>
      <trkpt lat="44.70675" lon="4.08236">
        <ele>1285.9</ele>
        <time>2013-08-27T14:04:58Z</time>
      </trkpt>
      <trkpt lat="44.70692" lon="4.0828">
        <ele>1286.38</ele>
        <time>2013-08-27T14:05:12Z</time>
      </trkpt>
      <trkpt lat="44.70714" lon="4.08312">
        <ele>1286.38</ele>
        <time>2013-08-27T14:05:25Z</time>
      </trkpt>
      <trkpt lat="44.70749" lon="4.08368">
        <ele>1285.9</ele>
        <time>2013-08-27T14:05:41Z</time>
      </trkpt>
      <trkpt lat="44.70767" lon="4.08415">
        <ele>1286.38</ele>
        <time>2013-08-27T14:05:53Z</time>
      </trkpt>
      <trkpt lat="44.70775" lon="4.08458">
        <ele>1288.3</ele>
        <time>2013-08-27T14:06:06Z</time>
      </trkpt>
      <trkpt lat="44.70766" lon="4.08507">
        <ele>1287.82</ele>
        <time>2013-08-27T14:06:20Z</time>
      </trkpt>
      <trkpt lat="44.70761" lon="4.08564">
        <ele>1289.27</ele>
        <time>2013-08-27T14:06:36Z</time>
      </trkpt>
      <trkpt lat="44.70772" lon="4.0862">
        <ele>1287.82</ele>
        <time>2013-08-27T14:06:49Z</time>
      </trkpt>
      <trkpt lat="44.70797" lon="4.08725">
        <ele>1285.9</ele>
        <time>2013-08-27T14:07:03Z</time>
      </trkpt>
      <trkpt lat="44.70809" lon="4.0877">
        <ele>1286.86</ele>
        <time>2013-08-27T14:07:13Z</time>
      </trkpt>
      <trkpt lat="44.70821" lon="4.08797">
        <ele>1287.34</ele>
        <time>2013-08-27T14:07:25Z</time>
      </trkpt>
      <trkpt lat="44.7084" lon="4.08831">
        <ele>1287.34</ele>
        <time>2013-08-27T14:07:39Z</time>
      </trkpt>
      <trkpt lat="44.70863" lon="4.08885">
        <ele>1285.9</ele>
        <time>2013-08-27T14:07:54Z</time>
      </trkpt>
      <trkpt lat="44.70881" lon="4.08937">
        <ele>1285.42</ele>
        <time>2013-08-27T14:08:06Z</time>
      </trkpt>
      <trkpt lat="44.709" lon="4.08981">
        <ele>1285.9</ele>
        <time>2013-08-27T14:08:19Z</time>
      </trkpt>
      <trkpt lat="44.70902" lon="4.09034">
        <ele>1284.94</ele>
        <time>2013-08-27T14:08:32Z</time>
      </trkpt>
      <trkpt lat="44.70885" lon="4.09079">
        <ele>1287.82</ele>
        <time>2013-08-27T14:08:45Z</time>
      </trkpt>
      <trkpt lat="44.70869" lon="4.09118">
        <ele>1289.27</ele>
        <time>2013-08-27T14:09:00Z</time>
      </trkpt>
      <trkpt lat="44.70861" lon="4.09136">
        <ele>1289.27</ele>
        <time>2013-08-27T14:09:11Z</time>
      </trkpt>
      <trkpt lat="44.70848" lon="4.09169">
        <ele>1290.71</ele>
        <time>2013-08-27T14:09:23Z</time>
      </trkpt>
      <trkpt lat="44.70834" lon="4.09221">
        <ele>1294.07</ele>
        <time>2013-08-27T14:09:40Z</time>
      </trkpt>
      <trkpt lat="44.70825" lon="4.09264">
        <ele>1296.48</ele>
        <time>2013-08-27T14:09:54Z</time>
      </trkpt>
      <trkpt lat="44.7082" lon="4.09317">
        <ele>1299.36</ele>
        <time>2013-08-27T14:10:11Z</time>
      </trkpt>
      <trkpt lat="44.70827" lon="4.09371">
        <ele>1301.28</ele>
        <time>2013-08-27T14:10:27Z</time>
      </trkpt>
      <trkpt lat="44.7084" lon="4.09435">
        <ele>1302.72</ele>
        <time>2013-08-27T14:10:46Z</time>
      </trkpt>
      <trkpt lat="44.70852" lon="4.09479">
        <ele>1304.65</ele>
        <time>2013-08-27T14:11:00Z</time>
      </trkpt>
      <trkpt lat="44.70865" lon="4.09522">
        <ele>1305.13</ele>
        <time>2013-08-27T14:11:13Z</time>
      </trkpt>
      <trkpt lat="44.7088" lon="4.09576">
        <ele>1307.05</ele>
        <time>2013-08-27T14:11:30Z</time>
      </trkpt>
      <trkpt lat="44.70893" lon="4.09623">
        <ele>1309.45</ele>
        <time>2013-08-27T14:11:45Z</time>
      </trkpt>
      <trkpt lat="44.70908" lon="4.09688">
        <ele>1311.38</ele>
        <time>2013-08-27T14:12:04Z</time>
      </trkpt>
      <trkpt lat="44.70916" lon="4.09741">
        <ele>1312.82</ele>
        <time>2013-08-27T14:12:19Z</time>
      </trkpt>
      <trkpt lat="44.70916" lon="4.09803">
        <ele>1314.74</ele>
        <time>2013-08-27T14:12:36Z</time>
      </trkpt>
      <trkpt lat="44.70929" lon="4.09866">
        <ele>1314.74</ele>
        <time>2013-08-27T14:12:52Z</time>
      </trkpt>
      <trkpt lat="44.70963" lon="4.09898">
        <ele>1314.74</ele>
        <time>2013-08-27T14:13:07Z</time>
      </trkpt>
      <trkpt lat="44.71" lon="4.09917">
        <ele>1314.26</ele>
        <time>2013-08-27T14:13:21Z</time>
      </trkpt>
      <trkpt lat="44.71046" lon="4.09936">
        <ele>1312.82</ele>
        <time>2013-08-27T14:13:36Z</time>
      </trkpt>
      <trkpt lat="44.71092" lon="4.09966">
        <ele>1312.34</ele>
        <time>2013-08-27T14:13:49Z</time>
      </trkpt>
      <trkpt lat="44.71123" lon="4.09994">
        <ele>1308.97</ele>
        <time>2013-08-27T14:13:57Z</time>
      </trkpt>
      <trkpt lat="44.71179" lon="4.10055">
        <ele>1307.53</ele>
        <time>2013-08-27T14:14:11Z</time>
      </trkpt>
      <trkpt lat="44.71183" lon="4.10059">
        <ele>1307.53</ele>
        <time>2013-08-27T14:14:14Z</time>
      </trkpt>
      <trkpt lat="44.71184" lon="4.10062">
        <ele>1307.05</ele>
        <time>2013-08-27T14:14:16Z</time>
      </trkpt>
      <trkpt lat="44.71185" lon="4.10069">
        <ele>1306.09</ele>
        <time>2013-08-27T14:14:26Z</time>
      </trkpt>
      <trkpt lat="44.71186" lon="4.10071">
        <ele>1306.09</ele>
        <time>2013-08-27T14:14:45Z</time>
      </trkpt>
      <trkpt lat="44.71187" lon="4.10075">
        <ele>1305.61</ele>
        <time>2013-08-27T14:14:46Z</time>
      </trkpt>
      <trkpt lat="44.71189" lon="4.10078">
        <ele>1305.13</ele>
        <time>2013-08-27T14:14:47Z</time>
      </trkpt>
      <trkpt lat="44.71192" lon="4.10085">
        <ele>1304.65</ele>
        <time>2013-08-27T14:14:55Z</time>
      </trkpt>
      <trkpt lat="44.71193" lon="4.10085">
        <ele>1305.13</ele>
        <time>2013-08-27T14:15:07Z</time>
      </trkpt>
      <trkpt lat="44.71195" lon="4.10086">
        <ele>1305.13</ele>
        <time>2013-08-27T14:15:17Z</time>
      </trkpt>
      <trkpt lat="44.71195" lon="4.10085">
        <ele>1304.65</ele>
        <time>2013-08-27T14:15:28Z</time>
      </trkpt>
      <trkpt lat="44.71198" lon="4.10092">
        <ele>1304.17</ele>
        <time>2013-08-27T14:15:41Z</time>
      </trkpt>
      <trkpt lat="44.71204" lon="4.10103">
        <ele>1303.2</ele>
        <time>2013-08-27T14:15:48Z</time>
      </trkpt>
      <trkpt lat="44.71206" lon="4.10104">
        <ele>1302.72</ele>
        <time>2013-08-27T14:15:49Z</time>
      </trkpt>
      <trkpt lat="44.71207" lon="4.10104">
        <ele>1302.24</ele>
        <time>2013-08-27T14:15:50Z</time>
      </trkpt>
      <trkpt lat="44.71214" lon="4.1011">
        <ele>1303.2</ele>
        <time>2013-08-27T14:16:01Z</time>
      </trkpt>
      <trkpt lat="44.71214" lon="4.1011">
        <ele>1303.2</ele>
        <time>2013-08-27T14:16:05Z</time>
      </trkpt>
      <trkpt lat="44.71215" lon="4.10111">
        <ele>1303.2</ele>
        <time>2013-08-27T14:16:09Z</time>
      </trkpt>
      <trkpt lat="44.71216" lon="4.10112">
        <ele>1303.2</ele>
        <time>2013-08-27T14:16:10Z</time>
      </trkpt>
      <trkpt lat="44.71216" lon="4.10111">
        <ele>1303.2</ele>
        <time>2013-08-27T14:16:18Z</time>
      </trkpt>
      <trkpt lat="44.71218" lon="4.10112">
        <ele>1302.72</ele>
        <time>2013-08-27T14:16:19Z</time>
      </trkpt>
      <trkpt lat="44.71219" lon="4.10112">
        <ele>1302.24</ele>
        <time>2013-08-27T14:16:20Z</time>
      </trkpt>
      <trkpt lat="44.71222" lon="4.10112">
        <ele>1300.8</ele>
        <time>2013-08-27T14:16:22Z</time>
      </trkpt>
      <trkpt lat="44.71237" lon="4.10118">
        <ele>1299.84</ele>
        <time>2013-08-27T14:16:29Z</time>
      </trkpt>
      <trkpt lat="44.7124" lon="4.10119">
        <ele>1299.84</ele>
        <time>2013-08-27T14:16:30Z</time>
      </trkpt>
      <trkpt lat="44.7127" lon="4.10136">
        <ele>1297.92</ele>
        <time>2013-08-27T14:16:42Z</time>
      </trkpt>
      <trkpt lat="44.71296" lon="4.1016">
        <ele>1295.99</ele>
        <time>2013-08-27T14:16:53Z</time>
      </trkpt>
      <trkpt lat="44.71304" lon="4.10166">
        <ele>1295.51</ele>
        <time>2013-08-27T14:16:57Z</time>
      </trkpt>
      <trkpt lat="44.71329" lon="4.10197">
        <ele>1292.63</ele>
        <time>2013-08-27T14:17:07Z</time>
      </trkpt>
      <trkpt lat="44.71347" lon="4.10223">
        <ele>1291.19</ele>
        <time>2013-08-27T14:17:13Z</time>
      </trkpt>
      <trkpt lat="44.71375" lon="4.10261">
        <ele>1290.23</ele>
        <time>2013-08-27T14:17:25Z</time>
      </trkpt>
      <trkpt lat="44.71397" lon="4.10276">
        <ele>1289.27</ele>
        <time>2013-08-27T14:17:37Z</time>
      </trkpt>
      <trkpt lat="44.71402" lon="4.10277">
        <ele>1290.71</ele>
        <time>2013-08-27T14:17:41Z</time>
      </trkpt>
      <trkpt lat="44.71403" lon="4.10277">
        <ele>1290.71</ele>
        <time>2013-08-27T14:17:42Z</time>
      </trkpt>
      <trkpt lat="44.71404" lon="4.10278">
        <ele>1290.23</ele>
        <time>2013-08-27T14:17:43Z</time>
      </trkpt>
      <trkpt lat="44.71405" lon="4.10281">
        <ele>1290.23</ele>
        <time>2013-08-27T14:17:45Z</time>
      </trkpt>
      <trkpt lat="44.71405" lon="4.10283">
        <ele>1290.71</ele>
        <time>2013-08-27T14:17:46Z</time>
      </trkpt>
      <trkpt lat="44.71406" lon="4.10286">
        <ele>1290.71</ele>
        <time>2013-08-27T14:17:47Z</time>
      </trkpt>
      <trkpt lat="44.71407" lon="4.10288">
        <ele>1290.23</ele>
        <time>2013-08-27T14:17:48Z</time>
      </trkpt>
      <trkpt lat="44.71408" lon="4.1029">
        <ele>1291.19</ele>
        <time>2013-08-27T14:17:49Z</time>
      </trkpt>
      <trkpt lat="44.71409" lon="4.10292">
        <ele>1291.19</ele>
        <time>2013-08-27T14:17:50Z</time>
      </trkpt>
      <trkpt lat="44.71411" lon="4.10294">
        <ele>1291.19</ele>
        <time>2013-08-27T14:17:51Z</time>
      </trkpt>
      <trkpt lat="44.71412" lon="4.10297">
        <ele>1291.67</ele>
        <time>2013-08-27T14:17:52Z</time>
      </trkpt>
      <trkpt lat="44.71413" lon="4.10299">
        <ele>1291.67</ele>
        <time>2013-08-27T14:17:53Z</time>
      </trkpt>
      <trkpt lat="44.71413" lon="4.103">
        <ele>1291.19</ele>
        <time>2013-08-27T14:17:54Z</time>
      </trkpt>
      <trkpt lat="44.71415" lon="4.10302">
        <ele>1292.15</ele>
        <time>2013-08-27T14:17:55Z</time>
      </trkpt>
      <trkpt lat="44.71416" lon="4.10305">
        <ele>1292.63</ele>
        <time>2013-08-27T14:17:56Z</time>
      </trkpt>
      <trkpt lat="44.71417" lon="4.10309">
        <ele>1292.15</ele>
        <time>2013-08-27T14:17:57Z</time>
      </trkpt>
      <trkpt lat="44.71427" lon="4.10343">
        <ele>1294.07</ele>
        <time>2013-08-27T14:18:07Z</time>
      </trkpt>
      <trkpt lat="44.71438" lon="4.10371">
        <ele>1296.96</ele>
        <time>2013-08-27T14:18:16Z</time>
      </trkpt>
      <trkpt lat="44.71452" lon="4.10401">
        <ele>1300.32</ele>
        <time>2013-08-27T14:18:27Z</time>
      </trkpt>
      <trkpt lat="44.7146" lon="4.10421">
        <ele>1301.76</ele>
        <time>2013-08-27T14:18:36Z</time>
      </trkpt>
      <trkpt lat="44.71461" lon="4.10424">
        <ele>1301.76</ele>
        <time>2013-08-27T14:18:37Z</time>
      </trkpt>
      <trkpt lat="44.71475" lon="4.10462">
        <ele>1302.72</ele>
        <time>2013-08-27T14:18:52Z</time>
      </trkpt>
      <trkpt lat="44.71479" lon="4.10472">
        <ele>1303.2</ele>
        <time>2013-08-27T14:18:56Z</time>
      </trkpt>
      <trkpt lat="44.71499" lon="4.10519">
        <ele>1302.72</ele>
        <time>2013-08-27T14:19:12Z</time>
      </trkpt>
      <trkpt lat="44.71512" lon="4.10579">
        <ele>1299.84</ele>
        <time>2013-08-27T14:19:24Z</time>
      </trkpt>
      <trkpt lat="44.71514" lon="4.10585">
        <ele>1299.36</ele>
        <time>2013-08-27T14:19:27Z</time>
      </trkpt>
      <trkpt lat="44.71519" lon="4.10621">
        <ele>1296.48</ele>
        <time>2013-08-27T14:19:37Z</time>
      </trkpt>
      <trkpt lat="44.71523" lon="4.10632">
        <ele>1295.51</ele>
        <time>2013-08-27T14:19:42Z</time>
      </trkpt>
      <trkpt lat="44.71524" lon="4.10633">
        <ele>1295.03</ele>
        <time>2013-08-27T14:19:43Z</time>
      </trkpt>
      <trkpt lat="44.71526" lon="4.10634">
        <ele>1294.07</ele>
        <time>2013-08-27T14:19:44Z</time>
      </trkpt>
      <trkpt lat="44.71527" lon="4.10637">
        <ele>1294.07</ele>
        <time>2013-08-27T14:19:45Z</time>
      </trkpt>
      <trkpt lat="44.71528" lon="4.10641">
        <ele>1293.11</ele>
        <time>2013-08-27T14:19:46Z</time>
      </trkpt>
      <trkpt lat="44.71528" lon="4.10645">
        <ele>1293.11</ele>
        <time>2013-08-27T14:19:47Z</time>
      </trkpt>
      <trkpt lat="44.71528" lon="4.1065">
        <ele>1293.11</ele>
        <time>2013-08-27T14:19:48Z</time>
      </trkpt>
      <trkpt lat="44.71528" lon="4.10662">
        <ele>1291.67</ele>
        <time>2013-08-27T14:19:51Z</time>
      </trkpt>
      <trkpt lat="44.71528" lon="4.10668">
        <ele>1292.15</ele>
        <time>2013-08-27T14:19:56Z</time>
      </trkpt>
      <trkpt lat="44.71528" lon="4.10671">
        <ele>1292.15</ele>
        <time>2013-08-27T14:19:57Z</time>
      </trkpt>
      <trkpt lat="44.71528" lon="4.10673">
        <ele>1291.67</ele>
        <time>2013-08-27T14:19:58Z</time>
      </trkpt>
      <trkpt lat="44.71528" lon="4.10675">
        <ele>1291.67</ele>
        <time>2013-08-27T14:19:59Z</time>
      </trkpt>
      <trkpt lat="44.71527" lon="4.10681">
        <ele>1291.67</ele>
        <time>2013-08-27T14:20:02Z</time>
      </trkpt>
      <trkpt lat="44.71527" lon="4.10685">
        <ele>1291.67</ele>
        <time>2013-08-27T14:20:03Z</time>
      </trkpt>
      <trkpt lat="44.71528" lon="4.10689">
        <ele>1291.67</ele>
        <time>2013-08-27T14:20:04Z</time>
      </trkpt>
      <trkpt lat="44.71532" lon="4.10713">
        <ele>1288.78</ele>
        <time>2013-08-27T14:20:08Z</time>
      </trkpt>
      <trkpt lat="44.71532" lon="4.1072">
        <ele>1288.3</ele>
        <time>2013-08-27T14:20:09Z</time>
      </trkpt>
      <trkpt lat="44.71534" lon="4.10751">
        <ele>1285.42</ele>
        <time>2013-08-27T14:20:13Z</time>
      </trkpt>
      <trkpt lat="44.71534" lon="4.1076">
        <ele>1285.42</ele>
        <time>2013-08-27T14:20:14Z</time>
      </trkpt>
      <trkpt lat="44.71535" lon="4.10788">
        <ele>1283.98</ele>
        <time>2013-08-27T14:20:17Z</time>
      </trkpt>
      <trkpt lat="44.71536" lon="4.10794">
        <ele>1283.5</ele>
        <time>2013-08-27T14:20:18Z</time>
      </trkpt>
      <trkpt lat="44.71538" lon="4.10798">
        <ele>1283.5</ele>
        <time>2013-08-27T14:20:19Z</time>
      </trkpt>
      <trkpt lat="44.71543" lon="4.10817">
        <ele>1281.09</ele>
        <time>2013-08-27T14:20:23Z</time>
      </trkpt>
      <trkpt lat="44.71551" lon="4.10854">
        <ele>1277.73</ele>
        <time>2013-08-27T14:20:28Z</time>
      </trkpt>
      <trkpt lat="44.71558" lon="4.10889">
        <ele>1274.85</ele>
        <time>2013-08-27T14:20:32Z</time>
      </trkpt>
      <trkpt lat="44.7156" lon="4.10895">
        <ele>1274.85</ele>
        <time>2013-08-27T14:20:33Z</time>
      </trkpt>
      <trkpt lat="44.71563" lon="4.109">
        <ele>1274.36</ele>
        <time>2013-08-27T14:20:34Z</time>
      </trkpt>
      <trkpt lat="44.71566" lon="4.10904">
        <ele>1273.4</ele>
        <time>2013-08-27T14:20:35Z</time>
      </trkpt>
      <trkpt lat="44.71568" lon="4.10907">
        <ele>1273.88</ele>
        <time>2013-08-27T14:20:36Z</time>
      </trkpt>
      <trkpt lat="44.71571" lon="4.1091">
        <ele>1272.92</ele>
        <time>2013-08-27T14:20:37Z</time>
      </trkpt>
      <trkpt lat="44.71574" lon="4.10912">
        <ele>1272.44</ele>
        <time>2013-08-27T14:20:38Z</time>
      </trkpt>
      <trkpt lat="44.71577" lon="4.10913">
        <ele>1272.44</ele>
        <time>2013-08-27T14:20:39Z</time>
      </trkpt>
      <trkpt lat="44.71582" lon="4.10918">
        <ele>1271.96</ele>
        <time>2013-08-27T14:20:42Z</time>
      </trkpt>
      <trkpt lat="44.71582" lon="4.1092">
        <ele>1272.44</ele>
        <time>2013-08-27T14:20:43Z</time>
      </trkpt>
      <trkpt lat="44.71582" lon="4.10922">
        <ele>1271.96</ele>
        <time>2013-08-27T14:20:44Z</time>
      </trkpt>
      <trkpt lat="44.71582" lon="4.10924">
        <ele>1271.48</ele>
        <time>2013-08-27T14:20:45Z</time>
      </trkpt>
      <trkpt lat="44.71581" lon="4.10928">
        <ele>1271</ele>
        <time>2013-08-27T14:20:48Z</time>
      </trkpt>
      <trkpt lat="44.71579" lon="4.1093">
        <ele>1271</ele>
        <time>2013-08-27T14:20:49Z</time>
      </trkpt>
      <trkpt lat="44.71545" lon="4.1095">
        <ele>1271</ele>
        <time>2013-08-27T14:21:04Z</time>
      </trkpt>
      <trkpt lat="44.71532" lon="4.10959">
        <ele>1269.56</ele>
        <time>2013-08-27T14:21:08Z</time>
      </trkpt>
      <trkpt lat="44.71529" lon="4.10963">
        <ele>1269.56</ele>
        <time>2013-08-27T14:21:09Z</time>
      </trkpt>
      <trkpt lat="44.71526" lon="4.10968">
        <ele>1268.6</ele>
        <time>2013-08-27T14:21:10Z</time>
      </trkpt>
      <trkpt lat="44.71526" lon="4.10973">
        <ele>1268.6</ele>
        <time>2013-08-27T14:21:11Z</time>
      </trkpt>
      <trkpt lat="44.71527" lon="4.10977">
        <ele>1267.64</ele>
        <time>2013-08-27T14:21:12Z</time>
      </trkpt>
      <trkpt lat="44.71529" lon="4.10981">
        <ele>1266.67</ele>
        <time>2013-08-27T14:21:13Z</time>
      </trkpt>
      <trkpt lat="44.71532" lon="4.10983">
        <ele>1265.71</ele>
        <time>2013-08-27T14:21:14Z</time>
      </trkpt>
      <trkpt lat="44.71535" lon="4.10985">
        <ele>1264.27</ele>
        <time>2013-08-27T14:21:15Z</time>
      </trkpt>
      <trkpt lat="44.71539" lon="4.10988">
        <ele>1264.75</ele>
        <time>2013-08-27T14:21:16Z</time>
      </trkpt>
      <trkpt lat="44.71542" lon="4.10992">
        <ele>1264.75</ele>
        <time>2013-08-27T14:21:17Z</time>
      </trkpt>
      <trkpt lat="44.71555" lon="4.11005">
        <ele>1263.79</ele>
        <time>2013-08-27T14:21:20Z</time>
      </trkpt>
      <trkpt lat="44.71564" lon="4.11018">
        <ele>1262.83</ele>
        <time>2013-08-27T14:21:26Z</time>
      </trkpt>
      <trkpt lat="44.71563" lon="4.1102">
        <ele>1262.35</ele>
        <time>2013-08-27T14:21:29Z</time>
      </trkpt>
      <trkpt lat="44.71569" lon="4.11032">
        <ele>1261.39</ele>
        <time>2013-08-27T14:21:41Z</time>
      </trkpt>
      <trkpt lat="44.71569" lon="4.11036">
        <ele>1261.87</ele>
        <time>2013-08-27T14:21:52Z</time>
      </trkpt>
      <trkpt lat="44.71571" lon="4.1104">
        <ele>1261.39</ele>
        <time>2013-08-27T14:22:15Z</time>
      </trkpt>
      <trkpt lat="44.7157" lon="4.11046">
        <ele>1260.91</ele>
        <time>2013-08-27T14:22:23Z</time>
      </trkpt>
      <trkpt lat="44.7157" lon="4.11046">
        <ele>1260.43</ele>
        <time>2013-08-27T14:22:28Z</time>
      </trkpt>
      <trkpt lat="44.71573" lon="4.11049">
        <ele>1260.91</ele>
        <time>2013-08-27T14:22:41Z</time>
      </trkpt>
      <trkpt lat="44.71573" lon="4.11049">
        <ele>1260.91</ele>
        <time>2013-08-27T14:23:01Z</time>
      </trkpt>
      <trkpt lat="44.71574" lon="4.1105">
        <ele>1260.91</ele>
        <time>2013-08-27T14:23:03Z</time>
      </trkpt>
      <trkpt lat="44.71575" lon="4.11052">
        <ele>1260.91</ele>
        <time>2013-08-27T14:23:04Z</time>
      </trkpt>
      <trkpt lat="44.71576" lon="4.11053">
        <ele>1260.43</ele>
        <time>2013-08-27T14:23:05Z</time>
      </trkpt>
      <trkpt lat="44.71578" lon="4.11054">
        <ele>1260.43</ele>
        <time>2013-08-27T14:23:06Z</time>
      </trkpt>
      <trkpt lat="44.7158" lon="4.11055">
        <ele>1259.94</ele>
        <time>2013-08-27T14:23:07Z</time>
      </trkpt>
      <trkpt lat="44.71601" lon="4.11074">
        <ele>1257.54</ele>
        <time>2013-08-27T14:23:14Z</time>
      </trkpt>
      <trkpt lat="44.71614" lon="4.11086">
        <ele>1256.58</ele>
        <time>2013-08-27T14:23:17Z</time>
      </trkpt>
      <trkpt lat="44.71621" lon="4.11097">
        <ele>1256.1</ele>
        <time>2013-08-27T14:23:19Z</time>
      </trkpt>
      <trkpt lat="44.71645" lon="4.11138">
        <ele>1251.77</ele>
        <time>2013-08-27T14:23:25Z</time>
      </trkpt>
      <trkpt lat="44.71661" lon="4.11171">
        <ele>1250.81</ele>
        <time>2013-08-27T14:23:29Z</time>
      </trkpt>
      <trkpt lat="44.71666" lon="4.11187">
        <ele>1249.85</ele>
        <time>2013-08-27T14:23:31Z</time>
      </trkpt>
      <trkpt lat="44.71668" lon="4.11194">
        <ele>1249.85</ele>
        <time>2013-08-27T14:23:32Z</time>
      </trkpt>
      <trkpt lat="44.71668" lon="4.11201">
        <ele>1250.33</ele>
        <time>2013-08-27T14:23:33Z</time>
      </trkpt>
      <trkpt lat="44.71669" lon="4.11208">
        <ele>1250.33</ele>
        <time>2013-08-27T14:23:34Z</time>
      </trkpt>
      <trkpt lat="44.71671" lon="4.11216">
        <ele>1248.41</ele>
        <time>2013-08-27T14:23:35Z</time>
      </trkpt>
      <trkpt lat="44.71675" lon="4.11224">
        <ele>1246.97</ele>
        <time>2013-08-27T14:23:36Z</time>
      </trkpt>
      <trkpt lat="44.71679" lon="4.11231">
        <ele>1246.49</ele>
        <time>2013-08-27T14:23:37Z</time>
      </trkpt>
      <trkpt lat="44.71683" lon="4.11238">
        <ele>1246.49</ele>
        <time>2013-08-27T14:23:38Z</time>
      </trkpt>
      <trkpt lat="44.71694" lon="4.1126">
        <ele>1244.08</ele>
        <time>2013-08-27T14:23:42Z</time>
      </trkpt>
      <trkpt lat="44.71695" lon="4.11265">
        <ele>1244.08</ele>
        <time>2013-08-27T14:23:43Z</time>
      </trkpt>
      <trkpt lat="44.71697" lon="4.1127">
        <ele>1243.12</ele>
        <time>2013-08-27T14:23:44Z</time>
      </trkpt>
      <trkpt lat="44.71698" lon="4.11276">
        <ele>1243.12</ele>
        <time>2013-08-27T14:23:45Z</time>
      </trkpt>
      <trkpt lat="44.71701" lon="4.11282">
        <ele>1242.16</ele>
        <time>2013-08-27T14:23:46Z</time>
      </trkpt>
      <trkpt lat="44.71704" lon="4.11289">
        <ele>1241.2</ele>
        <time>2013-08-27T14:23:47Z</time>
      </trkpt>
      <trkpt lat="44.71707" lon="4.11295">
        <ele>1240.24</ele>
        <time>2013-08-27T14:23:48Z</time>
      </trkpt>
      <trkpt lat="44.7171" lon="4.11301">
        <ele>1240.72</ele>
        <time>2013-08-27T14:23:49Z</time>
      </trkpt>
      <trkpt lat="44.71722" lon="4.11322">
        <ele>1237.35</ele>
        <time>2013-08-27T14:23:53Z</time>
      </trkpt>
      <trkpt lat="44.71724" lon="4.11326">
        <ele>1237.35</ele>
        <time>2013-08-27T14:23:54Z</time>
      </trkpt>
      <trkpt lat="44.71733" lon="4.11347">
        <ele>1234.47</ele>
        <time>2013-08-27T14:23:58Z</time>
      </trkpt>
      <trkpt lat="44.71743" lon="4.11364">
        <ele>1232.07</ele>
        <time>2013-08-27T14:24:03Z</time>
      </trkpt>
      <trkpt lat="44.71748" lon="4.11376">
        <ele>1228.7</ele>
        <time>2013-08-27T14:24:08Z</time>
      </trkpt>
      <trkpt lat="44.7175" lon="4.11378">
        <ele>1228.7</ele>
        <time>2013-08-27T14:24:09Z</time>
      </trkpt>
      <trkpt lat="44.7176" lon="4.11392">
        <ele>1225.34</ele>
        <time>2013-08-27T14:24:15Z</time>
      </trkpt>
      <trkpt lat="44.71763" lon="4.11395">
        <ele>1224.86</ele>
        <time>2013-08-27T14:24:17Z</time>
      </trkpt>
      <trkpt lat="44.71775" lon="4.11407">
        <ele>1221.49</ele>
        <time>2013-08-27T14:24:23Z</time>
      </trkpt>
      <trkpt lat="44.71783" lon="4.11414">
        <ele>1219.09</ele>
        <time>2013-08-27T14:24:27Z</time>
      </trkpt>
      <trkpt lat="44.7179" lon="4.11419">
        <ele>1218.13</ele>
        <time>2013-08-27T14:24:30Z</time>
      </trkpt>
      <trkpt lat="44.71809" lon="4.11428">
        <ele>1214.28</ele>
        <time>2013-08-27T14:24:39Z</time>
      </trkpt>
      <trkpt lat="44.71811" lon="4.11428">
        <ele>1214.28</ele>
        <time>2013-08-27T14:24:40Z</time>
      </trkpt>
      <trkpt lat="44.71818" lon="4.11431">
        <ele>1212.84</ele>
        <time>2013-08-27T14:24:43Z</time>
      </trkpt>
      <trkpt lat="44.7182" lon="4.11433">
        <ele>1212.36</ele>
        <time>2013-08-27T14:24:44Z</time>
      </trkpt>
      <trkpt lat="44.71829" lon="4.11441">
        <ele>1210.92</ele>
        <time>2013-08-27T14:24:49Z</time>
      </trkpt>
      <trkpt lat="44.71838" lon="4.11453">
        <ele>1209.48</ele>
        <time>2013-08-27T14:24:54Z</time>
      </trkpt>
      <trkpt lat="44.71838" lon="4.11455">
        <ele>1209</ele>
        <time>2013-08-27T14:24:55Z</time>
      </trkpt>
      <trkpt lat="44.71838" lon="4.11458">
        <ele>1209</ele>
        <time>2013-08-27T14:24:56Z</time>
      </trkpt>
      <trkpt lat="44.7184" lon="4.1146">
        <ele>1208.51</ele>
        <time>2013-08-27T14:24:57Z</time>
      </trkpt>
      <trkpt lat="44.71841" lon="4.11462">
        <ele>1208.03</ele>
        <time>2013-08-27T14:24:58Z</time>
      </trkpt>
      <trkpt lat="44.71842" lon="4.11464">
        <ele>1208.03</ele>
        <time>2013-08-27T14:24:59Z</time>
      </trkpt>
      <trkpt lat="44.71848" lon="4.11484">
        <ele>1205.15</ele>
        <time>2013-08-27T14:25:06Z</time>
      </trkpt>
      <trkpt lat="44.71848" lon="4.11487">
        <ele>1204.19</ele>
        <time>2013-08-27T14:25:07Z</time>
      </trkpt>
      <trkpt lat="44.71847" lon="4.1149">
        <ele>1204.19</ele>
        <time>2013-08-27T14:25:08Z</time>
      </trkpt>
      <trkpt lat="44.71847" lon="4.11494">
        <ele>1203.71</ele>
        <time>2013-08-27T14:25:09Z</time>
      </trkpt>
      <trkpt lat="44.71848" lon="4.11496">
        <ele>1203.71</ele>
        <time>2013-08-27T14:25:10Z</time>
      </trkpt>
      <trkpt lat="44.71848" lon="4.115">
        <ele>1203.71</ele>
        <time>2013-08-27T14:25:11Z</time>
      </trkpt>
      <trkpt lat="44.71849" lon="4.11504">
        <ele>1201.79</ele>
        <time>2013-08-27T14:25:12Z</time>
      </trkpt>
      <trkpt lat="44.71851" lon="4.11507">
        <ele>1202.27</ele>
        <time>2013-08-27T14:25:13Z</time>
      </trkpt>
      <trkpt lat="44.71853" lon="4.11511">
        <ele>1201.79</ele>
        <time>2013-08-27T14:25:14Z</time>
      </trkpt>
      <trkpt lat="44.71856" lon="4.11515">
        <ele>1201.3</ele>
        <time>2013-08-27T14:25:15Z</time>
      </trkpt>
      <trkpt lat="44.71858" lon="4.11518">
        <ele>1200.82</ele>
        <time>2013-08-27T14:25:16Z</time>
      </trkpt>
      <trkpt lat="44.71869" lon="4.11518">
        <ele>1200.34</ele>
        <time>2013-08-27T14:25:23Z</time>
      </trkpt>
      <trkpt lat="44.7188" lon="4.11511">
        <ele>1201.3</ele>
        <time>2013-08-27T14:25:30Z</time>
      </trkpt>
      <trkpt lat="44.71888" lon="4.11507">
        <ele>1203.23</ele>
        <time>2013-08-27T14:25:35Z</time>
      </trkpt>
      <trkpt lat="44.71896" lon="4.11495">
        <ele>1204.19</ele>
        <time>2013-08-27T14:25:41Z</time>
      </trkpt>
      <trkpt lat="44.71907" lon="4.11473">
        <ele>1206.59</ele>
        <time>2013-08-27T14:25:53Z</time>
      </trkpt>
      <trkpt lat="44.71921" lon="4.11471">
        <ele>1208.51</ele>
        <time>2013-08-27T14:26:05Z</time>
      </trkpt>
      <trkpt lat="44.71936" lon="4.11477">
        <ele>1210.92</ele>
        <time>2013-08-27T14:26:17Z</time>
      </trkpt>
      <trkpt lat="44.7194" lon="4.11476">
        <ele>1211.88</ele>
        <time>2013-08-27T14:26:21Z</time>
      </trkpt>
      <trkpt lat="44.71955" lon="4.11472">
        <ele>1214.28</ele>
        <time>2013-08-27T14:26:33Z</time>
      </trkpt>
      <trkpt lat="44.7196" lon="4.11471">
        <ele>1214.76</ele>
        <time>2013-08-27T14:26:44Z</time>
      </trkpt>
      <trkpt lat="44.71959" lon="4.11471">
        <ele>1214.76</ele>
        <time>2013-08-27T14:26:58Z</time>
      </trkpt>
      <trkpt lat="44.71959" lon="4.11471">
        <ele>1215.24</ele>
        <time>2013-08-27T14:27:23Z</time>
      </trkpt>
      <trkpt lat="44.7196" lon="4.11471">
        <ele>1216.21</ele>
        <time>2013-08-27T14:27:44Z</time>
      </trkpt>
      <trkpt lat="44.7196" lon="4.11471">
        <ele>1214.76</ele>
        <time>2013-08-27T14:28:07Z</time>
      </trkpt>
      <trkpt lat="44.7196" lon="4.11471">
        <ele>1215.24</ele>
        <time>2013-08-27T14:28:34Z</time>
      </trkpt>
      <trkpt lat="44.71962" lon="4.1147">
        <ele>1215.72</ele>
        <time>2013-08-27T14:28:38Z</time>
      </trkpt>
      <trkpt lat="44.71978" lon="4.11464">
        <ele>1215.72</ele>
        <time>2013-08-27T14:28:47Z</time>
      </trkpt>
      <trkpt lat="44.71989" lon="4.11454">
        <ele>1217.65</ele>
        <time>2013-08-27T14:28:58Z</time>
      </trkpt>
      <trkpt lat="44.71999" lon="4.1145">
        <ele>1218.61</ele>
        <time>2013-08-27T14:29:03Z</time>
      </trkpt>
      <trkpt lat="44.72013" lon="4.11443">
        <ele>1220.53</ele>
        <time>2013-08-27T14:29:16Z</time>
      </trkpt>
      <trkpt lat="44.72024" lon="4.11438">
        <ele>1221.97</ele>
        <time>2013-08-27T14:29:27Z</time>
      </trkpt>
      <trkpt lat="44.72038" lon="4.11432">
        <ele>1222.93</ele>
        <time>2013-08-27T14:29:37Z</time>
      </trkpt>
      <trkpt lat="44.72048" lon="4.11428">
        <ele>1223.9</ele>
        <time>2013-08-27T14:29:44Z</time>
      </trkpt>
      <trkpt lat="44.72057" lon="4.11428">
        <ele>1225.34</ele>
        <time>2013-08-27T14:29:51Z</time>
      </trkpt>
      <trkpt lat="44.72061" lon="4.11424">
        <ele>1224.86</ele>
        <time>2013-08-27T14:29:54Z</time>
      </trkpt>
      <trkpt lat="44.72064" lon="4.11423">
        <ele>1225.82</ele>
        <time>2013-08-27T14:29:56Z</time>
      </trkpt>
      <trkpt lat="44.72071" lon="4.11421">
        <ele>1226.78</ele>
        <time>2013-08-27T14:30:02Z</time>
      </trkpt>
      <trkpt lat="44.72076" lon="4.11419">
        <ele>1226.78</ele>
        <time>2013-08-27T14:30:05Z</time>
      </trkpt>
      <trkpt lat="44.72088" lon="4.11416">
        <ele>1228.7</ele>
        <time>2013-08-27T14:30:15Z</time>
      </trkpt>
      <trkpt lat="44.72103" lon="4.11411">
        <ele>1230.14</ele>
        <time>2013-08-27T14:30:27Z</time>
      </trkpt>
      <trkpt lat="44.72125" lon="4.11399">
        <ele>1233.03</ele>
        <time>2013-08-27T14:30:42Z</time>
      </trkpt>
      <trkpt lat="44.72133" lon="4.11394">
        <ele>1232.55</ele>
        <time>2013-08-27T14:30:48Z</time>
      </trkpt>
      <trkpt lat="44.72147" lon="4.11383">
        <ele>1234.47</ele>
        <time>2013-08-27T14:31:00Z</time>
      </trkpt>
      <trkpt lat="44.72157" lon="4.11381">
        <ele>1234.47</ele>
        <time>2013-08-27T14:31:06Z</time>
      </trkpt>
      <trkpt lat="44.72162" lon="4.11379">
        <ele>1234.47</ele>
        <time>2013-08-27T14:31:10Z</time>
      </trkpt>
      <trkpt lat="44.7217" lon="4.11379">
        <ele>1235.43</ele>
        <time>2013-08-27T14:31:15Z</time>
      </trkpt>
      <trkpt lat="44.72184" lon="4.11386">
        <ele>1235.91</ele>
        <time>2013-08-27T14:31:27Z</time>
      </trkpt>
      <trkpt lat="44.72189" lon="4.11387">
        <ele>1235.43</ele>
        <time>2013-08-27T14:31:31Z</time>
      </trkpt>
      <trkpt lat="44.72199" lon="4.11391">
        <ele>1234.47</ele>
        <time>2013-08-27T14:31:36Z</time>
      </trkpt>
      <trkpt lat="44.72232" lon="4.11401">
        <ele>1233.99</ele>
        <time>2013-08-27T14:31:46Z</time>
      </trkpt>
      <trkpt lat="44.72272" lon="4.11397">
        <ele>1234.95</ele>
        <time>2013-08-27T14:31:57Z</time>
      </trkpt>
      <trkpt lat="44.72301" lon="4.11394">
        <ele>1235.43</ele>
        <time>2013-08-27T14:32:06Z</time>
      </trkpt>
      <trkpt lat="44.72336" lon="4.11397">
        <ele>1235.91</ele>
        <time>2013-08-27T14:32:17Z</time>
      </trkpt>
      <trkpt lat="44.7237" lon="4.11405">
        <ele>1236.87</ele>
        <time>2013-08-27T14:32:26Z</time>
      </trkpt>
      <trkpt lat="44.72398" lon="4.11415">
        <ele>1236.87</ele>
        <time>2013-08-27T14:32:34Z</time>
      </trkpt>
      <trkpt lat="44.72437" lon="4.11448">
        <ele>1238.32</ele>
        <time>2013-08-27T14:32:46Z</time>
      </trkpt>
      <trkpt lat="44.72463" lon="4.1149">
        <ele>1236.87</ele>
        <time>2013-08-27T14:32:57Z</time>
      </trkpt>
      <trkpt lat="44.72469" lon="4.11506">
        <ele>1236.87</ele>
        <time>2013-08-27T14:33:07Z</time>
      </trkpt>
      <trkpt lat="44.7247" lon="4.11511">
        <ele>1236.87</ele>
        <time>2013-08-27T14:33:12Z</time>
      </trkpt>
      <trkpt lat="44.72485" lon="4.11552">
        <ele>1235.91</ele>
        <time>2013-08-27T14:33:22Z</time>
      </trkpt>
      <trkpt lat="44.72487" lon="4.11557">
        <ele>1235.43</ele>
        <time>2013-08-27T14:33:23Z</time>
      </trkpt>
      <trkpt lat="44.72489" lon="4.11562">
        <ele>1235.91</ele>
        <time>2013-08-27T14:33:24Z</time>
      </trkpt>
      <trkpt lat="44.72504" lon="4.11613">
        <ele>1235.91</ele>
        <time>2013-08-27T14:33:34Z</time>
      </trkpt>
      <trkpt lat="44.72509" lon="4.11623">
        <ele>1236.39</ele>
        <time>2013-08-27T14:33:36Z</time>
      </trkpt>
      <trkpt lat="44.7251" lon="4.11627">
        <ele>1235.91</ele>
        <time>2013-08-27T14:33:37Z</time>
      </trkpt>
      <trkpt lat="44.72512" lon="4.1163">
        <ele>1235.43</ele>
        <time>2013-08-27T14:33:38Z</time>
      </trkpt>
      <trkpt lat="44.72514" lon="4.11634">
        <ele>1235.43</ele>
        <time>2013-08-27T14:33:39Z</time>
      </trkpt>
      <trkpt lat="44.72516" lon="4.11639">
        <ele>1235.91</ele>
        <time>2013-08-27T14:33:40Z</time>
      </trkpt>
      <trkpt lat="44.72517" lon="4.11643">
        <ele>1235.43</ele>
        <time>2013-08-27T14:33:41Z</time>
      </trkpt>
      <trkpt lat="44.7253" lon="4.11686">
        <ele>1235.43</ele>
        <time>2013-08-27T14:33:50Z</time>
      </trkpt>
      <trkpt lat="44.72538" lon="4.11714">
        <ele>1235.43</ele>
        <time>2013-08-27T14:33:55Z</time>
      </trkpt>
      <trkpt lat="44.7254" lon="4.1172">
        <ele>1234.95</ele>
        <time>2013-08-27T14:33:56Z</time>
      </trkpt>
      <trkpt lat="44.7254" lon="4.11726">
        <ele>1235.43</ele>
        <time>2013-08-27T14:33:57Z</time>
      </trkpt>
      <trkpt lat="44.72541" lon="4.11732">
        <ele>1235.43</ele>
        <time>2013-08-27T14:33:58Z</time>
      </trkpt>
      <trkpt lat="44.72542" lon="4.11738">
        <ele>1235.43</ele>
        <time>2013-08-27T14:33:59Z</time>
      </trkpt>
      <trkpt lat="44.72548" lon="4.11793">
        <ele>1234.95</ele>
        <time>2013-08-27T14:34:10Z</time>
      </trkpt>
      <trkpt lat="44.7255" lon="4.11802">
        <ele>1234.47</ele>
        <time>2013-08-27T14:34:19Z</time>
      </trkpt>
      <trkpt lat="44.7255" lon="4.11802">
        <ele>1236.39</ele>
        <time>2013-08-27T14:34:47Z</time>
      </trkpt>
      <trkpt lat="44.7255" lon="4.11802">
        <ele>1233.03</ele>
        <time>2013-08-27T14:35:08Z</time>
      </trkpt>
      <trkpt lat="44.72551" lon="4.11811">
        <ele>1234.95</ele>
        <time>2013-08-27T14:35:33Z</time>
      </trkpt>
      <trkpt lat="44.72556" lon="4.11822">
        <ele>1233.51</ele>
        <time>2013-08-27T14:35:36Z</time>
      </trkpt>
      <trkpt lat="44.72567" lon="4.11842">
        <ele>1232.07</ele>
        <time>2013-08-27T14:35:41Z</time>
      </trkpt>
      <trkpt lat="44.72567" lon="4.11847">
        <ele>1232.07</ele>
        <time>2013-08-27T14:35:42Z</time>
      </trkpt>
      <trkpt lat="44.72566" lon="4.11852">
        <ele>1231.59</ele>
        <time>2013-08-27T14:35:43Z</time>
      </trkpt>
      <trkpt lat="44.72563" lon="4.11884">
        <ele>1231.11</ele>
        <time>2013-08-27T14:35:50Z</time>
      </trkpt>
      <trkpt lat="44.72565" lon="4.11889">
        <ele>1230.14</ele>
        <time>2013-08-27T14:35:51Z</time>
      </trkpt>
      <trkpt lat="44.72567" lon="4.11894">
        <ele>1230.14</ele>
        <time>2013-08-27T14:35:52Z</time>
      </trkpt>
      <trkpt lat="44.7257" lon="4.11898">
        <ele>1229.66</ele>
        <time>2013-08-27T14:35:53Z</time>
      </trkpt>
      <trkpt lat="44.72574" lon="4.119">
        <ele>1229.18</ele>
        <time>2013-08-27T14:35:54Z</time>
      </trkpt>
      <trkpt lat="44.72577" lon="4.11903">
        <ele>1228.7</ele>
        <time>2013-08-27T14:35:55Z</time>
      </trkpt>
      <trkpt lat="44.72581" lon="4.11905">
        <ele>1227.74</ele>
        <time>2013-08-27T14:35:56Z</time>
      </trkpt>
      <trkpt lat="44.72586" lon="4.11906">
        <ele>1227.26</ele>
        <time>2013-08-27T14:35:57Z</time>
      </trkpt>
      <trkpt lat="44.72591" lon="4.11908">
        <ele>1226.3</ele>
        <time>2013-08-27T14:35:58Z</time>
      </trkpt>
      <trkpt lat="44.72597" lon="4.1191">
        <ele>1225.82</ele>
        <time>2013-08-27T14:35:59Z</time>
      </trkpt>
      <trkpt lat="44.72602" lon="4.11911">
        <ele>1225.34</ele>
        <time>2013-08-27T14:36:00Z</time>
      </trkpt>
      <trkpt lat="44.72608" lon="4.11911">
        <ele>1224.86</ele>
        <time>2013-08-27T14:36:01Z</time>
      </trkpt>
      <trkpt lat="44.72614" lon="4.11911">
        <ele>1223.9</ele>
        <time>2013-08-27T14:36:02Z</time>
      </trkpt>
      <trkpt lat="44.7262" lon="4.11914">
        <ele>1223.42</ele>
        <time>2013-08-27T14:36:03Z</time>
      </trkpt>
      <trkpt lat="44.72626" lon="4.11918">
        <ele>1223.42</ele>
        <time>2013-08-27T14:36:04Z</time>
      </trkpt>
      <trkpt lat="44.72632" lon="4.11923">
        <ele>1221.97</ele>
        <time>2013-08-27T14:36:05Z</time>
      </trkpt>
      <trkpt lat="44.72637" lon="4.11927">
        <ele>1221.97</ele>
        <time>2013-08-27T14:36:06Z</time>
      </trkpt>
      <trkpt lat="44.72643" lon="4.11931">
        <ele>1221.01</ele>
        <time>2013-08-27T14:36:07Z</time>
      </trkpt>
      <trkpt lat="44.72649" lon="4.11934">
        <ele>1220.53</ele>
        <time>2013-08-27T14:36:08Z</time>
      </trkpt>
      <trkpt lat="44.72654" lon="4.11938">
        <ele>1220.53</ele>
        <time>2013-08-27T14:36:09Z</time>
      </trkpt>
      <trkpt lat="44.72664" lon="4.11945">
        <ele>1219.09</ele>
        <time>2013-08-27T14:36:11Z</time>
      </trkpt>
      <trkpt lat="44.72677" lon="4.1195">
        <ele>1218.61</ele>
        <time>2013-08-27T14:36:13Z</time>
      </trkpt>
      <trkpt lat="44.72683" lon="4.11952">
        <ele>1218.13</ele>
        <time>2013-08-27T14:36:14Z</time>
      </trkpt>
      <trkpt lat="44.72715" lon="4.11963">
        <ele>1216.69</ele>
        <time>2013-08-27T14:36:22Z</time>
      </trkpt>
      <trkpt lat="44.7272" lon="4.11967">
        <ele>1216.69</ele>
        <time>2013-08-27T14:36:36Z</time>
      </trkpt>
      <trkpt lat="44.72722" lon="4.11968">
        <ele>1216.69</ele>
        <time>2013-08-27T14:36:51Z</time>
      </trkpt>
      <trkpt lat="44.72722" lon="4.11968">
        <ele>1216.69</ele>
        <time>2013-08-27T14:37:17Z</time>
      </trkpt>
      <trkpt lat="44.72722" lon="4.11968">
        <ele>1216.69</ele>
        <time>2013-08-27T14:37:22Z</time>
      </trkpt>
      <trkpt lat="44.72722" lon="4.1197">
        <ele>1216.69</ele>
        <time>2013-08-27T14:37:23Z</time>
      </trkpt>
      <trkpt lat="44.72726" lon="4.12003">
        <ele>1215.72</ele>
        <time>2013-08-27T14:37:32Z</time>
      </trkpt>
      <trkpt lat="44.72724" lon="4.12055">
        <ele>1215.24</ele>
        <time>2013-08-27T14:37:41Z</time>
      </trkpt>
      <trkpt lat="44.72727" lon="4.12102">
        <ele>1215.72</ele>
        <time>2013-08-27T14:37:49Z</time>
      </trkpt>
      <trkpt lat="44.72728" lon="4.12107">
        <ele>1215.72</ele>
        <time>2013-08-27T14:37:50Z</time>
      </trkpt>
      <trkpt lat="44.72729" lon="4.12113">
        <ele>1215.24</ele>
        <time>2013-08-27T14:37:51Z</time>
      </trkpt>
      <trkpt lat="44.72738" lon="4.12158">
        <ele>1215.24</ele>
        <time>2013-08-27T14:38:00Z</time>
      </trkpt>
      <trkpt lat="44.72746" lon="4.12205">
        <ele>1215.72</ele>
        <time>2013-08-27T14:38:10Z</time>
      </trkpt>
      <trkpt lat="44.72747" lon="4.12252">
        <ele>1216.69</ele>
        <time>2013-08-27T14:38:19Z</time>
      </trkpt>
      <trkpt lat="44.72745" lon="4.12296">
        <ele>1217.65</ele>
        <time>2013-08-27T14:38:27Z</time>
      </trkpt>
      <trkpt lat="44.72736" lon="4.12349">
        <ele>1217.17</ele>
        <time>2013-08-27T14:38:37Z</time>
      </trkpt>
      <trkpt lat="44.72735" lon="4.12354">
        <ele>1218.13</ele>
        <time>2013-08-27T14:38:38Z</time>
      </trkpt>
      <trkpt lat="44.72736" lon="4.12359">
        <ele>1217.65</ele>
        <time>2013-08-27T14:38:39Z</time>
      </trkpt>
      <trkpt lat="44.72736" lon="4.12365">
        <ele>1217.17</ele>
        <time>2013-08-27T14:38:40Z</time>
      </trkpt>
      <trkpt lat="44.72722" lon="4.12433">
        <ele>1219.09</ele>
        <time>2013-08-27T14:38:52Z</time>
      </trkpt>
      <trkpt lat="44.72699" lon="4.12494">
        <ele>1220.05</ele>
        <time>2013-08-27T14:39:04Z</time>
      </trkpt>
      <trkpt lat="44.72687" lon="4.12533">
        <ele>1218.61</ele>
        <time>2013-08-27T14:39:11Z</time>
      </trkpt>
      <trkpt lat="44.72686" lon="4.12539">
        <ele>1219.09</ele>
        <time>2013-08-27T14:39:12Z</time>
      </trkpt>
      <trkpt lat="44.72685" lon="4.12546">
        <ele>1218.61</ele>
        <time>2013-08-27T14:39:13Z</time>
      </trkpt>
      <trkpt lat="44.72685" lon="4.12554">
        <ele>1218.13</ele>
        <time>2013-08-27T14:39:14Z</time>
      </trkpt>
      <trkpt lat="44.72685" lon="4.12562">
        <ele>1218.13</ele>
        <time>2013-08-27T14:39:15Z</time>
      </trkpt>
      <trkpt lat="44.72686" lon="4.1257">
        <ele>1217.65</ele>
        <time>2013-08-27T14:39:16Z</time>
      </trkpt>
      <trkpt lat="44.72687" lon="4.12579">
        <ele>1216.69</ele>
        <time>2013-08-27T14:39:17Z</time>
      </trkpt>
      <trkpt lat="44.72691" lon="4.12599">
        <ele>1215.72</ele>
        <time>2013-08-27T14:39:19Z</time>
      </trkpt>
      <trkpt lat="44.72695" lon="4.12609">
        <ele>1215.24</ele>
        <time>2013-08-27T14:39:20Z</time>
      </trkpt>
      <trkpt lat="44.727" lon="4.12619">
        <ele>1213.32</ele>
        <time>2013-08-27T14:39:21Z</time>
      </trkpt>
      <trkpt lat="44.72716" lon="4.1265">
        <ele>1209.48</ele>
        <time>2013-08-27T14:39:24Z</time>
      </trkpt>
      <trkpt lat="44.72735" lon="4.12683">
        <ele>1206.59</ele>
        <time>2013-08-27T14:39:27Z</time>
      </trkpt>
      <trkpt lat="44.7276" lon="4.1273">
        <ele>1203.23</ele>
        <time>2013-08-27T14:39:31Z</time>
      </trkpt>
      <trkpt lat="44.72768" lon="4.12757">
        <ele>1201.79</ele>
        <time>2013-08-27T14:39:33Z</time>
      </trkpt>
      <trkpt lat="44.72772" lon="4.12772">
        <ele>1201.79</ele>
        <time>2013-08-27T14:39:34Z</time>
      </trkpt>
      <trkpt lat="44.72773" lon="4.12786">
        <ele>1201.79</ele>
        <time>2013-08-27T14:39:35Z</time>
      </trkpt>
      <trkpt lat="44.72773" lon="4.12801">
        <ele>1201.79</ele>
        <time>2013-08-27T14:39:36Z</time>
      </trkpt>
      <trkpt lat="44.72771" lon="4.12814">
        <ele>1201.79</ele>
        <time>2013-08-27T14:39:37Z</time>
      </trkpt>
      <trkpt lat="44.72768" lon="4.12827">
        <ele>1202.27</ele>
        <time>2013-08-27T14:39:38Z</time>
      </trkpt>
      <trkpt lat="44.72756" lon="4.12874">
        <ele>1203.23</ele>
        <time>2013-08-27T14:39:42Z</time>
      </trkpt>
      <trkpt lat="44.72753" lon="4.12884">
        <ele>1202.27</ele>
        <time>2013-08-27T14:39:43Z</time>
      </trkpt>
      <trkpt lat="44.72751" lon="4.12896">
        <ele>1202.27</ele>
        <time>2013-08-27T14:39:44Z</time>
      </trkpt>
      <trkpt lat="44.72749" lon="4.12918">
        <ele>1202.27</ele>
        <time>2013-08-27T14:39:46Z</time>
      </trkpt>
      <trkpt lat="44.72747" lon="4.12951">
        <ele>1200.82</ele>
        <time>2013-08-27T14:39:49Z</time>
      </trkpt>
      <trkpt lat="44.72749" lon="4.13055">
        <ele>1199.86</ele>
        <time>2013-08-27T14:39:59Z</time>
      </trkpt>
      <trkpt lat="44.72753" lon="4.13083">
        <ele>1198.42</ele>
        <time>2013-08-27T14:40:02Z</time>
      </trkpt>
      <trkpt lat="44.72758" lon="4.13099">
        <ele>1198.9</ele>
        <time>2013-08-27T14:40:04Z</time>
      </trkpt>
      <trkpt lat="44.72761" lon="4.13107">
        <ele>1199.38</ele>
        <time>2013-08-27T14:40:05Z</time>
      </trkpt>
      <trkpt lat="44.72772" lon="4.13131">
        <ele>1199.38</ele>
        <time>2013-08-27T14:40:09Z</time>
      </trkpt>
      <trkpt lat="44.72799" lon="4.13208">
        <ele>1200.34</ele>
        <time>2013-08-27T14:40:22Z</time>
      </trkpt>
      <trkpt lat="44.72806" lon="4.13226">
        <ele>1200.82</ele>
        <time>2013-08-27T14:40:25Z</time>
      </trkpt>
      <trkpt lat="44.7281" lon="4.13245">
        <ele>1200.34</ele>
        <time>2013-08-27T14:40:28Z</time>
      </trkpt>
      <trkpt lat="44.72812" lon="4.13251">
        <ele>1200.82</ele>
        <time>2013-08-27T14:40:29Z</time>
      </trkpt>
      <trkpt lat="44.72816" lon="4.13265">
        <ele>1200.34</ele>
        <time>2013-08-27T14:40:31Z</time>
      </trkpt>
      <trkpt lat="44.72817" lon="4.1327">
        <ele>1200.34</ele>
        <time>2013-08-27T14:40:32Z</time>
      </trkpt>
      <trkpt lat="44.72819" lon="4.13276">
        <ele>1200.34</ele>
        <time>2013-08-27T14:40:33Z</time>
      </trkpt>
      <trkpt lat="44.72823" lon="4.13289">
        <ele>1199.86</ele>
        <time>2013-08-27T14:40:35Z</time>
      </trkpt>
      <trkpt lat="44.72825" lon="4.13295">
        <ele>1199.86</ele>
        <time>2013-08-27T14:40:36Z</time>
      </trkpt>
      <trkpt lat="44.72828" lon="4.13301">
        <ele>1199.38</ele>
        <time>2013-08-27T14:40:37Z</time>
      </trkpt>
      <trkpt lat="44.72839" lon="4.13344">
        <ele>1199.86</ele>
        <time>2013-08-27T14:40:44Z</time>
      </trkpt>
      <trkpt lat="44.72841" lon="4.13351">
        <ele>1200.82</ele>
        <time>2013-08-27T14:40:45Z</time>
      </trkpt>
      <trkpt lat="44.72854" lon="4.13385">
        <ele>1200.34</ele>
        <time>2013-08-27T14:40:51Z</time>
      </trkpt>
      <trkpt lat="44.72858" lon="4.13402">
        <ele>1201.79</ele>
        <time>2013-08-27T14:40:54Z</time>
      </trkpt>
      <trkpt lat="44.72888" lon="4.13491">
        <ele>1200.34</ele>
        <time>2013-08-27T14:41:09Z</time>
      </trkpt>
      <trkpt lat="44.72893" lon="4.13509">
        <ele>1200.34</ele>
        <time>2013-08-27T14:41:12Z</time>
      </trkpt>
      <trkpt lat="44.72895" lon="4.13514">
        <ele>1200.82</ele>
        <time>2013-08-27T14:41:13Z</time>
      </trkpt>
      <trkpt lat="44.72899" lon="4.13525">
        <ele>1201.79</ele>
        <time>2013-08-27T14:41:15Z</time>
      </trkpt>
      <trkpt lat="44.72908" lon="4.13547">
        <ele>1201.3</ele>
        <time>2013-08-27T14:41:19Z</time>
      </trkpt>
      <trkpt lat="44.7294" lon="4.13654">
        <ele>1201.79</ele>
        <time>2013-08-27T14:41:36Z</time>
      </trkpt>
      <trkpt lat="44.72949" lon="4.13685">
        <ele>1202.27</ele>
        <time>2013-08-27T14:41:41Z</time>
      </trkpt>
      <trkpt lat="44.72958" lon="4.13711">
        <ele>1200.82</ele>
        <time>2013-08-27T14:41:45Z</time>
      </trkpt>
      <trkpt lat="44.73006" lon="4.13812">
        <ele>1199.38</ele>
        <time>2013-08-27T14:42:02Z</time>
      </trkpt>
      <trkpt lat="44.73016" lon="4.13827">
        <ele>1199.86</ele>
        <time>2013-08-27T14:42:05Z</time>
      </trkpt>
      <trkpt lat="44.73019" lon="4.13831">
        <ele>1200.34</ele>
        <time>2013-08-27T14:42:06Z</time>
      </trkpt>
      <trkpt lat="44.73043" lon="4.13863">
        <ele>1200.34</ele>
        <time>2013-08-27T14:42:13Z</time>
      </trkpt>
      <trkpt lat="44.7305" lon="4.13872">
        <ele>1200.82</ele>
        <time>2013-08-27T14:42:15Z</time>
      </trkpt>
      <trkpt lat="44.73053" lon="4.13876">
        <ele>1200.82</ele>
        <time>2013-08-27T14:42:16Z</time>
      </trkpt>
      <trkpt lat="44.73067" lon="4.1389">
        <ele>1202.27</ele>
        <time>2013-08-27T14:42:20Z</time>
      </trkpt>
      <trkpt lat="44.73071" lon="4.13894">
        <ele>1201.79</ele>
        <time>2013-08-27T14:42:21Z</time>
      </trkpt>
      <trkpt lat="44.731" lon="4.13923">
        <ele>1203.23</ele>
        <time>2013-08-27T14:42:33Z</time>
      </trkpt>
      <trkpt lat="44.73101" lon="4.13924">
        <ele>1203.23</ele>
        <time>2013-08-27T14:42:34Z</time>
      </trkpt>
      <trkpt lat="44.73103" lon="4.13926">
        <ele>1203.23</ele>
        <time>2013-08-27T14:42:35Z</time>
      </trkpt>
      <trkpt lat="44.73104" lon="4.13927">
        <ele>1203.23</ele>
        <time>2013-08-27T14:42:36Z</time>
      </trkpt>
      <trkpt lat="44.73106" lon="4.13929">
        <ele>1203.71</ele>
        <time>2013-08-27T14:42:38Z</time>
      </trkpt>
      <trkpt lat="44.73107" lon="4.13931">
        <ele>1203.71</ele>
        <time>2013-08-27T14:42:39Z</time>
      </trkpt>
      <trkpt lat="44.73108" lon="4.13933">
        <ele>1203.71</ele>
        <time>2013-08-27T14:42:40Z</time>
      </trkpt>
      <trkpt lat="44.7311" lon="4.13935">
        <ele>1203.23</ele>
        <time>2013-08-27T14:42:41Z</time>
      </trkpt>
      <trkpt lat="44.73111" lon="4.13936">
        <ele>1203.71</ele>
        <time>2013-08-27T14:42:42Z</time>
      </trkpt>
      <trkpt lat="44.73113" lon="4.13938">
        <ele>1204.19</ele>
        <time>2013-08-27T14:42:43Z</time>
      </trkpt>
      <trkpt lat="44.73114" lon="4.1394">
        <ele>1203.71</ele>
        <time>2013-08-27T14:42:44Z</time>
      </trkpt>
      <trkpt lat="44.73116" lon="4.13942">
        <ele>1203.23</ele>
        <time>2013-08-27T14:42:45Z</time>
      </trkpt>
      <trkpt lat="44.73118" lon="4.13944">
        <ele>1204.19</ele>
        <time>2013-08-27T14:42:46Z</time>
      </trkpt>
      <trkpt lat="44.73137" lon="4.13974">
        <ele>1204.19</ele>
        <time>2013-08-27T14:42:58Z</time>
      </trkpt>
      <trkpt lat="44.73159" lon="4.14021">
        <ele>1204.19</ele>
        <time>2013-08-27T14:43:12Z</time>
      </trkpt>
      <trkpt lat="44.7317" lon="4.14052">
        <ele>1205.63</ele>
        <time>2013-08-27T14:43:22Z</time>
      </trkpt>
      <trkpt lat="44.73176" lon="4.14082">
        <ele>1208.51</ele>
        <time>2013-08-27T14:43:32Z</time>
      </trkpt>
      <trkpt lat="44.73176" lon="4.14086">
        <ele>1207.55</ele>
        <time>2013-08-27T14:43:35Z</time>
      </trkpt>
      <trkpt lat="44.73177" lon="4.14088">
        <ele>1208.51</ele>
        <time>2013-08-27T14:43:36Z</time>
      </trkpt>
      <trkpt lat="44.73177" lon="4.1409">
        <ele>1208.51</ele>
        <time>2013-08-27T14:43:37Z</time>
      </trkpt>
      <trkpt lat="44.73177" lon="4.14093">
        <ele>1208.51</ele>
        <time>2013-08-27T14:43:38Z</time>
      </trkpt>
      <trkpt lat="44.73177" lon="4.14095">
        <ele>1208.51</ele>
        <time>2013-08-27T14:43:39Z</time>
      </trkpt>
      <trkpt lat="44.73177" lon="4.14098">
        <ele>1208.51</ele>
        <time>2013-08-27T14:43:40Z</time>
      </trkpt>
      <trkpt lat="44.73177" lon="4.14101">
        <ele>1209.48</ele>
        <time>2013-08-27T14:43:52Z</time>
      </trkpt>
      <trkpt lat="44.73177" lon="4.14104">
        <ele>1208.51</ele>
        <time>2013-08-27T14:44:06Z</time>
      </trkpt>
      <trkpt lat="44.73177" lon="4.14108">
        <ele>1208.51</ele>
        <time>2013-08-27T14:44:07Z</time>
      </trkpt>
      <trkpt lat="44.73175" lon="4.1411">
        <ele>1209</ele>
        <time>2013-08-27T14:44:08Z</time>
      </trkpt>
      <trkpt lat="44.73175" lon="4.14112">
        <ele>1209.48</ele>
        <time>2013-08-27T14:44:09Z</time>
      </trkpt>
      <trkpt lat="44.73175" lon="4.14116">
        <ele>1209.48</ele>
        <time>2013-08-27T14:44:11Z</time>
      </trkpt>
      <trkpt lat="44.73175" lon="4.1412">
        <ele>1209.96</ele>
        <time>2013-08-27T14:44:12Z</time>
      </trkpt>
      <trkpt lat="44.73175" lon="4.14124">
        <ele>1210.44</ele>
        <time>2013-08-27T14:44:13Z</time>
      </trkpt>
      <trkpt lat="44.73175" lon="4.14129">
        <ele>1210.44</ele>
        <time>2013-08-27T14:44:14Z</time>
      </trkpt>
      <trkpt lat="44.73175" lon="4.14132">
        <ele>1210.92</ele>
        <time>2013-08-27T14:44:15Z</time>
      </trkpt>
      <trkpt lat="44.73175" lon="4.14136">
        <ele>1210.92</ele>
        <time>2013-08-27T14:44:16Z</time>
      </trkpt>
      <trkpt lat="44.73174" lon="4.1414">
        <ele>1211.4</ele>
        <time>2013-08-27T14:44:17Z</time>
      </trkpt>
      <trkpt lat="44.73174" lon="4.14145">
        <ele>1210.92</ele>
        <time>2013-08-27T14:44:18Z</time>
      </trkpt>
      <trkpt lat="44.73174" lon="4.1415">
        <ele>1211.4</ele>
        <time>2013-08-27T14:44:19Z</time>
      </trkpt>
      <trkpt lat="44.73173" lon="4.14154">
        <ele>1211.88</ele>
        <time>2013-08-27T14:44:20Z</time>
      </trkpt>
      <trkpt lat="44.73172" lon="4.14158">
        <ele>1211.4</ele>
        <time>2013-08-27T14:44:21Z</time>
      </trkpt>
      <trkpt lat="44.73166" lon="4.1422">
        <ele>1212.36</ele>
        <time>2013-08-27T14:44:34Z</time>
      </trkpt>
      <trkpt lat="44.73164" lon="4.14248">
        <ele>1212.36</ele>
        <time>2013-08-27T14:44:40Z</time>
      </trkpt>
      <trkpt lat="44.73164" lon="4.14252">
        <ele>1212.84</ele>
        <time>2013-08-27T14:44:41Z</time>
      </trkpt>
      <trkpt lat="44.73165" lon="4.14257">
        <ele>1212.84</ele>
        <time>2013-08-27T14:44:42Z</time>
      </trkpt>
      <trkpt lat="44.73166" lon="4.14262">
        <ele>1212.84</ele>
        <time>2013-08-27T14:44:43Z</time>
      </trkpt>
      <trkpt lat="44.73167" lon="4.14267">
        <ele>1212.84</ele>
        <time>2013-08-27T14:44:44Z</time>
      </trkpt>
      <trkpt lat="44.73169" lon="4.14271">
        <ele>1212.36</ele>
        <time>2013-08-27T14:44:45Z</time>
      </trkpt>
      <trkpt lat="44.73171" lon="4.14276">
        <ele>1212.84</ele>
        <time>2013-08-27T14:44:46Z</time>
      </trkpt>
      <trkpt lat="44.73172" lon="4.14279">
        <ele>1212.84</ele>
        <time>2013-08-27T14:44:47Z</time>
      </trkpt>
      <trkpt lat="44.73174" lon="4.14283">
        <ele>1213.32</ele>
        <time>2013-08-27T14:44:48Z</time>
      </trkpt>
      <trkpt lat="44.73177" lon="4.14286">
        <ele>1213.32</ele>
        <time>2013-08-27T14:44:49Z</time>
      </trkpt>
      <trkpt lat="44.73179" lon="4.14289">
        <ele>1213.32</ele>
        <time>2013-08-27T14:44:50Z</time>
      </trkpt>
      <trkpt lat="44.73181" lon="4.14292">
        <ele>1213.32</ele>
        <time>2013-08-27T14:44:51Z</time>
      </trkpt>
      <trkpt lat="44.73183" lon="4.14296">
        <ele>1213.8</ele>
        <time>2013-08-27T14:44:52Z</time>
      </trkpt>
      <trkpt lat="44.73184" lon="4.14299">
        <ele>1213.8</ele>
        <time>2013-08-27T14:44:53Z</time>
      </trkpt>
      <trkpt lat="44.73193" lon="4.14318">
        <ele>1214.76</ele>
        <time>2013-08-27T14:45:06Z</time>
      </trkpt>
      <trkpt lat="44.73194" lon="4.14319">
        <ele>1214.76</ele>
        <time>2013-08-27T14:45:08Z</time>
      </trkpt>
      <trkpt lat="44.73195" lon="4.14321">
        <ele>1214.76</ele>
        <time>2013-08-27T14:45:09Z</time>
      </trkpt>
      <trkpt lat="44.73196" lon="4.14322">
        <ele>1214.76</ele>
        <time>2013-08-27T14:45:10Z</time>
      </trkpt>
      <trkpt lat="44.73198" lon="4.14324">
        <ele>1215.24</ele>
        <time>2013-08-27T14:45:11Z</time>
      </trkpt>
      <trkpt lat="44.73199" lon="4.14325">
        <ele>1215.24</ele>
        <time>2013-08-27T14:45:12Z</time>
      </trkpt>
      <trkpt lat="44.732" lon="4.14326">
        <ele>1215.24</ele>
        <time>2013-08-27T14:45:13Z</time>
      </trkpt>
      <trkpt lat="44.73201" lon="4.14327">
        <ele>1215.24</ele>
        <time>2013-08-27T14:45:14Z</time>
      </trkpt>
      <trkpt lat="44.73202" lon="4.14329">
        <ele>1214.76</ele>
        <time>2013-08-27T14:45:15Z</time>
      </trkpt>
      <trkpt lat="44.7322" lon="4.14352">
        <ele>1218.13</ele>
        <time>2013-08-27T14:45:27Z</time>
      </trkpt>
      <trkpt lat="44.73216" lon="4.1437">
        <ele>1220.05</ele>
        <time>2013-08-27T14:45:36Z</time>
      </trkpt>
      <trkpt lat="44.73214" lon="4.14371">
        <ele>1220.05</ele>
        <time>2013-08-27T14:45:37Z</time>
      </trkpt>
      <trkpt lat="44.73214" lon="4.14373">
        <ele>1220.53</ele>
        <time>2013-08-27T14:45:38Z</time>
      </trkpt>
      <trkpt lat="44.73212" lon="4.14375">
        <ele>1220.53</ele>
        <time>2013-08-27T14:45:39Z</time>
      </trkpt>
      <trkpt lat="44.73212" lon="4.14377">
        <ele>1220.53</ele>
        <time>2013-08-27T14:45:40Z</time>
      </trkpt>
      <trkpt lat="44.73203" lon="4.14404">
        <ele>1222.93</ele>
        <time>2013-08-27T14:45:51Z</time>
      </trkpt>
      <trkpt lat="44.73201" lon="4.14416">
        <ele>1222.93</ele>
        <time>2013-08-27T14:45:56Z</time>
      </trkpt>
      <trkpt lat="44.73198" lon="4.14433">
        <ele>1223.9</ele>
        <time>2013-08-27T14:46:03Z</time>
      </trkpt>
      <trkpt lat="44.73198" lon="4.14436">
        <ele>1224.38</ele>
        <time>2013-08-27T14:46:04Z</time>
      </trkpt>
      <trkpt lat="44.73197" lon="4.14438">
        <ele>1224.38</ele>
        <time>2013-08-27T14:46:05Z</time>
      </trkpt>
      <trkpt lat="44.73196" lon="4.1444">
        <ele>1224.38</ele>
        <time>2013-08-27T14:46:06Z</time>
      </trkpt>
      <trkpt lat="44.73196" lon="4.14442">
        <ele>1224.86</ele>
        <time>2013-08-27T14:46:07Z</time>
      </trkpt>
      <trkpt lat="44.73195" lon="4.14444">
        <ele>1225.34</ele>
        <time>2013-08-27T14:46:08Z</time>
      </trkpt>
      <trkpt lat="44.73198" lon="4.14455">
        <ele>1226.3</ele>
        <time>2013-08-27T14:46:14Z</time>
      </trkpt>
      <trkpt lat="44.732" lon="4.14457">
        <ele>1226.78</ele>
        <time>2013-08-27T14:46:15Z</time>
      </trkpt>
      <trkpt lat="44.73204" lon="4.14462">
        <ele>1227.26</ele>
        <time>2013-08-27T14:46:19Z</time>
      </trkpt>
      <trkpt lat="44.73205" lon="4.14462">
        <ele>1227.26</ele>
        <time>2013-08-27T14:46:20Z</time>
      </trkpt>
      <trkpt lat="44.73206" lon="4.14462">
        <ele>1227.74</ele>
        <time>2013-08-27T14:46:21Z</time>
      </trkpt>
      <trkpt lat="44.73208" lon="4.14463">
        <ele>1227.74</ele>
        <time>2013-08-27T14:46:22Z</time>
      </trkpt>
      <trkpt lat="44.73209" lon="4.14463">
        <ele>1228.22</ele>
        <time>2013-08-27T14:46:23Z</time>
      </trkpt>
      <trkpt lat="44.73211" lon="4.14464">
        <ele>1228.22</ele>
        <time>2013-08-27T14:46:24Z</time>
      </trkpt>
      <trkpt lat="44.73212" lon="4.14464">
        <ele>1228.22</ele>
        <time>2013-08-27T14:46:25Z</time>
      </trkpt>
      <trkpt lat="44.73214" lon="4.14464">
        <ele>1228.22</ele>
        <time>2013-08-27T14:46:26Z</time>
      </trkpt>
      <trkpt lat="44.73215" lon="4.14465">
        <ele>1228.7</ele>
        <time>2013-08-27T14:46:27Z</time>
      </trkpt>
      <trkpt lat="44.73225" lon="4.14469">
        <ele>1230.14</ele>
        <time>2013-08-27T14:46:34Z</time>
      </trkpt>
      <trkpt lat="44.73227" lon="4.1447">
        <ele>1230.14</ele>
        <time>2013-08-27T14:46:35Z</time>
      </trkpt>
      <trkpt lat="44.73228" lon="4.1447">
        <ele>1230.14</ele>
        <time>2013-08-27T14:46:36Z</time>
      </trkpt>
      <trkpt lat="44.73232" lon="4.14474">
        <ele>1230.62</ele>
        <time>2013-08-27T14:46:39Z</time>
      </trkpt>
      <trkpt lat="44.73233" lon="4.14475">
        <ele>1231.11</ele>
        <time>2013-08-27T14:46:40Z</time>
      </trkpt>
      <trkpt lat="44.73233" lon="4.14477">
        <ele>1231.59</ele>
        <time>2013-08-27T14:46:41Z</time>
      </trkpt>
      <trkpt lat="44.73234" lon="4.14479">
        <ele>1231.11</ele>
        <time>2013-08-27T14:46:42Z</time>
      </trkpt>
      <trkpt lat="44.73235" lon="4.14481">
        <ele>1231.11</ele>
        <time>2013-08-27T14:46:43Z</time>
      </trkpt>
      <trkpt lat="44.73236" lon="4.14483">
        <ele>1231.11</ele>
        <time>2013-08-27T14:46:44Z</time>
      </trkpt>
      <trkpt lat="44.73236" lon="4.14485">
        <ele>1231.59</ele>
        <time>2013-08-27T14:46:45Z</time>
      </trkpt>
      <trkpt lat="44.73248" lon="4.14515">
        <ele>1233.99</ele>
        <time>2013-08-27T14:46:59Z</time>
      </trkpt>
      <trkpt lat="44.73254" lon="4.14531">
        <ele>1235.91</ele>
        <time>2013-08-27T14:47:07Z</time>
      </trkpt>
      <trkpt lat="44.73255" lon="4.14532">
        <ele>1235.91</ele>
        <time>2013-08-27T14:47:08Z</time>
      </trkpt>
      <trkpt lat="44.73256" lon="4.14534">
        <ele>1235.91</ele>
        <time>2013-08-27T14:47:09Z</time>
      </trkpt>
      <trkpt lat="44.7326" lon="4.1454">
        <ele>1236.39</ele>
        <time>2013-08-27T14:47:13Z</time>
      </trkpt>
      <trkpt lat="44.73261" lon="4.14541">
        <ele>1236.39</ele>
        <time>2013-08-27T14:47:15Z</time>
      </trkpt>
      <trkpt lat="44.73262" lon="4.14542">
        <ele>1236.39</ele>
        <time>2013-08-27T14:47:16Z</time>
      </trkpt>
      <trkpt lat="44.73264" lon="4.14543">
        <ele>1236.39</ele>
        <time>2013-08-27T14:47:17Z</time>
      </trkpt>
      <trkpt lat="44.73274" lon="4.14553">
        <ele>1237.35</ele>
        <time>2013-08-27T14:47:28Z</time>
      </trkpt>
      <trkpt lat="44.7328" lon="4.1456">
        <ele>1237.35</ele>
        <time>2013-08-27T14:47:36Z</time>
      </trkpt>
      <trkpt lat="44.73281" lon="4.14561">
        <ele>1237.83</ele>
        <time>2013-08-27T14:47:37Z</time>
      </trkpt>
      <trkpt lat="44.73282" lon="4.14562">
        <ele>1237.83</ele>
        <time>2013-08-27T14:47:52Z</time>
      </trkpt>
      <trkpt lat="44.73282" lon="4.14562">
        <ele>1239.28</ele>
        <time>2013-08-27T14:48:12Z</time>
      </trkpt>
      <trkpt lat="44.73282" lon="4.14562">
        <ele>1237.83</ele>
        <time>2013-08-27T14:48:14Z</time>
      </trkpt>
      <trkpt lat="44.73283" lon="4.14562">
        <ele>1237.35</ele>
        <time>2013-08-27T14:48:23Z</time>
      </trkpt>
      <trkpt lat="44.73284" lon="4.14564">
        <ele>1236.87</ele>
        <time>2013-08-27T14:48:24Z</time>
      </trkpt>
      <trkpt lat="44.73286" lon="4.14566">
        <ele>1236.87</ele>
        <time>2013-08-27T14:48:25Z</time>
      </trkpt>
      <trkpt lat="44.73288" lon="4.14568">
        <ele>1236.87</ele>
        <time>2013-08-27T14:48:26Z</time>
      </trkpt>
      <trkpt lat="44.7329" lon="4.14571">
        <ele>1237.35</ele>
        <time>2013-08-27T14:48:27Z</time>
      </trkpt>
      <trkpt lat="44.73291" lon="4.14573">
        <ele>1237.83</ele>
        <time>2013-08-27T14:48:28Z</time>
      </trkpt>
      <trkpt lat="44.73293" lon="4.14576">
        <ele>1237.83</ele>
        <time>2013-08-27T14:48:29Z</time>
      </trkpt>
      <trkpt lat="44.7332" lon="4.14615">
        <ele>1239.28</ele>
        <time>2013-08-27T14:48:41Z</time>
      </trkpt>
      <trkpt lat="44.73344" lon="4.14651">
        <ele>1240.24</ele>
        <time>2013-08-27T14:48:52Z</time>
      </trkpt>
      <trkpt lat="44.73369" lon="4.14687">
        <ele>1240.72</ele>
        <time>2013-08-27T14:49:02Z</time>
      </trkpt>
      <trkpt lat="44.73373" lon="4.14693">
        <ele>1240.72</ele>
        <time>2013-08-27T14:49:03Z</time>
      </trkpt>
      <trkpt lat="44.73412" lon="4.14745">
        <ele>1242.16</ele>
        <time>2013-08-27T14:49:12Z</time>
      </trkpt>
      <trkpt lat="44.73415" lon="4.14751">
        <ele>1242.16</ele>
        <time>2013-08-27T14:49:13Z</time>
      </trkpt>
      <trkpt lat="44.73439" lon="4.14793">
        <ele>1242.64</ele>
        <time>2013-08-27T14:49:20Z</time>
      </trkpt>
      <trkpt lat="44.73451" lon="4.14806">
        <ele>1243.12</ele>
        <time>2013-08-27T14:49:23Z</time>
      </trkpt>
      <trkpt lat="44.73455" lon="4.1481">
        <ele>1243.12</ele>
        <time>2013-08-27T14:49:24Z</time>
      </trkpt>
      <trkpt lat="44.73459" lon="4.14813">
        <ele>1243.6</ele>
        <time>2013-08-27T14:49:25Z</time>
      </trkpt>
      <trkpt lat="44.73463" lon="4.14816">
        <ele>1243.6</ele>
        <time>2013-08-27T14:49:26Z</time>
      </trkpt>
      <trkpt lat="44.73467" lon="4.14818">
        <ele>1244.08</ele>
        <time>2013-08-27T14:49:27Z</time>
      </trkpt>
      <trkpt lat="44.7347" lon="4.14821">
        <ele>1244.56</ele>
        <time>2013-08-27T14:49:28Z</time>
      </trkpt>
      <trkpt lat="44.73473" lon="4.14824">
        <ele>1245.04</ele>
        <time>2013-08-27T14:49:29Z</time>
      </trkpt>
      <trkpt lat="44.73476" lon="4.14826">
        <ele>1244.56</ele>
        <time>2013-08-27T14:49:30Z</time>
      </trkpt>
      <trkpt lat="44.73498" lon="4.14852">
        <ele>1246.49</ele>
        <time>2013-08-27T14:49:40Z</time>
      </trkpt>
      <trkpt lat="44.73507" lon="4.1486">
        <ele>1246.49</ele>
        <time>2013-08-27T14:49:45Z</time>
      </trkpt>
      <trkpt lat="44.73527" lon="4.14873">
        <ele>1248.41</ele>
        <time>2013-08-27T14:49:58Z</time>
      </trkpt>
      <trkpt lat="44.73536" lon="4.14878">
        <ele>1249.37</ele>
        <time>2013-08-27T14:50:03Z</time>
      </trkpt>
      <trkpt lat="44.73537" lon="4.14879">
        <ele>1248.89</ele>
        <time>2013-08-27T14:50:04Z</time>
      </trkpt>
      <trkpt lat="44.73558" lon="4.14891">
        <ele>1249.37</ele>
        <time>2013-08-27T14:50:18Z</time>
      </trkpt>
      <trkpt lat="44.73582" lon="4.14895">
        <ele>1251.77</ele>
        <time>2013-08-27T14:50:33Z</time>
      </trkpt>
      <trkpt lat="44.73584" lon="4.14895">
        <ele>1251.77</ele>
        <time>2013-08-27T14:50:34Z</time>
      </trkpt>
      <trkpt lat="44.73585" lon="4.14896">
        <ele>1252.25</ele>
        <time>2013-08-27T14:50:35Z</time>
      </trkpt>
      <trkpt lat="44.73587" lon="4.14896">
        <ele>1252.25</ele>
        <time>2013-08-27T14:50:36Z</time>
      </trkpt>
      <trkpt lat="44.73588" lon="4.14896">
        <ele>1252.74</ele>
        <time>2013-08-27T14:50:37Z</time>
      </trkpt>
      <trkpt lat="44.73589" lon="4.14896">
        <ele>1252.74</ele>
        <time>2013-08-27T14:50:38Z</time>
      </trkpt>
      <trkpt lat="44.7361" lon="4.14897">
        <ele>1254.66</ele>
        <time>2013-08-27T14:50:51Z</time>
      </trkpt>
      <trkpt lat="44.7363" lon="4.14899">
        <ele>1257.06</ele>
        <time>2013-08-27T14:51:04Z</time>
      </trkpt>
      <trkpt lat="44.73654" lon="4.14902">
        <ele>1257.54</ele>
        <time>2013-08-27T14:51:17Z</time>
      </trkpt>
      <trkpt lat="44.73678" lon="4.14908">
        <ele>1258.02</ele>
        <time>2013-08-27T14:51:28Z</time>
      </trkpt>
      <trkpt lat="44.73682" lon="4.14907">
        <ele>1258.02</ele>
        <time>2013-08-27T14:51:30Z</time>
      </trkpt>
      <trkpt lat="44.73703" lon="4.14902">
        <ele>1258.98</ele>
        <time>2013-08-27T14:51:40Z</time>
      </trkpt>
      <trkpt lat="44.73711" lon="4.14898">
        <ele>1258.98</ele>
        <time>2013-08-27T14:51:43Z</time>
      </trkpt>
      <trkpt lat="44.73712" lon="4.14897">
        <ele>1258.98</ele>
        <time>2013-08-27T14:51:44Z</time>
      </trkpt>
      <trkpt lat="44.73714" lon="4.14895">
        <ele>1258.98</ele>
        <time>2013-08-27T14:51:45Z</time>
      </trkpt>
      <trkpt lat="44.73716" lon="4.14893">
        <ele>1258.98</ele>
        <time>2013-08-27T14:51:46Z</time>
      </trkpt>
      <trkpt lat="44.73718" lon="4.14892">
        <ele>1258.5</ele>
        <time>2013-08-27T14:51:47Z</time>
      </trkpt>
      <trkpt lat="44.73719" lon="4.1489">
        <ele>1258.98</ele>
        <time>2013-08-27T14:51:48Z</time>
      </trkpt>
      <trkpt lat="44.73721" lon="4.14889">
        <ele>1258.98</ele>
        <time>2013-08-27T14:51:49Z</time>
      </trkpt>
      <trkpt lat="44.73723" lon="4.14887">
        <ele>1258.5</ele>
        <time>2013-08-27T14:51:50Z</time>
      </trkpt>
      <trkpt lat="44.73725" lon="4.14886">
        <ele>1258.98</ele>
        <time>2013-08-27T14:51:51Z</time>
      </trkpt>
      <trkpt lat="44.73728" lon="4.14884">
        <ele>1258.5</ele>
        <time>2013-08-27T14:51:52Z</time>
      </trkpt>
      <trkpt lat="44.73731" lon="4.14883">
        <ele>1259.46</ele>
        <time>2013-08-27T14:51:53Z</time>
      </trkpt>
      <trkpt lat="44.73749" lon="4.1486">
        <ele>1258.98</ele>
        <time>2013-08-27T14:52:04Z</time>
      </trkpt>
      <trkpt lat="44.73753" lon="4.14852">
        <ele>1260.91</ele>
        <time>2013-08-27T14:52:07Z</time>
      </trkpt>
      <trkpt lat="44.73755" lon="4.14852">
        <ele>1261.39</ele>
        <time>2013-08-27T14:52:08Z</time>
      </trkpt>
      <trkpt lat="44.73757" lon="4.14853">
        <ele>1262.83</ele>
        <time>2013-08-27T14:52:09Z</time>
      </trkpt>
      <trkpt lat="44.73758" lon="4.14856">
        <ele>1262.83</ele>
        <time>2013-08-27T14:52:10Z</time>
      </trkpt>
      <trkpt lat="44.73758" lon="4.14858">
        <ele>1261.87</ele>
        <time>2013-08-27T14:52:11Z</time>
      </trkpt>
      <trkpt lat="44.73757" lon="4.1486">
        <ele>1262.35</ele>
        <time>2013-08-27T14:52:12Z</time>
      </trkpt>
      <trkpt lat="44.73758" lon="4.14863">
        <ele>1262.35</ele>
        <time>2013-08-27T14:52:25Z</time>
      </trkpt>
      <trkpt lat="44.73756" lon="4.14869">
        <ele>1262.35</ele>
        <time>2013-08-27T14:52:56Z</time>
      </trkpt>
      <trkpt lat="44.73751" lon="4.14908">
        <ele>1262.83</ele>
        <time>2013-08-27T14:53:09Z</time>
      </trkpt>
      <trkpt lat="44.73758" lon="4.14959">
        <ele>1260.43</ele>
        <time>2013-08-27T14:53:21Z</time>
      </trkpt>
      <trkpt lat="44.73768" lon="4.14989">
        <ele>1259.46</ele>
        <time>2013-08-27T14:53:27Z</time>
      </trkpt>
      <trkpt lat="44.73771" lon="4.14994">
        <ele>1259.46</ele>
        <time>2013-08-27T14:53:28Z</time>
      </trkpt>
      <trkpt lat="44.73773" lon="4.14999">
        <ele>1259.46</ele>
        <time>2013-08-27T14:53:29Z</time>
      </trkpt>
      <trkpt lat="44.73781" lon="4.1502">
        <ele>1259.46</ele>
        <time>2013-08-27T14:53:33Z</time>
      </trkpt>
      <trkpt lat="44.73807" lon="4.15088">
        <ele>1257.54</ele>
        <time>2013-08-27T14:53:47Z</time>
      </trkpt>
      <trkpt lat="44.73808" lon="4.15094">
        <ele>1258.5</ele>
        <time>2013-08-27T14:53:48Z</time>
      </trkpt>
      <trkpt lat="44.73808" lon="4.151">
        <ele>1258.5</ele>
        <time>2013-08-27T14:53:49Z</time>
      </trkpt>
      <trkpt lat="44.73807" lon="4.15105">
        <ele>1258.02</ele>
        <time>2013-08-27T14:53:50Z</time>
      </trkpt>
      <trkpt lat="44.73806" lon="4.15111">
        <ele>1258.02</ele>
        <time>2013-08-27T14:53:51Z</time>
      </trkpt>
      <trkpt lat="44.73804" lon="4.15116">
        <ele>1257.54</ele>
        <time>2013-08-27T14:53:52Z</time>
      </trkpt>
      <trkpt lat="44.73802" lon="4.15121">
        <ele>1257.54</ele>
        <time>2013-08-27T14:53:53Z</time>
      </trkpt>
      <trkpt lat="44.73799" lon="4.15125">
        <ele>1257.06</ele>
        <time>2013-08-27T14:53:54Z</time>
      </trkpt>
      <trkpt lat="44.73796" lon="4.15129">
        <ele>1258.02</ele>
        <time>2013-08-27T14:53:55Z</time>
      </trkpt>
      <trkpt lat="44.73792" lon="4.15132">
        <ele>1257.54</ele>
        <time>2013-08-27T14:53:56Z</time>
      </trkpt>
      <trkpt lat="44.73788" lon="4.15134">
        <ele>1257.54</ele>
        <time>2013-08-27T14:53:57Z</time>
      </trkpt>
      <trkpt lat="44.73784" lon="4.15136">
        <ele>1257.54</ele>
        <time>2013-08-27T14:53:58Z</time>
      </trkpt>
      <trkpt lat="44.7378" lon="4.15137">
        <ele>1257.54</ele>
        <time>2013-08-27T14:53:59Z</time>
      </trkpt>
      <trkpt lat="44.73776" lon="4.15138">
        <ele>1257.06</ele>
        <time>2013-08-27T14:54:00Z</time>
      </trkpt>
      <trkpt lat="44.73772" lon="4.15139">
        <ele>1257.06</ele>
        <time>2013-08-27T14:54:01Z</time>
      </trkpt>
      <trkpt lat="44.73765" lon="4.15141">
        <ele>1257.06</ele>
        <time>2013-08-27T14:54:03Z</time>
      </trkpt>
      <trkpt lat="44.73761" lon="4.15142">
        <ele>1257.06</ele>
        <time>2013-08-27T14:54:04Z</time>
      </trkpt>
      <trkpt lat="44.73757" lon="4.15144">
        <ele>1257.06</ele>
        <time>2013-08-27T14:54:05Z</time>
      </trkpt>
      <trkpt lat="44.73744" lon="4.15151">
        <ele>1257.54</ele>
        <time>2013-08-27T14:54:08Z</time>
      </trkpt>
      <trkpt lat="44.73732" lon="4.15161">
        <ele>1256.58</ele>
        <time>2013-08-27T14:54:11Z</time>
      </trkpt>
      <trkpt lat="44.73692" lon="4.15246">
        <ele>1255.14</ele>
        <time>2013-08-27T14:54:25Z</time>
      </trkpt>
      <trkpt lat="44.73668" lon="4.15314">
        <ele>1253.7</ele>
        <time>2013-08-27T14:54:34Z</time>
      </trkpt>
      <trkpt lat="44.73605" lon="4.15436">
        <ele>1250.33</ele>
        <time>2013-08-27T14:54:50Z</time>
      </trkpt>
      <trkpt lat="44.73578" lon="4.15545">
        <ele>1247.93</ele>
        <time>2013-08-27T14:55:02Z</time>
      </trkpt>
      <trkpt lat="44.73578" lon="4.15555">
        <ele>1247.45</ele>
        <time>2013-08-27T14:55:03Z</time>
      </trkpt>
      <trkpt lat="44.73578" lon="4.15565">
        <ele>1247.45</ele>
        <time>2013-08-27T14:55:04Z</time>
      </trkpt>
      <trkpt lat="44.73581" lon="4.15585">
        <ele>1246.97</ele>
        <time>2013-08-27T14:55:06Z</time>
      </trkpt>
      <trkpt lat="44.73591" lon="4.15621">
        <ele>1246.01</ele>
        <time>2013-08-27T14:55:10Z</time>
      </trkpt>
      <trkpt lat="44.736" lon="4.15647">
        <ele>1245.53</ele>
        <time>2013-08-27T14:55:13Z</time>
      </trkpt>
      <trkpt lat="44.73604" lon="4.15666">
        <ele>1245.53</ele>
        <time>2013-08-27T14:55:15Z</time>
      </trkpt>
      <trkpt lat="44.73605" lon="4.15675">
        <ele>1245.53</ele>
        <time>2013-08-27T14:55:16Z</time>
      </trkpt>
      <trkpt lat="44.73605" lon="4.15685">
        <ele>1245.04</ele>
        <time>2013-08-27T14:55:17Z</time>
      </trkpt>
      <trkpt lat="44.7362" lon="4.15795">
        <ele>1241.68</ele>
        <time>2013-08-27T14:55:29Z</time>
      </trkpt>
      <trkpt lat="44.73649" lon="4.15868">
        <ele>1241.2</ele>
        <time>2013-08-27T14:55:38Z</time>
      </trkpt>
      <trkpt lat="44.7369" lon="4.15921">
        <ele>1239.76</ele>
        <time>2013-08-27T14:55:47Z</time>
      </trkpt>
      <trkpt lat="44.73716" lon="4.15944">
        <ele>1238.32</ele>
        <time>2013-08-27T14:55:52Z</time>
      </trkpt>
      <trkpt lat="44.73749" lon="4.15967">
        <ele>1237.83</ele>
        <time>2013-08-27T14:55:58Z</time>
      </trkpt>
      <trkpt lat="44.73754" lon="4.15972">
        <ele>1237.35</ele>
        <time>2013-08-27T14:55:59Z</time>
      </trkpt>
      <trkpt lat="44.73759" lon="4.15978">
        <ele>1237.35</ele>
        <time>2013-08-27T14:56:00Z</time>
      </trkpt>
      <trkpt lat="44.73764" lon="4.15984">
        <ele>1236.39</ele>
        <time>2013-08-27T14:56:01Z</time>
      </trkpt>
      <trkpt lat="44.73768" lon="4.15991">
        <ele>1236.39</ele>
        <time>2013-08-27T14:56:02Z</time>
      </trkpt>
      <trkpt lat="44.73771" lon="4.15999">
        <ele>1236.39</ele>
        <time>2013-08-27T14:56:03Z</time>
      </trkpt>
      <trkpt lat="44.73788" lon="4.1604">
        <ele>1235.91</ele>
        <time>2013-08-27T14:56:09Z</time>
      </trkpt>
      <trkpt lat="44.73798" lon="4.16076">
        <ele>1235.43</ele>
        <time>2013-08-27T14:56:14Z</time>
      </trkpt>
      <trkpt lat="44.73816" lon="4.16109">
        <ele>1234.47</ele>
        <time>2013-08-27T14:56:19Z</time>
      </trkpt>
      <trkpt lat="44.73821" lon="4.16115">
        <ele>1233.51</ele>
        <time>2013-08-27T14:56:20Z</time>
      </trkpt>
      <trkpt lat="44.73838" lon="4.1613">
        <ele>1232.55</ele>
        <time>2013-08-27T14:56:23Z</time>
      </trkpt>
      <trkpt lat="44.73869" lon="4.16148">
        <ele>1230.14</ele>
        <time>2013-08-27T14:56:28Z</time>
      </trkpt>
      <trkpt lat="44.73875" lon="4.16149">
        <ele>1230.62</ele>
        <time>2013-08-27T14:56:29Z</time>
      </trkpt>
      <trkpt lat="44.73882" lon="4.16149">
        <ele>1230.62</ele>
        <time>2013-08-27T14:56:30Z</time>
      </trkpt>
      <trkpt lat="44.73888" lon="4.16148">
        <ele>1230.62</ele>
        <time>2013-08-27T14:56:31Z</time>
      </trkpt>
      <trkpt lat="44.73895" lon="4.16146">
        <ele>1231.11</ele>
        <time>2013-08-27T14:56:32Z</time>
      </trkpt>
      <trkpt lat="44.73901" lon="4.16143">
        <ele>1231.11</ele>
        <time>2013-08-27T14:56:33Z</time>
      </trkpt>
      <trkpt lat="44.73908" lon="4.1614">
        <ele>1231.11</ele>
        <time>2013-08-27T14:56:34Z</time>
      </trkpt>
      <trkpt lat="44.73914" lon="4.16136">
        <ele>1231.11</ele>
        <time>2013-08-27T14:56:35Z</time>
      </trkpt>
      <trkpt lat="44.73941" lon="4.16126">
        <ele>1229.66</ele>
        <time>2013-08-27T14:56:39Z</time>
      </trkpt>
      <trkpt lat="44.73949" lon="4.16124">
        <ele>1228.7</ele>
        <time>2013-08-27T14:56:40Z</time>
      </trkpt>
      <trkpt lat="44.73963" lon="4.16123">
        <ele>1227.26</ele>
        <time>2013-08-27T14:56:42Z</time>
      </trkpt>
      <trkpt lat="44.74035" lon="4.16124">
        <ele>1223.9</ele>
        <time>2013-08-27T14:56:52Z</time>
      </trkpt>
      <trkpt lat="44.74041" lon="4.16126">
        <ele>1224.38</ele>
        <time>2013-08-27T14:56:53Z</time>
      </trkpt>
      <trkpt lat="44.74047" lon="4.1613">
        <ele>1223.9</ele>
        <time>2013-08-27T14:56:54Z</time>
      </trkpt>
      <trkpt lat="44.74051" lon="4.16135">
        <ele>1224.38</ele>
        <time>2013-08-27T14:56:55Z</time>
      </trkpt>
      <trkpt lat="44.74054" lon="4.16141">
        <ele>1224.38</ele>
        <time>2013-08-27T14:56:56Z</time>
      </trkpt>
      <trkpt lat="44.74054" lon="4.16147">
        <ele>1224.38</ele>
        <time>2013-08-27T14:56:57Z</time>
      </trkpt>
      <trkpt lat="44.74053" lon="4.16152">
        <ele>1224.86</ele>
        <time>2013-08-27T14:56:58Z</time>
      </trkpt>
      <trkpt lat="44.74052" lon="4.16157">
        <ele>1224.38</ele>
        <time>2013-08-27T14:56:59Z</time>
      </trkpt>
      <trkpt lat="44.74051" lon="4.16161">
        <ele>1224.38</ele>
        <time>2013-08-27T14:57:00Z</time>
      </trkpt>
      <trkpt lat="44.74049" lon="4.16164">
        <ele>1224.86</ele>
        <time>2013-08-27T14:57:01Z</time>
      </trkpt>
      <trkpt lat="44.74047" lon="4.16166">
        <ele>1224.38</ele>
        <time>2013-08-27T14:57:02Z</time>
      </trkpt>
      <trkpt lat="44.74044" lon="4.16167">
        <ele>1224.38</ele>
        <time>2013-08-27T14:57:03Z</time>
      </trkpt>
      <trkpt lat="44.74034" lon="4.16169">
        <ele>1223.42</ele>
        <time>2013-08-27T14:57:07Z</time>
      </trkpt>
      <trkpt lat="44.74033" lon="4.16168">
        <ele>1223.9</ele>
        <time>2013-08-27T14:57:08Z</time>
      </trkpt>
      <trkpt lat="44.74031" lon="4.16168">
        <ele>1223.9</ele>
        <time>2013-08-27T14:57:09Z</time>
      </trkpt>
      <trkpt lat="44.7403" lon="4.16169">
        <ele>1223.9</ele>
        <time>2013-08-27T14:57:10Z</time>
      </trkpt>
      <trkpt lat="44.74028" lon="4.16169">
        <ele>1223.9</ele>
        <time>2013-08-27T14:57:11Z</time>
      </trkpt>
      <trkpt lat="44.74026" lon="4.1617">
        <ele>1223.9</ele>
        <time>2013-08-27T14:57:12Z</time>
      </trkpt>
      <trkpt lat="44.73996" lon="4.16188">
        <ele>1222.93</ele>
        <time>2013-08-27T14:57:24Z</time>
      </trkpt>
      <trkpt lat="44.7398" lon="4.16213">
        <ele>1221.97</ele>
        <time>2013-08-27T14:57:30Z</time>
      </trkpt>
      <trkpt lat="44.73975" lon="4.1623">
        <ele>1221.97</ele>
        <time>2013-08-27T14:57:33Z</time>
      </trkpt>
      <trkpt lat="44.73973" lon="4.16237">
        <ele>1221.49</ele>
        <time>2013-08-27T14:57:34Z</time>
      </trkpt>
      <trkpt lat="44.73963" lon="4.16295">
        <ele>1220.05</ele>
        <time>2013-08-27T14:57:42Z</time>
      </trkpt>
      <trkpt lat="44.73961" lon="4.16302">
        <ele>1219.09</ele>
        <time>2013-08-27T14:57:43Z</time>
      </trkpt>
      <trkpt lat="44.73957" lon="4.16309">
        <ele>1218.61</ele>
        <time>2013-08-27T14:57:44Z</time>
      </trkpt>
      <trkpt lat="44.73928" lon="4.16362">
        <ele>1215.72</ele>
        <time>2013-08-27T14:57:51Z</time>
      </trkpt>
      <trkpt lat="44.73911" lon="4.16383">
        <ele>1214.28</ele>
        <time>2013-08-27T14:57:54Z</time>
      </trkpt>
      <trkpt lat="44.73898" lon="4.16396">
        <ele>1212.36</ele>
        <time>2013-08-27T14:57:56Z</time>
      </trkpt>
      <trkpt lat="44.73878" lon="4.16412">
        <ele>1210.44</ele>
        <time>2013-08-27T14:57:59Z</time>
      </trkpt>
      <trkpt lat="44.73851" lon="4.16432">
        <ele>1210.92</ele>
        <time>2013-08-27T14:58:03Z</time>
      </trkpt>
      <trkpt lat="44.73846" lon="4.1644">
        <ele>1209.48</ele>
        <time>2013-08-27T14:58:04Z</time>
      </trkpt>
      <trkpt lat="44.73843" lon="4.16451">
        <ele>1209</ele>
        <time>2013-08-27T14:58:05Z</time>
      </trkpt>
      <trkpt lat="44.73842" lon="4.16462">
        <ele>1209.48</ele>
        <time>2013-08-27T14:58:06Z</time>
      </trkpt>
      <trkpt lat="44.73843" lon="4.16474">
        <ele>1208.51</ele>
        <time>2013-08-27T14:58:07Z</time>
      </trkpt>
      <trkpt lat="44.73845" lon="4.16485">
        <ele>1208.03</ele>
        <time>2013-08-27T14:58:08Z</time>
      </trkpt>
      <trkpt lat="44.73846" lon="4.16497">
        <ele>1207.07</ele>
        <time>2013-08-27T14:58:09Z</time>
      </trkpt>
      <trkpt lat="44.73851" lon="4.16533">
        <ele>1206.11</ele>
        <time>2013-08-27T14:58:12Z</time>
      </trkpt>
      <trkpt lat="44.73851" lon="4.16545">
        <ele>1205.63</ele>
        <time>2013-08-27T14:58:13Z</time>
      </trkpt>
      <trkpt lat="44.73852" lon="4.16569">
        <ele>1205.15</ele>
        <time>2013-08-27T14:58:15Z</time>
      </trkpt>
      <trkpt lat="44.73854" lon="4.16594">
        <ele>1204.19</ele>
        <time>2013-08-27T14:58:17Z</time>
      </trkpt>
      <trkpt lat="44.73857" lon="4.16605">
        <ele>1203.23</ele>
        <time>2013-08-27T14:58:18Z</time>
      </trkpt>
      <trkpt lat="44.73862" lon="4.16616">
        <ele>1202.27</ele>
        <time>2013-08-27T14:58:19Z</time>
      </trkpt>
      <trkpt lat="44.73868" lon="4.16625">
        <ele>1201.3</ele>
        <time>2013-08-27T14:58:20Z</time>
      </trkpt>
      <trkpt lat="44.73875" lon="4.16633">
        <ele>1200.82</ele>
        <time>2013-08-27T14:58:21Z</time>
      </trkpt>
      <trkpt lat="44.73902" lon="4.16671">
        <ele>1199.86</ele>
        <time>2013-08-27T14:58:25Z</time>
      </trkpt>
      <trkpt lat="44.73905" lon="4.16683">
        <ele>1198.9</ele>
        <time>2013-08-27T14:58:26Z</time>
      </trkpt>
      <trkpt lat="44.7391" lon="4.16709">
        <ele>1197.46</ele>
        <time>2013-08-27T14:58:28Z</time>
      </trkpt>
      <trkpt lat="44.73913" lon="4.16722">
        <ele>1196.98</ele>
        <time>2013-08-27T14:58:29Z</time>
      </trkpt>
      <trkpt lat="44.73917" lon="4.16734">
        <ele>1196.5</ele>
        <time>2013-08-27T14:58:30Z</time>
      </trkpt>
      <trkpt lat="44.7393" lon="4.1677">
        <ele>1194.09</ele>
        <time>2013-08-27T14:58:33Z</time>
      </trkpt>
      <trkpt lat="44.73958" lon="4.16841">
        <ele>1194.09</ele>
        <time>2013-08-27T14:58:40Z</time>
      </trkpt>
      <trkpt lat="44.73959" lon="4.16849">
        <ele>1194.09</ele>
        <time>2013-08-27T14:58:41Z</time>
      </trkpt>
      <trkpt lat="44.73956" lon="4.16856">
        <ele>1193.13</ele>
        <time>2013-08-27T14:58:42Z</time>
      </trkpt>
      <trkpt lat="44.73953" lon="4.16862">
        <ele>1191.69</ele>
        <time>2013-08-27T14:58:43Z</time>
      </trkpt>
      <trkpt lat="44.73949" lon="4.16866">
        <ele>1191.21</ele>
        <time>2013-08-27T14:58:44Z</time>
      </trkpt>
      <trkpt lat="44.73945" lon="4.16868">
        <ele>1191.69</ele>
        <time>2013-08-27T14:58:45Z</time>
      </trkpt>
      <trkpt lat="44.73942" lon="4.16869">
        <ele>1192.17</ele>
        <time>2013-08-27T14:58:46Z</time>
      </trkpt>
      <trkpt lat="44.73937" lon="4.16872">
        <ele>1189.77</ele>
        <time>2013-08-27T14:58:48Z</time>
      </trkpt>
      <trkpt lat="44.73936" lon="4.16875">
        <ele>1189.77</ele>
        <time>2013-08-27T14:58:49Z</time>
      </trkpt>
      <trkpt lat="44.73932" lon="4.16879">
        <ele>1193.61</ele>
        <time>2013-08-27T14:58:51Z</time>
      </trkpt>
      <trkpt lat="44.7393" lon="4.16878">
        <ele>1194.09</ele>
        <time>2013-08-27T14:58:52Z</time>
      </trkpt>
      <trkpt lat="44.73929" lon="4.16877">
        <ele>1194.09</ele>
        <time>2013-08-27T14:58:53Z</time>
      </trkpt>
      <trkpt lat="44.73928" lon="4.16875">
        <ele>1195.06</ele>
        <time>2013-08-27T14:59:03Z</time>
      </trkpt>
      <trkpt lat="44.73928" lon="4.16875">
        <ele>1193.61</ele>
        <time>2013-08-27T14:59:28Z</time>
      </trkpt>
      <trkpt lat="44.73925" lon="4.16874">
        <ele>1195.54</ele>
        <time>2013-08-27T14:59:58Z</time>
      </trkpt>
      <trkpt lat="44.73912" lon="4.16867">
        <ele>1196.5</ele>
        <time>2013-08-27T15:00:09Z</time>
      </trkpt>
      <trkpt lat="44.73912" lon="4.16867">
        <ele>1196.5</ele>
        <time>2013-08-27T15:00:10Z</time>
      </trkpt>
      <trkpt lat="44.73909" lon="4.16865">
        <ele>1196.98</ele>
        <time>2013-08-27T15:00:18Z</time>
      </trkpt>
      <trkpt lat="44.73908" lon="4.16863">
        <ele>1196.5</ele>
        <time>2013-08-27T15:00:19Z</time>
      </trkpt>
      <trkpt lat="44.73906" lon="4.16861">
        <ele>1196.5</ele>
        <time>2013-08-27T15:00:20Z</time>
      </trkpt>
      <trkpt lat="44.73905" lon="4.16859">
        <ele>1196.5</ele>
        <time>2013-08-27T15:00:21Z</time>
      </trkpt>
      <trkpt lat="44.73904" lon="4.16856">
        <ele>1196.5</ele>
        <time>2013-08-27T15:00:22Z</time>
      </trkpt>
      <trkpt lat="44.73902" lon="4.16854">
        <ele>1196.5</ele>
        <time>2013-08-27T15:00:23Z</time>
      </trkpt>
      <trkpt lat="44.739" lon="4.16851">
        <ele>1196.02</ele>
        <time>2013-08-27T15:00:24Z</time>
      </trkpt>
      <trkpt lat="44.73898" lon="4.16848">
        <ele>1196.98</ele>
        <time>2013-08-27T15:00:25Z</time>
      </trkpt>
      <trkpt lat="44.73896" lon="4.16846">
        <ele>1196.5</ele>
        <time>2013-08-27T15:00:26Z</time>
      </trkpt>
      <trkpt lat="44.73894" lon="4.16844">
        <ele>1196.5</ele>
        <time>2013-08-27T15:00:27Z</time>
      </trkpt>
      <trkpt lat="44.73892" lon="4.16841">
        <ele>1196.98</ele>
        <time>2013-08-27T15:00:28Z</time>
      </trkpt>
      <trkpt lat="44.7389" lon="4.16839">
        <ele>1196.98</ele>
        <time>2013-08-27T15:00:29Z</time>
      </trkpt>
      <trkpt lat="44.73888" lon="4.16838">
        <ele>1196.98</ele>
        <time>2013-08-27T15:00:30Z</time>
      </trkpt>
      <trkpt lat="44.73887" lon="4.16836">
        <ele>1196.98</ele>
        <time>2013-08-27T15:00:31Z</time>
      </trkpt>
      <trkpt lat="44.73858" lon="4.16816">
        <ele>1198.9</ele>
        <time>2013-08-27T15:00:44Z</time>
      </trkpt>
      <trkpt lat="44.73819" lon="4.16816">
        <ele>1201.3</ele>
        <time>2013-08-27T15:01:00Z</time>
      </trkpt>
      <trkpt lat="44.73791" lon="4.1682">
        <ele>1203.71</ele>
        <time>2013-08-27T15:01:12Z</time>
      </trkpt>
      <trkpt lat="44.73756" lon="4.16826">
        <ele>1205.15</ele>
        <time>2013-08-27T15:01:28Z</time>
      </trkpt>
      <trkpt lat="44.73729" lon="4.16825">
        <ele>1207.55</ele>
        <time>2013-08-27T15:01:41Z</time>
      </trkpt>
      <trkpt lat="44.73728" lon="4.16822">
        <ele>1207.55</ele>
        <time>2013-08-27T15:01:42Z</time>
      </trkpt>
      <trkpt lat="44.73727" lon="4.1682">
        <ele>1207.55</ele>
        <time>2013-08-27T15:01:43Z</time>
      </trkpt>
      <trkpt lat="44.73716" lon="4.168">
        <ele>1210.92</ele>
        <time>2013-08-27T15:01:51Z</time>
      </trkpt>
      <trkpt lat="44.73696" lon="4.16776">
        <ele>1213.8</ele>
        <time>2013-08-27T15:02:03Z</time>
      </trkpt>
      <trkpt lat="44.73672" lon="4.1677">
        <ele>1217.65</ele>
        <time>2013-08-27T15:02:14Z</time>
      </trkpt>
      <trkpt lat="44.73643" lon="4.16779">
        <ele>1220.05</ele>
        <time>2013-08-27T15:02:29Z</time>
      </trkpt>
      <trkpt lat="44.73632" lon="4.1679">
        <ele>1221.49</ele>
        <time>2013-08-27T15:02:37Z</time>
      </trkpt>
      <trkpt lat="44.73631" lon="4.16791">
        <ele>1221.01</ele>
        <time>2013-08-27T15:02:38Z</time>
      </trkpt>
      <trkpt lat="44.73629" lon="4.1679">
        <ele>1220.53</ele>
        <time>2013-08-27T15:02:50Z</time>
      </trkpt>
      <trkpt lat="44.7363" lon="4.1679">
        <ele>1221.01</ele>
        <time>2013-08-27T15:03:22Z</time>
      </trkpt>
      <trkpt lat="44.7363" lon="4.1679">
        <ele>1221.01</ele>
        <time>2013-08-27T15:03:52Z</time>
      </trkpt>
      <trkpt lat="44.7363" lon="4.1679">
        <ele>1221.97</ele>
        <time>2013-08-27T15:04:23Z</time>
      </trkpt>
      <trkpt lat="44.7363" lon="4.1679">
        <ele>1221.49</ele>
        <time>2013-08-27T15:04:58Z</time>
      </trkpt>
      <trkpt lat="44.73631" lon="4.1679">
        <ele>1222.45</ele>
        <time>2013-08-27T15:05:23Z</time>
      </trkpt>
      <trkpt lat="44.73633" lon="4.16789">
        <ele>1222.45</ele>
        <time>2013-08-27T15:05:24Z</time>
      </trkpt>
      <trkpt lat="44.73635" lon="4.16788">
        <ele>1222.45</ele>
        <time>2013-08-27T15:05:25Z</time>
      </trkpt>
      <trkpt lat="44.73637" lon="4.16785">
        <ele>1221.97</ele>
        <time>2013-08-27T15:05:26Z</time>
      </trkpt>
      <trkpt lat="44.73646" lon="4.16778">
        <ele>1221.49</ele>
        <time>2013-08-27T15:05:29Z</time>
      </trkpt>
      <trkpt lat="44.7365" lon="4.16776">
        <ele>1220.53</ele>
        <time>2013-08-27T15:05:30Z</time>
      </trkpt>
      <trkpt lat="44.73654" lon="4.16774">
        <ele>1220.53</ele>
        <time>2013-08-27T15:05:31Z</time>
      </trkpt>
      <trkpt lat="44.73659" lon="4.16772">
        <ele>1217.65</ele>
        <time>2013-08-27T15:05:32Z</time>
      </trkpt>
      <trkpt lat="44.73661" lon="4.16771">
        <ele>1219.57</ele>
        <time>2013-08-27T15:05:33Z</time>
      </trkpt>
      <trkpt lat="44.73716" lon="4.16804">
        <ele>1208.51</ele>
        <time>2013-08-27T15:05:44Z</time>
      </trkpt>
      <trkpt lat="44.73719" lon="4.16813">
        <ele>1207.55</ele>
        <time>2013-08-27T15:05:45Z</time>
      </trkpt>
      <trkpt lat="44.73735" lon="4.16825">
        <ele>1204.19</ele>
        <time>2013-08-27T15:05:48Z</time>
      </trkpt>
      <trkpt lat="44.7374" lon="4.16826">
        <ele>1205.15</ele>
        <time>2013-08-27T15:05:49Z</time>
      </trkpt>
      <trkpt lat="44.73746" lon="4.16825">
        <ele>1204.19</ele>
        <time>2013-08-27T15:05:50Z</time>
      </trkpt>
      <trkpt lat="44.73769" lon="4.16824">
        <ele>1203.23</ele>
        <time>2013-08-27T15:05:54Z</time>
      </trkpt>
      <trkpt lat="44.73792" lon="4.16823">
        <ele>1204.19</ele>
        <time>2013-08-27T15:05:58Z</time>
      </trkpt>
      <trkpt lat="44.73798" lon="4.16821">
        <ele>1204.67</ele>
        <time>2013-08-27T15:05:59Z</time>
      </trkpt>
      <trkpt lat="44.73827" lon="4.16816">
        <ele>1200.82</ele>
        <time>2013-08-27T15:06:03Z</time>
      </trkpt>
      <trkpt lat="44.73844" lon="4.16815">
        <ele>1198.42</ele>
        <time>2013-08-27T15:06:05Z</time>
      </trkpt>
      <trkpt lat="44.73852" lon="4.16815">
        <ele>1198.9</ele>
        <time>2013-08-27T15:06:06Z</time>
      </trkpt>
      <trkpt lat="44.7386" lon="4.16817">
        <ele>1198.9</ele>
        <time>2013-08-27T15:06:07Z</time>
      </trkpt>
      <trkpt lat="44.73868" lon="4.16821">
        <ele>1197.94</ele>
        <time>2013-08-27T15:06:08Z</time>
      </trkpt>
      <trkpt lat="44.73875" lon="4.16825">
        <ele>1197.94</ele>
        <time>2013-08-27T15:06:09Z</time>
      </trkpt>
      <trkpt lat="44.73882" lon="4.16831">
        <ele>1196.5</ele>
        <time>2013-08-27T15:06:10Z</time>
      </trkpt>
      <trkpt lat="44.73896" lon="4.16842">
        <ele>1196.02</ele>
        <time>2013-08-27T15:06:12Z</time>
      </trkpt>
      <trkpt lat="44.73903" lon="4.16849">
        <ele>1195.54</ele>
        <time>2013-08-27T15:06:13Z</time>
      </trkpt>
      <trkpt lat="44.73909" lon="4.16856">
        <ele>1195.54</ele>
        <time>2013-08-27T15:06:14Z</time>
      </trkpt>
      <trkpt lat="44.73922" lon="4.16874">
        <ele>1196.02</ele>
        <time>2013-08-27T15:06:17Z</time>
      </trkpt>
      <trkpt lat="44.73927" lon="4.16876">
        <ele>1195.54</ele>
        <time>2013-08-27T15:06:18Z</time>
      </trkpt>
      <trkpt lat="44.73933" lon="4.16876">
        <ele>1196.02</ele>
        <time>2013-08-27T15:06:19Z</time>
      </trkpt>
      <trkpt lat="44.73938" lon="4.16875">
        <ele>1196.02</ele>
        <time>2013-08-27T15:06:20Z</time>
      </trkpt>
      <trkpt lat="44.73943" lon="4.16874">
        <ele>1196.5</ele>
        <time>2013-08-27T15:06:21Z</time>
      </trkpt>
      <trkpt lat="44.73948" lon="4.16871">
        <ele>1196.98</ele>
        <time>2013-08-27T15:06:22Z</time>
      </trkpt>
      <trkpt lat="44.73953" lon="4.16867">
        <ele>1196.98</ele>
        <time>2013-08-27T15:06:23Z</time>
      </trkpt>
      <trkpt lat="44.73957" lon="4.16863">
        <ele>1197.46</ele>
        <time>2013-08-27T15:06:24Z</time>
      </trkpt>
      <trkpt lat="44.7396" lon="4.16859">
        <ele>1196.98</ele>
        <time>2013-08-27T15:06:25Z</time>
      </trkpt>
      <trkpt lat="44.73962" lon="4.16853">
        <ele>1196.98</ele>
        <time>2013-08-27T15:06:26Z</time>
      </trkpt>
      <trkpt lat="44.73963" lon="4.16847">
        <ele>1196.98</ele>
        <time>2013-08-27T15:06:27Z</time>
      </trkpt>
      <trkpt lat="44.73963" lon="4.16842">
        <ele>1196.98</ele>
        <time>2013-08-27T15:06:28Z</time>
      </trkpt>
      <trkpt lat="44.73962" lon="4.16837">
        <ele>1196.98</ele>
        <time>2013-08-27T15:06:29Z</time>
      </trkpt>
      <trkpt lat="44.7396" lon="4.16832">
        <ele>1196.98</ele>
        <time>2013-08-27T15:06:30Z</time>
      </trkpt>
      <trkpt lat="44.73957" lon="4.16828">
        <ele>1197.46</ele>
        <time>2013-08-27T15:06:31Z</time>
      </trkpt>
      <trkpt lat="44.7394" lon="4.16784">
        <ele>1198.42</ele>
        <time>2013-08-27T15:06:43Z</time>
      </trkpt>
      <trkpt lat="44.73922" lon="4.16736">
        <ele>1200.34</ele>
        <time>2013-08-27T15:06:58Z</time>
      </trkpt>
      <trkpt lat="44.73911" lon="4.16688">
        <ele>1202.27</ele>
        <time>2013-08-27T15:07:13Z</time>
      </trkpt>
      <trkpt lat="44.73897" lon="4.16652">
        <ele>1204.67</ele>
        <time>2013-08-27T15:07:26Z</time>
      </trkpt>
      <trkpt lat="44.73869" lon="4.16619">
        <ele>1206.11</ele>
        <time>2013-08-27T15:07:41Z</time>
      </trkpt>
      <trkpt lat="44.73857" lon="4.16588">
        <ele>1208.03</ele>
        <time>2013-08-27T15:07:52Z</time>
      </trkpt>
      <trkpt lat="44.73856" lon="4.16543">
        <ele>1209.48</ele>
        <time>2013-08-27T15:08:06Z</time>
      </trkpt>
      <trkpt lat="44.73854" lon="4.16522">
        <ele>1210.44</ele>
        <time>2013-08-27T15:08:12Z</time>
      </trkpt>
      <trkpt lat="44.73854" lon="4.16519">
        <ele>1209.48</ele>
        <time>2013-08-27T15:08:13Z</time>
      </trkpt>
      <trkpt lat="44.73853" lon="4.16516">
        <ele>1209.96</ele>
        <time>2013-08-27T15:08:14Z</time>
      </trkpt>
      <trkpt lat="44.73852" lon="4.16513">
        <ele>1210.44</ele>
        <time>2013-08-27T15:08:15Z</time>
      </trkpt>
      <trkpt lat="44.73851" lon="4.1651">
        <ele>1209.96</ele>
        <time>2013-08-27T15:08:16Z</time>
      </trkpt>
      <trkpt lat="44.73847" lon="4.16463">
        <ele>1212.36</ele>
        <time>2013-08-27T15:08:29Z</time>
      </trkpt>
      <trkpt lat="44.73867" lon="4.16425">
        <ele>1214.76</ele>
        <time>2013-08-27T15:08:43Z</time>
      </trkpt>
      <trkpt lat="44.73893" lon="4.16408">
        <ele>1216.69</ele>
        <time>2013-08-27T15:08:55Z</time>
      </trkpt>
      <trkpt lat="44.7392" lon="4.16381">
        <ele>1218.13</ele>
        <time>2013-08-27T15:09:10Z</time>
      </trkpt>
      <trkpt lat="44.73941" lon="4.16351">
        <ele>1220.05</ele>
        <time>2013-08-27T15:09:23Z</time>
      </trkpt>
      <trkpt lat="44.73945" lon="4.16343">
        <ele>1221.01</ele>
        <time>2013-08-27T15:09:26Z</time>
      </trkpt>
      <trkpt lat="44.73946" lon="4.1634">
        <ele>1221.01</ele>
        <time>2013-08-27T15:09:27Z</time>
      </trkpt>
      <trkpt lat="44.73949" lon="4.16325">
        <ele>1221.97</ele>
        <time>2013-08-27T15:09:31Z</time>
      </trkpt>
      <trkpt lat="44.73966" lon="4.16277">
        <ele>1223.42</ele>
        <time>2013-08-27T15:09:46Z</time>
      </trkpt>
      <trkpt lat="44.73974" lon="4.16238">
        <ele>1222.93</ele>
        <time>2013-08-27T15:09:56Z</time>
      </trkpt>
      <trkpt lat="44.73996" lon="4.16195">
        <ele>1225.34</ele>
        <time>2013-08-27T15:10:09Z</time>
      </trkpt>
      <trkpt lat="44.74029" lon="4.16173">
        <ele>1226.3</ele>
        <time>2013-08-27T15:10:22Z</time>
      </trkpt>
      <trkpt lat="44.74055" lon="4.16156">
        <ele>1227.26</ele>
        <time>2013-08-27T15:10:33Z</time>
      </trkpt>
      <trkpt lat="44.74056" lon="4.16152">
        <ele>1227.74</ele>
        <time>2013-08-27T15:10:34Z</time>
      </trkpt>
      <trkpt lat="44.74056" lon="4.16147">
        <ele>1227.74</ele>
        <time>2013-08-27T15:10:35Z</time>
      </trkpt>
      <trkpt lat="44.74057" lon="4.16143">
        <ele>1227.74</ele>
        <time>2013-08-27T15:10:36Z</time>
      </trkpt>
      <trkpt lat="44.74057" lon="4.16138">
        <ele>1228.22</ele>
        <time>2013-08-27T15:10:37Z</time>
      </trkpt>
      <trkpt lat="44.74056" lon="4.16134">
        <ele>1229.18</ele>
        <time>2013-08-27T15:10:38Z</time>
      </trkpt>
      <trkpt lat="44.74055" lon="4.1613">
        <ele>1228.7</ele>
        <time>2013-08-27T15:10:39Z</time>
      </trkpt>
      <trkpt lat="44.74053" lon="4.16127">
        <ele>1229.18</ele>
        <time>2013-08-27T15:10:40Z</time>
      </trkpt>
      <trkpt lat="44.74051" lon="4.16123">
        <ele>1228.7</ele>
        <time>2013-08-27T15:10:41Z</time>
      </trkpt>
      <trkpt lat="44.74049" lon="4.16121">
        <ele>1229.18</ele>
        <time>2013-08-27T15:10:42Z</time>
      </trkpt>
      <trkpt lat="44.74018" lon="4.16114">
        <ele>1229.66</ele>
        <time>2013-08-27T15:10:53Z</time>
      </trkpt>
      <trkpt lat="44.73984" lon="4.16109">
        <ele>1229.66</ele>
        <time>2013-08-27T15:11:05Z</time>
      </trkpt>
      <trkpt lat="44.73945" lon="4.16109">
        <ele>1232.07</ele>
        <time>2013-08-27T15:11:17Z</time>
      </trkpt>
      <trkpt lat="44.739" lon="4.16127">
        <ele>1233.51</ele>
        <time>2013-08-27T15:11:30Z</time>
      </trkpt>
      <trkpt lat="44.73866" lon="4.16131">
        <ele>1234.47</ele>
        <time>2013-08-27T15:11:41Z</time>
      </trkpt>
      <trkpt lat="44.73831" lon="4.1611">
        <ele>1236.39</ele>
        <time>2013-08-27T15:11:53Z</time>
      </trkpt>
      <trkpt lat="44.73801" lon="4.16069">
        <ele>1237.83</ele>
        <time>2013-08-27T15:12:08Z</time>
      </trkpt>
      <trkpt lat="44.73801" lon="4.16067">
        <ele>1237.35</ele>
        <time>2013-08-27T15:12:09Z</time>
      </trkpt>
      <trkpt lat="44.73801" lon="4.16064">
        <ele>1237.83</ele>
        <time>2013-08-27T15:12:10Z</time>
      </trkpt>
      <trkpt lat="44.738" lon="4.16058">
        <ele>1237.35</ele>
        <time>2013-08-27T15:12:19Z</time>
      </trkpt>
      <trkpt lat="44.73798" lon="4.16058">
        <ele>1237.83</ele>
        <time>2013-08-27T15:12:21Z</time>
      </trkpt>
      <trkpt lat="44.73796" lon="4.1605">
        <ele>1238.32</ele>
        <time>2013-08-27T15:12:34Z</time>
      </trkpt>
      <trkpt lat="44.73795" lon="4.16043">
        <ele>1238.32</ele>
        <time>2013-08-27T15:12:56Z</time>
      </trkpt>
      <trkpt lat="44.73795" lon="4.16042">
        <ele>1238.8</ele>
        <time>2013-08-27T15:13:18Z</time>
      </trkpt>
      <trkpt lat="44.73795" lon="4.16042">
        <ele>1238.32</ele>
        <time>2013-08-27T15:13:49Z</time>
      </trkpt>
      <trkpt lat="44.73794" lon="4.16043">
        <ele>1238.32</ele>
        <time>2013-08-27T15:14:12Z</time>
      </trkpt>
      <trkpt lat="44.73791" lon="4.16047">
        <ele>1238.32</ele>
        <time>2013-08-27T15:14:17Z</time>
      </trkpt>
      <trkpt lat="44.73791" lon="4.16048">
        <ele>1238.32</ele>
        <time>2013-08-27T15:14:18Z</time>
      </trkpt>
      <trkpt lat="44.73792" lon="4.16056">
        <ele>1237.35</ele>
        <time>2013-08-27T15:14:27Z</time>
      </trkpt>
      <trkpt lat="44.73795" lon="4.16067">
        <ele>1237.83</ele>
        <time>2013-08-27T15:14:35Z</time>
      </trkpt>
      <trkpt lat="44.73795" lon="4.16069">
        <ele>1237.83</ele>
        <time>2013-08-27T15:14:36Z</time>
      </trkpt>
      <trkpt lat="44.73796" lon="4.16074">
        <ele>1237.35</ele>
        <time>2013-08-27T15:14:39Z</time>
      </trkpt>
      <trkpt lat="44.73794" lon="4.16078">
        <ele>1236.87</ele>
        <time>2013-08-27T15:14:42Z</time>
      </trkpt>
      <trkpt lat="44.73793" lon="4.16079">
        <ele>1236.87</ele>
        <time>2013-08-27T15:14:43Z</time>
      </trkpt>
      <trkpt lat="44.73792" lon="4.1608">
        <ele>1237.35</ele>
        <time>2013-08-27T15:14:44Z</time>
      </trkpt>
      <trkpt lat="44.73786" lon="4.16092">
        <ele>1235.91</ele>
        <time>2013-08-27T15:14:58Z</time>
      </trkpt>
      <trkpt lat="44.73787" lon="4.16093">
        <ele>1235.43</ele>
        <time>2013-08-27T15:15:18Z</time>
      </trkpt>
      <trkpt lat="44.73795" lon="4.16027">
        <ele>1239.28</ele>
        <time>2013-08-27T15:25:43Z</time>
      </trkpt>
      <trkpt lat="44.73795" lon="4.16028">
        <ele>1239.28</ele>
        <time>2013-08-27T15:25:44Z</time>
      </trkpt>
    </trkseg>
  </trk>
</gpx>